<?xml version="1.0" encoding="UTF-8" standalone="no" ?>
<gpx xmlns="http://www.topografix.com/GPX/1/1" xmlns:xsi="http://www.w3.org/2001/XMLSchema-instance" xsi:schemaLocation="http://www.topografix.com/GPX/1/1 http://www.topografix.com/GPX/1/1/gpx.xsd" version="1.1" creator="VisuGPX - https://www.visugpx.com">
  <metadata>
    <name>Des Mouettes aux Cigales 2021</name>
  </metadata>
  <trk>
    <name><![CDATA[Étape 11 : Vion - Viviers]]></name>
    <extensions>
      <line xmlns="http://www.topografix.com/GPX/gpx_style/0/2">
        <color>880088</color>
        <width>4</width>
      </line>
    </extensions>
    <trkseg>
      <trkpt lat="45.12119" lon="4.79875">
        <ele>143.695669</ele>
        <time>2021-09-15T04:39:58.000Z</time>
      </trkpt>
      <trkpt lat="45.12119" lon="4.79875">
        <ele>143.695669</ele>
        <time>2021-09-15T04:39:59.000Z</time>
      </trkpt>
      <trkpt lat="45.12123" lon="4.79874">
        <ele>143.695669</ele>
        <time>2021-09-15T05:00:20.000Z</time>
      </trkpt>
      <trkpt lat="45.12123" lon="4.79875">
        <ele>143.695669</ele>
        <time>2021-09-15T05:00:23.000Z</time>
      </trkpt>
      <trkpt lat="45.12123" lon="4.79886">
        <ele>143.695669</ele>
        <time>2021-09-15T05:00:30.000Z</time>
      </trkpt>
      <trkpt lat="45.12145" lon="4.7989">
        <ele>143.695669</ele>
        <time>2021-09-15T05:00:36.000Z</time>
      </trkpt>
      <trkpt lat="45.12144" lon="4.79886">
        <ele>143.695669</ele>
        <time>2021-09-15T05:00:41.000Z</time>
      </trkpt>
      <trkpt lat="45.12144" lon="4.79884">
        <ele>143.695669</ele>
        <time>2021-09-15T05:00:43.000Z</time>
      </trkpt>
      <trkpt lat="45.12145" lon="4.79883">
        <ele>143.695669</ele>
        <time>2021-09-15T05:00:46.000Z</time>
      </trkpt>
      <trkpt lat="45.12138" lon="4.79897">
        <ele>143.695669</ele>
        <time>2021-09-15T05:03:59.000Z</time>
      </trkpt>
      <trkpt lat="45.12128" lon="4.79903">
        <ele>143.695669</ele>
        <time>2021-09-15T05:04:05.000Z</time>
      </trkpt>
      <trkpt lat="45.12124" lon="4.79905">
        <ele>143.695669</ele>
        <time>2021-09-15T05:04:08.000Z</time>
      </trkpt>
      <trkpt lat="45.12125" lon="4.79912">
        <ele>143.695669</ele>
        <time>2021-09-15T05:04:11.000Z</time>
      </trkpt>
      <trkpt lat="45.12126" lon="4.79938">
        <ele>143.64053</ele>
        <time>2021-09-15T05:04:17.000Z</time>
      </trkpt>
      <trkpt lat="45.12129" lon="4.7997">
        <ele>142.644805</ele>
        <time>2021-09-15T05:04:24.000Z</time>
      </trkpt>
      <trkpt lat="45.12131" lon="4.79989">
        <ele>142.069963</ele>
        <time>2021-09-15T05:04:29.000Z</time>
      </trkpt>
      <trkpt lat="45.12124" lon="4.80006">
        <ele>141.454407</ele>
        <time>2021-09-15T05:04:34.000Z</time>
      </trkpt>
      <trkpt lat="45.1212" lon="4.80016">
        <ele>141.103797</ele>
        <time>2021-09-15T05:04:37.000Z</time>
      </trkpt>
      <trkpt lat="45.12119" lon="4.8002">
        <ele>140.968204</ele>
        <time>2021-09-15T05:04:38.000Z</time>
      </trkpt>
      <trkpt lat="45.12119" lon="4.8002">
        <ele>140.968204</ele>
        <time>2021-09-15T05:04:39.000Z</time>
      </trkpt>
      <trkpt lat="45.12116" lon="4.80031">
        <ele>140.61516</ele>
        <time>2021-09-15T05:04:42.000Z</time>
      </trkpt>
      <trkpt lat="45.12117" lon="4.80032">
        <ele>140.561543</ele>
        <time>2021-09-15T05:04:46.000Z</time>
      </trkpt>
      <trkpt lat="45.12116" lon="4.80065">
        <ele>139.531039</ele>
        <time>2021-09-15T05:04:52.000Z</time>
      </trkpt>
      <trkpt lat="45.12114" lon="4.80093">
        <ele>138.651398</ele>
        <time>2021-09-15T05:04:57.000Z</time>
      </trkpt>
      <trkpt lat="45.12106" lon="4.80096">
        <ele>138.308885</ele>
        <time>2021-09-15T05:05:02.000Z</time>
      </trkpt>
      <trkpt lat="45.12094" lon="4.801">
        <ele>137.745369</ele>
        <time>2021-09-15T05:05:06.000Z</time>
      </trkpt>
      <trkpt lat="45.1209" lon="4.80123">
        <ele>137.011066</ele>
        <time>2021-09-15T05:05:08.000Z</time>
      </trkpt>
      <trkpt lat="45.12088" lon="4.8014">
        <ele>136.505723</ele>
        <time>2021-09-15T05:05:11.000Z</time>
      </trkpt>
      <trkpt lat="45.12087" lon="4.80149">
        <ele>136.193605</ele>
        <time>2021-09-15T05:05:13.000Z</time>
      </trkpt>
      <trkpt lat="45.12086" lon="4.80154">
        <ele>136.042915</ele>
        <time>2021-09-15T05:05:14.000Z</time>
      </trkpt>
      <trkpt lat="45.12082" lon="4.80181">
        <ele>135.517023</ele>
        <time>2021-09-15T05:05:18.000Z</time>
      </trkpt>
      <trkpt lat="45.12077" lon="4.80206">
        <ele>135.111531</ele>
        <time>2021-09-15T05:05:23.000Z</time>
      </trkpt>
      <trkpt lat="45.12066" lon="4.80253">
        <ele>134.351116</ele>
        <time>2021-09-15T05:05:29.000Z</time>
      </trkpt>
      <trkpt lat="45.12052" lon="4.80324">
        <ele>133.217357</ele>
        <time>2021-09-15T05:05:37.000Z</time>
      </trkpt>
      <trkpt lat="45.1205" lon="4.8034">
        <ele>132.974719</ele>
        <time>2021-09-15T05:05:40.000Z</time>
      </trkpt>
      <trkpt lat="45.12048" lon="4.80355">
        <ele>132.733592</ele>
        <time>2021-09-15T05:05:42.000Z</time>
      </trkpt>
      <trkpt lat="45.12046" lon="4.80362">
        <ele>132.621225</ele>
        <time>2021-09-15T05:05:43.000Z</time>
      </trkpt>
      <trkpt lat="45.12043" lon="4.80368">
        <ele>132.503355</ele>
        <time>2021-09-15T05:05:44.000Z</time>
      </trkpt>
      <trkpt lat="45.12037" lon="4.80381">
        <ele>132.276268</ele>
        <time>2021-09-15T05:05:46.000Z</time>
      </trkpt>
      <trkpt lat="45.12034" lon="4.80387">
        <ele>132.162211</ele>
        <time>2021-09-15T05:05:47.000Z</time>
      </trkpt>
      <trkpt lat="45.12024" lon="4.80401">
        <ele>131.863552</ele>
        <time>2021-09-15T05:05:50.000Z</time>
      </trkpt>
      <trkpt lat="45.12018" lon="4.80409">
        <ele>131.717144</ele>
        <time>2021-09-15T05:05:52.000Z</time>
      </trkpt>
      <trkpt lat="45.12015" lon="4.80413">
        <ele>131.643305</ele>
        <time>2021-09-15T05:05:53.000Z</time>
      </trkpt>
      <trkpt lat="45.12002" lon="4.80431">
        <ele>131.320489</ele>
        <time>2021-09-15T05:05:57.000Z</time>
      </trkpt>
      <trkpt lat="45.11998" lon="4.80435">
        <ele>131.238481</ele>
        <time>2021-09-15T05:05:58.000Z</time>
      </trkpt>
      <trkpt lat="45.11989" lon="4.80449">
        <ele>131.001716</ele>
        <time>2021-09-15T05:06:01.000Z</time>
      </trkpt>
      <trkpt lat="45.11987" lon="4.80454">
        <ele>130.925769</ele>
        <time>2021-09-15T05:06:02.000Z</time>
      </trkpt>
      <trkpt lat="45.11984" lon="4.80459">
        <ele>130.848653</ele>
        <time>2021-09-15T05:06:03.000Z</time>
      </trkpt>
      <trkpt lat="45.11974" lon="4.80474">
        <ele>130.59293</ele>
        <time>2021-09-15T05:06:06.000Z</time>
      </trkpt>
      <trkpt lat="45.11955" lon="4.80498">
        <ele>130.134295</ele>
        <time>2021-09-15T05:06:11.000Z</time>
      </trkpt>
      <trkpt lat="45.1195" lon="4.80503">
        <ele>130.040866</ele>
        <time>2021-09-15T05:06:12.000Z</time>
      </trkpt>
      <trkpt lat="45.11942" lon="4.80513">
        <ele>129.840819</ele>
        <time>2021-09-15T05:06:14.000Z</time>
      </trkpt>
      <trkpt lat="45.11928" lon="4.80529">
        <ele>129.517646</ele>
        <time>2021-09-15T05:06:17.000Z</time>
      </trkpt>
      <trkpt lat="45.11913" lon="4.80546">
        <ele>129.187191</ele>
        <time>2021-09-15T05:06:20.000Z</time>
      </trkpt>
      <trkpt lat="45.11894" lon="4.80566">
        <ele>128.760744</ele>
        <time>2021-09-15T05:06:23.000Z</time>
      </trkpt>
      <trkpt lat="45.11879" lon="4.8058">
        <ele>128.638401</ele>
        <time>2021-09-15T05:06:27.000Z</time>
      </trkpt>
      <trkpt lat="45.11868" lon="4.80589">
        <ele>128.573504</ele>
        <time>2021-09-15T05:06:29.000Z</time>
      </trkpt>
      <trkpt lat="45.11833" lon="4.80621">
        <ele>128.348544</ele>
        <time>2021-09-15T05:06:36.000Z</time>
      </trkpt>
      <trkpt lat="45.11795" lon="4.8065">
        <ele>128.121872</ele>
        <time>2021-09-15T05:06:43.000Z</time>
      </trkpt>
      <trkpt lat="45.11756" lon="4.80677">
        <ele>127.889702</ele>
        <time>2021-09-15T05:06:50.000Z</time>
      </trkpt>
      <trkpt lat="45.11729" lon="4.80696">
        <ele>127.777145</ele>
        <time>2021-09-15T05:06:55.000Z</time>
      </trkpt>
      <trkpt lat="45.11701" lon="4.80716">
        <ele>127.838505</ele>
        <time>2021-09-15T05:07:00.000Z</time>
      </trkpt>
      <trkpt lat="45.11672" lon="4.80736">
        <ele>127.902678</ele>
        <time>2021-09-15T05:07:05.000Z</time>
      </trkpt>
      <trkpt lat="45.11634" lon="4.80766">
        <ele>127.989275</ele>
        <time>2021-09-15T05:07:12.000Z</time>
      </trkpt>
      <trkpt lat="45.1162" lon="4.80777">
        <ele>128.020899</ele>
        <time>2021-09-15T05:07:15.000Z</time>
      </trkpt>
      <trkpt lat="45.11606" lon="4.80789">
        <ele>128.054249</ele>
        <time>2021-09-15T05:07:18.000Z</time>
      </trkpt>
      <trkpt lat="45.1158" lon="4.80812">
        <ele>128.1142</ele>
        <time>2021-09-15T05:07:23.000Z</time>
      </trkpt>
      <trkpt lat="45.11537" lon="4.80851">
        <ele>128.311519</ele>
        <time>2021-09-15T05:07:31.000Z</time>
      </trkpt>
      <trkpt lat="45.115" lon="4.80883">
        <ele>128.484381</ele>
        <time>2021-09-15T05:07:38.000Z</time>
      </trkpt>
      <trkpt lat="45.11472" lon="4.80908">
        <ele>128.617268</ele>
        <time>2021-09-15T05:07:43.000Z</time>
      </trkpt>
      <trkpt lat="45.11438" lon="4.80938">
        <ele>128.777894</ele>
        <time>2021-09-15T05:07:49.000Z</time>
      </trkpt>
      <trkpt lat="45.11409" lon="4.80963">
        <ele>128.874769</ele>
        <time>2021-09-15T05:07:54.000Z</time>
      </trkpt>
      <trkpt lat="45.11403" lon="4.80968">
        <ele>128.887818</ele>
        <time>2021-09-15T05:07:55.000Z</time>
      </trkpt>
      <trkpt lat="45.11391" lon="4.80978">
        <ele>128.915423</ele>
        <time>2021-09-15T05:07:57.000Z</time>
      </trkpt>
      <trkpt lat="45.11385" lon="4.80983">
        <ele>128.92895</ele>
        <time>2021-09-15T05:07:58.000Z</time>
      </trkpt>
      <trkpt lat="45.11365" lon="4.81009">
        <ele>128.982509</ele>
        <time>2021-09-15T05:08:02.000Z</time>
      </trkpt>
      <trkpt lat="45.1136" lon="4.81016">
        <ele>128.995991</ele>
        <time>2021-09-15T05:08:03.000Z</time>
      </trkpt>
      <trkpt lat="45.11351" lon="4.8103">
        <ele>129.023054</ele>
        <time>2021-09-15T05:08:05.000Z</time>
      </trkpt>
      <trkpt lat="45.11339" lon="4.81042">
        <ele>129.050367</ele>
        <time>2021-09-15T05:08:07.000Z</time>
      </trkpt>
      <trkpt lat="45.11307" lon="4.81055">
        <ele>129.115155</ele>
        <time>2021-09-15T05:08:12.000Z</time>
      </trkpt>
      <trkpt lat="45.11271" lon="4.81075">
        <ele>129.189196</ele>
        <time>2021-09-15T05:08:18.000Z</time>
      </trkpt>
      <trkpt lat="45.11241" lon="4.81095">
        <ele>129.097112</ele>
        <time>2021-09-15T05:08:23.000Z</time>
      </trkpt>
      <trkpt lat="45.1123" lon="4.81105">
        <ele>129.05949</ele>
        <time>2021-09-15T05:08:25.000Z</time>
      </trkpt>
      <trkpt lat="45.11209" lon="4.81129">
        <ele>128.985791</ele>
        <time>2021-09-15T05:08:29.000Z</time>
      </trkpt>
      <trkpt lat="45.112" lon="4.81142">
        <ele>128.95002</ele>
        <time>2021-09-15T05:08:31.000Z</time>
      </trkpt>
      <trkpt lat="45.11189" lon="4.81164">
        <ele>128.896581</ele>
        <time>2021-09-15T05:08:34.000Z</time>
      </trkpt>
      <trkpt lat="45.1117" lon="4.81202">
        <ele>128.804743</ele>
        <time>2021-09-15T05:08:39.000Z</time>
      </trkpt>
      <trkpt lat="45.11166" lon="4.8121">
        <ele>128.785863</ele>
        <time>2021-09-15T05:08:40.000Z</time>
      </trkpt>
      <trkpt lat="45.11162" lon="4.81218">
        <ele>128.767624</ele>
        <time>2021-09-15T05:08:41.000Z</time>
      </trkpt>
      <trkpt lat="45.1115" lon="4.81228">
        <ele>128.729269</ele>
        <time>2021-09-15T05:08:43.000Z</time>
      </trkpt>
      <trkpt lat="45.1111" lon="4.8124">
        <ele>128.584907</ele>
        <time>2021-09-15T05:08:49.000Z</time>
      </trkpt>
      <trkpt lat="45.1107" lon="4.81248">
        <ele>128.429144</ele>
        <time>2021-09-15T05:08:55.000Z</time>
      </trkpt>
      <trkpt lat="45.11024" lon="4.81261">
        <ele>128.249075</ele>
        <time>2021-09-15T05:09:02.000Z</time>
      </trkpt>
      <trkpt lat="45.10982" lon="4.81293">
        <ele>128.066862</ele>
        <time>2021-09-15T05:09:09.000Z</time>
      </trkpt>
      <trkpt lat="45.10966" lon="4.81309">
        <ele>127.989177</ele>
        <time>2021-09-15T05:09:12.000Z</time>
      </trkpt>
      <trkpt lat="45.10956" lon="4.81322">
        <ele>127.938903</ele>
        <time>2021-09-15T05:09:14.000Z</time>
      </trkpt>
      <trkpt lat="45.10951" lon="4.81328">
        <ele>127.914143</ele>
        <time>2021-09-15T05:09:15.000Z</time>
      </trkpt>
      <trkpt lat="45.10942" lon="4.81341">
        <ele>127.864623</ele>
        <time>2021-09-15T05:09:17.000Z</time>
      </trkpt>
      <trkpt lat="45.10929" lon="4.81363">
        <ele>127.791457</ele>
        <time>2021-09-15T05:09:20.000Z</time>
      </trkpt>
      <trkpt lat="45.10902" lon="4.81424">
        <ele>127.597115</ele>
        <time>2021-09-15T05:09:28.000Z</time>
      </trkpt>
      <trkpt lat="45.10871" lon="4.81483">
        <ele>127.402303</ele>
        <time>2021-09-15T05:09:36.000Z</time>
      </trkpt>
      <trkpt lat="45.10836" lon="4.81549">
        <ele>127.102439</ele>
        <time>2021-09-15T05:09:45.000Z</time>
      </trkpt>
      <trkpt lat="45.10824" lon="4.81572">
        <ele>126.984957</ele>
        <time>2021-09-15T05:09:48.000Z</time>
      </trkpt>
      <trkpt lat="45.10816" lon="4.81586">
        <ele>126.908585</ele>
        <time>2021-09-15T05:09:50.000Z</time>
      </trkpt>
      <trkpt lat="45.10782" lon="4.81654">
        <ele>126.559714</ele>
        <time>2021-09-15T05:09:59.000Z</time>
      </trkpt>
      <trkpt lat="45.10754" lon="4.81694">
        <ele>126.322554</ele>
        <time>2021-09-15T05:10:05.000Z</time>
      </trkpt>
      <trkpt lat="45.10728" lon="4.81722">
        <ele>126.202828</ele>
        <time>2021-09-15T05:10:10.000Z</time>
      </trkpt>
      <trkpt lat="45.10696" lon="4.81752">
        <ele>126.111153</ele>
        <time>2021-09-15T05:10:16.000Z</time>
      </trkpt>
      <trkpt lat="45.10649" lon="4.81799">
        <ele>125.972484</ele>
        <time>2021-09-15T05:10:25.000Z</time>
      </trkpt>
      <trkpt lat="45.10612" lon="4.81838">
        <ele>125.862083</ele>
        <time>2021-09-15T05:10:32.000Z</time>
      </trkpt>
      <trkpt lat="45.10596" lon="4.81855">
        <ele>125.825734</ele>
        <time>2021-09-15T05:10:35.000Z</time>
      </trkpt>
      <trkpt lat="45.1058" lon="4.81874">
        <ele>125.864198</ele>
        <time>2021-09-15T05:10:38.000Z</time>
      </trkpt>
      <trkpt lat="45.10555" lon="4.81905">
        <ele>125.925574</ele>
        <time>2021-09-15T05:10:43.000Z</time>
      </trkpt>
      <trkpt lat="45.10518" lon="4.81942">
        <ele>126.010716</ele>
        <time>2021-09-15T05:10:50.000Z</time>
      </trkpt>
      <trkpt lat="45.10473" lon="4.81982">
        <ele>126.109451</ele>
        <time>2021-09-15T05:10:58.000Z</time>
      </trkpt>
      <trkpt lat="45.10434" lon="4.82018">
        <ele>126.102021</ele>
        <time>2021-09-15T05:11:05.000Z</time>
      </trkpt>
      <trkpt lat="45.10418" lon="4.82033">
        <ele>126.055998</ele>
        <time>2021-09-15T05:11:08.000Z</time>
      </trkpt>
      <trkpt lat="45.10408" lon="4.82045">
        <ele>126.024987</ele>
        <time>2021-09-15T05:11:10.000Z</time>
      </trkpt>
      <trkpt lat="45.10378" lon="4.82079">
        <ele>125.932803</ele>
        <time>2021-09-15T05:11:16.000Z</time>
      </trkpt>
      <trkpt lat="45.1035" lon="4.82113">
        <ele>125.843655</ele>
        <time>2021-09-15T05:11:22.000Z</time>
      </trkpt>
      <trkpt lat="45.10333" lon="4.82132">
        <ele>125.791436</ele>
        <time>2021-09-15T05:11:26.000Z</time>
      </trkpt>
      <trkpt lat="45.10331" lon="4.82135">
        <ele>125.784376</ele>
        <time>2021-09-15T05:11:27.000Z</time>
      </trkpt>
      <trkpt lat="45.10344" lon="4.82147">
        <ele>125.746812</ele>
        <time>2021-09-15T05:11:29.000Z</time>
      </trkpt>
      <trkpt lat="45.10339" lon="4.82126">
        <ele>125.629451</ele>
        <time>2021-09-15T05:11:33.000Z</time>
      </trkpt>
      <trkpt lat="45.10344" lon="4.8212">
        <ele>125.518151</ele>
        <time>2021-09-15T05:11:35.000Z</time>
      </trkpt>
      <trkpt lat="45.10352" lon="4.8211">
        <ele>125.347813</ele>
        <time>2021-09-15T05:11:36.000Z</time>
      </trkpt>
      <trkpt lat="45.10349" lon="4.82134">
        <ele>125.064294</ele>
        <time>2021-09-15T05:11:39.000Z</time>
      </trkpt>
      <trkpt lat="45.10346" lon="4.8214">
        <ele>124.98961</ele>
        <time>2021-09-15T05:11:40.000Z</time>
      </trkpt>
      <trkpt lat="45.10341" lon="4.82153">
        <ele>124.81682</ele>
        <time>2021-09-15T05:11:42.000Z</time>
      </trkpt>
      <trkpt lat="45.10313" lon="4.82186">
        <ele>124.239147</ele>
        <time>2021-09-15T05:11:48.000Z</time>
      </trkpt>
      <trkpt lat="45.10284" lon="4.82219">
        <ele>123.647072</ele>
        <time>2021-09-15T05:11:54.000Z</time>
      </trkpt>
      <trkpt lat="45.10279" lon="4.82224">
        <ele>123.545547</ele>
        <time>2021-09-15T05:11:55.000Z</time>
      </trkpt>
      <trkpt lat="45.10269" lon="4.82236">
        <ele>123.345168</ele>
        <time>2021-09-15T05:11:57.000Z</time>
      </trkpt>
      <trkpt lat="45.10261" lon="4.8225">
        <ele>123.132996</ele>
        <time>2021-09-15T05:11:59.000Z</time>
      </trkpt>
      <trkpt lat="45.10259" lon="4.82258">
        <ele>123.034855</ele>
        <time>2021-09-15T05:12:00.000Z</time>
      </trkpt>
      <trkpt lat="45.10256" lon="4.82274">
        <ele>122.847534</ele>
        <time>2021-09-15T05:12:02.000Z</time>
      </trkpt>
      <trkpt lat="45.10251" lon="4.82291">
        <ele>122.582542</ele>
        <time>2021-09-15T05:12:04.000Z</time>
      </trkpt>
      <trkpt lat="45.10222" lon="4.82303">
        <ele>121.928327</ele>
        <time>2021-09-15T05:12:09.000Z</time>
      </trkpt>
      <trkpt lat="45.10191" lon="4.82318">
        <ele>121.235958</ele>
        <time>2021-09-15T05:12:14.000Z</time>
      </trkpt>
      <trkpt lat="45.10162" lon="4.82335">
        <ele>120.561469</ele>
        <time>2021-09-15T05:12:19.000Z</time>
      </trkpt>
      <trkpt lat="45.10156" lon="4.82338">
        <ele>120.425324</ele>
        <time>2021-09-15T05:12:20.000Z</time>
      </trkpt>
      <trkpt lat="45.10126" lon="4.82356">
        <ele>119.743785</ele>
        <time>2021-09-15T05:12:25.000Z</time>
      </trkpt>
      <trkpt lat="45.10115" lon="4.82364">
        <ele>119.467699</ele>
        <time>2021-09-15T05:12:27.000Z</time>
      </trkpt>
      <trkpt lat="45.10099" lon="4.82377">
        <ele>119.078065</ele>
        <time>2021-09-15T05:12:30.000Z</time>
      </trkpt>
      <trkpt lat="45.10053" lon="4.82404">
        <ele>118.137688</ele>
        <time>2021-09-15T05:12:38.000Z</time>
      </trkpt>
      <trkpt lat="45.10014" lon="4.82422">
        <ele>117.360981</ele>
        <time>2021-09-15T05:12:45.000Z</time>
      </trkpt>
      <trkpt lat="45.09972" lon="4.82439">
        <ele>116.531557</ele>
        <time>2021-09-15T05:12:52.000Z</time>
      </trkpt>
      <trkpt lat="45.0993" lon="4.82456">
        <ele>115.707575</ele>
        <time>2021-09-15T05:12:59.000Z</time>
      </trkpt>
      <trkpt lat="45.09889" lon="4.82472">
        <ele>114.839659</ele>
        <time>2021-09-15T05:13:06.000Z</time>
      </trkpt>
      <trkpt lat="45.09855" lon="4.82486">
        <ele>114.109448</ele>
        <time>2021-09-15T05:13:12.000Z</time>
      </trkpt>
      <trkpt lat="45.09813" lon="4.82507">
        <ele>113.202525</ele>
        <time>2021-09-15T05:13:18.000Z</time>
      </trkpt>
      <trkpt lat="45.09789" lon="4.82519">
        <ele>112.678719</ele>
        <time>2021-09-15T05:13:22.000Z</time>
      </trkpt>
      <trkpt lat="45.09778" lon="4.82524">
        <ele>112.427038</ele>
        <time>2021-09-15T05:13:24.000Z</time>
      </trkpt>
      <trkpt lat="45.09736" lon="4.82545">
        <ele>111.423267</ele>
        <time>2021-09-15T05:13:31.000Z</time>
      </trkpt>
      <trkpt lat="45.097" lon="4.82565">
        <ele>110.432176</ele>
        <time>2021-09-15T05:13:37.000Z</time>
      </trkpt>
      <trkpt lat="45.09697" lon="4.82571">
        <ele>110.293399</ele>
        <time>2021-09-15T05:13:38.000Z</time>
      </trkpt>
      <trkpt lat="45.0969" lon="4.82583">
        <ele>110.015635</ele>
        <time>2021-09-15T05:13:40.000Z</time>
      </trkpt>
      <trkpt lat="45.09684" lon="4.82594">
        <ele>109.758523</ele>
        <time>2021-09-15T05:13:42.000Z</time>
      </trkpt>
      <trkpt lat="45.09678" lon="4.82604">
        <ele>109.525079</ele>
        <time>2021-09-15T05:13:44.000Z</time>
      </trkpt>
      <trkpt lat="45.09674" lon="4.82608">
        <ele>109.412153</ele>
        <time>2021-09-15T05:13:45.000Z</time>
      </trkpt>
      <trkpt lat="45.09671" lon="4.82612">
        <ele>109.310864</ele>
        <time>2021-09-15T05:13:46.000Z</time>
      </trkpt>
      <trkpt lat="45.09659" lon="4.82614">
        <ele>108.993857</ele>
        <time>2021-09-15T05:13:48.000Z</time>
      </trkpt>
      <trkpt lat="45.0965" lon="4.82611">
        <ele>108.755918</ele>
        <time>2021-09-15T05:13:50.000Z</time>
      </trkpt>
      <trkpt lat="45.09646" lon="4.8261">
        <ele>108.664314</ele>
        <time>2021-09-15T05:13:51.000Z</time>
      </trkpt>
      <trkpt lat="45.09641" lon="4.82614">
        <ele>108.506032</ele>
        <time>2021-09-15T05:13:52.000Z</time>
      </trkpt>
      <trkpt lat="45.09639" lon="4.8262">
        <ele>108.380071</ele>
        <time>2021-09-15T05:13:53.000Z</time>
      </trkpt>
      <trkpt lat="45.09639" lon="4.8262">
        <ele>108.376943</ele>
        <time>2021-09-15T05:13:54.000Z</time>
      </trkpt>
      <trkpt lat="45.0963" lon="4.82643">
        <ele>107.905768</ele>
        <time>2021-09-15T05:13:57.000Z</time>
      </trkpt>
      <trkpt lat="45.09603" lon="4.82703">
        <ele>106.722708</ele>
        <time>2021-09-15T05:14:04.000Z</time>
      </trkpt>
      <trkpt lat="45.096" lon="4.8271">
        <ele>106.586329</ele>
        <time>2021-09-15T05:14:06.000Z</time>
      </trkpt>
      <trkpt lat="45.09588" lon="4.8273">
        <ele>106.169767</ele>
        <time>2021-09-15T05:14:09.000Z</time>
      </trkpt>
      <trkpt lat="45.09556" lon="4.82761">
        <ele>105.310188</ele>
        <time>2021-09-15T05:14:15.000Z</time>
      </trkpt>
      <trkpt lat="45.09529" lon="4.82787">
        <ele>104.575348</ele>
        <time>2021-09-15T05:14:20.000Z</time>
      </trkpt>
      <trkpt lat="45.09496" lon="4.82821">
        <ele>103.678498</ele>
        <time>2021-09-15T05:14:26.000Z</time>
      </trkpt>
      <trkpt lat="45.09485" lon="4.82833">
        <ele>103.372871</ele>
        <time>2021-09-15T05:14:28.000Z</time>
      </trkpt>
      <trkpt lat="45.09468" lon="4.82846">
        <ele>103.160325</ele>
        <time>2021-09-15T05:14:31.000Z</time>
      </trkpt>
      <trkpt lat="45.09455" lon="4.82854">
        <ele>103.041031</ele>
        <time>2021-09-15T05:14:33.000Z</time>
      </trkpt>
      <trkpt lat="45.09438" lon="4.82856">
        <ele>102.895359</ele>
        <time>2021-09-15T05:14:36.000Z</time>
      </trkpt>
      <trkpt lat="45.09397" lon="4.82863">
        <ele>102.542937</ele>
        <time>2021-09-15T05:14:43.000Z</time>
      </trkpt>
      <trkpt lat="45.09374" lon="4.82867">
        <ele>102.340075</ele>
        <time>2021-09-15T05:14:47.000Z</time>
      </trkpt>
      <trkpt lat="45.0935" lon="4.82875">
        <ele>102.132738</ele>
        <time>2021-09-15T05:14:51.000Z</time>
      </trkpt>
      <trkpt lat="45.09344" lon="4.82877">
        <ele>102.0808</ele>
        <time>2021-09-15T05:14:52.000Z</time>
      </trkpt>
      <trkpt lat="45.09297" lon="4.82894">
        <ele>101.607774</ele>
        <time>2021-09-15T05:15:00.000Z</time>
      </trkpt>
      <trkpt lat="45.09261" lon="4.8291">
        <ele>101.110008</ele>
        <time>2021-09-15T05:15:06.000Z</time>
      </trkpt>
      <trkpt lat="45.09225" lon="4.82929">
        <ele>100.60727</ele>
        <time>2021-09-15T05:15:12.000Z</time>
      </trkpt>
      <trkpt lat="45.09179" lon="4.82962">
        <ele>99.925381</ele>
        <time>2021-09-15T05:15:20.000Z</time>
      </trkpt>
      <trkpt lat="45.09141" lon="4.82976">
        <ele>99.417702</ele>
        <time>2021-09-15T05:15:26.000Z</time>
      </trkpt>
      <trkpt lat="45.09102" lon="4.82987">
        <ele>98.887478</ele>
        <time>2021-09-15T05:15:32.000Z</time>
      </trkpt>
      <trkpt lat="45.09051" lon="4.82999">
        <ele>98.199196</ele>
        <time>2021-09-15T05:15:40.000Z</time>
      </trkpt>
      <trkpt lat="45.08996" lon="4.83023">
        <ele>97.440003</ele>
        <time>2021-09-15T05:15:49.000Z</time>
      </trkpt>
      <trkpt lat="45.0899" lon="4.83026">
        <ele>97.359964</ele>
        <time>2021-09-15T05:15:50.000Z</time>
      </trkpt>
      <trkpt lat="45.08941" lon="4.83034">
        <ele>96.871953</ele>
        <time>2021-09-15T05:15:58.000Z</time>
      </trkpt>
      <trkpt lat="45.08898" lon="4.83039">
        <ele>96.59742</ele>
        <time>2021-09-15T05:16:05.000Z</time>
      </trkpt>
      <trkpt lat="45.08855" lon="4.83043">
        <ele>96.328568</ele>
        <time>2021-09-15T05:16:12.000Z</time>
      </trkpt>
      <trkpt lat="45.08812" lon="4.83045">
        <ele>96.057155</ele>
        <time>2021-09-15T05:16:19.000Z</time>
      </trkpt>
      <trkpt lat="45.08768" lon="4.83041">
        <ele>95.966778</ele>
        <time>2021-09-15T05:16:26.000Z</time>
      </trkpt>
      <trkpt lat="45.08731" lon="4.83035">
        <ele>96.145305</ele>
        <time>2021-09-15T05:16:32.000Z</time>
      </trkpt>
      <trkpt lat="45.08689" lon="4.83023">
        <ele>96.348131</ele>
        <time>2021-09-15T05:16:39.000Z</time>
      </trkpt>
      <trkpt lat="45.08653" lon="4.83009">
        <ele>96.52456</ele>
        <time>2021-09-15T05:16:45.000Z</time>
      </trkpt>
      <trkpt lat="45.08618" lon="4.82996">
        <ele>96.694706</ele>
        <time>2021-09-15T05:16:51.000Z</time>
      </trkpt>
      <trkpt lat="45.0857" lon="4.82976">
        <ele>98.021432</ele>
        <time>2021-09-15T05:16:59.000Z</time>
      </trkpt>
      <trkpt lat="45.08534" lon="4.82953">
        <ele>99.256741</ele>
        <time>2021-09-15T05:17:05.000Z</time>
      </trkpt>
      <trkpt lat="45.08498" lon="4.82928">
        <ele>100.510339</ele>
        <time>2021-09-15T05:17:11.000Z</time>
      </trkpt>
      <trkpt lat="45.08452" lon="4.82887">
        <ele>102.208685</ele>
        <time>2021-09-15T05:17:19.000Z</time>
      </trkpt>
      <trkpt lat="45.08441" lon="4.82878">
        <ele>102.65155</ele>
        <time>2021-09-15T05:17:21.000Z</time>
      </trkpt>
      <trkpt lat="45.08419" lon="4.82861">
        <ele>103.537504</ele>
        <time>2021-09-15T05:17:25.000Z</time>
      </trkpt>
      <trkpt lat="45.08403" lon="4.82851">
        <ele>104.17905</ele>
        <time>2021-09-15T05:17:28.000Z</time>
      </trkpt>
      <trkpt lat="45.08387" lon="4.82841">
        <ele>104.805463</ele>
        <time>2021-09-15T05:17:31.000Z</time>
      </trkpt>
      <trkpt lat="45.08335" lon="4.8281">
        <ele>106.816822</ele>
        <time>2021-09-15T05:17:40.000Z</time>
      </trkpt>
      <trkpt lat="45.08329" lon="4.82807">
        <ele>107.038776</ele>
        <time>2021-09-15T05:17:41.000Z</time>
      </trkpt>
      <trkpt lat="45.08295" lon="4.82786">
        <ele>108.364752</ele>
        <time>2021-09-15T05:17:47.000Z</time>
      </trkpt>
      <trkpt lat="45.08259" lon="4.82764">
        <ele>109.646774</ele>
        <time>2021-09-15T05:17:53.000Z</time>
      </trkpt>
      <trkpt lat="45.08218" lon="4.82739">
        <ele>111.086648</ele>
        <time>2021-09-15T05:18:00.000Z</time>
      </trkpt>
      <trkpt lat="45.08183" lon="4.82715">
        <ele>112.319701</ele>
        <time>2021-09-15T05:18:06.000Z</time>
      </trkpt>
      <trkpt lat="45.08141" lon="4.82694">
        <ele>113.744363</ele>
        <time>2021-09-15T05:18:13.000Z</time>
      </trkpt>
      <trkpt lat="45.08094" lon="4.82673">
        <ele>115.149195</ele>
        <time>2021-09-15T05:18:21.000Z</time>
      </trkpt>
      <trkpt lat="45.08088" lon="4.8267">
        <ele>115.307516</ele>
        <time>2021-09-15T05:18:22.000Z</time>
      </trkpt>
      <trkpt lat="45.08076" lon="4.82665">
        <ele>115.617027</ele>
        <time>2021-09-15T05:18:24.000Z</time>
      </trkpt>
      <trkpt lat="45.08071" lon="4.82662">
        <ele>115.770596</ele>
        <time>2021-09-15T05:18:25.000Z</time>
      </trkpt>
      <trkpt lat="45.08065" lon="4.82657">
        <ele>115.927312</ele>
        <time>2021-09-15T05:18:26.000Z</time>
      </trkpt>
      <trkpt lat="45.08053" lon="4.82637">
        <ele>116.390403</ele>
        <time>2021-09-15T05:18:28.000Z</time>
      </trkpt>
      <trkpt lat="45.08053" lon="4.82637">
        <ele>116.390403</ele>
        <time>2021-09-15T05:18:29.000Z</time>
      </trkpt>
      <trkpt lat="45.08048" lon="4.82632">
        <ele>116.542801</ele>
        <time>2021-09-15T05:18:30.000Z</time>
      </trkpt>
      <trkpt lat="45.08034" lon="4.82625">
        <ele>116.933784</ele>
        <time>2021-09-15T05:18:33.000Z</time>
      </trkpt>
      <trkpt lat="45.08018" lon="4.8262">
        <ele>117.333397</ele>
        <time>2021-09-15T05:18:35.000Z</time>
      </trkpt>
      <trkpt lat="45.08012" lon="4.82621">
        <ele>117.483623</ele>
        <time>2021-09-15T05:18:37.000Z</time>
      </trkpt>
      <trkpt lat="45.08" lon="4.82624">
        <ele>117.783469</ele>
        <time>2021-09-15T05:18:39.000Z</time>
      </trkpt>
      <trkpt lat="45.07988" lon="4.82624">
        <ele>118.094229</ele>
        <time>2021-09-15T05:18:41.000Z</time>
      </trkpt>
      <trkpt lat="45.07937" lon="4.82619">
        <ele>119.092339</ele>
        <time>2021-09-15T05:18:49.000Z</time>
      </trkpt>
      <trkpt lat="45.07898" lon="4.82614">
        <ele>119.229252</ele>
        <time>2021-09-15T05:18:55.000Z</time>
      </trkpt>
      <trkpt lat="45.07853" lon="4.82609">
        <ele>119.388352</ele>
        <time>2021-09-15T05:19:02.000Z</time>
      </trkpt>
      <trkpt lat="45.07802" lon="4.82604">
        <ele>119.569183</ele>
        <time>2021-09-15T05:19:10.000Z</time>
      </trkpt>
      <trkpt lat="45.07783" lon="4.82602">
        <ele>119.635361</ele>
        <time>2021-09-15T05:19:13.000Z</time>
      </trkpt>
      <trkpt lat="45.07771" lon="4.826">
        <ele>119.679057</ele>
        <time>2021-09-15T05:19:15.000Z</time>
      </trkpt>
      <trkpt lat="45.0774" lon="4.82585">
        <ele>119.937757</ele>
        <time>2021-09-15T05:19:21.000Z</time>
      </trkpt>
      <trkpt lat="45.07708" lon="4.82569">
        <ele>120.210849</ele>
        <time>2021-09-15T05:19:26.000Z</time>
      </trkpt>
      <trkpt lat="45.07683" lon="4.82545">
        <ele>120.453337</ele>
        <time>2021-09-15T05:19:32.000Z</time>
      </trkpt>
      <trkpt lat="45.07653" lon="4.8252">
        <ele>120.728839</ele>
        <time>2021-09-15T05:19:38.000Z</time>
      </trkpt>
      <trkpt lat="45.07616" lon="4.82496">
        <ele>121.051957</ele>
        <time>2021-09-15T05:19:45.000Z</time>
      </trkpt>
      <trkpt lat="45.07598" lon="4.8248">
        <ele>121.225268</ele>
        <time>2021-09-15T05:19:49.000Z</time>
      </trkpt>
      <trkpt lat="45.07592" lon="4.82475">
        <ele>121.274537</ele>
        <time>2021-09-15T05:19:50.000Z</time>
      </trkpt>
      <trkpt lat="45.07587" lon="4.8247">
        <ele>121.322841</ele>
        <time>2021-09-15T05:19:51.000Z</time>
      </trkpt>
      <trkpt lat="45.07585" lon="4.82461">
        <ele>121.378271</ele>
        <time>2021-09-15T05:19:52.000Z</time>
      </trkpt>
      <trkpt lat="45.07603" lon="4.82403">
        <ele>121.733844</ele>
        <time>2021-09-15T05:19:58.000Z</time>
      </trkpt>
      <trkpt lat="45.07603" lon="4.82403">
        <ele>121.733844</ele>
        <time>2021-09-15T05:19:59.000Z</time>
      </trkpt>
      <trkpt lat="45.07612" lon="4.82389">
        <ele>121.834177</ele>
        <time>2021-09-15T05:20:01.000Z</time>
      </trkpt>
      <trkpt lat="45.07616" lon="4.82382">
        <ele>121.884081</ele>
        <time>2021-09-15T05:20:02.000Z</time>
      </trkpt>
      <trkpt lat="45.07632" lon="4.82326">
        <ele>122.225165</ele>
        <time>2021-09-15T05:20:08.000Z</time>
      </trkpt>
      <trkpt lat="45.07634" lon="4.82318">
        <ele>122.271978</ele>
        <time>2021-09-15T05:20:10.000Z</time>
      </trkpt>
      <trkpt lat="45.0764" lon="4.82303">
        <ele>122.370009</ele>
        <time>2021-09-15T05:20:12.000Z</time>
      </trkpt>
      <trkpt lat="45.07648" lon="4.8229">
        <ele>122.464774</ele>
        <time>2021-09-15T05:20:14.000Z</time>
      </trkpt>
      <trkpt lat="45.07672" lon="4.82256">
        <ele>122.778822</ele>
        <time>2021-09-15T05:20:19.000Z</time>
      </trkpt>
      <trkpt lat="45.07672" lon="4.82256">
        <ele>122.779512</ele>
        <time>2021-09-15T05:20:20.000Z</time>
      </trkpt>
      <trkpt lat="45.07675" lon="4.8225">
        <ele>122.829074</ele>
        <time>2021-09-15T05:20:21.000Z</time>
      </trkpt>
      <trkpt lat="45.07681" lon="4.82241">
        <ele>122.916813</ele>
        <time>2021-09-15T05:20:23.000Z</time>
      </trkpt>
      <trkpt lat="45.07677" lon="4.82208">
        <ele>123.148395</ele>
        <time>2021-09-15T05:20:28.000Z</time>
      </trkpt>
      <trkpt lat="45.07658" lon="4.82136">
        <ele>123.677965</ele>
        <time>2021-09-15T05:20:37.000Z</time>
      </trkpt>
      <trkpt lat="45.07643" lon="4.82078">
        <ele>124.106372</ele>
        <time>2021-09-15T05:20:46.000Z</time>
      </trkpt>
      <trkpt lat="45.07625" lon="4.82007">
        <ele>124.45575</ele>
        <time>2021-09-15T05:20:56.000Z</time>
      </trkpt>
      <trkpt lat="45.07606" lon="4.81935">
        <ele>124.719466</ele>
        <time>2021-09-15T05:21:06.000Z</time>
      </trkpt>
      <trkpt lat="45.07587" lon="4.81864">
        <ele>124.978973</ele>
        <time>2021-09-15T05:21:16.000Z</time>
      </trkpt>
      <trkpt lat="45.07574" lon="4.81812">
        <ele>125.171712</ele>
        <time>2021-09-15T05:21:23.000Z</time>
      </trkpt>
      <trkpt lat="45.07555" lon="4.81746">
        <ele>125.563296</ele>
        <time>2021-09-15T05:21:32.000Z</time>
      </trkpt>
      <trkpt lat="45.07536" lon="4.81681">
        <ele>125.952332</ele>
        <time>2021-09-15T05:21:41.000Z</time>
      </trkpt>
      <trkpt lat="45.0753" lon="4.81659">
        <ele>126.080212</ele>
        <time>2021-09-15T05:21:45.000Z</time>
      </trkpt>
      <trkpt lat="45.07528" lon="4.81654">
        <ele>126.113701</ele>
        <time>2021-09-15T05:21:47.000Z</time>
      </trkpt>
      <trkpt lat="45.07526" lon="4.81651">
        <ele>126.1336</ele>
        <time>2021-09-15T05:21:49.000Z</time>
      </trkpt>
      <trkpt lat="45.07515" lon="4.81659">
        <ele>126.230913</ele>
        <time>2021-09-15T05:21:54.000Z</time>
      </trkpt>
      <trkpt lat="45.07491" lon="4.81676">
        <ele>126.440312</ele>
        <time>2021-09-15T05:22:01.000Z</time>
      </trkpt>
      <trkpt lat="45.07462" lon="4.81696">
        <ele>126.596266</ele>
        <time>2021-09-15T05:22:08.000Z</time>
      </trkpt>
      <trkpt lat="45.07426" lon="4.81722">
        <ele>126.677642</ele>
        <time>2021-09-15T05:22:16.000Z</time>
      </trkpt>
      <trkpt lat="45.074" lon="4.81747">
        <ele>126.741093</ele>
        <time>2021-09-15T05:22:22.000Z</time>
      </trkpt>
      <trkpt lat="45.07389" lon="4.81758">
        <ele>126.766946</ele>
        <time>2021-09-15T05:22:25.000Z</time>
      </trkpt>
      <trkpt lat="45.07388" lon="4.81759">
        <ele>126.770477</ele>
        <time>2021-09-15T05:22:27.000Z</time>
      </trkpt>
      <trkpt lat="45.07385" lon="4.81756">
        <ele>126.777536</ele>
        <time>2021-09-15T05:22:30.000Z</time>
      </trkpt>
      <trkpt lat="45.07382" lon="4.81755">
        <ele>126.784506</ele>
        <time>2021-09-15T05:22:31.000Z</time>
      </trkpt>
      <trkpt lat="45.07387" lon="4.8176">
        <ele>126.797473</ele>
        <time>2021-09-15T05:22:32.000Z</time>
      </trkpt>
      <trkpt lat="45.07384" lon="4.81765">
        <ele>126.806177</ele>
        <time>2021-09-15T05:22:34.000Z</time>
      </trkpt>
      <trkpt lat="45.07363" lon="4.81792">
        <ele>126.864019</ele>
        <time>2021-09-15T05:22:40.000Z</time>
      </trkpt>
      <trkpt lat="45.07353" lon="4.81819">
        <ele>126.907626</ele>
        <time>2021-09-15T05:22:44.000Z</time>
      </trkpt>
      <trkpt lat="45.07351" lon="4.81826">
        <ele>126.918849</ele>
        <time>2021-09-15T05:22:45.000Z</time>
      </trkpt>
      <trkpt lat="45.07334" lon="4.8189">
        <ele>126.932222</ele>
        <time>2021-09-15T05:22:53.000Z</time>
      </trkpt>
      <trkpt lat="45.07321" lon="4.81957">
        <ele>126.941396</ele>
        <time>2021-09-15T05:23:01.000Z</time>
      </trkpt>
      <trkpt lat="45.07302" lon="4.82024">
        <ele>126.950821</ele>
        <time>2021-09-15T05:23:09.000Z</time>
      </trkpt>
      <trkpt lat="45.07282" lon="4.82089">
        <ele>126.940309</ele>
        <time>2021-09-15T05:23:17.000Z</time>
      </trkpt>
      <trkpt lat="45.07275" lon="4.82113">
        <ele>126.92066</ele>
        <time>2021-09-15T05:23:20.000Z</time>
      </trkpt>
      <trkpt lat="45.07266" lon="4.82143">
        <ele>126.895145</ele>
        <time>2021-09-15T05:23:24.000Z</time>
      </trkpt>
      <trkpt lat="45.07262" lon="4.82158">
        <ele>126.883257</ele>
        <time>2021-09-15T05:23:26.000Z</time>
      </trkpt>
      <trkpt lat="45.07259" lon="4.82173">
        <ele>126.870772</ele>
        <time>2021-09-15T05:23:28.000Z</time>
      </trkpt>
      <trkpt lat="45.07262" lon="4.82188">
        <ele>126.859131</ele>
        <time>2021-09-15T05:23:30.000Z</time>
      </trkpt>
      <trkpt lat="45.07264" lon="4.82195">
        <ele>126.853123</ele>
        <time>2021-09-15T05:23:31.000Z</time>
      </trkpt>
      <trkpt lat="45.0727" lon="4.82202">
        <ele>126.844854</ele>
        <time>2021-09-15T05:23:33.000Z</time>
      </trkpt>
      <trkpt lat="45.0727" lon="4.82203">
        <ele>126.843908</ele>
        <time>2021-09-15T05:23:34.000Z</time>
      </trkpt>
      <trkpt lat="45.07268" lon="4.82208">
        <ele>126.839903</ele>
        <time>2021-09-15T05:23:35.000Z</time>
      </trkpt>
      <trkpt lat="45.07268" lon="4.82222">
        <ele>126.829461</ele>
        <time>2021-09-15T05:23:37.000Z</time>
      </trkpt>
      <trkpt lat="45.0727" lon="4.82226">
        <ele>126.824945</ele>
        <time>2021-09-15T05:23:38.000Z</time>
      </trkpt>
      <trkpt lat="45.07275" lon="4.82238">
        <ele>126.814152</ele>
        <time>2021-09-15T05:23:42.000Z</time>
      </trkpt>
      <trkpt lat="45.07276" lon="4.8224">
        <ele>126.812595</ele>
        <time>2021-09-15T05:23:43.000Z</time>
      </trkpt>
      <trkpt lat="45.07277" lon="4.82242">
        <ele>126.810856</ele>
        <time>2021-09-15T05:23:44.000Z</time>
      </trkpt>
      <trkpt lat="45.07279" lon="4.8225">
        <ele>126.804084</ele>
        <time>2021-09-15T05:23:46.000Z</time>
      </trkpt>
      <trkpt lat="45.0728" lon="4.82256">
        <ele>126.799447</ele>
        <time>2021-09-15T05:23:47.000Z</time>
      </trkpt>
      <trkpt lat="45.07285" lon="4.82273">
        <ele>126.785583</ele>
        <time>2021-09-15T05:23:49.000Z</time>
      </trkpt>
      <trkpt lat="45.07285" lon="4.82273">
        <ele>126.785583</ele>
        <time>2021-09-15T05:23:50.000Z</time>
      </trkpt>
      <trkpt lat="45.07287" lon="4.82285">
        <ele>126.776126</ele>
        <time>2021-09-15T05:23:52.000Z</time>
      </trkpt>
      <trkpt lat="45.07289" lon="4.82303">
        <ele>126.761579</ele>
        <time>2021-09-15T05:23:55.000Z</time>
      </trkpt>
      <trkpt lat="45.0729" lon="4.82315">
        <ele>126.748062</ele>
        <time>2021-09-15T05:23:57.000Z</time>
      </trkpt>
      <trkpt lat="45.07291" lon="4.8233">
        <ele>126.732164</ele>
        <time>2021-09-15T05:23:59.000Z</time>
      </trkpt>
      <trkpt lat="45.07291" lon="4.82337">
        <ele>126.723884</ele>
        <time>2021-09-15T05:24:00.000Z</time>
      </trkpt>
      <trkpt lat="45.07288" lon="4.82387">
        <ele>126.668108</ele>
        <time>2021-09-15T05:24:06.000Z</time>
      </trkpt>
      <trkpt lat="45.07284" lon="4.82426">
        <ele>126.623127</ele>
        <time>2021-09-15T05:24:11.000Z</time>
      </trkpt>
      <trkpt lat="45.07281" lon="4.8245">
        <ele>126.59594</ele>
        <time>2021-09-15T05:24:14.000Z</time>
      </trkpt>
      <trkpt lat="45.07276" lon="4.82475">
        <ele>126.567688</ele>
        <time>2021-09-15T05:24:17.000Z</time>
      </trkpt>
      <trkpt lat="45.07259" lon="4.82543">
        <ele>126.487038</ele>
        <time>2021-09-15T05:24:25.000Z</time>
      </trkpt>
      <trkpt lat="45.07249" lon="4.82576">
        <ele>126.371256</ele>
        <time>2021-09-15T05:24:29.000Z</time>
      </trkpt>
      <trkpt lat="45.07244" lon="4.8259">
        <ele>126.306348</ele>
        <time>2021-09-15T05:24:31.000Z</time>
      </trkpt>
      <trkpt lat="45.07236" lon="4.82613">
        <ele>126.207121</ele>
        <time>2021-09-15T05:24:34.000Z</time>
      </trkpt>
      <trkpt lat="45.07234" lon="4.8262">
        <ele>126.174398</ele>
        <time>2021-09-15T05:24:35.000Z</time>
      </trkpt>
      <trkpt lat="45.07231" lon="4.82628">
        <ele>126.138429</ele>
        <time>2021-09-15T05:24:36.000Z</time>
      </trkpt>
      <trkpt lat="45.07221" lon="4.82652">
        <ele>126.028341</ele>
        <time>2021-09-15T05:24:39.000Z</time>
      </trkpt>
      <trkpt lat="45.07211" lon="4.82673">
        <ele>125.928265</ele>
        <time>2021-09-15T05:24:42.000Z</time>
      </trkpt>
      <trkpt lat="45.07206" lon="4.82686">
        <ele>125.870118</ele>
        <time>2021-09-15T05:24:44.000Z</time>
      </trkpt>
      <trkpt lat="45.07203" lon="4.82692">
        <ele>125.839922</ele>
        <time>2021-09-15T05:24:45.000Z</time>
      </trkpt>
      <trkpt lat="45.07183" lon="4.82722">
        <ele>125.678213</ele>
        <time>2021-09-15T05:24:50.000Z</time>
      </trkpt>
      <trkpt lat="45.07153" lon="4.82765">
        <ele>125.39938</ele>
        <time>2021-09-15T05:24:57.000Z</time>
      </trkpt>
      <trkpt lat="45.07145" lon="4.82777">
        <ele>125.240748</ele>
        <time>2021-09-15T05:24:59.000Z</time>
      </trkpt>
      <trkpt lat="45.07132" lon="4.82793">
        <ele>125.013914</ele>
        <time>2021-09-15T05:25:02.000Z</time>
      </trkpt>
      <trkpt lat="45.07095" lon="4.82834">
        <ele>124.396227</ele>
        <time>2021-09-15T05:25:10.000Z</time>
      </trkpt>
      <trkpt lat="45.07074" lon="4.82853">
        <ele>124.060534</ele>
        <time>2021-09-15T05:25:15.000Z</time>
      </trkpt>
      <trkpt lat="45.07068" lon="4.82857">
        <ele>123.976929</ele>
        <time>2021-09-15T05:25:17.000Z</time>
      </trkpt>
      <trkpt lat="45.07068" lon="4.82857">
        <ele>123.976929</ele>
        <time>2021-09-15T05:25:18.000Z</time>
      </trkpt>
      <trkpt lat="45.07057" lon="4.82859">
        <ele>123.832134</ele>
        <time>2021-09-15T05:25:19.000Z</time>
      </trkpt>
      <trkpt lat="45.07086" lon="4.82861">
        <ele>123.448165</ele>
        <time>2021-09-15T05:25:21.000Z</time>
      </trkpt>
      <trkpt lat="45.07095" lon="4.82871">
        <ele>123.298851</ele>
        <time>2021-09-15T05:25:23.000Z</time>
      </trkpt>
      <trkpt lat="45.07099" lon="4.82877">
        <ele>123.224194</ele>
        <time>2021-09-15T05:25:24.000Z</time>
      </trkpt>
      <trkpt lat="45.07099" lon="4.82934">
        <ele>122.705915</ele>
        <time>2021-09-15T05:25:25.000Z</time>
      </trkpt>
      <trkpt lat="45.07095" lon="4.82938">
        <ele>122.643161</ele>
        <time>2021-09-15T05:25:26.000Z</time>
      </trkpt>
      <trkpt lat="45.0706" lon="4.82958">
        <ele>122.161446</ele>
        <time>2021-09-15T05:25:32.000Z</time>
      </trkpt>
      <trkpt lat="45.0703" lon="4.82996">
        <ele>121.650301</ele>
        <time>2021-09-15T05:25:39.000Z</time>
      </trkpt>
      <trkpt lat="45.07008" lon="4.83023">
        <ele>121.285803</ele>
        <time>2021-09-15T05:25:44.000Z</time>
      </trkpt>
      <trkpt lat="45.06973" lon="4.83068">
        <ele>120.782481</ele>
        <time>2021-09-15T05:25:52.000Z</time>
      </trkpt>
      <trkpt lat="45.06947" lon="4.83105">
        <ele>120.730998</ele>
        <time>2021-09-15T05:25:58.000Z</time>
      </trkpt>
      <trkpt lat="45.06916" lon="4.83168">
        <ele>120.655575</ele>
        <time>2021-09-15T05:26:06.000Z</time>
      </trkpt>
      <trkpt lat="45.06916" lon="4.83168">
        <ele>120.655575</ele>
        <time>2021-09-15T05:26:07.000Z</time>
      </trkpt>
      <trkpt lat="45.06898" lon="4.83203">
        <ele>120.613038</ele>
        <time>2021-09-15T05:26:13.000Z</time>
      </trkpt>
      <trkpt lat="45.06883" lon="4.83237">
        <ele>120.572884</ele>
        <time>2021-09-15T05:26:20.000Z</time>
      </trkpt>
      <trkpt lat="45.06874" lon="4.83267">
        <ele>120.553999</ele>
        <time>2021-09-15T05:26:25.000Z</time>
      </trkpt>
      <trkpt lat="45.06871" lon="4.83279">
        <ele>120.590898</ele>
        <time>2021-09-15T05:26:27.000Z</time>
      </trkpt>
      <trkpt lat="45.06868" lon="4.83285">
        <ele>120.610519</ele>
        <time>2021-09-15T05:26:28.000Z</time>
      </trkpt>
      <trkpt lat="45.06854" lon="4.83323">
        <ele>120.737667</ele>
        <time>2021-09-15T05:26:35.000Z</time>
      </trkpt>
      <trkpt lat="45.06838" lon="4.83356">
        <ele>120.855617</ele>
        <time>2021-09-15T05:26:42.000Z</time>
      </trkpt>
      <trkpt lat="45.0682" lon="4.83391">
        <ele>120.982719</ele>
        <time>2021-09-15T05:26:48.000Z</time>
      </trkpt>
      <trkpt lat="45.06796" lon="4.83434">
        <ele>121.145057</ele>
        <time>2021-09-15T05:26:56.000Z</time>
      </trkpt>
      <trkpt lat="45.06787" lon="4.83459">
        <ele>121.226858</ele>
        <time>2021-09-15T05:27:01.000Z</time>
      </trkpt>
      <trkpt lat="45.06786" lon="4.83463">
        <ele>121.24079</ele>
        <time>2021-09-15T05:27:02.000Z</time>
      </trkpt>
      <trkpt lat="45.0678" lon="4.83471">
        <ele>121.273205</ele>
        <time>2021-09-15T05:27:04.000Z</time>
      </trkpt>
      <trkpt lat="45.06772" lon="4.83487">
        <ele>121.338312</ele>
        <time>2021-09-15T05:27:07.000Z</time>
      </trkpt>
      <trkpt lat="45.06764" lon="4.83505">
        <ele>121.409551</ele>
        <time>2021-09-15T05:27:10.000Z</time>
      </trkpt>
      <trkpt lat="45.06737" lon="4.83564">
        <ele>121.643063</ele>
        <time>2021-09-15T05:27:19.000Z</time>
      </trkpt>
      <trkpt lat="45.06707" lon="4.83633">
        <ele>121.91467</ele>
        <time>2021-09-15T05:27:29.000Z</time>
      </trkpt>
      <trkpt lat="45.06679" lon="4.83694">
        <ele>122.153968</ele>
        <time>2021-09-15T05:27:38.000Z</time>
      </trkpt>
      <trkpt lat="45.06653" lon="4.83754">
        <ele>122.322339</ele>
        <time>2021-09-15T05:27:47.000Z</time>
      </trkpt>
      <trkpt lat="45.06632" lon="4.83805">
        <ele>122.462465</ele>
        <time>2021-09-15T05:27:55.000Z</time>
      </trkpt>
      <trkpt lat="45.06605" lon="4.83874">
        <ele>122.650145</ele>
        <time>2021-09-15T05:28:04.000Z</time>
      </trkpt>
      <trkpt lat="45.06585" lon="4.83924">
        <ele>122.800842</ele>
        <time>2021-09-15T05:28:12.000Z</time>
      </trkpt>
      <trkpt lat="45.06566" lon="4.83975">
        <ele>123.005795</ele>
        <time>2021-09-15T05:28:20.000Z</time>
      </trkpt>
      <trkpt lat="45.06565" lon="4.83992">
        <ele>123.066159</ele>
        <time>2021-09-15T05:28:23.000Z</time>
      </trkpt>
      <trkpt lat="45.06568" lon="4.84001">
        <ele>123.103404</ele>
        <time>2021-09-15T05:28:27.000Z</time>
      </trkpt>
      <trkpt lat="45.06566" lon="4.8401">
        <ele>123.135583</ele>
        <time>2021-09-15T05:28:31.000Z</time>
      </trkpt>
      <trkpt lat="45.06565" lon="4.84012">
        <ele>123.142585</ele>
        <time>2021-09-15T05:28:32.000Z</time>
      </trkpt>
      <trkpt lat="45.06564" lon="4.84015">
        <ele>123.155022</ele>
        <time>2021-09-15T05:28:33.000Z</time>
      </trkpt>
      <trkpt lat="45.06562" lon="4.84019">
        <ele>123.172839</ele>
        <time>2021-09-15T05:28:35.000Z</time>
      </trkpt>
      <trkpt lat="45.06554" lon="4.84028">
        <ele>123.223126</ele>
        <time>2021-09-15T05:28:38.000Z</time>
      </trkpt>
      <trkpt lat="45.06546" lon="4.84042">
        <ele>123.287015</ele>
        <time>2021-09-15T05:28:42.000Z</time>
      </trkpt>
      <trkpt lat="45.06541" lon="4.84067">
        <ele>123.380411</ele>
        <time>2021-09-15T05:28:47.000Z</time>
      </trkpt>
      <trkpt lat="45.06531" lon="4.84113">
        <ele>123.548353</ele>
        <time>2021-09-15T05:28:53.000Z</time>
      </trkpt>
      <trkpt lat="45.06516" lon="4.84175">
        <ele>123.66846</ele>
        <time>2021-09-15T05:29:01.000Z</time>
      </trkpt>
      <trkpt lat="45.06501" lon="4.8423">
        <ele>123.701913</ele>
        <time>2021-09-15T05:29:08.000Z</time>
      </trkpt>
      <trkpt lat="45.06487" lon="4.84287">
        <ele>123.735764</ele>
        <time>2021-09-15T05:29:15.000Z</time>
      </trkpt>
      <trkpt lat="45.06486" lon="4.84295">
        <ele>123.740557</ele>
        <time>2021-09-15T05:29:16.000Z</time>
      </trkpt>
      <trkpt lat="45.06474" lon="4.84352">
        <ele>123.774315</ele>
        <time>2021-09-15T05:29:23.000Z</time>
      </trkpt>
      <trkpt lat="45.0646" lon="4.84419">
        <ele>123.769619</ele>
        <time>2021-09-15T05:29:31.000Z</time>
      </trkpt>
      <trkpt lat="45.06456" lon="4.84469">
        <ele>123.742427</ele>
        <time>2021-09-15T05:29:37.000Z</time>
      </trkpt>
      <trkpt lat="45.06447" lon="4.8453">
        <ele>123.708766</ele>
        <time>2021-09-15T05:29:43.000Z</time>
      </trkpt>
      <trkpt lat="45.06436" lon="4.846">
        <ele>123.669948</ele>
        <time>2021-09-15T05:29:52.000Z</time>
      </trkpt>
      <trkpt lat="45.06423" lon="4.8466">
        <ele>123.605021</ele>
        <time>2021-09-15T05:29:59.000Z</time>
      </trkpt>
      <trkpt lat="45.06407" lon="4.84727">
        <ele>123.497709</ele>
        <time>2021-09-15T05:30:07.000Z</time>
      </trkpt>
      <trkpt lat="45.06391" lon="4.84786">
        <ele>123.403246</ele>
        <time>2021-09-15T05:30:14.000Z</time>
      </trkpt>
      <trkpt lat="45.06376" lon="4.84845">
        <ele>123.309564</ele>
        <time>2021-09-15T05:30:21.000Z</time>
      </trkpt>
      <trkpt lat="45.06364" lon="4.84891">
        <ele>123.238057</ele>
        <time>2021-09-15T05:30:27.000Z</time>
      </trkpt>
      <trkpt lat="45.0636" lon="4.84906">
        <ele>123.214294</ele>
        <time>2021-09-15T05:30:29.000Z</time>
      </trkpt>
      <trkpt lat="45.06342" lon="4.84981">
        <ele>123.10349</ele>
        <time>2021-09-15T05:30:38.000Z</time>
      </trkpt>
      <trkpt lat="45.06325" lon="4.85032">
        <ele>123.02393</ele>
        <time>2021-09-15T05:30:45.000Z</time>
      </trkpt>
      <trkpt lat="45.06306" lon="4.85089">
        <ele>122.935644</ele>
        <time>2021-09-15T05:30:53.000Z</time>
      </trkpt>
      <trkpt lat="45.06284" lon="4.85145">
        <ele>122.89116</ele>
        <time>2021-09-15T05:31:01.000Z</time>
      </trkpt>
      <trkpt lat="45.06267" lon="4.8519">
        <ele>122.868724</ele>
        <time>2021-09-15T05:31:07.000Z</time>
      </trkpt>
      <trkpt lat="45.06244" lon="4.85241">
        <ele>122.842127</ele>
        <time>2021-09-15T05:31:14.000Z</time>
      </trkpt>
      <trkpt lat="45.06223" lon="4.85285">
        <ele>122.818998</ele>
        <time>2021-09-15T05:31:20.000Z</time>
      </trkpt>
      <trkpt lat="45.06191" lon="4.85352">
        <ele>122.790298</ele>
        <time>2021-09-15T05:31:29.000Z</time>
      </trkpt>
      <trkpt lat="45.06187" lon="4.85359">
        <ele>122.787938</ele>
        <time>2021-09-15T05:31:30.000Z</time>
      </trkpt>
      <trkpt lat="45.06152" lon="4.85424">
        <ele>122.766506</ele>
        <time>2021-09-15T05:31:39.000Z</time>
      </trkpt>
      <trkpt lat="45.06114" lon="4.85484">
        <ele>122.745678</ele>
        <time>2021-09-15T05:31:48.000Z</time>
      </trkpt>
      <trkpt lat="45.0611" lon="4.8549">
        <ele>122.743343</ele>
        <time>2021-09-15T05:31:49.000Z</time>
      </trkpt>
      <trkpt lat="45.06072" lon="4.85549">
        <ele>122.712075</ele>
        <time>2021-09-15T05:31:58.000Z</time>
      </trkpt>
      <trkpt lat="45.06068" lon="4.85555">
        <ele>122.707589</ele>
        <time>2021-09-15T05:31:59.000Z</time>
      </trkpt>
      <trkpt lat="45.0603" lon="4.856">
        <ele>122.671474</ele>
        <time>2021-09-15T05:32:07.000Z</time>
      </trkpt>
      <trkpt lat="45.0599" lon="4.8564">
        <ele>122.636169</ele>
        <time>2021-09-15T05:32:15.000Z</time>
      </trkpt>
      <trkpt lat="45.05953" lon="4.85669">
        <ele>122.605105</ele>
        <time>2021-09-15T05:32:22.000Z</time>
      </trkpt>
      <trkpt lat="45.05908" lon="4.85695">
        <ele>122.539817</ele>
        <time>2021-09-15T05:32:30.000Z</time>
      </trkpt>
      <trkpt lat="45.05855" lon="4.8572">
        <ele>122.463745</ele>
        <time>2021-09-15T05:32:39.000Z</time>
      </trkpt>
      <trkpt lat="45.05806" lon="4.85731">
        <ele>122.395324</ele>
        <time>2021-09-15T05:32:47.000Z</time>
      </trkpt>
      <trkpt lat="45.05756" lon="4.85736">
        <ele>122.337452</ele>
        <time>2021-09-15T05:32:55.000Z</time>
      </trkpt>
      <trkpt lat="45.05701" lon="4.85732">
        <ele>122.289244</ele>
        <time>2021-09-15T05:33:04.000Z</time>
      </trkpt>
      <trkpt lat="45.05646" lon="4.85722">
        <ele>122.241506</ele>
        <time>2021-09-15T05:33:13.000Z</time>
      </trkpt>
      <trkpt lat="45.05634" lon="4.8572">
        <ele>122.230963</ele>
        <time>2021-09-15T05:33:15.000Z</time>
      </trkpt>
      <trkpt lat="45.0558" lon="4.85707">
        <ele>122.200006</ele>
        <time>2021-09-15T05:33:24.000Z</time>
      </trkpt>
      <trkpt lat="45.05573" lon="4.85705">
        <ele>122.200006</ele>
        <time>2021-09-15T05:33:25.000Z</time>
      </trkpt>
      <trkpt lat="45.05518" lon="4.85691">
        <ele>122.200006</ele>
        <time>2021-09-15T05:33:34.000Z</time>
      </trkpt>
      <trkpt lat="45.055" lon="4.85684">
        <ele>122.200006</ele>
        <time>2021-09-15T05:33:37.000Z</time>
      </trkpt>
      <trkpt lat="45.05452" lon="4.85664">
        <ele>122.200006</ele>
        <time>2021-09-15T05:33:45.000Z</time>
      </trkpt>
      <trkpt lat="45.05411" lon="4.85643">
        <ele>122.208587</ele>
        <time>2021-09-15T05:33:52.000Z</time>
      </trkpt>
      <trkpt lat="45.05358" lon="4.85612">
        <ele>122.243186</ele>
        <time>2021-09-15T05:34:01.000Z</time>
      </trkpt>
      <trkpt lat="45.05307" lon="4.85579">
        <ele>122.277103</ele>
        <time>2021-09-15T05:34:10.000Z</time>
      </trkpt>
      <trkpt lat="45.05262" lon="4.8555">
        <ele>122.306927</ele>
        <time>2021-09-15T05:34:18.000Z</time>
      </trkpt>
      <trkpt lat="45.05221" lon="4.85515">
        <ele>122.323781</ele>
        <time>2021-09-15T05:34:26.000Z</time>
      </trkpt>
      <trkpt lat="45.05178" lon="4.85478">
        <ele>122.340051</ele>
        <time>2021-09-15T05:34:34.000Z</time>
      </trkpt>
      <trkpt lat="45.05136" lon="4.85442">
        <ele>122.356185</ele>
        <time>2021-09-15T05:34:42.000Z</time>
      </trkpt>
      <trkpt lat="45.05095" lon="4.85403">
        <ele>122.393358</ele>
        <time>2021-09-15T05:34:50.000Z</time>
      </trkpt>
      <trkpt lat="45.05051" lon="4.85355">
        <ele>122.49373</ele>
        <time>2021-09-15T05:34:59.000Z</time>
      </trkpt>
      <trkpt lat="45.05041" lon="4.85345">
        <ele>122.516145</ele>
        <time>2021-09-15T05:35:01.000Z</time>
      </trkpt>
      <trkpt lat="45.04998" lon="4.85297">
        <ele>122.616818</ele>
        <time>2021-09-15T05:35:10.000Z</time>
      </trkpt>
      <trkpt lat="45.04954" lon="4.85249">
        <ele>122.692292</ele>
        <time>2021-09-15T05:35:19.000Z</time>
      </trkpt>
      <trkpt lat="45.04949" lon="4.85244">
        <ele>122.691153</ele>
        <time>2021-09-15T05:35:20.000Z</time>
      </trkpt>
      <trkpt lat="45.04906" lon="4.85196">
        <ele>122.68068</ele>
        <time>2021-09-15T05:35:29.000Z</time>
      </trkpt>
      <trkpt lat="45.04873" lon="4.8516">
        <ele>122.672812</ele>
        <time>2021-09-15T05:35:36.000Z</time>
      </trkpt>
      <trkpt lat="45.04826" lon="4.85109">
        <ele>122.66145</ele>
        <time>2021-09-15T05:35:46.000Z</time>
      </trkpt>
      <trkpt lat="45.04794" lon="4.85073">
        <ele>122.609534</ele>
        <time>2021-09-15T05:35:53.000Z</time>
      </trkpt>
      <trkpt lat="45.04751" lon="4.85026">
        <ele>122.531747</ele>
        <time>2021-09-15T05:36:02.000Z</time>
      </trkpt>
      <trkpt lat="45.04746" lon="4.85021">
        <ele>122.52323</ele>
        <time>2021-09-15T05:36:03.000Z</time>
      </trkpt>
      <trkpt lat="45.04713" lon="4.84985">
        <ele>122.462416</ele>
        <time>2021-09-15T05:36:10.000Z</time>
      </trkpt>
      <trkpt lat="45.04674" lon="4.84941">
        <ele>122.390671</ele>
        <time>2021-09-15T05:36:18.000Z</time>
      </trkpt>
      <trkpt lat="45.04632" lon="4.84893">
        <ele>122.301163</ele>
        <time>2021-09-15T05:36:27.000Z</time>
      </trkpt>
      <trkpt lat="45.04617" lon="4.84877">
        <ele>122.270925</ele>
        <time>2021-09-15T05:36:30.000Z</time>
      </trkpt>
      <trkpt lat="45.04577" lon="4.84825">
        <ele>122.180526</ele>
        <time>2021-09-15T05:36:39.000Z</time>
      </trkpt>
      <trkpt lat="45.04572" lon="4.84819">
        <ele>122.170442</ele>
        <time>2021-09-15T05:36:40.000Z</time>
      </trkpt>
      <trkpt lat="45.04532" lon="4.84765">
        <ele>122.067517</ele>
        <time>2021-09-15T05:36:49.000Z</time>
      </trkpt>
      <trkpt lat="45.04527" lon="4.84759">
        <ele>122.053088</ele>
        <time>2021-09-15T05:36:50.000Z</time>
      </trkpt>
      <trkpt lat="45.04488" lon="4.84703">
        <ele>121.92111</ele>
        <time>2021-09-15T05:36:59.000Z</time>
      </trkpt>
      <trkpt lat="45.04452" lon="4.84651">
        <ele>121.801699</ele>
        <time>2021-09-15T05:37:07.000Z</time>
      </trkpt>
      <trkpt lat="45.04412" lon="4.84594">
        <ele>121.652776</ele>
        <time>2021-09-15T05:37:16.000Z</time>
      </trkpt>
      <trkpt lat="45.04374" lon="4.84544">
        <ele>121.424092</ele>
        <time>2021-09-15T05:37:24.000Z</time>
      </trkpt>
      <trkpt lat="45.0433" lon="4.84493">
        <ele>121.169261</ele>
        <time>2021-09-15T05:37:33.000Z</time>
      </trkpt>
      <trkpt lat="45.04292" lon="4.8445">
        <ele>120.950569</ele>
        <time>2021-09-15T05:37:40.000Z</time>
      </trkpt>
      <trkpt lat="45.04283" lon="4.8444">
        <ele>120.899988</ele>
        <time>2021-09-15T05:37:43.000Z</time>
      </trkpt>
      <trkpt lat="45.04275" lon="4.84432">
        <ele>120.840594</ele>
        <time>2021-09-15T05:37:44.000Z</time>
      </trkpt>
      <trkpt lat="45.04277" lon="4.84428">
        <ele>120.815969</ele>
        <time>2021-09-15T05:37:45.000Z</time>
      </trkpt>
      <trkpt lat="45.04288" lon="4.84407">
        <ele>120.666838</ele>
        <time>2021-09-15T05:37:47.000Z</time>
      </trkpt>
      <trkpt lat="45.04299" lon="4.84384">
        <ele>120.507943</ele>
        <time>2021-09-15T05:37:51.000Z</time>
      </trkpt>
      <trkpt lat="45.04302" lon="4.84377">
        <ele>120.462411</ele>
        <time>2021-09-15T05:37:52.000Z</time>
      </trkpt>
      <trkpt lat="45.04298" lon="4.84369">
        <ele>120.404179</ele>
        <time>2021-09-15T05:37:53.000Z</time>
      </trkpt>
      <trkpt lat="45.04294" lon="4.84366">
        <ele>120.368692</ele>
        <time>2021-09-15T05:37:54.000Z</time>
      </trkpt>
      <trkpt lat="45.04268" lon="4.84339">
        <ele>120.108121</ele>
        <time>2021-09-15T05:38:00.000Z</time>
      </trkpt>
      <trkpt lat="45.04223" lon="4.84295">
        <ele>119.668796</ele>
        <time>2021-09-15T05:38:09.000Z</time>
      </trkpt>
      <trkpt lat="45.04177" lon="4.8425">
        <ele>119.36691</ele>
        <time>2021-09-15T05:38:18.000Z</time>
      </trkpt>
      <trkpt lat="45.04167" lon="4.8424">
        <ele>119.334855</ele>
        <time>2021-09-15T05:38:20.000Z</time>
      </trkpt>
      <trkpt lat="45.04131" lon="4.84204">
        <ele>119.223289</ele>
        <time>2021-09-15T05:38:27.000Z</time>
      </trkpt>
      <trkpt lat="45.04095" lon="4.84168">
        <ele>119.110889</ele>
        <time>2021-09-15T05:38:34.000Z</time>
      </trkpt>
      <trkpt lat="45.04055" lon="4.84128">
        <ele>118.985167</ele>
        <time>2021-09-15T05:38:42.000Z</time>
      </trkpt>
      <trkpt lat="45.04009" lon="4.84083">
        <ele>119.334426</ele>
        <time>2021-09-15T05:38:51.000Z</time>
      </trkpt>
      <trkpt lat="45.03968" lon="4.84042">
        <ele>119.672999</ele>
        <time>2021-09-15T05:38:59.000Z</time>
      </trkpt>
      <trkpt lat="45.03932" lon="4.84006">
        <ele>119.974513</ele>
        <time>2021-09-15T05:39:06.000Z</time>
      </trkpt>
      <trkpt lat="45.03891" lon="4.83966">
        <ele>120.340385</ele>
        <time>2021-09-15T05:39:14.000Z</time>
      </trkpt>
      <trkpt lat="45.03886" lon="4.83961">
        <ele>120.393943</ele>
        <time>2021-09-15T05:39:15.000Z</time>
      </trkpt>
      <trkpt lat="45.03865" lon="4.8394">
        <ele>120.610239</ele>
        <time>2021-09-15T05:39:19.000Z</time>
      </trkpt>
      <trkpt lat="45.03829" lon="4.83904">
        <ele>120.982367</ele>
        <time>2021-09-15T05:39:26.000Z</time>
      </trkpt>
      <trkpt lat="45.03793" lon="4.83869">
        <ele>121.352424</ele>
        <time>2021-09-15T05:39:33.000Z</time>
      </trkpt>
      <trkpt lat="45.03756" lon="4.83836">
        <ele>121.725918</ele>
        <time>2021-09-15T05:39:40.000Z</time>
      </trkpt>
      <trkpt lat="45.0372" lon="4.83805">
        <ele>121.658999</ele>
        <time>2021-09-15T05:39:47.000Z</time>
      </trkpt>
      <trkpt lat="45.03682" lon="4.83775">
        <ele>121.589475</ele>
        <time>2021-09-15T05:39:54.000Z</time>
      </trkpt>
      <trkpt lat="45.03635" lon="4.83744">
        <ele>121.506438</ele>
        <time>2021-09-15T05:40:02.000Z</time>
      </trkpt>
      <trkpt lat="45.03583" lon="4.83709">
        <ele>121.368791</ele>
        <time>2021-09-15T05:40:11.000Z</time>
      </trkpt>
      <trkpt lat="45.0355" lon="4.83688">
        <ele>121.204217</ele>
        <time>2021-09-15T05:40:17.000Z</time>
      </trkpt>
      <trkpt lat="45.03503" lon="4.83665">
        <ele>120.977621</ele>
        <time>2021-09-15T05:40:25.000Z</time>
      </trkpt>
      <trkpt lat="45.03455" lon="4.83646">
        <ele>120.748381</ele>
        <time>2021-09-15T05:40:33.000Z</time>
      </trkpt>
      <trkpt lat="45.03414" lon="4.8363">
        <ele>120.613328</ele>
        <time>2021-09-15T05:40:40.000Z</time>
      </trkpt>
      <trkpt lat="45.03358" lon="4.83611">
        <ele>120.607218</ele>
        <time>2021-09-15T05:40:49.000Z</time>
      </trkpt>
      <trkpt lat="45.03322" lon="4.83598">
        <ele>120.603364</ele>
        <time>2021-09-15T05:40:55.000Z</time>
      </trkpt>
      <trkpt lat="45.03292" lon="4.83587">
        <ele>120.600105</ele>
        <time>2021-09-15T05:41:00.000Z</time>
      </trkpt>
      <trkpt lat="45.03257" lon="4.83575">
        <ele>120.5962</ele>
        <time>2021-09-15T05:41:06.000Z</time>
      </trkpt>
      <trkpt lat="45.0322" lon="4.8357">
        <ele>120.645708</ele>
        <time>2021-09-15T05:41:12.000Z</time>
      </trkpt>
      <trkpt lat="45.03184" lon="4.83571">
        <ele>120.699384</ele>
        <time>2021-09-15T05:41:18.000Z</time>
      </trkpt>
      <trkpt lat="45.03148" lon="4.83571">
        <ele>120.754585</ele>
        <time>2021-09-15T05:41:24.000Z</time>
      </trkpt>
      <trkpt lat="45.03102" lon="4.83574">
        <ele>120.82555</ele>
        <time>2021-09-15T05:41:31.000Z</time>
      </trkpt>
      <trkpt lat="45.03066" lon="4.83578">
        <ele>120.861069</ele>
        <time>2021-09-15T05:41:37.000Z</time>
      </trkpt>
      <trkpt lat="45.03054" lon="4.83579">
        <ele>120.844322</ele>
        <time>2021-09-15T05:41:39.000Z</time>
      </trkpt>
      <trkpt lat="45.03037" lon="4.83581">
        <ele>120.819278</ele>
        <time>2021-09-15T05:41:42.000Z</time>
      </trkpt>
      <trkpt lat="45.03" lon="4.83589">
        <ele>120.767258</ele>
        <time>2021-09-15T05:41:48.000Z</time>
      </trkpt>
      <trkpt lat="45.02964" lon="4.83597">
        <ele>120.715702</ele>
        <time>2021-09-15T05:41:53.000Z</time>
      </trkpt>
      <trkpt lat="45.02926" lon="4.83607">
        <ele>120.661713</ele>
        <time>2021-09-15T05:42:00.000Z</time>
      </trkpt>
      <trkpt lat="45.02894" lon="4.83617">
        <ele>120.617633</ele>
        <time>2021-09-15T05:42:05.000Z</time>
      </trkpt>
      <trkpt lat="45.02845" lon="4.83635">
        <ele>120.612003</ele>
        <time>2021-09-15T05:42:13.000Z</time>
      </trkpt>
      <trkpt lat="45.02796" lon="4.83657">
        <ele>120.606455</ele>
        <time>2021-09-15T05:42:21.000Z</time>
      </trkpt>
      <trkpt lat="45.0275" lon="4.83683">
        <ele>120.601019</ele>
        <time>2021-09-15T05:42:29.000Z</time>
      </trkpt>
      <trkpt lat="45.02713" lon="4.83713">
        <ele>120.567906</ele>
        <time>2021-09-15T05:42:36.000Z</time>
      </trkpt>
      <trkpt lat="45.02683" lon="4.83742">
        <ele>120.498404</ele>
        <time>2021-09-15T05:42:42.000Z</time>
      </trkpt>
      <trkpt lat="45.02645" lon="4.83768">
        <ele>120.418174</ele>
        <time>2021-09-15T05:42:49.000Z</time>
      </trkpt>
      <trkpt lat="45.02605" lon="4.83806">
        <ele>120.325959</ele>
        <time>2021-09-15T05:42:57.000Z</time>
      </trkpt>
      <trkpt lat="45.02564" lon="4.83845">
        <ele>120.236993</ele>
        <time>2021-09-15T05:43:05.000Z</time>
      </trkpt>
      <trkpt lat="45.02528" lon="4.83879">
        <ele>120.176288</ele>
        <time>2021-09-15T05:43:12.000Z</time>
      </trkpt>
      <trkpt lat="45.02524" lon="4.83885">
        <ele>120.167783</ele>
        <time>2021-09-15T05:43:13.000Z</time>
      </trkpt>
      <trkpt lat="45.02497" lon="4.83919">
        <ele>120.116843</ele>
        <time>2021-09-15T05:43:19.000Z</time>
      </trkpt>
      <trkpt lat="45.02475" lon="4.83947">
        <ele>120.0752</ele>
        <time>2021-09-15T05:43:24.000Z</time>
      </trkpt>
      <trkpt lat="45.02461" lon="4.83963">
        <ele>120.050053</ele>
        <time>2021-09-15T05:43:27.000Z</time>
      </trkpt>
      <trkpt lat="45.02422" lon="4.84014">
        <ele>119.974976</ele>
        <time>2021-09-15T05:43:36.000Z</time>
      </trkpt>
      <trkpt lat="45.02386" lon="4.84062">
        <ele>119.904202</ele>
        <time>2021-09-15T05:43:44.000Z</time>
      </trkpt>
      <trkpt lat="45.02358" lon="4.841">
        <ele>119.848742</ele>
        <time>2021-09-15T05:43:50.000Z</time>
      </trkpt>
      <trkpt lat="45.02322" lon="4.84143">
        <ele>119.782207</ele>
        <time>2021-09-15T05:43:57.000Z</time>
      </trkpt>
      <trkpt lat="45.02279" lon="4.84187">
        <ele>119.702536</ele>
        <time>2021-09-15T05:44:05.000Z</time>
      </trkpt>
      <trkpt lat="45.02252" lon="4.8421">
        <ele>119.653318</ele>
        <time>2021-09-15T05:44:10.000Z</time>
      </trkpt>
      <trkpt lat="45.02241" lon="4.84218">
        <ele>119.633946</ele>
        <time>2021-09-15T05:44:12.000Z</time>
      </trkpt>
      <trkpt lat="45.02207" lon="4.84241">
        <ele>119.575021</ele>
        <time>2021-09-15T05:44:18.000Z</time>
      </trkpt>
      <trkpt lat="45.02164" lon="4.84261">
        <ele>119.504204</ele>
        <time>2021-09-15T05:44:25.000Z</time>
      </trkpt>
      <trkpt lat="45.02106" lon="4.84285">
        <ele>119.245211</ele>
        <time>2021-09-15T05:44:34.000Z</time>
      </trkpt>
      <trkpt lat="45.02061" lon="4.84296">
        <ele>118.942099</ele>
        <time>2021-09-15T05:44:41.000Z</time>
      </trkpt>
      <trkpt lat="45.02047" lon="4.84298">
        <ele>118.855547</ele>
        <time>2021-09-15T05:44:43.000Z</time>
      </trkpt>
      <trkpt lat="45.02028" lon="4.84301">
        <ele>118.731675</ele>
        <time>2021-09-15T05:44:46.000Z</time>
      </trkpt>
      <trkpt lat="45.01981" lon="4.84302">
        <ele>118.422143</ele>
        <time>2021-09-15T05:44:54.000Z</time>
      </trkpt>
      <trkpt lat="45.01944" lon="4.84298">
        <ele>118.111155</ele>
        <time>2021-09-15T05:45:00.000Z</time>
      </trkpt>
      <trkpt lat="45.019" lon="4.84289">
        <ele>117.628166</ele>
        <time>2021-09-15T05:45:07.000Z</time>
      </trkpt>
      <trkpt lat="45.01855" lon="4.84277">
        <ele>117.145508</ele>
        <time>2021-09-15T05:45:14.000Z</time>
      </trkpt>
      <trkpt lat="45.01821" lon="4.8426">
        <ele>116.75663</ele>
        <time>2021-09-15T05:45:20.000Z</time>
      </trkpt>
      <trkpt lat="45.01786" lon="4.84242">
        <ele>116.356325</ele>
        <time>2021-09-15T05:45:26.000Z</time>
      </trkpt>
      <trkpt lat="45.01751" lon="4.8422">
        <ele>116.205509</ele>
        <time>2021-09-15T05:45:32.000Z</time>
      </trkpt>
      <trkpt lat="45.01724" lon="4.84198">
        <ele>116.081051</ele>
        <time>2021-09-15T05:45:37.000Z</time>
      </trkpt>
      <trkpt lat="45.01687" lon="4.84163">
        <ele>115.906476</ele>
        <time>2021-09-15T05:45:44.000Z</time>
      </trkpt>
      <trkpt lat="45.01651" lon="4.84128">
        <ele>115.733201</ele>
        <time>2021-09-15T05:45:51.000Z</time>
      </trkpt>
      <trkpt lat="45.01626" lon="4.84094">
        <ele>115.645945</ele>
        <time>2021-09-15T05:45:57.000Z</time>
      </trkpt>
      <trkpt lat="45.01599" lon="4.84082">
        <ele>115.646905</ele>
        <time>2021-09-15T05:46:02.000Z</time>
      </trkpt>
      <trkpt lat="45.01562" lon="4.84057">
        <ele>115.648328</ele>
        <time>2021-09-15T05:46:09.000Z</time>
      </trkpt>
      <trkpt lat="45.0154" lon="4.8403">
        <ele>115.649357</ele>
        <time>2021-09-15T05:46:14.000Z</time>
      </trkpt>
      <trkpt lat="45.01535" lon="4.84024">
        <ele>115.649561</ele>
        <time>2021-09-15T05:46:15.000Z</time>
      </trkpt>
      <trkpt lat="45.01527" lon="4.84014">
        <ele>115.649951</ele>
        <time>2021-09-15T05:46:17.000Z</time>
      </trkpt>
      <trkpt lat="45.01519" lon="4.84003">
        <ele>115.650332</ele>
        <time>2021-09-15T05:46:19.000Z</time>
      </trkpt>
      <trkpt lat="45.01499" lon="4.83979">
        <ele>115.651255</ele>
        <time>2021-09-15T05:46:24.000Z</time>
      </trkpt>
      <trkpt lat="45.01494" lon="4.83974">
        <ele>115.651448</ele>
        <time>2021-09-15T05:46:25.000Z</time>
      </trkpt>
      <trkpt lat="45.01471" lon="4.83951">
        <ele>115.745262</ele>
        <time>2021-09-15T05:46:30.000Z</time>
      </trkpt>
      <trkpt lat="45.01466" lon="4.83946">
        <ele>115.771748</ele>
        <time>2021-09-15T05:46:31.000Z</time>
      </trkpt>
      <trkpt lat="45.01446" lon="4.83917">
        <ele>115.905038</ele>
        <time>2021-09-15T05:46:36.000Z</time>
      </trkpt>
      <trkpt lat="45.01415" lon="4.83862">
        <ele>116.130258</ele>
        <time>2021-09-15T05:46:44.000Z</time>
      </trkpt>
      <trkpt lat="45.01392" lon="4.83811">
        <ele>116.325036</ele>
        <time>2021-09-15T05:46:50.000Z</time>
      </trkpt>
      <trkpt lat="45.01381" lon="4.83781">
        <ele>116.434696</ele>
        <time>2021-09-15T05:46:55.000Z</time>
      </trkpt>
      <trkpt lat="45.01366" lon="4.83744">
        <ele>116.716983</ele>
        <time>2021-09-15T05:47:00.000Z</time>
      </trkpt>
      <trkpt lat="45.01363" lon="4.83736">
        <ele>116.784033</ele>
        <time>2021-09-15T05:47:01.000Z</time>
      </trkpt>
      <trkpt lat="45.01356" lon="4.83711">
        <ele>116.997449</ele>
        <time>2021-09-15T05:47:03.000Z</time>
      </trkpt>
      <trkpt lat="45.01357" lon="4.83695">
        <ele>117.128895</ele>
        <time>2021-09-15T05:47:05.000Z</time>
      </trkpt>
      <trkpt lat="45.01359" lon="4.83688">
        <ele>117.188071</ele>
        <time>2021-09-15T05:47:07.000Z</time>
      </trkpt>
      <trkpt lat="45.01362" lon="4.83667">
        <ele>117.353321</ele>
        <time>2021-09-15T05:47:09.000Z</time>
      </trkpt>
      <trkpt lat="45.01361" lon="4.8366">
        <ele>117.407586</ele>
        <time>2021-09-15T05:47:11.000Z</time>
      </trkpt>
      <trkpt lat="45.01358" lon="4.83656">
        <ele>117.456429</ele>
        <time>2021-09-15T05:47:12.000Z</time>
      </trkpt>
      <trkpt lat="45.01354" lon="4.83654">
        <ele>117.503709</ele>
        <time>2021-09-15T05:47:13.000Z</time>
      </trkpt>
      <trkpt lat="45.01346" lon="4.83655">
        <ele>117.587815</ele>
        <time>2021-09-15T05:47:15.000Z</time>
      </trkpt>
      <trkpt lat="45.01335" lon="4.8367">
        <ele>117.757731</ele>
        <time>2021-09-15T05:47:19.000Z</time>
      </trkpt>
      <trkpt lat="45.0133" lon="4.83691">
        <ele>117.937057</ele>
        <time>2021-09-15T05:47:23.000Z</time>
      </trkpt>
      <trkpt lat="45.01321" lon="4.83694">
        <ele>118.042224</ele>
        <time>2021-09-15T05:47:25.000Z</time>
      </trkpt>
      <trkpt lat="45.01321" lon="4.83693">
        <ele>118.044165</ele>
        <time>2021-09-15T05:47:26.000Z</time>
      </trkpt>
      <trkpt lat="45.01317" lon="4.8369">
        <ele>118.092253</ele>
        <time>2021-09-15T05:47:27.000Z</time>
      </trkpt>
      <trkpt lat="45.0131" lon="4.83683">
        <ele>118.188369</ele>
        <time>2021-09-15T05:47:30.000Z</time>
      </trkpt>
      <trkpt lat="45.01281" lon="4.83647">
        <ele>118.558134</ele>
        <time>2021-09-15T05:47:38.000Z</time>
      </trkpt>
      <trkpt lat="45.01266" lon="4.83628">
        <ele>118.678571</ele>
        <time>2021-09-15T05:47:42.000Z</time>
      </trkpt>
      <trkpt lat="45.0125" lon="4.83609">
        <ele>118.80443</ele>
        <time>2021-09-15T05:47:46.000Z</time>
      </trkpt>
      <trkpt lat="45.01223" lon="4.83589">
        <ele>118.980545</ele>
        <time>2021-09-15T05:47:51.000Z</time>
      </trkpt>
      <trkpt lat="45.01219" lon="4.83587">
        <ele>119.010493</ele>
        <time>2021-09-15T05:47:52.000Z</time>
      </trkpt>
      <trkpt lat="45.01209" lon="4.83584">
        <ele>119.070716</ele>
        <time>2021-09-15T05:47:55.000Z</time>
      </trkpt>
      <trkpt lat="45.01198" lon="4.83583">
        <ele>119.132328</ele>
        <time>2021-09-15T05:47:57.000Z</time>
      </trkpt>
      <trkpt lat="45.01172" lon="4.83593">
        <ele>119.293742</ele>
        <time>2021-09-15T05:48:01.000Z</time>
      </trkpt>
      <trkpt lat="45.01146" lon="4.83622">
        <ele>119.487699</ele>
        <time>2021-09-15T05:48:08.000Z</time>
      </trkpt>
      <trkpt lat="45.01126" lon="4.83659">
        <ele>119.762845</ele>
        <time>2021-09-15T05:48:15.000Z</time>
      </trkpt>
      <trkpt lat="45.01117" lon="4.83675">
        <ele>119.897333</ele>
        <time>2021-09-15T05:48:19.000Z</time>
      </trkpt>
      <trkpt lat="45.01112" lon="4.83686">
        <ele>119.986094</ele>
        <time>2021-09-15T05:48:22.000Z</time>
      </trkpt>
      <trkpt lat="45.0111" lon="4.83686">
        <ele>119.999359</ele>
        <time>2021-09-15T05:48:23.000Z</time>
      </trkpt>
      <trkpt lat="45.01102" lon="4.83685">
        <ele>120.079535</ele>
        <time>2021-09-15T05:48:27.000Z</time>
      </trkpt>
      <trkpt lat="45.01087" lon="4.83714">
        <ele>120.316339</ele>
        <time>2021-09-15T05:48:34.000Z</time>
      </trkpt>
      <trkpt lat="45.01074" lon="4.83741">
        <ele>120.536793</ele>
        <time>2021-09-15T05:48:41.000Z</time>
      </trkpt>
      <trkpt lat="45.01065" lon="4.83769">
        <ele>120.738584</ele>
        <time>2021-09-15T05:48:47.000Z</time>
      </trkpt>
      <trkpt lat="45.01058" lon="4.83805">
        <ele>120.990398</ele>
        <time>2021-09-15T05:48:55.000Z</time>
      </trkpt>
      <trkpt lat="45.01052" lon="4.83839">
        <ele>121.219904</ele>
        <time>2021-09-15T05:49:03.000Z</time>
      </trkpt>
      <trkpt lat="45.01046" lon="4.83874">
        <ele>121.448815</ele>
        <time>2021-09-15T05:49:10.000Z</time>
      </trkpt>
      <trkpt lat="45.01043" lon="4.83895">
        <ele>121.586228</ele>
        <time>2021-09-15T05:49:14.000Z</time>
      </trkpt>
      <trkpt lat="45.0104" lon="4.83912">
        <ele>121.699429</ele>
        <time>2021-09-15T05:49:17.000Z</time>
      </trkpt>
      <trkpt lat="45.01032" lon="4.83959">
        <ele>122.010264</ele>
        <time>2021-09-15T05:49:24.000Z</time>
      </trkpt>
      <trkpt lat="45.01025" lon="4.84003">
        <ele>122.298131</ele>
        <time>2021-09-15T05:49:32.000Z</time>
      </trkpt>
      <trkpt lat="45.01018" lon="4.84046">
        <ele>122.578755</ele>
        <time>2021-09-15T05:49:40.000Z</time>
      </trkpt>
      <trkpt lat="45.01012" lon="4.84085">
        <ele>122.831465</ele>
        <time>2021-09-15T05:49:47.000Z</time>
      </trkpt>
      <trkpt lat="45.0101" lon="4.84111">
        <ele>122.808185</ele>
        <time>2021-09-15T05:49:52.000Z</time>
      </trkpt>
      <trkpt lat="45.01011" lon="4.84122">
        <ele>122.76898</ele>
        <time>2021-09-15T05:49:54.000Z</time>
      </trkpt>
      <trkpt lat="45.01012" lon="4.84129">
        <ele>122.747749</ele>
        <time>2021-09-15T05:49:56.000Z</time>
      </trkpt>
      <trkpt lat="45.01017" lon="4.84141">
        <ele>122.700086</ele>
        <time>2021-09-15T05:49:58.000Z</time>
      </trkpt>
      <trkpt lat="45.01022" lon="4.84145">
        <ele>122.675619</ele>
        <time>2021-09-15T05:49:59.000Z</time>
      </trkpt>
      <trkpt lat="45.01027" lon="4.84148">
        <ele>122.650135</ele>
        <time>2021-09-15T05:50:00.000Z</time>
      </trkpt>
      <trkpt lat="45.01039" lon="4.8415">
        <ele>122.592748</ele>
        <time>2021-09-15T05:50:02.000Z</time>
      </trkpt>
      <trkpt lat="45.01052" lon="4.84152">
        <ele>122.532874</ele>
        <time>2021-09-15T05:50:03.000Z</time>
      </trkpt>
      <trkpt lat="45.01058" lon="4.84155">
        <ele>122.503761</ele>
        <time>2021-09-15T05:50:05.000Z</time>
      </trkpt>
      <trkpt lat="45.01066" lon="4.8417">
        <ele>122.442075</ele>
        <time>2021-09-15T05:50:07.000Z</time>
      </trkpt>
      <trkpt lat="45.01066" lon="4.842">
        <ele>122.34129</ele>
        <time>2021-09-15T05:50:09.000Z</time>
      </trkpt>
      <trkpt lat="45.01066" lon="4.842">
        <ele>122.34129</ele>
        <time>2021-09-15T05:50:10.000Z</time>
      </trkpt>
      <trkpt lat="45.01072" lon="4.84204">
        <ele>122.312572</ele>
        <time>2021-09-15T05:50:11.000Z</time>
      </trkpt>
      <trkpt lat="45.01078" lon="4.84203">
        <ele>122.282635</ele>
        <time>2021-09-15T05:50:12.000Z</time>
      </trkpt>
      <trkpt lat="45.01083" lon="4.84196">
        <ele>122.249751</ele>
        <time>2021-09-15T05:50:13.000Z</time>
      </trkpt>
      <trkpt lat="45.01105" lon="4.8419">
        <ele>122.148772</ele>
        <time>2021-09-15T05:50:16.000Z</time>
      </trkpt>
      <trkpt lat="45.01125" lon="4.84195">
        <ele>122.05193</ele>
        <time>2021-09-15T05:50:18.000Z</time>
      </trkpt>
      <trkpt lat="45.01138" lon="4.842">
        <ele>121.996914</ele>
        <time>2021-09-15T05:50:21.000Z</time>
      </trkpt>
      <trkpt lat="45.01157" lon="4.84208">
        <ele>121.922533</ele>
        <time>2021-09-15T05:50:24.000Z</time>
      </trkpt>
      <trkpt lat="45.01175" lon="4.84215">
        <ele>121.851255</ele>
        <time>2021-09-15T05:50:26.000Z</time>
      </trkpt>
      <trkpt lat="45.01214" lon="4.84239">
        <ele>121.688533</ele>
        <time>2021-09-15T05:50:33.000Z</time>
      </trkpt>
      <trkpt lat="45.01254" lon="4.84264">
        <ele>121.521205</ele>
        <time>2021-09-15T05:50:40.000Z</time>
      </trkpt>
      <trkpt lat="45.01272" lon="4.84273">
        <ele>121.447365</ele>
        <time>2021-09-15T05:50:44.000Z</time>
      </trkpt>
      <trkpt lat="45.01289" lon="4.84277">
        <ele>121.378082</ele>
        <time>2021-09-15T05:50:46.000Z</time>
      </trkpt>
      <trkpt lat="45.01313" lon="4.8427">
        <ele>121.314449</ele>
        <time>2021-09-15T05:50:51.000Z</time>
      </trkpt>
      <trkpt lat="45.01318" lon="4.84269">
        <ele>121.305128</ele>
        <time>2021-09-15T05:50:52.000Z</time>
      </trkpt>
      <trkpt lat="45.01325" lon="4.84274">
        <ele>121.288888</ele>
        <time>2021-09-15T05:50:53.000Z</time>
      </trkpt>
      <trkpt lat="45.01344" lon="4.84281">
        <ele>121.249093</ele>
        <time>2021-09-15T05:50:56.000Z</time>
      </trkpt>
      <trkpt lat="45.01351" lon="4.84281">
        <ele>121.235615</ele>
        <time>2021-09-15T05:50:57.000Z</time>
      </trkpt>
      <trkpt lat="45.01368" lon="4.84294">
        <ele>121.195242</ele>
        <time>2021-09-15T05:51:00.000Z</time>
      </trkpt>
      <trkpt lat="45.01393" lon="4.84318">
        <ele>121.135199</ele>
        <time>2021-09-15T05:51:05.000Z</time>
      </trkpt>
      <trkpt lat="45.01398" lon="4.84322">
        <ele>121.124536</ele>
        <time>2021-09-15T05:51:06.000Z</time>
      </trkpt>
      <trkpt lat="45.01418" lon="4.8434">
        <ele>121.076823</ele>
        <time>2021-09-15T05:51:11.000Z</time>
      </trkpt>
      <trkpt lat="45.01434" lon="4.84344">
        <ele>121.044357</ele>
        <time>2021-09-15T05:51:16.000Z</time>
      </trkpt>
      <trkpt lat="45.01457" lon="4.84368">
        <ele>120.98702</ele>
        <time>2021-09-15T05:51:23.000Z</time>
      </trkpt>
      <trkpt lat="45.01484" lon="4.84403">
        <ele>120.924436</ele>
        <time>2021-09-15T05:51:29.000Z</time>
      </trkpt>
      <trkpt lat="45.01488" lon="4.84408">
        <ele>120.915033</ele>
        <time>2021-09-15T05:51:31.000Z</time>
      </trkpt>
      <trkpt lat="45.01516" lon="4.84444">
        <ele>120.849795</ele>
        <time>2021-09-15T05:51:38.000Z</time>
      </trkpt>
      <trkpt lat="45.01545" lon="4.8448">
        <ele>120.783518</ele>
        <time>2021-09-15T05:51:45.000Z</time>
      </trkpt>
      <trkpt lat="45.01577" lon="4.84518">
        <ele>120.713301</ele>
        <time>2021-09-15T05:51:52.000Z</time>
      </trkpt>
      <trkpt lat="45.01606" lon="4.84546">
        <ele>120.69926</ele>
        <time>2021-09-15T05:51:58.000Z</time>
      </trkpt>
      <trkpt lat="45.01642" lon="4.84575">
        <ele>120.763605</ele>
        <time>2021-09-15T05:52:05.000Z</time>
      </trkpt>
      <trkpt lat="45.01687" lon="4.84605">
        <ele>120.839907</ele>
        <time>2021-09-15T05:52:13.000Z</time>
      </trkpt>
      <trkpt lat="45.01739" lon="4.84633">
        <ele>120.925873</ele>
        <time>2021-09-15T05:52:22.000Z</time>
      </trkpt>
      <trkpt lat="45.01745" lon="4.84636">
        <ele>120.93538</ele>
        <time>2021-09-15T05:52:23.000Z</time>
      </trkpt>
      <trkpt lat="45.01798" lon="4.84662">
        <ele>120.985693</ele>
        <time>2021-09-15T05:52:32.000Z</time>
      </trkpt>
      <trkpt lat="45.01804" lon="4.84665">
        <ele>120.990263</ele>
        <time>2021-09-15T05:52:33.000Z</time>
      </trkpt>
      <trkpt lat="45.01844" lon="4.84685">
        <ele>121.020775</ele>
        <time>2021-09-15T05:52:40.000Z</time>
      </trkpt>
      <trkpt lat="45.01849" lon="4.84688">
        <ele>121.024994</ele>
        <time>2021-09-15T05:52:41.000Z</time>
      </trkpt>
      <trkpt lat="45.01854" lon="4.84691">
        <ele>121.029254</ele>
        <time>2021-09-15T05:52:42.000Z</time>
      </trkpt>
      <trkpt lat="45.01864" lon="4.847">
        <ele>121.037383</ele>
        <time>2021-09-15T05:52:44.000Z</time>
      </trkpt>
      <trkpt lat="45.01872" lon="4.84714">
        <ele>121.046451</ele>
        <time>2021-09-15T05:52:46.000Z</time>
      </trkpt>
      <trkpt lat="45.01867" lon="4.84732">
        <ele>121.056636</ele>
        <time>2021-09-15T05:52:48.000Z</time>
      </trkpt>
      <trkpt lat="45.01871" lon="4.84749">
        <ele>121.065755</ele>
        <time>2021-09-15T05:52:50.000Z</time>
      </trkpt>
      <trkpt lat="45.01863" lon="4.84772">
        <ele>121.078554</ele>
        <time>2021-09-15T05:52:52.000Z</time>
      </trkpt>
      <trkpt lat="45.01838" lon="4.84824">
        <ele>121.0944</ele>
        <time>2021-09-15T05:52:59.000Z</time>
      </trkpt>
      <trkpt lat="45.01805" lon="4.84877">
        <ele>121.108822</ele>
        <time>2021-09-15T05:53:08.000Z</time>
      </trkpt>
      <trkpt lat="45.01766" lon="4.84935">
        <ele>121.125004</ele>
        <time>2021-09-15T05:53:16.000Z</time>
      </trkpt>
      <trkpt lat="45.01731" lon="4.84985">
        <ele>121.113263</ele>
        <time>2021-09-15T05:53:24.000Z</time>
      </trkpt>
      <trkpt lat="45.01697" lon="4.85024">
        <ele>121.04162</ele>
        <time>2021-09-15T05:53:31.000Z</time>
      </trkpt>
      <trkpt lat="45.01659" lon="4.85067">
        <ele>120.961198</ele>
        <time>2021-09-15T05:53:39.000Z</time>
      </trkpt>
      <trkpt lat="45.01633" lon="4.85096">
        <ele>120.906202</ele>
        <time>2021-09-15T05:53:46.000Z</time>
      </trkpt>
      <trkpt lat="45.01597" lon="4.8513">
        <ele>120.839121</ele>
        <time>2021-09-15T05:53:52.000Z</time>
      </trkpt>
      <trkpt lat="45.01551" lon="4.85174">
        <ele>120.844154</ele>
        <time>2021-09-15T05:54:01.000Z</time>
      </trkpt>
      <trkpt lat="45.01509" lon="4.85212">
        <ele>120.848608</ele>
        <time>2021-09-15T05:54:09.000Z</time>
      </trkpt>
      <trkpt lat="45.01466" lon="4.85247">
        <ele>120.853018</ele>
        <time>2021-09-15T05:54:17.000Z</time>
      </trkpt>
      <trkpt lat="45.01447" lon="4.85263">
        <ele>120.855068</ele>
        <time>2021-09-15T05:54:21.000Z</time>
      </trkpt>
      <trkpt lat="45.01443" lon="4.85266">
        <ele>120.933955</ele>
        <time>2021-09-15T05:54:22.000Z</time>
      </trkpt>
      <trkpt lat="45.01437" lon="4.85262">
        <ele>121.056526</ele>
        <time>2021-09-15T05:54:23.000Z</time>
      </trkpt>
      <trkpt lat="45.01433" lon="4.85248">
        <ele>121.271212</ele>
        <time>2021-09-15T05:54:25.000Z</time>
      </trkpt>
      <trkpt lat="45.01427" lon="4.85234">
        <ele>121.490191</ele>
        <time>2021-09-15T05:54:27.000Z</time>
      </trkpt>
      <trkpt lat="45.01421" lon="4.85216">
        <ele>121.778699</ele>
        <time>2021-09-15T05:54:30.000Z</time>
      </trkpt>
      <trkpt lat="45.01409" lon="4.85191">
        <ele>122.203504</ele>
        <time>2021-09-15T05:54:35.000Z</time>
      </trkpt>
      <trkpt lat="45.01406" lon="4.85185">
        <ele>122.303985</ele>
        <time>2021-09-15T05:54:37.000Z</time>
      </trkpt>
      <trkpt lat="45.01403" lon="4.85178">
        <ele>122.415891</ele>
        <time>2021-09-15T05:54:39.000Z</time>
      </trkpt>
      <trkpt lat="45.01397" lon="4.85166">
        <ele>122.629429</ele>
        <time>2021-09-15T05:54:42.000Z</time>
      </trkpt>
      <trkpt lat="45.01394" lon="4.85161">
        <ele>122.711673</ele>
        <time>2021-09-15T05:54:43.000Z</time>
      </trkpt>
      <trkpt lat="45.01387" lon="4.85145">
        <ele>122.967586</ele>
        <time>2021-09-15T05:54:47.000Z</time>
      </trkpt>
      <trkpt lat="45.0138" lon="4.8513">
        <ele>123.220076</ele>
        <time>2021-09-15T05:54:49.000Z</time>
      </trkpt>
      <trkpt lat="45.01367" lon="4.85102">
        <ele>123.691909</ele>
        <time>2021-09-15T05:54:55.000Z</time>
      </trkpt>
      <trkpt lat="45.01356" lon="4.85095">
        <ele>123.934101</ele>
        <time>2021-09-15T05:54:59.000Z</time>
      </trkpt>
      <trkpt lat="45.01353" lon="4.85096">
        <ele>123.995401</ele>
        <time>2021-09-15T05:55:02.000Z</time>
      </trkpt>
      <trkpt lat="45.01351" lon="4.85097">
        <ele>124.038418</ele>
        <time>2021-09-15T05:55:03.000Z</time>
      </trkpt>
      <trkpt lat="45.01347" lon="4.85108">
        <ele>124.208331</ele>
        <time>2021-09-15T05:55:05.000Z</time>
      </trkpt>
      <trkpt lat="45.01356" lon="4.85111">
        <ele>124.409695</ele>
        <time>2021-09-15T05:55:07.000Z</time>
      </trkpt>
      <trkpt lat="45.01368" lon="4.85143">
        <ele>124.798258</ele>
        <time>2021-09-15T05:55:14.000Z</time>
      </trkpt>
      <trkpt lat="45.01384" lon="4.85184">
        <ele>125.296151</ele>
        <time>2021-09-15T05:55:24.000Z</time>
      </trkpt>
      <trkpt lat="45.01392" lon="4.85206">
        <ele>125.562368</ele>
        <time>2021-09-15T05:55:30.000Z</time>
      </trkpt>
      <trkpt lat="45.01402" lon="4.85231">
        <ele>125.86811</ele>
        <time>2021-09-15T05:55:37.000Z</time>
      </trkpt>
      <trkpt lat="45.01412" lon="4.85258">
        <ele>126.197747</ele>
        <time>2021-09-15T05:55:45.000Z</time>
      </trkpt>
      <trkpt lat="45.01427" lon="4.85296">
        <ele>126.660886</ele>
        <time>2021-09-15T05:55:53.000Z</time>
      </trkpt>
      <trkpt lat="45.0144" lon="4.85328">
        <ele>127.053307</ele>
        <time>2021-09-15T05:56:00.000Z</time>
      </trkpt>
      <trkpt lat="45.01457" lon="4.85374">
        <ele>127.222093</ele>
        <time>2021-09-15T05:56:09.000Z</time>
      </trkpt>
      <trkpt lat="45.01478" lon="4.85426">
        <ele>127.335988</ele>
        <time>2021-09-15T05:56:18.000Z</time>
      </trkpt>
      <trkpt lat="45.01504" lon="4.85493">
        <ele>127.478201</ele>
        <time>2021-09-15T05:56:28.000Z</time>
      </trkpt>
      <trkpt lat="45.01506" lon="4.855">
        <ele>127.49319</ele>
        <time>2021-09-15T05:56:29.000Z</time>
      </trkpt>
      <trkpt lat="45.01508" lon="4.85526">
        <ele>127.543451</ele>
        <time>2021-09-15T05:56:32.000Z</time>
      </trkpt>
      <trkpt lat="45.01517" lon="4.85563">
        <ele>127.617481</ele>
        <time>2021-09-15T05:56:37.000Z</time>
      </trkpt>
      <trkpt lat="45.01512" lon="4.85557">
        <ele>127.553926</ele>
        <time>2021-09-15T05:56:39.000Z</time>
      </trkpt>
      <trkpt lat="45.01505" lon="4.85544">
        <ele>127.435139</ele>
        <time>2021-09-15T05:56:42.000Z</time>
      </trkpt>
      <trkpt lat="45.01502" lon="4.85538">
        <ele>127.377439</ele>
        <time>2021-09-15T05:56:43.000Z</time>
      </trkpt>
      <trkpt lat="45.01498" lon="4.85532">
        <ele>127.317796</ele>
        <time>2021-09-15T05:56:44.000Z</time>
      </trkpt>
      <trkpt lat="45.01493" lon="4.85517">
        <ele>127.188099</ele>
        <time>2021-09-15T05:56:46.000Z</time>
      </trkpt>
      <trkpt lat="45.01488" lon="4.85499">
        <ele>127.049862</ele>
        <time>2021-09-15T05:56:48.000Z</time>
      </trkpt>
      <trkpt lat="45.01484" lon="4.85491">
        <ele>126.972509</ele>
        <time>2021-09-15T05:56:49.000Z</time>
      </trkpt>
      <trkpt lat="45.01479" lon="4.85482">
        <ele>126.891474</ele>
        <time>2021-09-15T05:56:50.000Z</time>
      </trkpt>
      <trkpt lat="45.01465" lon="4.85471">
        <ele>126.720244</ele>
        <time>2021-09-15T05:56:52.000Z</time>
      </trkpt>
      <trkpt lat="45.01452" lon="4.8548">
        <ele>126.563436</ele>
        <time>2021-09-15T05:56:54.000Z</time>
      </trkpt>
      <trkpt lat="45.01415" lon="4.85507">
        <ele>126.11769</ele>
        <time>2021-09-15T05:57:00.000Z</time>
      </trkpt>
      <trkpt lat="45.01372" lon="4.85537">
        <ele>125.645135</ele>
        <time>2021-09-15T05:57:07.000Z</time>
      </trkpt>
      <trkpt lat="45.01329" lon="4.85564">
        <ele>125.322273</ele>
        <time>2021-09-15T05:57:14.000Z</time>
      </trkpt>
      <trkpt lat="45.01274" lon="4.85596">
        <ele>124.910639</ele>
        <time>2021-09-15T05:57:23.000Z</time>
      </trkpt>
      <trkpt lat="45.01267" lon="4.856">
        <ele>124.863788</ele>
        <time>2021-09-15T05:57:24.000Z</time>
      </trkpt>
      <trkpt lat="45.01213" lon="4.85632">
        <ele>124.461489</ele>
        <time>2021-09-15T05:57:33.000Z</time>
      </trkpt>
      <trkpt lat="45.01164" lon="4.8566">
        <ele>124.204344</ele>
        <time>2021-09-15T05:57:41.000Z</time>
      </trkpt>
      <trkpt lat="45.0111" lon="4.85691">
        <ele>123.923187</ele>
        <time>2021-09-15T05:57:50.000Z</time>
      </trkpt>
      <trkpt lat="45.01098" lon="4.85698">
        <ele>123.862</ele>
        <time>2021-09-15T05:57:52.000Z</time>
      </trkpt>
      <trkpt lat="45.01044" lon="4.85728">
        <ele>123.590305</ele>
        <time>2021-09-15T05:58:01.000Z</time>
      </trkpt>
      <trkpt lat="45.01038" lon="4.85731">
        <ele>123.574379</ele>
        <time>2021-09-15T05:58:02.000Z</time>
      </trkpt>
      <trkpt lat="45.00985" lon="4.85762">
        <ele>123.43332</ele>
        <time>2021-09-15T05:58:11.000Z</time>
      </trkpt>
      <trkpt lat="45.00979" lon="4.85765">
        <ele>123.418271</ele>
        <time>2021-09-15T05:58:12.000Z</time>
      </trkpt>
      <trkpt lat="45.00933" lon="4.85791">
        <ele>123.296714</ele>
        <time>2021-09-15T05:58:20.000Z</time>
      </trkpt>
      <trkpt lat="45.00891" lon="4.85815">
        <ele>123.184419</ele>
        <time>2021-09-15T05:58:27.000Z</time>
      </trkpt>
      <trkpt lat="45.00836" lon="4.85846">
        <ele>123.000705</ele>
        <time>2021-09-15T05:58:36.000Z</time>
      </trkpt>
      <trkpt lat="45.0083" lon="4.85849">
        <ele>122.979341</ele>
        <time>2021-09-15T05:58:37.000Z</time>
      </trkpt>
      <trkpt lat="45.0078" lon="4.85877">
        <ele>122.806013</ele>
        <time>2021-09-15T05:58:45.000Z</time>
      </trkpt>
      <trkpt lat="45.00725" lon="4.85908">
        <ele>122.612143</ele>
        <time>2021-09-15T05:58:54.000Z</time>
      </trkpt>
      <trkpt lat="45.00719" lon="4.85912">
        <ele>122.590778</ele>
        <time>2021-09-15T05:58:55.000Z</time>
      </trkpt>
      <trkpt lat="45.00665" lon="4.85943">
        <ele>122.246453</ele>
        <time>2021-09-15T05:59:04.000Z</time>
      </trkpt>
      <trkpt lat="45.00653" lon="4.8595">
        <ele>122.164492</ele>
        <time>2021-09-15T05:59:06.000Z</time>
      </trkpt>
      <trkpt lat="45.00597" lon="4.85981">
        <ele>121.794807</ele>
        <time>2021-09-15T05:59:15.000Z</time>
      </trkpt>
      <trkpt lat="45.00542" lon="4.86013">
        <ele>121.429186</ele>
        <time>2021-09-15T05:59:24.000Z</time>
      </trkpt>
      <trkpt lat="45.00535" lon="4.86016">
        <ele>121.3927</ele>
        <time>2021-09-15T05:59:25.000Z</time>
      </trkpt>
      <trkpt lat="45.0048" lon="4.86048">
        <ele>121.065198</ele>
        <time>2021-09-15T05:59:34.000Z</time>
      </trkpt>
      <trkpt lat="45.00425" lon="4.86079">
        <ele>120.742472</ele>
        <time>2021-09-15T05:59:43.000Z</time>
      </trkpt>
      <trkpt lat="45.00419" lon="4.86082">
        <ele>120.707145</ele>
        <time>2021-09-15T05:59:44.000Z</time>
      </trkpt>
      <trkpt lat="45.00366" lon="4.86113">
        <ele>120.429695</ele>
        <time>2021-09-15T05:59:53.000Z</time>
      </trkpt>
      <trkpt lat="45.00319" lon="4.86139">
        <ele>120.276678</ele>
        <time>2021-09-15T06:00:01.000Z</time>
      </trkpt>
      <trkpt lat="45.0027" lon="4.86167">
        <ele>120.116476</ele>
        <time>2021-09-15T06:00:09.000Z</time>
      </trkpt>
      <trkpt lat="45.00216" lon="4.86198">
        <ele>119.9386</ele>
        <time>2021-09-15T06:00:18.000Z</time>
      </trkpt>
      <trkpt lat="45.0021" lon="4.86201">
        <ele>119.923334</ele>
        <time>2021-09-15T06:00:19.000Z</time>
      </trkpt>
      <trkpt lat="45.00155" lon="4.86232">
        <ele>119.821383</ele>
        <time>2021-09-15T06:00:28.000Z</time>
      </trkpt>
      <trkpt lat="45.00101" lon="4.86263">
        <ele>119.719799</ele>
        <time>2021-09-15T06:00:37.000Z</time>
      </trkpt>
      <trkpt lat="45.00077" lon="4.86277">
        <ele>119.674424</ele>
        <time>2021-09-15T06:00:41.000Z</time>
      </trkpt>
      <trkpt lat="45.00022" lon="4.86308">
        <ele>119.579301</ele>
        <time>2021-09-15T06:00:50.000Z</time>
      </trkpt>
      <trkpt lat="44.99968" lon="4.86338">
        <ele>119.494669</ele>
        <time>2021-09-15T06:00:59.000Z</time>
      </trkpt>
      <trkpt lat="44.99962" lon="4.86342">
        <ele>119.485201</ele>
        <time>2021-09-15T06:01:00.000Z</time>
      </trkpt>
      <trkpt lat="44.99908" lon="4.86372">
        <ele>119.399851</ele>
        <time>2021-09-15T06:01:09.000Z</time>
      </trkpt>
      <trkpt lat="44.99862" lon="4.86398">
        <ele>119.384931</ele>
        <time>2021-09-15T06:01:17.000Z</time>
      </trkpt>
      <trkpt lat="44.99809" lon="4.86426">
        <ele>119.481194</ele>
        <time>2021-09-15T06:01:26.000Z</time>
      </trkpt>
      <trkpt lat="44.99803" lon="4.86429">
        <ele>119.492237</ele>
        <time>2021-09-15T06:01:27.000Z</time>
      </trkpt>
      <trkpt lat="44.9975" lon="4.86459">
        <ele>119.588404</ele>
        <time>2021-09-15T06:01:36.000Z</time>
      </trkpt>
      <trkpt lat="44.99738" lon="4.86466">
        <ele>119.609545</ele>
        <time>2021-09-15T06:01:38.000Z</time>
      </trkpt>
      <trkpt lat="44.99692" lon="4.86492">
        <ele>119.709111</ele>
        <time>2021-09-15T06:01:46.000Z</time>
      </trkpt>
      <trkpt lat="44.9964" lon="4.86522">
        <ele>119.848031</ele>
        <time>2021-09-15T06:01:55.000Z</time>
      </trkpt>
      <trkpt lat="44.99629" lon="4.86528">
        <ele>119.878228</ele>
        <time>2021-09-15T06:01:57.000Z</time>
      </trkpt>
      <trkpt lat="44.99577" lon="4.86557">
        <ele>120.01617</ele>
        <time>2021-09-15T06:02:06.000Z</time>
      </trkpt>
      <trkpt lat="44.99565" lon="4.86564">
        <ele>120.046204</ele>
        <time>2021-09-15T06:02:08.000Z</time>
      </trkpt>
      <trkpt lat="44.99554" lon="4.86571">
        <ele>120.07751</ele>
        <time>2021-09-15T06:02:10.000Z</time>
      </trkpt>
      <trkpt lat="44.9953" lon="4.86584">
        <ele>120.120676</ele>
        <time>2021-09-15T06:02:14.000Z</time>
      </trkpt>
      <trkpt lat="44.99478" lon="4.86614">
        <ele>120.19052</ele>
        <time>2021-09-15T06:02:23.000Z</time>
      </trkpt>
      <trkpt lat="44.99466" lon="4.86621">
        <ele>120.206108</ele>
        <time>2021-09-15T06:02:25.000Z</time>
      </trkpt>
      <trkpt lat="44.9942" lon="4.86647">
        <ele>120.266743</ele>
        <time>2021-09-15T06:02:33.000Z</time>
      </trkpt>
      <trkpt lat="44.99374" lon="4.86674">
        <ele>120.324847</ele>
        <time>2021-09-15T06:02:41.000Z</time>
      </trkpt>
      <trkpt lat="44.99329" lon="4.867">
        <ele>120.345946</ele>
        <time>2021-09-15T06:02:49.000Z</time>
      </trkpt>
      <trkpt lat="44.99291" lon="4.86719">
        <ele>120.363193</ele>
        <time>2021-09-15T06:02:56.000Z</time>
      </trkpt>
      <trkpt lat="44.99286" lon="4.86721">
        <ele>120.36531</ele>
        <time>2021-09-15T06:02:57.000Z</time>
      </trkpt>
      <trkpt lat="44.99282" lon="4.86735">
        <ele>120.369815</ele>
        <time>2021-09-15T06:02:59.000Z</time>
      </trkpt>
      <trkpt lat="44.9929" lon="4.86743">
        <ele>120.37411</ele>
        <time>2021-09-15T06:03:01.000Z</time>
      </trkpt>
      <trkpt lat="44.99294" lon="4.86747">
        <ele>120.37609</ele>
        <time>2021-09-15T06:03:02.000Z</time>
      </trkpt>
      <trkpt lat="44.99316" lon="4.86758">
        <ele>120.385787</ele>
        <time>2021-09-15T06:03:06.000Z</time>
      </trkpt>
      <trkpt lat="44.99362" lon="4.86784">
        <ele>120.44978</ele>
        <time>2021-09-15T06:03:15.000Z</time>
      </trkpt>
      <trkpt lat="44.99396" lon="4.86803">
        <ele>120.557445</ele>
        <time>2021-09-15T06:03:22.000Z</time>
      </trkpt>
      <trkpt lat="44.9943" lon="4.86824">
        <ele>120.667093</ele>
        <time>2021-09-15T06:03:29.000Z</time>
      </trkpt>
      <trkpt lat="44.99444" lon="4.86834">
        <ele>120.714402</ele>
        <time>2021-09-15T06:03:32.000Z</time>
      </trkpt>
      <trkpt lat="44.99464" lon="4.8685">
        <ele>120.780876</ele>
        <time>2021-09-15T06:03:36.000Z</time>
      </trkpt>
      <trkpt lat="44.99494" lon="4.86873">
        <ele>120.883193</ele>
        <time>2021-09-15T06:03:42.000Z</time>
      </trkpt>
      <trkpt lat="44.9952" lon="4.8689">
        <ele>121.046705</ele>
        <time>2021-09-15T06:03:48.000Z</time>
      </trkpt>
      <trkpt lat="44.99519" lon="4.86901">
        <ele>121.117387</ele>
        <time>2021-09-15T06:03:51.000Z</time>
      </trkpt>
      <trkpt lat="44.99507" lon="4.86925">
        <ele>121.320915</ele>
        <time>2021-09-15T06:03:58.000Z</time>
      </trkpt>
      <trkpt lat="44.99496" lon="4.86947">
        <ele>121.500112</ele>
        <time>2021-09-15T06:04:04.000Z</time>
      </trkpt>
      <trkpt lat="44.99483" lon="4.86975">
        <ele>121.729084</ele>
        <time>2021-09-15T06:04:11.000Z</time>
      </trkpt>
      <trkpt lat="44.9947" lon="4.87001">
        <ele>121.944783</ele>
        <time>2021-09-15T06:04:17.000Z</time>
      </trkpt>
      <trkpt lat="44.99454" lon="4.87033">
        <ele>122.210257</ele>
        <time>2021-09-15T06:04:23.000Z</time>
      </trkpt>
      <trkpt lat="44.99446" lon="4.87048">
        <ele>122.333592</ele>
        <time>2021-09-15T06:04:26.000Z</time>
      </trkpt>
      <trkpt lat="44.99438" lon="4.87065">
        <ele>122.471311</ele>
        <time>2021-09-15T06:04:29.000Z</time>
      </trkpt>
      <trkpt lat="44.99421" lon="4.871">
        <ele>122.649348</ele>
        <time>2021-09-15T06:04:36.000Z</time>
      </trkpt>
      <trkpt lat="44.99416" lon="4.87111">
        <ele>122.643777</ele>
        <time>2021-09-15T06:04:38.000Z</time>
      </trkpt>
      <trkpt lat="44.994" lon="4.87104">
        <ele>122.633803</ele>
        <time>2021-09-15T06:04:40.000Z</time>
      </trkpt>
      <trkpt lat="44.994" lon="4.87105">
        <ele>122.633496</ele>
        <time>2021-09-15T06:04:41.000Z</time>
      </trkpt>
      <trkpt lat="44.99389" lon="4.87095">
        <ele>122.625336</ele>
        <time>2021-09-15T06:04:43.000Z</time>
      </trkpt>
      <trkpt lat="44.99383" lon="4.87091">
        <ele>122.620953</ele>
        <time>2021-09-15T06:04:44.000Z</time>
      </trkpt>
      <trkpt lat="44.99336" lon="4.87072">
        <ele>122.590812</ele>
        <time>2021-09-15T06:04:51.000Z</time>
      </trkpt>
      <trkpt lat="44.99282" lon="4.87057">
        <ele>122.556864</ele>
        <time>2021-09-15T06:04:59.000Z</time>
      </trkpt>
      <trkpt lat="44.99276" lon="4.87055">
        <ele>122.552802</ele>
        <time>2021-09-15T06:05:00.000Z</time>
      </trkpt>
      <trkpt lat="44.99224" lon="4.87035">
        <ele>122.330551</ele>
        <time>2021-09-15T06:05:08.000Z</time>
      </trkpt>
      <trkpt lat="44.99168" lon="4.87014">
        <ele>122.025526</ele>
        <time>2021-09-15T06:05:17.000Z</time>
      </trkpt>
      <trkpt lat="44.99114" lon="4.86988">
        <ele>121.722064</ele>
        <time>2021-09-15T06:05:26.000Z</time>
      </trkpt>
      <trkpt lat="44.99068" lon="4.86962">
        <ele>121.530075</ele>
        <time>2021-09-15T06:05:34.000Z</time>
      </trkpt>
      <trkpt lat="44.99029" lon="4.86932">
        <ele>121.41145</ele>
        <time>2021-09-15T06:05:41.000Z</time>
      </trkpt>
      <trkpt lat="44.9899" lon="4.86887">
        <ele>121.273975</ele>
        <time>2021-09-15T06:05:49.000Z</time>
      </trkpt>
      <trkpt lat="44.98954" lon="4.86849">
        <ele>121.154433</ele>
        <time>2021-09-15T06:05:56.000Z</time>
      </trkpt>
      <trkpt lat="44.98902" lon="4.86818">
        <ele>121.022635</ele>
        <time>2021-09-15T06:06:05.000Z</time>
      </trkpt>
      <trkpt lat="44.98896" lon="4.86814">
        <ele>121.008258</ele>
        <time>2021-09-15T06:06:06.000Z</time>
      </trkpt>
      <trkpt lat="44.98855" lon="4.86791">
        <ele>120.911586</ele>
        <time>2021-09-15T06:06:13.000Z</time>
      </trkpt>
      <trkpt lat="44.98809" lon="4.86765">
        <ele>120.801934</ele>
        <time>2021-09-15T06:06:21.000Z</time>
      </trkpt>
      <trkpt lat="44.98757" lon="4.86737">
        <ele>120.708295</ele>
        <time>2021-09-15T06:06:30.000Z</time>
      </trkpt>
      <trkpt lat="44.9874" lon="4.86727">
        <ele>120.69571</ele>
        <time>2021-09-15T06:06:33.000Z</time>
      </trkpt>
      <trkpt lat="44.9869" lon="4.86689">
        <ele>120.658174</ele>
        <time>2021-09-15T06:06:42.000Z</time>
      </trkpt>
      <trkpt lat="44.98647" lon="4.86654">
        <ele>120.624861</ele>
        <time>2021-09-15T06:06:50.000Z</time>
      </trkpt>
      <trkpt lat="44.98603" lon="4.86605">
        <ele>120.608607</ele>
        <time>2021-09-15T06:06:59.000Z</time>
      </trkpt>
      <trkpt lat="44.98593" lon="4.86594">
        <ele>120.614196</ele>
        <time>2021-09-15T06:07:01.000Z</time>
      </trkpt>
      <trkpt lat="44.98553" lon="4.86541">
        <ele>120.638917</ele>
        <time>2021-09-15T06:07:10.000Z</time>
      </trkpt>
      <trkpt lat="44.98515" lon="4.86485">
        <ele>120.663443</ele>
        <time>2021-09-15T06:07:19.000Z</time>
      </trkpt>
      <trkpt lat="44.98477" lon="4.86426">
        <ele>120.698644</ele>
        <time>2021-09-15T06:07:28.000Z</time>
      </trkpt>
      <trkpt lat="44.98473" lon="4.86419">
        <ele>120.704831</ele>
        <time>2021-09-15T06:07:29.000Z</time>
      </trkpt>
      <trkpt lat="44.98445" lon="4.86363">
        <ele>120.753863</ele>
        <time>2021-09-15T06:07:37.000Z</time>
      </trkpt>
      <trkpt lat="44.98412" lon="4.86299">
        <ele>120.809545</ele>
        <time>2021-09-15T06:07:46.000Z</time>
      </trkpt>
      <trkpt lat="44.9838" lon="4.86235">
        <ele>120.870311</ele>
        <time>2021-09-15T06:07:55.000Z</time>
      </trkpt>
      <trkpt lat="44.98346" lon="4.86163">
        <ele>120.99029</ele>
        <time>2021-09-15T06:08:04.000Z</time>
      </trkpt>
      <trkpt lat="44.98317" lon="4.86097">
        <ele>121.098723</ele>
        <time>2021-09-15T06:08:14.000Z</time>
      </trkpt>
      <trkpt lat="44.98284" lon="4.86035">
        <ele>121.207088</ele>
        <time>2021-09-15T06:08:23.000Z</time>
      </trkpt>
      <trkpt lat="44.98279" lon="4.86029">
        <ele>121.219687</ele>
        <time>2021-09-15T06:08:24.000Z</time>
      </trkpt>
      <trkpt lat="44.98239" lon="4.85977">
        <ele>121.33557</ele>
        <time>2021-09-15T06:08:33.000Z</time>
      </trkpt>
      <trkpt lat="44.98199" lon="4.85938">
        <ele>121.437997</ele>
        <time>2021-09-15T06:08:41.000Z</time>
      </trkpt>
      <trkpt lat="44.98157" lon="4.85903">
        <ele>121.541646</ele>
        <time>2021-09-15T06:08:49.000Z</time>
      </trkpt>
      <trkpt lat="44.98119" lon="4.8588">
        <ele>121.58488</ele>
        <time>2021-09-15T06:08:56.000Z</time>
      </trkpt>
      <trkpt lat="44.98074" lon="4.85857">
        <ele>121.547025</ele>
        <time>2021-09-15T06:09:04.000Z</time>
      </trkpt>
      <trkpt lat="44.98017" lon="4.85843">
        <ele>121.502091</ele>
        <time>2021-09-15T06:09:12.000Z</time>
      </trkpt>
      <trkpt lat="44.9798" lon="4.85836">
        <ele>121.47204</ele>
        <time>2021-09-15T06:09:18.000Z</time>
      </trkpt>
      <trkpt lat="44.97973" lon="4.85835">
        <ele>121.467018</ele>
        <time>2021-09-15T06:09:19.000Z</time>
      </trkpt>
      <trkpt lat="44.97923" lon="4.85836">
        <ele>121.433173</ele>
        <time>2021-09-15T06:09:27.000Z</time>
      </trkpt>
      <trkpt lat="44.97878" lon="4.85836">
        <ele>121.405775</ele>
        <time>2021-09-15T06:09:34.000Z</time>
      </trkpt>
      <trkpt lat="44.9782" lon="4.85842">
        <ele>121.369949</ele>
        <time>2021-09-15T06:09:43.000Z</time>
      </trkpt>
      <trkpt lat="44.97777" lon="4.85848">
        <ele>121.345903</ele>
        <time>2021-09-15T06:09:51.000Z</time>
      </trkpt>
      <trkpt lat="44.97722" lon="4.85863">
        <ele>121.388879</ele>
        <time>2021-09-15T06:09:59.000Z</time>
      </trkpt>
      <trkpt lat="44.97665" lon="4.8588">
        <ele>121.433155</ele>
        <time>2021-09-15T06:10:08.000Z</time>
      </trkpt>
      <trkpt lat="44.97616" lon="4.85902">
        <ele>121.472181</ele>
        <time>2021-09-15T06:10:16.000Z</time>
      </trkpt>
      <trkpt lat="44.97561" lon="4.85928">
        <ele>121.537621</ele>
        <time>2021-09-15T06:10:25.000Z</time>
      </trkpt>
      <trkpt lat="44.97556" lon="4.85932">
        <ele>121.545079</ele>
        <time>2021-09-15T06:10:26.000Z</time>
      </trkpt>
      <trkpt lat="44.97517" lon="4.85956">
        <ele>121.597057</ele>
        <time>2021-09-15T06:10:34.000Z</time>
      </trkpt>
      <trkpt lat="44.97479" lon="4.85981">
        <ele>121.649446</ele>
        <time>2021-09-15T06:10:41.000Z</time>
      </trkpt>
      <trkpt lat="44.97434" lon="4.86009">
        <ele>121.707491</ele>
        <time>2021-09-15T06:10:48.000Z</time>
      </trkpt>
      <trkpt lat="44.97401" lon="4.86031">
        <ele>121.73576</ele>
        <time>2021-09-15T06:10:55.000Z</time>
      </trkpt>
      <trkpt lat="44.97403" lon="4.86043">
        <ele>121.742766</ele>
        <time>2021-09-15T06:10:57.000Z</time>
      </trkpt>
      <trkpt lat="44.97412" lon="4.86075">
        <ele>121.761509</ele>
        <time>2021-09-15T06:11:02.000Z</time>
      </trkpt>
      <trkpt lat="44.97426" lon="4.86128">
        <ele>121.792406</ele>
        <time>2021-09-15T06:11:10.000Z</time>
      </trkpt>
      <trkpt lat="44.97429" lon="4.8615">
        <ele>121.804755</ele>
        <time>2021-09-15T06:11:13.000Z</time>
      </trkpt>
      <trkpt lat="44.97428" lon="4.86158">
        <ele>121.809341</ele>
        <time>2021-09-15T06:11:14.000Z</time>
      </trkpt>
      <trkpt lat="44.97412" lon="4.86172">
        <ele>121.82328</ele>
        <time>2021-09-15T06:11:17.000Z</time>
      </trkpt>
      <trkpt lat="44.97402" lon="4.86181">
        <ele>121.832725</ele>
        <time>2021-09-15T06:11:20.000Z</time>
      </trkpt>
      <trkpt lat="44.97389" lon="4.86198">
        <ele>121.825853</ele>
        <time>2021-09-15T06:11:23.000Z</time>
      </trkpt>
      <trkpt lat="44.94484" lon="4.88868">
        <ele>113.239548</ele>
        <time>2021-09-15T06:24:55.000Z</time>
      </trkpt>
      <trkpt lat="44.94465" lon="4.88899">
        <ele>113.586168</ele>
        <time>2021-09-15T06:25:03.000Z</time>
      </trkpt>
      <trkpt lat="44.94449" lon="4.88922">
        <ele>113.8526</ele>
        <time>2021-09-15T06:25:09.000Z</time>
      </trkpt>
      <trkpt lat="44.94445" lon="4.88927">
        <ele>113.909851</ele>
        <time>2021-09-15T06:25:10.000Z</time>
      </trkpt>
      <trkpt lat="44.94433" lon="4.88975">
        <ele>114.333296</ele>
        <time>2021-09-15T06:25:18.000Z</time>
      </trkpt>
      <trkpt lat="44.94428" lon="4.88993">
        <ele>114.487729</ele>
        <time>2021-09-15T06:25:20.000Z</time>
      </trkpt>
      <trkpt lat="44.94422" lon="4.89007">
        <ele>114.626692</ele>
        <time>2021-09-15T06:25:24.000Z</time>
      </trkpt>
      <trkpt lat="44.94409" lon="4.89039">
        <ele>114.834055</ele>
        <time>2021-09-15T06:25:31.000Z</time>
      </trkpt>
      <trkpt lat="44.94394" lon="4.89073">
        <ele>115.013737</ele>
        <time>2021-09-15T06:25:38.000Z</time>
      </trkpt>
      <trkpt lat="44.94389" lon="4.89079">
        <ele>115.060028</ele>
        <time>2021-09-15T06:25:40.000Z</time>
      </trkpt>
      <trkpt lat="44.94379" lon="4.89098">
        <ele>115.164088</ele>
        <time>2021-09-15T06:25:43.000Z</time>
      </trkpt>
      <trkpt lat="44.94375" lon="4.89113">
        <ele>115.235519</ele>
        <time>2021-09-15T06:25:48.000Z</time>
      </trkpt>
      <trkpt lat="44.94377" lon="4.89129">
        <ele>115.310994</ele>
        <time>2021-09-15T06:25:52.000Z</time>
      </trkpt>
      <trkpt lat="44.94374" lon="4.89177">
        <ele>115.528841</ele>
        <time>2021-09-15T06:25:58.000Z</time>
      </trkpt>
      <trkpt lat="44.94373" lon="4.89184">
        <ele>115.559227</ele>
        <time>2021-09-15T06:26:00.000Z</time>
      </trkpt>
      <trkpt lat="44.94368" lon="4.89213">
        <ele>115.69211</ele>
        <time>2021-09-15T06:26:04.000Z</time>
      </trkpt>
      <trkpt lat="44.94364" lon="4.89226">
        <ele>115.757255</ele>
        <time>2021-09-15T06:26:05.000Z</time>
      </trkpt>
      <trkpt lat="44.94362" lon="4.89232">
        <ele>115.789147</ele>
        <time>2021-09-15T06:26:07.000Z</time>
      </trkpt>
      <trkpt lat="44.94359" lon="4.89237">
        <ele>115.82058</ele>
        <time>2021-09-15T06:26:08.000Z</time>
      </trkpt>
      <trkpt lat="44.94355" lon="4.89242">
        <ele>115.852458</ele>
        <time>2021-09-15T06:26:09.000Z</time>
      </trkpt>
      <trkpt lat="44.94342" lon="4.89254">
        <ele>115.847405</ele>
        <time>2021-09-15T06:26:12.000Z</time>
      </trkpt>
      <trkpt lat="44.94301" lon="4.89276">
        <ele>115.781093</ele>
        <time>2021-09-15T06:26:20.000Z</time>
      </trkpt>
      <trkpt lat="44.94295" lon="4.89278">
        <ele>115.772956</ele>
        <time>2021-09-15T06:26:21.000Z</time>
      </trkpt>
      <trkpt lat="44.94274" lon="4.89289">
        <ele>115.738414</ele>
        <time>2021-09-15T06:26:25.000Z</time>
      </trkpt>
      <trkpt lat="44.94268" lon="4.89291">
        <ele>115.729991</ele>
        <time>2021-09-15T06:26:26.000Z</time>
      </trkpt>
      <trkpt lat="44.94235" lon="4.89307">
        <ele>115.676473</ele>
        <time>2021-09-15T06:26:32.000Z</time>
      </trkpt>
      <trkpt lat="44.94195" lon="4.89327">
        <ele>115.613221</ele>
        <time>2021-09-15T06:26:39.000Z</time>
      </trkpt>
      <trkpt lat="44.94156" lon="4.89346">
        <ele>115.371642</ele>
        <time>2021-09-15T06:26:46.000Z</time>
      </trkpt>
      <trkpt lat="44.94128" lon="4.89358">
        <ele>115.155817</ele>
        <time>2021-09-15T06:26:50.000Z</time>
      </trkpt>
      <trkpt lat="44.94121" lon="4.89359">
        <ele>115.105633</ele>
        <time>2021-09-15T06:26:52.000Z</time>
      </trkpt>
      <trkpt lat="44.94111" lon="4.89345">
        <ele>115.003293</ele>
        <time>2021-09-15T06:26:54.000Z</time>
      </trkpt>
      <trkpt lat="44.94102" lon="4.89339">
        <ele>114.931007</ele>
        <time>2021-09-15T06:26:56.000Z</time>
      </trkpt>
      <trkpt lat="44.94088" lon="4.89338">
        <ele>114.826468</ele>
        <time>2021-09-15T06:26:58.000Z</time>
      </trkpt>
      <trkpt lat="44.94082" lon="4.89351">
        <ele>114.747366</ele>
        <time>2021-09-15T06:27:00.000Z</time>
      </trkpt>
      <trkpt lat="44.94077" lon="4.8937">
        <ele>114.64005</ele>
        <time>2021-09-15T06:27:02.000Z</time>
      </trkpt>
      <trkpt lat="44.94064" lon="4.89374">
        <ele>114.54007</ele>
        <time>2021-09-15T06:27:04.000Z</time>
      </trkpt>
      <trkpt lat="44.94057" lon="4.89372">
        <ele>114.491709</ele>
        <time>2021-09-15T06:27:05.000Z</time>
      </trkpt>
      <trkpt lat="44.94026" lon="4.89362">
        <ele>114.263384</ele>
        <time>2021-09-15T06:27:10.000Z</time>
      </trkpt>
      <trkpt lat="44.9402" lon="4.8936">
        <ele>114.240979</ele>
        <time>2021-09-15T06:27:11.000Z</time>
      </trkpt>
      <trkpt lat="44.93991" lon="4.8935">
        <ele>114.136386</ele>
        <time>2021-09-15T06:27:16.000Z</time>
      </trkpt>
      <trkpt lat="44.93944" lon="4.89335">
        <ele>113.968581</ele>
        <time>2021-09-15T06:27:24.000Z</time>
      </trkpt>
      <trkpt lat="44.93899" lon="4.89321">
        <ele>113.803513</ele>
        <time>2021-09-15T06:27:32.000Z</time>
      </trkpt>
      <trkpt lat="44.93858" lon="4.89308">
        <ele>113.65757</ele>
        <time>2021-09-15T06:27:38.000Z</time>
      </trkpt>
      <trkpt lat="44.93835" lon="4.89301">
        <ele>113.722781</ele>
        <time>2021-09-15T06:27:43.000Z</time>
      </trkpt>
      <trkpt lat="44.93824" lon="4.89298">
        <ele>113.775894</ele>
        <time>2021-09-15T06:27:45.000Z</time>
      </trkpt>
      <trkpt lat="44.93814" lon="4.89299">
        <ele>113.822838</ele>
        <time>2021-09-15T06:27:47.000Z</time>
      </trkpt>
      <trkpt lat="44.93773" lon="4.89316">
        <ele>114.015405</ele>
        <time>2021-09-15T06:27:55.000Z</time>
      </trkpt>
      <trkpt lat="44.93755" lon="4.89323">
        <ele>114.105275</ele>
        <time>2021-09-15T06:27:59.000Z</time>
      </trkpt>
      <trkpt lat="44.93746" lon="4.89327">
        <ele>114.147337</ele>
        <time>2021-09-15T06:28:01.000Z</time>
      </trkpt>
      <trkpt lat="44.93717" lon="4.89335">
        <ele>114.280232</ele>
        <time>2021-09-15T06:28:08.000Z</time>
      </trkpt>
      <trkpt lat="44.93695" lon="4.89337">
        <ele>114.382077</ele>
        <time>2021-09-15T06:28:15.000Z</time>
      </trkpt>
      <trkpt lat="44.93676" lon="4.8933">
        <ele>114.507814</ele>
        <time>2021-09-15T06:28:22.000Z</time>
      </trkpt>
      <trkpt lat="44.93662" lon="4.89311">
        <ele>115.014757</ele>
        <time>2021-09-15T06:28:29.000Z</time>
      </trkpt>
      <trkpt lat="44.93649" lon="4.89291">
        <ele>115.50497</ele>
        <time>2021-09-15T06:28:36.000Z</time>
      </trkpt>
      <trkpt lat="44.93639" lon="4.89276">
        <ele>115.870438</ele>
        <time>2021-09-15T06:28:41.000Z</time>
      </trkpt>
      <trkpt lat="44.93625" lon="4.89255">
        <ele>116.403963</ele>
        <time>2021-09-15T06:28:48.000Z</time>
      </trkpt>
      <trkpt lat="44.93612" lon="4.89236">
        <ele>116.873587</ele>
        <time>2021-09-15T06:28:55.000Z</time>
      </trkpt>
      <trkpt lat="44.93606" lon="4.89225">
        <ele>117.12308</ele>
        <time>2021-09-15T06:28:59.000Z</time>
      </trkpt>
      <trkpt lat="44.93606" lon="4.89225">
        <ele>117.12308</ele>
        <time>2021-09-15T06:29:00.000Z</time>
      </trkpt>
      <trkpt lat="44.936" lon="4.89211">
        <ele>117.413401</ele>
        <time>2021-09-15T06:29:01.000Z</time>
      </trkpt>
      <trkpt lat="44.93597" lon="4.89227">
        <ele>117.703697</ele>
        <time>2021-09-15T06:29:03.000Z</time>
      </trkpt>
      <trkpt lat="44.93583" lon="4.89257">
        <ele>118.351787</ele>
        <time>2021-09-15T06:29:11.000Z</time>
      </trkpt>
      <trkpt lat="44.93573" lon="4.89281">
        <ele>118.850623</ele>
        <time>2021-09-15T06:29:18.000Z</time>
      </trkpt>
      <trkpt lat="44.93562" lon="4.89304">
        <ele>119.492388</ele>
        <time>2021-09-15T06:29:26.000Z</time>
      </trkpt>
      <trkpt lat="44.93547" lon="4.89317">
        <ele>120.136761</ele>
        <time>2021-09-15T06:29:32.000Z</time>
      </trkpt>
      <trkpt lat="44.93542" lon="4.89329">
        <ele>120.507179</ele>
        <time>2021-09-15T06:29:36.000Z</time>
      </trkpt>
      <trkpt lat="44.93541" lon="4.89351">
        <ele>121.088151</ele>
        <time>2021-09-15T06:29:41.000Z</time>
      </trkpt>
      <trkpt lat="44.93537" lon="4.89368">
        <ele>121.56119</ele>
        <time>2021-09-15T06:29:45.000Z</time>
      </trkpt>
      <trkpt lat="44.93531" lon="4.89389">
        <ele>122.161788</ele>
        <time>2021-09-15T06:29:50.000Z</time>
      </trkpt>
      <trkpt lat="44.93523" lon="4.89415">
        <ele>122.897244</ele>
        <time>2021-09-15T06:29:56.000Z</time>
      </trkpt>
      <trkpt lat="44.93514" lon="4.89447">
        <ele>123.797447</ele>
        <time>2021-09-15T06:30:03.000Z</time>
      </trkpt>
      <trkpt lat="44.93512" lon="4.89456">
        <ele>124.048744</ele>
        <time>2021-09-15T06:30:08.000Z</time>
      </trkpt>
      <trkpt lat="44.9351" lon="4.89462">
        <ele>124.220798</ele>
        <time>2021-09-15T06:30:47.000Z</time>
      </trkpt>
      <trkpt lat="44.93509" lon="4.89466">
        <ele>124.323706</ele>
        <time>2021-09-15T06:30:49.000Z</time>
      </trkpt>
      <trkpt lat="44.93499" lon="4.89492">
        <ele>125.101628</ele>
        <time>2021-09-15T06:30:55.000Z</time>
      </trkpt>
      <trkpt lat="44.93495" lon="4.89502">
        <ele>125.395883</ele>
        <time>2021-09-15T06:30:57.000Z</time>
      </trkpt>
      <trkpt lat="44.93491" lon="4.89512">
        <ele>125.709369</ele>
        <time>2021-09-15T06:30:59.000Z</time>
      </trkpt>
      <trkpt lat="44.93477" lon="4.89531">
        <ele>126.133855</ele>
        <time>2021-09-15T06:31:03.000Z</time>
      </trkpt>
      <trkpt lat="44.93472" lon="4.89534">
        <ele>126.237902</ele>
        <time>2021-09-15T06:31:04.000Z</time>
      </trkpt>
      <trkpt lat="44.93452" lon="4.89551">
        <ele>126.749168</ele>
        <time>2021-09-15T06:31:09.000Z</time>
      </trkpt>
      <trkpt lat="44.93439" lon="4.89559">
        <ele>127.046221</ele>
        <time>2021-09-15T06:31:12.000Z</time>
      </trkpt>
      <trkpt lat="44.93427" lon="4.89566">
        <ele>127.326301</ele>
        <time>2021-09-15T06:31:15.000Z</time>
      </trkpt>
      <trkpt lat="44.93411" lon="4.89577">
        <ele>127.70551</ele>
        <time>2021-09-15T06:31:20.000Z</time>
      </trkpt>
      <trkpt lat="44.93396" lon="4.89599">
        <ele>128.164004</ele>
        <time>2021-09-15T06:31:26.000Z</time>
      </trkpt>
      <trkpt lat="44.93386" lon="4.8961">
        <ele>128.450247</ele>
        <time>2021-09-15T06:31:31.000Z</time>
      </trkpt>
      <trkpt lat="44.93375" lon="4.89632">
        <ele>128.855233</ele>
        <time>2021-09-15T06:31:36.000Z</time>
      </trkpt>
      <trkpt lat="44.93367" lon="4.89638">
        <ele>129.050636</ele>
        <time>2021-09-15T06:31:38.000Z</time>
      </trkpt>
      <trkpt lat="44.93362" lon="4.89639">
        <ele>129.169643</ele>
        <time>2021-09-15T06:31:39.000Z</time>
      </trkpt>
      <trkpt lat="44.93356" lon="4.89637">
        <ele>129.28646</ele>
        <time>2021-09-15T06:31:40.000Z</time>
      </trkpt>
      <trkpt lat="44.93344" lon="4.89627">
        <ele>129.591202</ele>
        <time>2021-09-15T06:31:43.000Z</time>
      </trkpt>
      <trkpt lat="44.93309" lon="4.89597">
        <ele>129.850707</ele>
        <time>2021-09-15T06:31:51.000Z</time>
      </trkpt>
      <trkpt lat="44.93282" lon="4.89576">
        <ele>130.047814</ele>
        <time>2021-09-15T06:31:57.000Z</time>
      </trkpt>
      <trkpt lat="44.93273" lon="4.8957">
        <ele>130.114774</ele>
        <time>2021-09-15T06:31:59.000Z</time>
      </trkpt>
      <trkpt lat="44.9324" lon="4.89549">
        <ele>130.341682</ele>
        <time>2021-09-15T06:32:06.000Z</time>
      </trkpt>
      <trkpt lat="44.93204" lon="4.89526">
        <ele>130.596879</ele>
        <time>2021-09-15T06:32:14.000Z</time>
      </trkpt>
      <trkpt lat="44.93172" lon="4.8951">
        <ele>130.77727</ele>
        <time>2021-09-15T06:32:21.000Z</time>
      </trkpt>
      <trkpt lat="44.93163" lon="4.89506">
        <ele>130.809191</ele>
        <time>2021-09-15T06:32:23.000Z</time>
      </trkpt>
      <trkpt lat="44.93156" lon="4.89502">
        <ele>130.837879</ele>
        <time>2021-09-15T06:32:25.000Z</time>
      </trkpt>
      <trkpt lat="44.93152" lon="4.895">
        <ele>130.851697</ele>
        <time>2021-09-15T06:32:26.000Z</time>
      </trkpt>
      <trkpt lat="44.9314" lon="4.89494">
        <ele>130.894285</ele>
        <time>2021-09-15T06:32:29.000Z</time>
      </trkpt>
      <trkpt lat="44.93128" lon="4.89489">
        <ele>130.938439</ele>
        <time>2021-09-15T06:32:31.000Z</time>
      </trkpt>
      <trkpt lat="44.93128" lon="4.89489">
        <ele>130.938439</ele>
        <time>2021-09-15T06:32:32.000Z</time>
      </trkpt>
      <trkpt lat="44.93094" lon="4.89475">
        <ele>131.059379</ele>
        <time>2021-09-15T06:32:39.000Z</time>
      </trkpt>
      <trkpt lat="44.93068" lon="4.89465">
        <ele>131.152013</ele>
        <time>2021-09-15T06:32:45.000Z</time>
      </trkpt>
      <trkpt lat="44.93059" lon="4.89461">
        <ele>131.18363</ele>
        <time>2021-09-15T06:32:48.000Z</time>
      </trkpt>
      <trkpt lat="44.93057" lon="4.8946">
        <ele>131.191227</ele>
        <time>2021-09-15T06:33:14.000Z</time>
      </trkpt>
      <trkpt lat="44.93053" lon="4.89458">
        <ele>131.205618</ele>
        <time>2021-09-15T06:33:15.000Z</time>
      </trkpt>
      <trkpt lat="44.93044" lon="4.89449">
        <ele>131.241469</ele>
        <time>2021-09-15T06:33:19.000Z</time>
      </trkpt>
      <trkpt lat="44.93042" lon="4.89444">
        <ele>131.257279</ele>
        <time>2021-09-15T06:33:20.000Z</time>
      </trkpt>
      <trkpt lat="44.93042" lon="4.8943">
        <ele>131.289432</ele>
        <time>2021-09-15T06:33:22.000Z</time>
      </trkpt>
      <trkpt lat="44.93042" lon="4.89424">
        <ele>131.305211</ele>
        <time>2021-09-15T06:33:23.000Z</time>
      </trkpt>
      <trkpt lat="44.93043" lon="4.89375">
        <ele>131.338211</ele>
        <time>2021-09-15T06:33:30.000Z</time>
      </trkpt>
      <trkpt lat="44.93044" lon="4.89326">
        <ele>131.312916</ele>
        <time>2021-09-15T06:33:36.000Z</time>
      </trkpt>
      <trkpt lat="44.93045" lon="4.89253">
        <ele>131.274373</ele>
        <time>2021-09-15T06:33:45.000Z</time>
      </trkpt>
      <trkpt lat="44.93046" lon="4.89202">
        <ele>131.247767</ele>
        <time>2021-09-15T06:33:51.000Z</time>
      </trkpt>
      <trkpt lat="44.93047" lon="4.8916">
        <ele>131.226082</ele>
        <time>2021-09-15T06:33:56.000Z</time>
      </trkpt>
      <trkpt lat="44.93047" lon="4.89152">
        <ele>131.221787</ele>
        <time>2021-09-15T06:33:57.000Z</time>
      </trkpt>
      <trkpt lat="44.93048" lon="4.89136">
        <ele>131.161024</ele>
        <time>2021-09-15T06:33:59.000Z</time>
      </trkpt>
      <trkpt lat="44.93048" lon="4.8912">
        <ele>131.093842</ele>
        <time>2021-09-15T06:34:01.000Z</time>
      </trkpt>
      <trkpt lat="44.9305" lon="4.8907">
        <ele>130.886435</ele>
        <time>2021-09-15T06:34:08.000Z</time>
      </trkpt>
      <trkpt lat="44.93051" lon="4.89048">
        <ele>130.791106</ele>
        <time>2021-09-15T06:34:12.000Z</time>
      </trkpt>
      <trkpt lat="44.93051" lon="4.89043">
        <ele>130.771782</ele>
        <time>2021-09-15T06:34:13.000Z</time>
      </trkpt>
      <trkpt lat="44.93052" lon="4.89024">
        <ele>130.693264</ele>
        <time>2021-09-15T06:34:18.000Z</time>
      </trkpt>
      <trkpt lat="44.93052" lon="4.89017">
        <ele>130.660134</ele>
        <time>2021-09-15T06:34:21.000Z</time>
      </trkpt>
      <trkpt lat="44.93052" lon="4.89007">
        <ele>130.620649</ele>
        <time>2021-09-15T06:34:24.000Z</time>
      </trkpt>
      <trkpt lat="44.93045" lon="4.89">
        <ele>130.565192</ele>
        <time>2021-09-15T06:34:28.000Z</time>
      </trkpt>
      <trkpt lat="44.93039" lon="4.88997">
        <ele>130.527453</ele>
        <time>2021-09-15T06:34:35.000Z</time>
      </trkpt>
      <trkpt lat="44.93037" lon="4.88993">
        <ele>130.510335</ele>
        <time>2021-09-15T06:34:37.000Z</time>
      </trkpt>
      <trkpt lat="44.93037" lon="4.88988">
        <ele>130.487243</ele>
        <time>2021-09-15T06:34:39.000Z</time>
      </trkpt>
      <trkpt lat="44.93033" lon="4.88976">
        <ele>130.434002</ele>
        <time>2021-09-15T06:34:44.000Z</time>
      </trkpt>
      <trkpt lat="44.93033" lon="4.88976">
        <ele>130.434002</ele>
        <time>2021-09-15T06:34:48.000Z</time>
      </trkpt>
      <trkpt lat="44.93024" lon="4.88987">
        <ele>130.368396</ele>
        <time>2021-09-15T06:34:52.000Z</time>
      </trkpt>
      <trkpt lat="44.93028" lon="4.88987">
        <ele>130.344023</ele>
        <time>2021-09-15T06:34:54.000Z</time>
      </trkpt>
      <trkpt lat="44.93009" lon="4.8898">
        <ele>130.224589</ele>
        <time>2021-09-15T06:34:59.000Z</time>
      </trkpt>
      <trkpt lat="44.92998" lon="4.88974">
        <ele>130.157733</ele>
        <time>2021-09-15T06:35:03.000Z</time>
      </trkpt>
      <trkpt lat="44.92991" lon="4.8897">
        <ele>130.157876</ele>
        <time>2021-09-15T06:35:04.000Z</time>
      </trkpt>
      <trkpt lat="44.92966" lon="4.88957">
        <ele>130.166754</ele>
        <time>2021-09-15T06:35:10.000Z</time>
      </trkpt>
      <trkpt lat="44.92937" lon="4.88942">
        <ele>130.177279</ele>
        <time>2021-09-15T06:35:17.000Z</time>
      </trkpt>
      <trkpt lat="44.92909" lon="4.88927">
        <ele>130.187214</ele>
        <time>2021-09-15T06:35:24.000Z</time>
      </trkpt>
      <trkpt lat="44.92912" lon="4.88903">
        <ele>130.192946</ele>
        <time>2021-09-15T06:35:28.000Z</time>
      </trkpt>
      <trkpt lat="44.92913" lon="4.889">
        <ele>130.193642</ele>
        <time>2021-09-15T06:35:30.000Z</time>
      </trkpt>
      <trkpt lat="44.92915" lon="4.88892">
        <ele>130.19574</ele>
        <time>2021-09-15T06:35:33.000Z</time>
      </trkpt>
      <trkpt lat="44.92917" lon="4.88882">
        <ele>130.198175</ele>
        <time>2021-09-15T06:35:36.000Z</time>
      </trkpt>
      <trkpt lat="44.92918" lon="4.88878">
        <ele>130.19915</ele>
        <time>2021-09-15T06:35:37.000Z</time>
      </trkpt>
      <trkpt lat="44.92911" lon="4.88855">
        <ele>130.204994</ele>
        <time>2021-09-15T06:35:41.000Z</time>
      </trkpt>
      <trkpt lat="44.92927" lon="4.88839">
        <ele>130.211487</ele>
        <time>2021-09-15T06:35:46.000Z</time>
      </trkpt>
      <trkpt lat="44.92935" lon="4.88807">
        <ele>129.881105</ele>
        <time>2021-09-15T06:35:53.000Z</time>
      </trkpt>
      <trkpt lat="44.92941" lon="4.88787">
        <ele>129.423223</ele>
        <time>2021-09-15T06:35:59.000Z</time>
      </trkpt>
      <trkpt lat="44.92943" lon="4.88779">
        <ele>129.233667</ele>
        <time>2021-09-15T06:36:03.000Z</time>
      </trkpt>
      <trkpt lat="44.92944" lon="4.88775">
        <ele>129.154864</ele>
        <time>2021-09-15T06:36:05.000Z</time>
      </trkpt>
      <trkpt lat="44.9294" lon="4.88783">
        <ele>128.956714</ele>
        <time>2021-09-15T06:36:07.000Z</time>
      </trkpt>
      <trkpt lat="44.92944" lon="4.88775">
        <ele>128.752981</ele>
        <time>2021-09-15T06:36:11.000Z</time>
      </trkpt>
      <trkpt lat="44.92947" lon="4.88787">
        <ele>128.484486</ele>
        <time>2021-09-15T06:36:30.000Z</time>
      </trkpt>
      <trkpt lat="44.9294" lon="4.88788">
        <ele>128.286074</ele>
        <time>2021-09-15T06:36:35.000Z</time>
      </trkpt>
      <trkpt lat="44.92938" lon="4.88792">
        <ele>128.180544</ele>
        <time>2021-09-15T06:36:37.000Z</time>
      </trkpt>
      <trkpt lat="44.92923" lon="4.88785">
        <ele>127.708429</ele>
        <time>2021-09-15T06:36:42.000Z</time>
      </trkpt>
      <trkpt lat="44.92916" lon="4.88781">
        <ele>127.473781</ele>
        <time>2021-09-15T06:36:44.000Z</time>
      </trkpt>
      <trkpt lat="44.92914" lon="4.88777">
        <ele>127.368522</ele>
        <time>2021-09-15T06:36:45.000Z</time>
      </trkpt>
      <trkpt lat="44.9292" lon="4.88779">
        <ele>127.207155</ele>
        <time>2021-09-15T06:36:48.000Z</time>
      </trkpt>
      <trkpt lat="44.92924" lon="4.88781">
        <ele>127.080318</ele>
        <time>2021-09-15T06:36:49.000Z</time>
      </trkpt>
      <trkpt lat="44.92931" lon="4.88785">
        <ele>126.829461</ele>
        <time>2021-09-15T06:36:51.000Z</time>
      </trkpt>
      <trkpt lat="44.92934" lon="4.88786">
        <ele>126.756876</ele>
        <time>2021-09-15T06:36:52.000Z</time>
      </trkpt>
      <trkpt lat="44.92934" lon="4.88786">
        <ele>126.756876</ele>
        <time>2021-09-15T06:36:53.000Z</time>
      </trkpt>
      <trkpt lat="44.92935" lon="4.88785">
        <ele>126.723503</ele>
        <time>2021-09-15T06:37:23.000Z</time>
      </trkpt>
      <trkpt lat="44.92934" lon="4.8878">
        <ele>126.612447</ele>
        <time>2021-09-15T06:37:24.000Z</time>
      </trkpt>
      <trkpt lat="44.92933" lon="4.88777">
        <ele>126.528803</ele>
        <time>2021-09-15T06:37:26.000Z</time>
      </trkpt>
      <trkpt lat="44.92931" lon="4.88772">
        <ele>126.411978</ele>
        <time>2021-09-15T06:37:27.000Z</time>
      </trkpt>
      <trkpt lat="44.92928" lon="4.88767">
        <ele>126.285194</ele>
        <time>2021-09-15T06:37:28.000Z</time>
      </trkpt>
      <trkpt lat="44.92911" lon="4.88755">
        <ele>125.698228</ele>
        <time>2021-09-15T06:37:32.000Z</time>
      </trkpt>
      <trkpt lat="44.92901" lon="4.88748">
        <ele>125.378149</ele>
        <time>2021-09-15T06:37:34.000Z</time>
      </trkpt>
      <trkpt lat="44.92885" lon="4.88737">
        <ele>124.846238</ele>
        <time>2021-09-15T06:37:37.000Z</time>
      </trkpt>
      <trkpt lat="44.92849" lon="4.88708">
        <ele>123.951001</ele>
        <time>2021-09-15T06:37:43.000Z</time>
      </trkpt>
      <trkpt lat="44.92816" lon="4.88675">
        <ele>123.098245</ele>
        <time>2021-09-15T06:37:48.000Z</time>
      </trkpt>
      <trkpt lat="44.92809" lon="4.88668">
        <ele>122.914344</ele>
        <time>2021-09-15T06:37:49.000Z</time>
      </trkpt>
      <trkpt lat="44.92799" lon="4.88649">
        <ele>122.55607</ele>
        <time>2021-09-15T06:37:51.000Z</time>
      </trkpt>
      <trkpt lat="44.92791" lon="4.88629">
        <ele>122.19681</ele>
        <time>2021-09-15T06:37:53.000Z</time>
      </trkpt>
      <trkpt lat="44.92792" lon="4.88605">
        <ele>121.844171</ele>
        <time>2021-09-15T06:37:55.000Z</time>
      </trkpt>
      <trkpt lat="44.92805" lon="4.88575">
        <ele>121.304381</ele>
        <time>2021-09-15T06:37:58.000Z</time>
      </trkpt>
      <trkpt lat="44.92816" lon="4.88562">
        <ele>120.994211</ele>
        <time>2021-09-15T06:38:00.000Z</time>
      </trkpt>
      <trkpt lat="44.92831" lon="4.8854">
        <ele>120.587414</ele>
        <time>2021-09-15T06:38:03.000Z</time>
      </trkpt>
      <trkpt lat="44.92849" lon="4.8851">
        <ele>120.039084</ele>
        <time>2021-09-15T06:38:07.000Z</time>
      </trkpt>
      <trkpt lat="44.92854" lon="4.88503">
        <ele>119.90258</ele>
        <time>2021-09-15T06:38:08.000Z</time>
      </trkpt>
      <trkpt lat="44.92872" lon="4.88476">
        <ele>119.401347</ele>
        <time>2021-09-15T06:38:12.000Z</time>
      </trkpt>
      <trkpt lat="44.92876" lon="4.8847">
        <ele>119.286635</ele>
        <time>2021-09-15T06:38:13.000Z</time>
      </trkpt>
      <trkpt lat="44.92879" lon="4.88464">
        <ele>119.174217</ele>
        <time>2021-09-15T06:38:14.000Z</time>
      </trkpt>
      <trkpt lat="44.92884" lon="4.88431">
        <ele>118.71141</ele>
        <time>2021-09-15T06:38:18.000Z</time>
      </trkpt>
      <trkpt lat="44.92887" lon="4.88415">
        <ele>118.485143</ele>
        <time>2021-09-15T06:38:20.000Z</time>
      </trkpt>
      <trkpt lat="44.92892" lon="4.88385">
        <ele>118.060264</ele>
        <time>2021-09-15T06:38:24.000Z</time>
      </trkpt>
      <trkpt lat="44.92902" lon="4.88323">
        <ele>117.222656</ele>
        <time>2021-09-15T06:38:32.000Z</time>
      </trkpt>
      <trkpt lat="44.92906" lon="4.88302">
        <ele>116.970029</ele>
        <time>2021-09-15T06:38:35.000Z</time>
      </trkpt>
      <trkpt lat="44.92908" lon="4.88291">
        <ele>116.829495</ele>
        <time>2021-09-15T06:38:37.000Z</time>
      </trkpt>
      <trkpt lat="44.92916" lon="4.8828">
        <ele>116.647106</ele>
        <time>2021-09-15T06:38:39.000Z</time>
      </trkpt>
      <trkpt lat="44.92921" lon="4.88284">
        <ele>116.547944</ele>
        <time>2021-09-15T06:38:40.000Z</time>
      </trkpt>
      <trkpt lat="44.92935" lon="4.88293">
        <ele>116.293895</ele>
        <time>2021-09-15T06:38:44.000Z</time>
      </trkpt>
      <trkpt lat="44.92942" lon="4.88298">
        <ele>116.16253</ele>
        <time>2021-09-15T06:38:46.000Z</time>
      </trkpt>
      <trkpt lat="44.92947" lon="4.88291">
        <ele>116.038305</ele>
        <time>2021-09-15T06:38:48.000Z</time>
      </trkpt>
      <trkpt lat="44.9295" lon="4.88285">
        <ele>115.958874</ele>
        <time>2021-09-15T06:38:49.000Z</time>
      </trkpt>
      <trkpt lat="44.9296" lon="4.88268">
        <ele>115.690192</ele>
        <time>2021-09-15T06:38:51.000Z</time>
      </trkpt>
      <trkpt lat="44.92959" lon="4.88252">
        <ele>115.498493</ele>
        <time>2021-09-15T06:38:52.000Z</time>
      </trkpt>
      <trkpt lat="44.92944" lon="4.88239">
        <ele>115.207407</ele>
        <time>2021-09-15T06:38:56.000Z</time>
      </trkpt>
      <trkpt lat="44.92934" lon="4.88231">
        <ele>115.016753</ele>
        <time>2021-09-15T06:38:58.000Z</time>
      </trkpt>
      <trkpt lat="44.9292" lon="4.88219">
        <ele>114.731653</ele>
        <time>2021-09-15T06:39:01.000Z</time>
      </trkpt>
      <trkpt lat="44.92873" lon="4.8818">
        <ele>114.086639</ele>
        <time>2021-09-15T06:39:10.000Z</time>
      </trkpt>
      <trkpt lat="44.92867" lon="4.88176">
        <ele>114.02909</ele>
        <time>2021-09-15T06:39:11.000Z</time>
      </trkpt>
      <trkpt lat="44.92841" lon="4.88153">
        <ele>113.73719</ele>
        <time>2021-09-15T06:39:16.000Z</time>
      </trkpt>
      <trkpt lat="44.92831" lon="4.88145">
        <ele>113.625432</ele>
        <time>2021-09-15T06:39:18.000Z</time>
      </trkpt>
      <trkpt lat="44.92782" lon="4.88104">
        <ele>113.089953</ele>
        <time>2021-09-15T06:39:27.000Z</time>
      </trkpt>
      <trkpt lat="44.92733" lon="4.88063">
        <ele>112.673541</ele>
        <time>2021-09-15T06:39:35.000Z</time>
      </trkpt>
      <trkpt lat="44.9269" lon="4.88027">
        <ele>112.504124</ele>
        <time>2021-09-15T06:39:44.000Z</time>
      </trkpt>
      <trkpt lat="44.92657" lon="4.87999">
        <ele>112.372924</ele>
        <time>2021-09-15T06:39:51.000Z</time>
      </trkpt>
      <trkpt lat="44.92621" lon="4.87968">
        <ele>112.228654</ele>
        <time>2021-09-15T06:39:59.000Z</time>
      </trkpt>
      <trkpt lat="44.92584" lon="4.87935">
        <ele>112.04572</ele>
        <time>2021-09-15T06:40:06.000Z</time>
      </trkpt>
      <trkpt lat="44.92534" lon="4.87893">
        <ele>111.718966</ele>
        <time>2021-09-15T06:40:15.000Z</time>
      </trkpt>
      <trkpt lat="44.92498" lon="4.87858">
        <ele>111.474455</ele>
        <time>2021-09-15T06:40:22.000Z</time>
      </trkpt>
      <trkpt lat="44.92469" lon="4.87824">
        <ele>111.262241</ele>
        <time>2021-09-15T06:40:28.000Z</time>
      </trkpt>
      <trkpt lat="44.92464" lon="4.87819">
        <ele>111.226811</ele>
        <time>2021-09-15T06:40:29.000Z</time>
      </trkpt>
      <trkpt lat="44.92455" lon="4.87808">
        <ele>111.160508</ele>
        <time>2021-09-15T06:40:31.000Z</time>
      </trkpt>
      <trkpt lat="44.9245" lon="4.87803">
        <ele>111.126199</ele>
        <time>2021-09-15T06:40:32.000Z</time>
      </trkpt>
      <trkpt lat="44.92446" lon="4.87797">
        <ele>111.072222</ele>
        <time>2021-09-15T06:40:33.000Z</time>
      </trkpt>
      <trkpt lat="44.9243" lon="4.87782">
        <ele>110.876421</ele>
        <time>2021-09-15T06:40:36.000Z</time>
      </trkpt>
      <trkpt lat="44.92424" lon="4.87776">
        <ele>110.807556</ele>
        <time>2021-09-15T06:40:37.000Z</time>
      </trkpt>
      <trkpt lat="44.92391" lon="4.87745">
        <ele>110.403888</ele>
        <time>2021-09-15T06:40:43.000Z</time>
      </trkpt>
      <trkpt lat="44.92381" lon="4.87735">
        <ele>110.281492</ele>
        <time>2021-09-15T06:40:45.000Z</time>
      </trkpt>
      <trkpt lat="44.92365" lon="4.8772">
        <ele>110.08734</ele>
        <time>2021-09-15T06:40:48.000Z</time>
      </trkpt>
      <trkpt lat="44.92322" lon="4.87678">
        <ele>109.551321</ele>
        <time>2021-09-15T06:40:56.000Z</time>
      </trkpt>
      <trkpt lat="44.92288" lon="4.87656">
        <ele>109.225766</ele>
        <time>2021-09-15T06:41:02.000Z</time>
      </trkpt>
      <trkpt lat="44.92264" lon="4.87642">
        <ele>109.085899</ele>
        <time>2021-09-15T06:41:06.000Z</time>
      </trkpt>
      <trkpt lat="44.92253" lon="4.87635">
        <ele>109.017969</ele>
        <time>2021-09-15T06:41:08.000Z</time>
      </trkpt>
      <trkpt lat="44.92222" lon="4.87606">
        <ele>108.816014</ele>
        <time>2021-09-15T06:41:14.000Z</time>
      </trkpt>
      <trkpt lat="44.92186" lon="4.87573">
        <ele>108.579205</ele>
        <time>2021-09-15T06:41:21.000Z</time>
      </trkpt>
      <trkpt lat="44.92154" lon="4.87544">
        <ele>108.367925</ele>
        <time>2021-09-15T06:41:27.000Z</time>
      </trkpt>
      <trkpt lat="44.92132" lon="4.87526">
        <ele>108.192186</ele>
        <time>2021-09-15T06:41:31.000Z</time>
      </trkpt>
      <trkpt lat="44.92127" lon="4.87522">
        <ele>108.141607</ele>
        <time>2021-09-15T06:41:32.000Z</time>
      </trkpt>
      <trkpt lat="44.92085" lon="4.87489">
        <ele>107.724596</ele>
        <time>2021-09-15T06:41:40.000Z</time>
      </trkpt>
      <trkpt lat="44.92059" lon="4.87469">
        <ele>107.46853</ele>
        <time>2021-09-15T06:41:45.000Z</time>
      </trkpt>
      <trkpt lat="44.92054" lon="4.87465">
        <ele>107.415444</ele>
        <time>2021-09-15T06:41:46.000Z</time>
      </trkpt>
      <trkpt lat="44.92007" lon="4.87436">
        <ele>106.970993</ele>
        <time>2021-09-15T06:41:54.000Z</time>
      </trkpt>
      <trkpt lat="44.91972" lon="4.87416">
        <ele>106.658992</ele>
        <time>2021-09-15T06:42:00.000Z</time>
      </trkpt>
      <trkpt lat="44.91931" lon="4.87393">
        <ele>106.331408</ele>
        <time>2021-09-15T06:42:07.000Z</time>
      </trkpt>
      <trkpt lat="44.91888" lon="4.87376">
        <ele>106.003438</ele>
        <time>2021-09-15T06:42:14.000Z</time>
      </trkpt>
      <trkpt lat="44.91877" lon="4.87372">
        <ele>105.914212</ele>
        <time>2021-09-15T06:42:16.000Z</time>
      </trkpt>
      <trkpt lat="44.91859" lon="4.87364">
        <ele>105.774223</ele>
        <time>2021-09-15T06:42:19.000Z</time>
      </trkpt>
      <trkpt lat="44.91841" lon="4.87356">
        <ele>105.636811</ele>
        <time>2021-09-15T06:42:22.000Z</time>
      </trkpt>
      <trkpt lat="44.91829" lon="4.8735">
        <ele>105.545493</ele>
        <time>2021-09-15T06:42:24.000Z</time>
      </trkpt>
      <trkpt lat="44.91812" lon="4.87342">
        <ele>105.411501</ele>
        <time>2021-09-15T06:42:27.000Z</time>
      </trkpt>
      <trkpt lat="44.918" lon="4.87338">
        <ele>105.408877</ele>
        <time>2021-09-15T06:42:29.000Z</time>
      </trkpt>
      <trkpt lat="44.91776" lon="4.87331">
        <ele>105.403581</ele>
        <time>2021-09-15T06:42:33.000Z</time>
      </trkpt>
      <trkpt lat="44.91763" lon="4.87327">
        <ele>105.400889</ele>
        <time>2021-09-15T06:42:35.000Z</time>
      </trkpt>
      <trkpt lat="44.91757" lon="4.87326">
        <ele>105.399531</ele>
        <time>2021-09-15T06:42:36.000Z</time>
      </trkpt>
      <trkpt lat="44.91732" lon="4.8733">
        <ele>105.394132</ele>
        <time>2021-09-15T06:42:40.000Z</time>
      </trkpt>
      <trkpt lat="44.91713" lon="4.87334">
        <ele>105.38997</ele>
        <time>2021-09-15T06:42:43.000Z</time>
      </trkpt>
      <trkpt lat="44.91703" lon="4.87342">
        <ele>105.387527</ele>
        <time>2021-09-15T06:42:45.000Z</time>
      </trkpt>
      <trkpt lat="44.91676" lon="4.87363">
        <ele>105.380854</ele>
        <time>2021-09-15T06:42:51.000Z</time>
      </trkpt>
      <trkpt lat="44.91662" lon="4.87372">
        <ele>105.377603</ele>
        <time>2021-09-15T06:42:54.000Z</time>
      </trkpt>
      <trkpt lat="44.91658" lon="4.87374">
        <ele>105.376682</ele>
        <time>2021-09-15T06:42:55.000Z</time>
      </trkpt>
      <trkpt lat="44.91654" lon="4.87376">
        <ele>105.375826</ele>
        <time>2021-09-15T06:42:56.000Z</time>
      </trkpt>
      <trkpt lat="44.91646" lon="4.87384">
        <ele>105.373643</ele>
        <time>2021-09-15T06:42:58.000Z</time>
      </trkpt>
      <trkpt lat="44.91643" lon="4.87389">
        <ele>105.389641</ele>
        <time>2021-09-15T06:42:59.000Z</time>
      </trkpt>
      <trkpt lat="44.91625" lon="4.87428">
        <ele>105.721738</ele>
        <time>2021-09-15T06:43:05.000Z</time>
      </trkpt>
      <trkpt lat="44.91614" lon="4.87457">
        <ele>105.959916</ele>
        <time>2021-09-15T06:43:09.000Z</time>
      </trkpt>
      <trkpt lat="44.91608" lon="4.87472">
        <ele>106.07995</ele>
        <time>2021-09-15T06:43:11.000Z</time>
      </trkpt>
      <trkpt lat="44.91591" lon="4.87514">
        <ele>106.434892</ele>
        <time>2021-09-15T06:43:17.000Z</time>
      </trkpt>
      <trkpt lat="44.91583" lon="4.87535">
        <ele>106.601906</ele>
        <time>2021-09-15T06:43:21.000Z</time>
      </trkpt>
      <trkpt lat="44.91572" lon="4.87562">
        <ele>106.827427</ele>
        <time>2021-09-15T06:43:27.000Z</time>
      </trkpt>
      <trkpt lat="44.9157" lon="4.87567">
        <ele>106.869903</ele>
        <time>2021-09-15T06:43:28.000Z</time>
      </trkpt>
      <trkpt lat="44.91566" lon="4.87577">
        <ele>106.951343</ele>
        <time>2021-09-15T06:43:30.000Z</time>
      </trkpt>
      <trkpt lat="44.91555" lon="4.87578">
        <ele>107.064648</ele>
        <time>2021-09-15T06:43:32.000Z</time>
      </trkpt>
      <trkpt lat="44.91546" lon="4.87572">
        <ele>107.159124</ele>
        <time>2021-09-15T06:43:34.000Z</time>
      </trkpt>
      <trkpt lat="44.91515" lon="4.8755">
        <ele>107.51681</ele>
        <time>2021-09-15T06:43:41.000Z</time>
      </trkpt>
      <trkpt lat="44.91478" lon="4.87524">
        <ele>107.935274</ele>
        <time>2021-09-15T06:43:49.000Z</time>
      </trkpt>
      <trkpt lat="44.91465" lon="4.87515">
        <ele>108.081919</ele>
        <time>2021-09-15T06:43:52.000Z</time>
      </trkpt>
      <trkpt lat="44.91457" lon="4.87509">
        <ele>108.172593</ele>
        <time>2021-09-15T06:43:54.000Z</time>
      </trkpt>
      <trkpt lat="44.91446" lon="4.87499">
        <ele>108.31118</ele>
        <time>2021-09-15T06:43:57.000Z</time>
      </trkpt>
      <trkpt lat="44.91434" lon="4.87487">
        <ele>108.461133</ele>
        <time>2021-09-15T06:44:00.000Z</time>
      </trkpt>
      <trkpt lat="44.91429" lon="4.87483">
        <ele>108.515696</ele>
        <time>2021-09-15T06:44:01.000Z</time>
      </trkpt>
      <trkpt lat="44.91406" lon="4.87465">
        <ele>108.785441</ele>
        <time>2021-09-15T06:44:06.000Z</time>
      </trkpt>
      <trkpt lat="44.91376" lon="4.87442">
        <ele>109.072909</ele>
        <time>2021-09-15T06:44:12.000Z</time>
      </trkpt>
      <trkpt lat="44.91325" lon="4.87406">
        <ele>109.320042</ele>
        <time>2021-09-15T06:44:21.000Z</time>
      </trkpt>
      <trkpt lat="44.91283" lon="4.87376">
        <ele>109.523136</ele>
        <time>2021-09-15T06:44:30.000Z</time>
      </trkpt>
      <trkpt lat="44.91246" lon="4.87351">
        <ele>109.700306</ele>
        <time>2021-09-15T06:44:37.000Z</time>
      </trkpt>
      <trkpt lat="44.91208" lon="4.87326">
        <ele>109.847575</ele>
        <time>2021-09-15T06:44:44.000Z</time>
      </trkpt>
      <trkpt lat="44.91166" lon="4.87297">
        <ele>109.965925</ele>
        <time>2021-09-15T06:44:52.000Z</time>
      </trkpt>
      <trkpt lat="44.9112" lon="4.87262">
        <ele>110.098391</ele>
        <time>2021-09-15T06:45:01.000Z</time>
      </trkpt>
      <trkpt lat="44.91068" lon="4.87224">
        <ele>110.245266</ele>
        <time>2021-09-15T06:45:11.000Z</time>
      </trkpt>
      <trkpt lat="44.91058" lon="4.87216">
        <ele>110.278662</ele>
        <time>2021-09-15T06:45:13.000Z</time>
      </trkpt>
      <trkpt lat="44.91005" lon="4.87178">
        <ele>110.464162</ele>
        <time>2021-09-15T06:45:23.000Z</time>
      </trkpt>
      <trkpt lat="44.90956" lon="4.87142">
        <ele>110.635649</ele>
        <time>2021-09-15T06:45:32.000Z</time>
      </trkpt>
      <trkpt lat="44.90951" lon="4.87138">
        <ele>110.655051</ele>
        <time>2021-09-15T06:45:33.000Z</time>
      </trkpt>
      <trkpt lat="44.90908" lon="4.87105">
        <ele>110.807124</ele>
        <time>2021-09-15T06:45:41.000Z</time>
      </trkpt>
      <trkpt lat="44.90867" lon="4.87069">
        <ele>110.949696</ele>
        <time>2021-09-15T06:45:49.000Z</time>
      </trkpt>
      <trkpt lat="44.9082" lon="4.87027">
        <ele>111.111826</ele>
        <time>2021-09-15T06:45:58.000Z</time>
      </trkpt>
      <trkpt lat="44.90814" lon="4.87022">
        <ele>111.129988</ele>
        <time>2021-09-15T06:45:59.000Z</time>
      </trkpt>
      <trkpt lat="44.90778" lon="4.8699">
        <ele>111.252842</ele>
        <time>2021-09-15T06:46:06.000Z</time>
      </trkpt>
      <trkpt lat="44.90758" lon="4.86972">
        <ele>111.321916</ele>
        <time>2021-09-15T06:46:10.000Z</time>
      </trkpt>
      <trkpt lat="44.90749" lon="4.86964">
        <ele>111.3461</ele>
        <time>2021-09-15T06:46:12.000Z</time>
      </trkpt>
      <trkpt lat="44.90734" lon="4.86956">
        <ele>111.358053</ele>
        <time>2021-09-15T06:46:15.000Z</time>
      </trkpt>
      <trkpt lat="44.90729" lon="4.86952">
        <ele>111.362101</ele>
        <time>2021-09-15T06:46:16.000Z</time>
      </trkpt>
      <trkpt lat="44.90723" lon="4.86951">
        <ele>111.366478</ele>
        <time>2021-09-15T06:46:17.000Z</time>
      </trkpt>
      <trkpt lat="44.90717" lon="4.86954">
        <ele>111.370889</ele>
        <time>2021-09-15T06:46:18.000Z</time>
      </trkpt>
      <trkpt lat="44.90713" lon="4.8696">
        <ele>111.37547</ele>
        <time>2021-09-15T06:46:19.000Z</time>
      </trkpt>
      <trkpt lat="44.907" lon="4.86978">
        <ele>111.388615</ele>
        <time>2021-09-15T06:46:22.000Z</time>
      </trkpt>
      <trkpt lat="44.90688" lon="4.86999">
        <ele>111.402289</ele>
        <time>2021-09-15T06:46:24.000Z</time>
      </trkpt>
      <trkpt lat="44.90685" lon="4.87007">
        <ele>111.406859</ele>
        <time>2021-09-15T06:46:26.000Z</time>
      </trkpt>
      <trkpt lat="44.90674" lon="4.87035">
        <ele>111.423529</ele>
        <time>2021-09-15T06:46:30.000Z</time>
      </trkpt>
      <trkpt lat="44.90655" lon="4.87078">
        <ele>111.449135</ele>
        <time>2021-09-15T06:46:36.000Z</time>
      </trkpt>
      <trkpt lat="44.90652" lon="4.87084">
        <ele>111.453116</ele>
        <time>2021-09-15T06:46:37.000Z</time>
      </trkpt>
      <trkpt lat="44.90649" lon="4.8709">
        <ele>111.456931</ele>
        <time>2021-09-15T06:46:38.000Z</time>
      </trkpt>
      <trkpt lat="44.90642" lon="4.87104">
        <ele>111.465607</ele>
        <time>2021-09-15T06:46:41.000Z</time>
      </trkpt>
      <trkpt lat="44.90634" lon="4.87115">
        <ele>111.474963</ele>
        <time>2021-09-15T06:46:44.000Z</time>
      </trkpt>
      <trkpt lat="44.9063" lon="4.87119">
        <ele>111.487395</ele>
        <time>2021-09-15T06:46:45.000Z</time>
      </trkpt>
      <trkpt lat="44.90625" lon="4.87139">
        <ele>111.529462</ele>
        <time>2021-09-15T06:46:48.000Z</time>
      </trkpt>
      <trkpt lat="44.90622" lon="4.87162">
        <ele>111.574936</ele>
        <time>2021-09-15T06:46:51.000Z</time>
      </trkpt>
      <trkpt lat="44.90617" lon="4.87199">
        <ele>111.649888</ele>
        <time>2021-09-15T06:46:56.000Z</time>
      </trkpt>
      <trkpt lat="44.90612" lon="4.87238">
        <ele>111.726439</ele>
        <time>2021-09-15T06:47:01.000Z</time>
      </trkpt>
      <trkpt lat="44.90611" lon="4.87245">
        <ele>111.740888</ele>
        <time>2021-09-15T06:47:02.000Z</time>
      </trkpt>
      <trkpt lat="44.90602" lon="4.8725">
        <ele>111.767221</ele>
        <time>2021-09-15T06:47:04.000Z</time>
      </trkpt>
      <trkpt lat="44.90569" lon="4.87221">
        <ele>111.876479</ele>
        <time>2021-09-15T06:47:11.000Z</time>
      </trkpt>
      <trkpt lat="44.90526" lon="4.87185">
        <ele>112.242633</ele>
        <time>2021-09-15T06:47:20.000Z</time>
      </trkpt>
      <trkpt lat="44.9052" lon="4.87175">
        <ele>112.406087</ele>
        <time>2021-09-15T06:47:22.000Z</time>
      </trkpt>
      <trkpt lat="44.90528" lon="4.87162">
        <ele>112.627279</ele>
        <time>2021-09-15T06:47:25.000Z</time>
      </trkpt>
      <trkpt lat="44.90533" lon="4.87153">
        <ele>112.783914</ele>
        <time>2021-09-15T06:47:27.000Z</time>
      </trkpt>
      <trkpt lat="44.90553" lon="4.87121">
        <ele>113.336993</ele>
        <time>2021-09-15T06:47:34.000Z</time>
      </trkpt>
      <trkpt lat="44.9057" lon="4.87093">
        <ele>113.814208</ele>
        <time>2021-09-15T06:47:41.000Z</time>
      </trkpt>
      <trkpt lat="44.90588" lon="4.87064">
        <ele>114.312816</ele>
        <time>2021-09-15T06:47:49.000Z</time>
      </trkpt>
      <trkpt lat="44.9061" lon="4.87029">
        <ele>114.919158</ele>
        <time>2021-09-15T06:47:59.000Z</time>
      </trkpt>
      <trkpt lat="44.90632" lon="4.86993">
        <ele>115.770006</ele>
        <time>2021-09-15T06:48:10.000Z</time>
      </trkpt>
      <trkpt lat="44.9065" lon="4.86964">
        <ele>116.693455</ele>
        <time>2021-09-15T06:48:19.000Z</time>
      </trkpt>
      <trkpt lat="44.90665" lon="4.8694">
        <ele>117.462779</ele>
        <time>2021-09-15T06:48:27.000Z</time>
      </trkpt>
      <trkpt lat="44.90683" lon="4.86912">
        <ele>118.363736</ele>
        <time>2021-09-15T06:48:36.000Z</time>
      </trkpt>
      <trkpt lat="44.90701" lon="4.86883">
        <ele>119.292098</ele>
        <time>2021-09-15T06:48:45.000Z</time>
      </trkpt>
      <trkpt lat="44.90722" lon="4.86849">
        <ele>120.376389</ele>
        <time>2021-09-15T06:48:55.000Z</time>
      </trkpt>
      <trkpt lat="44.90737" lon="4.86826">
        <ele>121.141184</ele>
        <time>2021-09-15T06:49:02.000Z</time>
      </trkpt>
      <trkpt lat="44.90751" lon="4.86804">
        <ele>121.658364</ele>
        <time>2021-09-15T06:49:08.000Z</time>
      </trkpt>
      <trkpt lat="44.90774" lon="4.86767">
        <ele>122.381566</ele>
        <time>2021-09-15T06:49:17.000Z</time>
      </trkpt>
      <trkpt lat="44.90796" lon="4.86732">
        <ele>123.079169</ele>
        <time>2021-09-15T06:49:25.000Z</time>
      </trkpt>
      <trkpt lat="44.90822" lon="4.86692">
        <ele>123.866208</ele>
        <time>2021-09-15T06:49:33.000Z</time>
      </trkpt>
      <trkpt lat="44.90825" lon="4.86687">
        <ele>123.965281</ele>
        <time>2021-09-15T06:49:34.000Z</time>
      </trkpt>
      <trkpt lat="44.90841" lon="4.86662">
        <ele>124.455391</ele>
        <time>2021-09-15T06:49:39.000Z</time>
      </trkpt>
      <trkpt lat="44.90867" lon="4.86619">
        <ele>125.100186</ele>
        <time>2021-09-15T06:49:47.000Z</time>
      </trkpt>
      <trkpt lat="44.90903" lon="4.86563">
        <ele>125.080582</ele>
        <time>2021-09-15T06:49:56.000Z</time>
      </trkpt>
      <trkpt lat="44.90935" lon="4.86513">
        <ele>125.062847</ele>
        <time>2021-09-15T06:50:05.000Z</time>
      </trkpt>
      <trkpt lat="44.90962" lon="4.86469">
        <ele>125.047545</ele>
        <time>2021-09-15T06:50:11.000Z</time>
      </trkpt>
      <trkpt lat="44.90997" lon="4.86421">
        <ele>124.758693</ele>
        <time>2021-09-15T06:50:17.000Z</time>
      </trkpt>
      <trkpt lat="44.9104" lon="4.86374">
        <ele>124.001706</ele>
        <time>2021-09-15T06:50:23.000Z</time>
      </trkpt>
      <trkpt lat="44.91091" lon="4.86331">
        <ele>123.183991</ele>
        <time>2021-09-15T06:50:29.000Z</time>
      </trkpt>
      <trkpt lat="44.91146" lon="4.863">
        <ele>122.381584</ele>
        <time>2021-09-15T06:50:35.000Z</time>
      </trkpt>
      <trkpt lat="44.91192" lon="4.86285">
        <ele>121.811954</ele>
        <time>2021-09-15T06:50:40.000Z</time>
      </trkpt>
      <trkpt lat="44.91243" lon="4.86278">
        <ele>121.189914</ele>
        <time>2021-09-15T06:50:46.000Z</time>
      </trkpt>
      <trkpt lat="44.91299" lon="4.86282">
        <ele>120.516367</ele>
        <time>2021-09-15T06:50:52.000Z</time>
      </trkpt>
      <trkpt lat="44.91348" lon="4.86295">
        <ele>120.133881</ele>
        <time>2021-09-15T06:50:59.000Z</time>
      </trkpt>
      <trkpt lat="44.91406" lon="4.8631">
        <ele>119.77011</ele>
        <time>2021-09-15T06:51:08.000Z</time>
      </trkpt>
      <trkpt lat="44.91418" lon="4.86313">
        <ele>119.692084</ele>
        <time>2021-09-15T06:51:10.000Z</time>
      </trkpt>
      <trkpt lat="44.91468" lon="4.86326">
        <ele>119.380586</ele>
        <time>2021-09-15T06:51:18.000Z</time>
      </trkpt>
      <trkpt lat="44.91516" lon="4.86338">
        <ele>119.078839</ele>
        <time>2021-09-15T06:51:26.000Z</time>
      </trkpt>
      <trkpt lat="44.91557" lon="4.86348">
        <ele>118.821989</ele>
        <time>2021-09-15T06:51:34.000Z</time>
      </trkpt>
      <trkpt lat="44.91605" lon="4.86354">
        <ele>118.5223</ele>
        <time>2021-09-15T06:51:41.000Z</time>
      </trkpt>
      <trkpt lat="44.91628" lon="4.86354">
        <ele>118.378382</ele>
        <time>2021-09-15T06:51:45.000Z</time>
      </trkpt>
      <trkpt lat="44.9165" lon="4.86352">
        <ele>118.242828</ele>
        <time>2021-09-15T06:51:49.000Z</time>
      </trkpt>
      <trkpt lat="44.91666" lon="4.8635">
        <ele>118.147477</ele>
        <time>2021-09-15T06:51:52.000Z</time>
      </trkpt>
      <trkpt lat="44.91674" lon="4.86348">
        <ele>118.031018</ele>
        <time>2021-09-15T06:51:54.000Z</time>
      </trkpt>
      <trkpt lat="44.91674" lon="4.86351">
        <ele>118.003892</ele>
        <time>2021-09-15T06:51:55.000Z</time>
      </trkpt>
      <trkpt lat="44.91673" lon="4.86354">
        <ele>117.966786</ele>
        <time>2021-09-15T06:51:56.000Z</time>
      </trkpt>
      <trkpt lat="44.91665" lon="4.86356">
        <ele>117.849921</ele>
        <time>2021-09-15T06:51:59.000Z</time>
      </trkpt>
      <trkpt lat="44.91658" lon="4.86359">
        <ele>117.73742</ele>
        <time>2021-09-15T06:52:01.000Z</time>
      </trkpt>
      <trkpt lat="44.91649" lon="4.86361">
        <ele>117.607653</ele>
        <time>2021-09-15T06:52:03.000Z</time>
      </trkpt>
      <trkpt lat="44.91644" lon="4.86363">
        <ele>117.535919</ele>
        <time>2021-09-15T06:52:04.000Z</time>
      </trkpt>
      <trkpt lat="44.91638" lon="4.86366">
        <ele>117.457071</ele>
        <time>2021-09-15T06:52:05.000Z</time>
      </trkpt>
      <trkpt lat="44.9162" lon="4.86379">
        <ele>117.164211</ele>
        <time>2021-09-15T06:52:08.000Z</time>
      </trkpt>
      <trkpt lat="44.91598" lon="4.86377">
        <ele>116.850781</ele>
        <time>2021-09-15T06:52:12.000Z</time>
      </trkpt>
      <trkpt lat="44.91545" lon="4.86374">
        <ele>116.103432</ele>
        <time>2021-09-15T06:52:19.000Z</time>
      </trkpt>
      <trkpt lat="44.91544" lon="4.86374">
        <ele>116.083572</ele>
        <time>2021-09-15T06:52:20.000Z</time>
      </trkpt>
      <trkpt lat="44.91534" lon="4.86373">
        <ele>115.942949</ele>
        <time>2021-09-15T06:52:21.000Z</time>
      </trkpt>
      <trkpt lat="44.91547" lon="4.86374">
        <ele>115.762612</ele>
        <time>2021-09-15T06:52:25.000Z</time>
      </trkpt>
      <trkpt lat="44.91547" lon="4.86374">
        <ele>115.754052</ele>
        <time>2021-09-15T06:52:26.000Z</time>
      </trkpt>
      <trkpt lat="44.91535" lon="4.86369">
        <ele>115.571022</ele>
        <time>2021-09-15T06:52:51.000Z</time>
      </trkpt>
      <trkpt lat="44.91541" lon="4.86374">
        <ele>115.482779</ele>
        <time>2021-09-15T06:52:53.000Z</time>
      </trkpt>
      <trkpt lat="44.91527" lon="4.86377">
        <ele>115.314565</ele>
        <time>2021-09-15T06:52:58.000Z</time>
      </trkpt>
      <trkpt lat="44.91501" lon="4.86393">
        <ele>114.96781</ele>
        <time>2021-09-15T06:53:04.000Z</time>
      </trkpt>
      <trkpt lat="44.91477" lon="4.8641">
        <ele>114.632388</ele>
        <time>2021-09-15T06:53:09.000Z</time>
      </trkpt>
      <trkpt lat="44.9147" lon="4.86412">
        <ele>114.552186</ele>
        <time>2021-09-15T06:53:10.000Z</time>
      </trkpt>
      <trkpt lat="44.91465" lon="4.86409">
        <ele>114.485296</ele>
        <time>2021-09-15T06:53:11.000Z</time>
      </trkpt>
      <trkpt lat="44.91444" lon="4.86399">
        <ele>114.218887</ele>
        <time>2021-09-15T06:53:15.000Z</time>
      </trkpt>
      <trkpt lat="44.91416" lon="4.86389">
        <ele>113.863438</ele>
        <time>2021-09-15T06:53:20.000Z</time>
      </trkpt>
      <trkpt lat="44.91393" lon="4.86387">
        <ele>113.579899</ele>
        <time>2021-09-15T06:53:24.000Z</time>
      </trkpt>
      <trkpt lat="44.91382" lon="4.86387">
        <ele>113.449421</ele>
        <time>2021-09-15T06:53:26.000Z</time>
      </trkpt>
      <trkpt lat="44.91376" lon="4.86388">
        <ele>113.392076</ele>
        <time>2021-09-15T06:53:27.000Z</time>
      </trkpt>
      <trkpt lat="44.91365" lon="4.86388">
        <ele>113.313616</ele>
        <time>2021-09-15T06:53:29.000Z</time>
      </trkpt>
      <trkpt lat="44.9136" lon="4.86387">
        <ele>113.271864</ele>
        <time>2021-09-15T06:53:30.000Z</time>
      </trkpt>
      <trkpt lat="44.91354" lon="4.86383">
        <ele>113.228605</ele>
        <time>2021-09-15T06:53:31.000Z</time>
      </trkpt>
      <trkpt lat="44.91338" lon="4.86369">
        <ele>113.095094</ele>
        <time>2021-09-15T06:53:34.000Z</time>
      </trkpt>
      <trkpt lat="44.91327" lon="4.8636">
        <ele>113.009084</ele>
        <time>2021-09-15T06:53:36.000Z</time>
      </trkpt>
      <trkpt lat="44.91305" lon="4.86347">
        <ele>112.839943</ele>
        <time>2021-09-15T06:53:40.000Z</time>
      </trkpt>
      <trkpt lat="44.9127" lon="4.86341">
        <ele>112.590794</ele>
        <time>2021-09-15T06:53:46.000Z</time>
      </trkpt>
      <trkpt lat="44.91224" lon="4.86336">
        <ele>112.265549</ele>
        <time>2021-09-15T06:53:54.000Z</time>
      </trkpt>
      <trkpt lat="44.91184" lon="4.86332">
        <ele>112.097357</ele>
        <time>2021-09-15T06:54:01.000Z</time>
      </trkpt>
      <trkpt lat="44.9116" lon="4.86331">
        <ele>112.055709</ele>
        <time>2021-09-15T06:54:05.000Z</time>
      </trkpt>
      <trkpt lat="44.91155" lon="4.86335">
        <ele>112.04621</ele>
        <time>2021-09-15T06:54:06.000Z</time>
      </trkpt>
      <trkpt lat="44.91152" lon="4.86341">
        <ele>112.036704</ele>
        <time>2021-09-15T06:54:07.000Z</time>
      </trkpt>
      <trkpt lat="44.91149" lon="4.86356">
        <ele>112.016716</ele>
        <time>2021-09-15T06:54:09.000Z</time>
      </trkpt>
      <trkpt lat="44.91143" lon="4.8638">
        <ele>111.985224</ele>
        <time>2021-09-15T06:54:12.000Z</time>
      </trkpt>
      <trkpt lat="44.91138" lon="4.86397">
        <ele>111.963075</ele>
        <time>2021-09-15T06:54:14.000Z</time>
      </trkpt>
      <trkpt lat="44.91127" lon="4.86419">
        <ele>111.930189</ele>
        <time>2021-09-15T06:54:17.000Z</time>
      </trkpt>
      <trkpt lat="44.91123" lon="4.86425">
        <ele>111.919399</ele>
        <time>2021-09-15T06:54:18.000Z</time>
      </trkpt>
      <trkpt lat="44.91115" lon="4.86435">
        <ele>111.900586</ele>
        <time>2021-09-15T06:54:20.000Z</time>
      </trkpt>
      <trkpt lat="44.91105" lon="4.86441">
        <ele>111.881347</ele>
        <time>2021-09-15T06:54:22.000Z</time>
      </trkpt>
      <trkpt lat="44.91071" lon="4.86451">
        <ele>111.81953</ele>
        <time>2021-09-15T06:54:29.000Z</time>
      </trkpt>
      <trkpt lat="44.9106" lon="4.86444">
        <ele>111.775346</ele>
        <time>2021-09-15T06:54:32.000Z</time>
      </trkpt>
      <trkpt lat="44.91048" lon="4.86418">
        <ele>111.694209</ele>
        <time>2021-09-15T06:54:37.000Z</time>
      </trkpt>
      <trkpt lat="44.91032" lon="4.86383">
        <ele>111.587883</ele>
        <time>2021-09-15T06:54:42.000Z</time>
      </trkpt>
      <trkpt lat="44.91029" lon="4.86376">
        <ele>111.56399</ele>
        <time>2021-09-15T06:54:43.000Z</time>
      </trkpt>
      <trkpt lat="44.91016" lon="4.86348">
        <ele>111.475874</ele>
        <time>2021-09-15T06:54:47.000Z</time>
      </trkpt>
      <trkpt lat="44.90997" lon="4.86301">
        <ele>111.337036</ele>
        <time>2021-09-15T06:54:54.000Z</time>
      </trkpt>
      <trkpt lat="44.90993" lon="4.86289">
        <ele>111.301838</ele>
        <time>2021-09-15T06:54:56.000Z</time>
      </trkpt>
      <trkpt lat="44.90988" lon="4.86277">
        <ele>111.266409</ele>
        <time>2021-09-15T06:54:58.000Z</time>
      </trkpt>
      <trkpt lat="44.90986" lon="4.86272">
        <ele>111.249266</ele>
        <time>2021-09-15T06:54:59.000Z</time>
      </trkpt>
      <trkpt lat="44.90979" lon="4.86254">
        <ele>111.195954</ele>
        <time>2021-09-15T06:55:02.000Z</time>
      </trkpt>
      <trkpt lat="44.90977" lon="4.86239">
        <ele>111.155849</ele>
        <time>2021-09-15T06:55:04.000Z</time>
      </trkpt>
      <trkpt lat="44.90971" lon="4.86199">
        <ele>111.032516</ele>
        <time>2021-09-15T06:55:09.000Z</time>
      </trkpt>
      <trkpt lat="44.90972" lon="4.86174">
        <ele>110.954912</ele>
        <time>2021-09-15T06:55:12.000Z</time>
      </trkpt>
      <trkpt lat="44.90972" lon="4.86158">
        <ele>110.905747</ele>
        <time>2021-09-15T06:55:14.000Z</time>
      </trkpt>
      <trkpt lat="44.90974" lon="4.8612">
        <ele>110.788971</ele>
        <time>2021-09-15T06:55:19.000Z</time>
      </trkpt>
      <trkpt lat="44.90974" lon="4.86113">
        <ele>110.767157</ele>
        <time>2021-09-15T06:55:20.000Z</time>
      </trkpt>
      <trkpt lat="44.90975" lon="4.86092">
        <ele>110.702021</ele>
        <time>2021-09-15T06:55:23.000Z</time>
      </trkpt>
      <trkpt lat="44.90977" lon="4.86053">
        <ele>110.581572</ele>
        <time>2021-09-15T06:55:28.000Z</time>
      </trkpt>
      <trkpt lat="44.90977" lon="4.86044">
        <ele>110.556057</ele>
        <time>2021-09-15T06:55:29.000Z</time>
      </trkpt>
      <trkpt lat="44.90979" lon="4.8601">
        <ele>110.451885</ele>
        <time>2021-09-15T06:55:33.000Z</time>
      </trkpt>
      <trkpt lat="44.90979" lon="4.86002">
        <ele>110.426064</ele>
        <time>2021-09-15T06:55:34.000Z</time>
      </trkpt>
      <trkpt lat="44.9098" lon="4.85994">
        <ele>110.40055</ele>
        <time>2021-09-15T06:55:35.000Z</time>
      </trkpt>
      <trkpt lat="44.9098" lon="4.85977">
        <ele>110.370505</ele>
        <time>2021-09-15T06:55:37.000Z</time>
      </trkpt>
      <trkpt lat="44.90981" lon="4.8596">
        <ele>110.355052</ele>
        <time>2021-09-15T06:55:39.000Z</time>
      </trkpt>
      <trkpt lat="44.90982" lon="4.85943">
        <ele>110.33979</ele>
        <time>2021-09-15T06:55:41.000Z</time>
      </trkpt>
      <trkpt lat="44.90983" lon="4.85918">
        <ele>110.316987</ele>
        <time>2021-09-15T06:55:44.000Z</time>
      </trkpt>
      <trkpt lat="44.90984" lon="4.85894">
        <ele>110.294545</ele>
        <time>2021-09-15T06:55:47.000Z</time>
      </trkpt>
      <trkpt lat="44.90985" lon="4.85886">
        <ele>110.287185</ele>
        <time>2021-09-15T06:55:48.000Z</time>
      </trkpt>
      <trkpt lat="44.90985" lon="4.85877">
        <ele>110.279825</ele>
        <time>2021-09-15T06:55:49.000Z</time>
      </trkpt>
      <trkpt lat="44.90987" lon="4.85844">
        <ele>110.249752</ele>
        <time>2021-09-15T06:55:53.000Z</time>
      </trkpt>
      <trkpt lat="44.90988" lon="4.85819">
        <ele>110.226949</ele>
        <time>2021-09-15T06:55:56.000Z</time>
      </trkpt>
      <trkpt lat="44.90989" lon="4.85803">
        <ele>110.21241</ele>
        <time>2021-09-15T06:55:58.000Z</time>
      </trkpt>
      <trkpt lat="44.90989" lon="4.85795">
        <ele>110.204869</ele>
        <time>2021-09-15T06:55:59.000Z</time>
      </trkpt>
      <trkpt lat="44.90991" lon="4.85761">
        <ele>110.174435</ele>
        <time>2021-09-15T06:56:03.000Z</time>
      </trkpt>
      <trkpt lat="44.90993" lon="4.85721">
        <ele>110.144344</ele>
        <time>2021-09-15T06:56:08.000Z</time>
      </trkpt>
      <trkpt lat="44.90994" lon="4.85705">
        <ele>110.138211</ele>
        <time>2021-09-15T06:56:10.000Z</time>
      </trkpt>
      <trkpt lat="44.90995" lon="4.85689">
        <ele>110.131884</ele>
        <time>2021-09-15T06:56:12.000Z</time>
      </trkpt>
      <trkpt lat="44.90998" lon="4.85639">
        <ele>110.112596</ele>
        <time>2021-09-15T06:56:18.000Z</time>
      </trkpt>
      <trkpt lat="44.91004" lon="4.85601">
        <ele>110.097695</ele>
        <time>2021-09-15T06:56:23.000Z</time>
      </trkpt>
      <trkpt lat="44.91007" lon="4.85589">
        <ele>110.092809</ele>
        <time>2021-09-15T06:56:25.000Z</time>
      </trkpt>
      <trkpt lat="44.91015" lon="4.85563">
        <ele>110.081956</ele>
        <time>2021-09-15T06:56:29.000Z</time>
      </trkpt>
      <trkpt lat="44.91031" lon="4.85514">
        <ele>110.061509</ele>
        <time>2021-09-15T06:56:36.000Z</time>
      </trkpt>
      <trkpt lat="44.91035" lon="4.85499">
        <ele>110.055255</ele>
        <time>2021-09-15T06:56:39.000Z</time>
      </trkpt>
      <trkpt lat="44.91033" lon="4.85489">
        <ele>110.050701</ele>
        <time>2021-09-15T06:56:40.000Z</time>
      </trkpt>
      <trkpt lat="44.91031" lon="4.85487">
        <ele>110.047026</ele>
        <time>2021-09-15T06:56:41.000Z</time>
      </trkpt>
      <trkpt lat="44.91024" lon="4.85483">
        <ele>110.037119</ele>
        <time>2021-09-15T06:56:43.000Z</time>
      </trkpt>
      <trkpt lat="44.91" lon="4.85467">
        <ele>110.002606</ele>
        <time>2021-09-15T06:56:48.000Z</time>
      </trkpt>
      <trkpt lat="44.90967" lon="4.85446">
        <ele>109.954311</ele>
        <time>2021-09-15T06:56:54.000Z</time>
      </trkpt>
      <trkpt lat="44.90944" lon="4.85431">
        <ele>109.920277</ele>
        <time>2021-09-15T06:56:58.000Z</time>
      </trkpt>
      <trkpt lat="44.90933" lon="4.85424">
        <ele>109.904214</ele>
        <time>2021-09-15T06:57:00.000Z</time>
      </trkpt>
      <trkpt lat="44.90891" lon="4.85409">
        <ele>109.846863</ele>
        <time>2021-09-15T06:57:07.000Z</time>
      </trkpt>
      <trkpt lat="44.90873" lon="4.85403">
        <ele>109.823162</ele>
        <time>2021-09-15T06:57:10.000Z</time>
      </trkpt>
      <trkpt lat="44.90856" lon="4.85399">
        <ele>109.837711</ele>
        <time>2021-09-15T06:57:13.000Z</time>
      </trkpt>
      <trkpt lat="44.90845" lon="4.85397">
        <ele>109.862644</ele>
        <time>2021-09-15T06:57:15.000Z</time>
      </trkpt>
      <trkpt lat="44.90827" lon="4.85394">
        <ele>109.90128</ele>
        <time>2021-09-15T06:57:18.000Z</time>
      </trkpt>
      <trkpt lat="44.90785" lon="4.85388">
        <ele>109.995361</ele>
        <time>2021-09-15T06:57:25.000Z</time>
      </trkpt>
      <trkpt lat="44.90762" lon="4.85385">
        <ele>110.04806</ele>
        <time>2021-09-15T06:57:29.000Z</time>
      </trkpt>
      <trkpt lat="44.90751" lon="4.85383">
        <ele>110.072515</ele>
        <time>2021-09-15T06:57:31.000Z</time>
      </trkpt>
      <trkpt lat="44.90735" lon="4.85381">
        <ele>110.107721</ele>
        <time>2021-09-15T06:57:34.000Z</time>
      </trkpt>
      <trkpt lat="44.90719" lon="4.85379">
        <ele>110.143329</ele>
        <time>2021-09-15T06:57:37.000Z</time>
      </trkpt>
      <trkpt lat="44.90715" lon="4.85379">
        <ele>110.153605</ele>
        <time>2021-09-15T06:57:38.000Z</time>
      </trkpt>
      <trkpt lat="44.90711" lon="4.85378">
        <ele>110.163206</ele>
        <time>2021-09-15T06:57:39.000Z</time>
      </trkpt>
      <trkpt lat="44.90686" lon="4.85377">
        <ele>110.226373</ele>
        <time>2021-09-15T06:57:43.000Z</time>
      </trkpt>
      <trkpt lat="44.90679" lon="4.85377">
        <ele>110.271829</ele>
        <time>2021-09-15T06:57:44.000Z</time>
      </trkpt>
      <trkpt lat="44.90653" lon="4.85376">
        <ele>110.447548</ele>
        <time>2021-09-15T06:57:48.000Z</time>
      </trkpt>
      <trkpt lat="44.90605" lon="4.85375">
        <ele>110.76749</ele>
        <time>2021-09-15T06:57:56.000Z</time>
      </trkpt>
      <trkpt lat="44.90574" lon="4.85374">
        <ele>110.97321</ele>
        <time>2021-09-15T06:58:02.000Z</time>
      </trkpt>
      <trkpt lat="44.90531" lon="4.85374">
        <ele>111.259081</ele>
        <time>2021-09-15T06:58:11.000Z</time>
      </trkpt>
      <trkpt lat="44.90479" lon="4.85371">
        <ele>111.511201</ele>
        <time>2021-09-15T06:58:21.000Z</time>
      </trkpt>
      <trkpt lat="44.90468" lon="4.85369">
        <ele>111.547029</ele>
        <time>2021-09-15T06:58:23.000Z</time>
      </trkpt>
      <trkpt lat="44.90439" lon="4.85364">
        <ele>111.641691</ele>
        <time>2021-09-15T06:58:28.000Z</time>
      </trkpt>
      <trkpt lat="44.9039" lon="4.85355">
        <ele>111.801879</ele>
        <time>2021-09-15T06:58:36.000Z</time>
      </trkpt>
      <trkpt lat="44.90371" lon="4.8535">
        <ele>111.867203</ele>
        <time>2021-09-15T06:58:39.000Z</time>
      </trkpt>
      <trkpt lat="44.90359" lon="4.85347">
        <ele>111.907842</ele>
        <time>2021-09-15T06:58:41.000Z</time>
      </trkpt>
      <trkpt lat="44.90323" lon="4.85335">
        <ele>112.015596</ele>
        <time>2021-09-15T06:58:47.000Z</time>
      </trkpt>
      <trkpt lat="44.90275" lon="4.85316">
        <ele>112.097613</ele>
        <time>2021-09-15T06:58:55.000Z</time>
      </trkpt>
      <trkpt lat="44.90235" lon="4.85299">
        <ele>112.166908</ele>
        <time>2021-09-15T06:59:02.000Z</time>
      </trkpt>
      <trkpt lat="44.90189" lon="4.85279">
        <ele>112.246166</ele>
        <time>2021-09-15T06:59:10.000Z</time>
      </trkpt>
      <trkpt lat="44.90153" lon="4.85265">
        <ele>112.293141</ele>
        <time>2021-09-15T06:59:16.000Z</time>
      </trkpt>
      <trkpt lat="44.9011" lon="4.85253">
        <ele>112.217586</ele>
        <time>2021-09-15T06:59:23.000Z</time>
      </trkpt>
      <trkpt lat="44.90057" lon="4.85243">
        <ele>112.126168</ele>
        <time>2021-09-15T06:59:31.000Z</time>
      </trkpt>
      <trkpt lat="44.90002" lon="4.85233">
        <ele>112.031679</ele>
        <time>2021-09-15T06:59:40.000Z</time>
      </trkpt>
      <trkpt lat="44.89996" lon="4.85232">
        <ele>112.02138</ele>
        <time>2021-09-15T06:59:41.000Z</time>
      </trkpt>
      <trkpt lat="44.89939" lon="4.85226">
        <ele>111.949572</ele>
        <time>2021-09-15T06:59:50.000Z</time>
      </trkpt>
      <trkpt lat="44.89893" lon="4.85221">
        <ele>111.901658</ele>
        <time>2021-09-15T06:59:57.000Z</time>
      </trkpt>
      <trkpt lat="44.89848" lon="4.85217">
        <ele>111.853848</ele>
        <time>2021-09-15T07:00:04.000Z</time>
      </trkpt>
      <trkpt lat="44.8979" lon="4.8521">
        <ele>111.810747</ele>
        <time>2021-09-15T07:00:13.000Z</time>
      </trkpt>
      <trkpt lat="44.89734" lon="4.85205">
        <ele>111.858575</ele>
        <time>2021-09-15T07:00:22.000Z</time>
      </trkpt>
      <trkpt lat="44.89727" lon="4.85204">
        <ele>111.863892</ele>
        <time>2021-09-15T07:00:23.000Z</time>
      </trkpt>
      <trkpt lat="44.8967" lon="4.85198">
        <ele>111.912634</ele>
        <time>2021-09-15T07:00:32.000Z</time>
      </trkpt>
      <trkpt lat="44.89663" lon="4.85198">
        <ele>111.917942</ele>
        <time>2021-09-15T07:00:33.000Z</time>
      </trkpt>
      <trkpt lat="44.89608" lon="4.85193">
        <ele>111.980431</ele>
        <time>2021-09-15T07:00:42.000Z</time>
      </trkpt>
      <trkpt lat="44.89552" lon="4.85188">
        <ele>112.095456</ele>
        <time>2021-09-15T07:00:51.000Z</time>
      </trkpt>
      <trkpt lat="44.89497" lon="4.85183">
        <ele>112.208208</ele>
        <time>2021-09-15T07:01:00.000Z</time>
      </trkpt>
      <trkpt lat="44.89485" lon="4.85182">
        <ele>112.231668</ele>
        <time>2021-09-15T07:01:02.000Z</time>
      </trkpt>
      <trkpt lat="44.89441" lon="4.85179">
        <ele>112.32361</ele>
        <time>2021-09-15T07:01:10.000Z</time>
      </trkpt>
      <trkpt lat="44.89392" lon="4.85177">
        <ele>112.121608</ele>
        <time>2021-09-15T07:01:18.000Z</time>
      </trkpt>
      <trkpt lat="44.89347" lon="4.85175">
        <ele>111.936014</ele>
        <time>2021-09-15T07:01:25.000Z</time>
      </trkpt>
      <trkpt lat="44.89295" lon="4.85173">
        <ele>111.721081</ele>
        <time>2021-09-15T07:01:32.000Z</time>
      </trkpt>
      <trkpt lat="44.89235" lon="4.85177">
        <ele>111.429317</ele>
        <time>2021-09-15T07:01:40.000Z</time>
      </trkpt>
      <trkpt lat="44.89177" lon="4.85191">
        <ele>111.082555</ele>
        <time>2021-09-15T07:01:48.000Z</time>
      </trkpt>
      <trkpt lat="44.89163" lon="4.85195">
        <ele>110.998305</ele>
        <time>2021-09-15T07:01:50.000Z</time>
      </trkpt>
      <trkpt lat="44.89107" lon="4.85207">
        <ele>110.665422</ele>
        <time>2021-09-15T07:01:58.000Z</time>
      </trkpt>
      <trkpt lat="44.891" lon="4.85209">
        <ele>110.623876</ele>
        <time>2021-09-15T07:01:59.000Z</time>
      </trkpt>
      <trkpt lat="44.89047" lon="4.85221">
        <ele>110.444877</ele>
        <time>2021-09-15T07:02:07.000Z</time>
      </trkpt>
      <trkpt lat="44.89003" lon="4.85231">
        <ele>110.347102</ele>
        <time>2021-09-15T07:02:14.000Z</time>
      </trkpt>
      <trkpt lat="44.88992" lon="4.85233">
        <ele>110.323063</ele>
        <time>2021-09-15T07:02:16.000Z</time>
      </trkpt>
      <trkpt lat="44.88982" lon="4.85235">
        <ele>110.300134</ele>
        <time>2021-09-15T07:02:18.000Z</time>
      </trkpt>
      <trkpt lat="44.88974" lon="4.85235">
        <ele>110.281183</ele>
        <time>2021-09-15T07:02:20.000Z</time>
      </trkpt>
      <trkpt lat="44.88967" lon="4.85232">
        <ele>110.265268</ele>
        <time>2021-09-15T07:02:22.000Z</time>
      </trkpt>
      <trkpt lat="44.88961" lon="4.8524">
        <ele>110.248848</ele>
        <time>2021-09-15T07:02:23.000Z</time>
      </trkpt>
      <trkpt lat="44.88953" lon="4.85244">
        <ele>110.228775</ele>
        <time>2021-09-15T07:02:25.000Z</time>
      </trkpt>
      <trkpt lat="44.88944" lon="4.85246">
        <ele>110.208571</ele>
        <time>2021-09-15T07:02:27.000Z</time>
      </trkpt>
      <trkpt lat="44.88939" lon="4.85247">
        <ele>110.197725</ele>
        <time>2021-09-15T07:02:28.000Z</time>
      </trkpt>
      <trkpt lat="44.88934" lon="4.85247">
        <ele>110.186287</ele>
        <time>2021-09-15T07:02:29.000Z</time>
      </trkpt>
      <trkpt lat="44.88923" lon="4.85251">
        <ele>110.162714</ele>
        <time>2021-09-15T07:02:31.000Z</time>
      </trkpt>
      <trkpt lat="44.88913" lon="4.85256">
        <ele>110.138717</ele>
        <time>2021-09-15T07:02:33.000Z</time>
      </trkpt>
      <trkpt lat="44.88908" lon="4.85258">
        <ele>110.136887</ele>
        <time>2021-09-15T07:02:34.000Z</time>
      </trkpt>
      <trkpt lat="44.88891" lon="4.85264">
        <ele>110.223629</ele>
        <time>2021-09-15T07:02:37.000Z</time>
      </trkpt>
      <trkpt lat="44.88864" lon="4.85276">
        <ele>110.371782</ele>
        <time>2021-09-15T07:02:42.000Z</time>
      </trkpt>
      <trkpt lat="44.88852" lon="4.8528">
        <ele>110.430826</ele>
        <time>2021-09-15T07:02:44.000Z</time>
      </trkpt>
      <trkpt lat="44.88843" lon="4.85284">
        <ele>110.483562</ele>
        <time>2021-09-15T07:02:46.000Z</time>
      </trkpt>
      <trkpt lat="44.88838" lon="4.85286">
        <ele>110.509091</ele>
        <time>2021-09-15T07:02:47.000Z</time>
      </trkpt>
      <trkpt lat="44.88828" lon="4.8529">
        <ele>110.562912</ele>
        <time>2021-09-15T07:02:49.000Z</time>
      </trkpt>
      <trkpt lat="44.88817" lon="4.85294">
        <ele>110.618901</ele>
        <time>2021-09-15T07:02:50.000Z</time>
      </trkpt>
      <trkpt lat="44.88803" lon="4.853">
        <ele>110.696082</ele>
        <time>2021-09-15T07:02:54.000Z</time>
      </trkpt>
      <trkpt lat="44.88792" lon="4.85306">
        <ele>110.756448</ele>
        <time>2021-09-15T07:02:55.000Z</time>
      </trkpt>
      <trkpt lat="44.88786" lon="4.85309">
        <ele>110.787477</ele>
        <time>2021-09-15T07:02:57.000Z</time>
      </trkpt>
      <trkpt lat="44.88752" lon="4.85326">
        <ele>110.974629</ele>
        <time>2021-09-15T07:03:02.000Z</time>
      </trkpt>
      <trkpt lat="44.88735" lon="4.85335">
        <ele>111.060319</ele>
        <time>2021-09-15T07:03:05.000Z</time>
      </trkpt>
      <trkpt lat="44.88716" lon="4.85345">
        <ele>111.117156</ele>
        <time>2021-09-15T07:03:08.000Z</time>
      </trkpt>
      <trkpt lat="44.887" lon="4.85355">
        <ele>111.170582</ele>
        <time>2021-09-15T07:03:11.000Z</time>
      </trkpt>
      <trkpt lat="44.88689" lon="4.85363">
        <ele>111.205262</ele>
        <time>2021-09-15T07:03:13.000Z</time>
      </trkpt>
      <trkpt lat="44.88664" lon="4.85381">
        <ele>111.289566</ele>
        <time>2021-09-15T07:03:18.000Z</time>
      </trkpt>
      <trkpt lat="44.88648" lon="4.85392">
        <ele>111.341145</ele>
        <time>2021-09-15T07:03:21.000Z</time>
      </trkpt>
      <trkpt lat="44.88639" lon="4.85399">
        <ele>111.371916</ele>
        <time>2021-09-15T07:03:23.000Z</time>
      </trkpt>
      <trkpt lat="44.88612" lon="4.85418">
        <ele>111.462085</ele>
        <time>2021-09-15T07:03:28.000Z</time>
      </trkpt>
      <trkpt lat="44.88576" lon="4.85445">
        <ele>111.579929</ele>
        <time>2021-09-15T07:03:35.000Z</time>
      </trkpt>
      <trkpt lat="44.88545" lon="4.85467">
        <ele>111.491435</ele>
        <time>2021-09-15T07:03:42.000Z</time>
      </trkpt>
      <trkpt lat="44.88527" lon="4.85468">
        <ele>111.446668</ele>
        <time>2021-09-15T07:03:44.000Z</time>
      </trkpt>
      <trkpt lat="44.88522" lon="4.85468">
        <ele>111.431502</ele>
        <time>2021-09-15T07:03:45.000Z</time>
      </trkpt>
      <trkpt lat="44.88515" lon="4.85467">
        <ele>111.41582</ele>
        <time>2021-09-15T07:03:46.000Z</time>
      </trkpt>
      <trkpt lat="44.88503" lon="4.85467">
        <ele>111.383687</ele>
        <time>2021-09-15T07:03:48.000Z</time>
      </trkpt>
      <trkpt lat="44.88497" lon="4.85469">
        <ele>111.367993</ele>
        <time>2021-09-15T07:03:49.000Z</time>
      </trkpt>
      <trkpt lat="44.88484" lon="4.85473">
        <ele>111.334548</ele>
        <time>2021-09-15T07:03:51.000Z</time>
      </trkpt>
      <trkpt lat="44.88466" lon="4.85479">
        <ele>111.286301</ele>
        <time>2021-09-15T07:03:54.000Z</time>
      </trkpt>
      <trkpt lat="44.8846" lon="4.85481">
        <ele>111.269413</ele>
        <time>2021-09-15T07:03:55.000Z</time>
      </trkpt>
      <trkpt lat="44.88432" lon="4.85487">
        <ele>111.198508</ele>
        <time>2021-09-15T07:03:59.000Z</time>
      </trkpt>
      <trkpt lat="44.88397" lon="4.8549">
        <ele>111.108071</ele>
        <time>2021-09-15T07:04:05.000Z</time>
      </trkpt>
      <trkpt lat="44.88378" lon="4.85492">
        <ele>111.064766</ele>
        <time>2021-09-15T07:04:09.000Z</time>
      </trkpt>
      <trkpt lat="44.88367" lon="4.85493">
        <ele>111.040356</ele>
        <time>2021-09-15T07:04:11.000Z</time>
      </trkpt>
      <trkpt lat="44.88332" lon="4.85496">
        <ele>110.959981</ele>
        <time>2021-09-15T07:04:17.000Z</time>
      </trkpt>
      <trkpt lat="44.88315" lon="4.85493">
        <ele>110.918792</ele>
        <time>2021-09-15T07:04:20.000Z</time>
      </trkpt>
      <trkpt lat="44.88302" lon="4.85489">
        <ele>110.889925</ele>
        <time>2021-09-15T07:04:22.000Z</time>
      </trkpt>
      <trkpt lat="44.88263" lon="4.85466">
        <ele>110.79213</ele>
        <time>2021-09-15T07:04:29.000Z</time>
      </trkpt>
      <trkpt lat="44.88221" lon="4.85443">
        <ele>110.671245</ele>
        <time>2021-09-15T07:04:36.000Z</time>
      </trkpt>
      <trkpt lat="44.88175" lon="4.85418">
        <ele>110.422972</ele>
        <time>2021-09-15T07:04:44.000Z</time>
      </trkpt>
      <trkpt lat="44.88138" lon="4.85409">
        <ele>110.239869</ele>
        <time>2021-09-15T07:04:50.000Z</time>
      </trkpt>
      <trkpt lat="44.88101" lon="4.85399">
        <ele>110.051698</ele>
        <time>2021-09-15T07:04:56.000Z</time>
      </trkpt>
      <trkpt lat="44.88095" lon="4.85398">
        <ele>110.022453</ele>
        <time>2021-09-15T07:04:57.000Z</time>
      </trkpt>
      <trkpt lat="44.88091" lon="4.8539">
        <ele>109.98706</ele>
        <time>2021-09-15T07:04:58.000Z</time>
      </trkpt>
      <trkpt lat="44.88084" lon="4.85377">
        <ele>109.931718</ele>
        <time>2021-09-15T07:05:00.000Z</time>
      </trkpt>
      <trkpt lat="44.88081" lon="4.85371">
        <ele>109.904191</ele>
        <time>2021-09-15T07:05:01.000Z</time>
      </trkpt>
      <trkpt lat="44.88072" lon="4.85353">
        <ele>109.829639</ele>
        <time>2021-09-15T07:05:04.000Z</time>
      </trkpt>
      <trkpt lat="44.88062" lon="4.85333">
        <ele>109.77831</ele>
        <time>2021-09-15T07:05:07.000Z</time>
      </trkpt>
      <trkpt lat="44.88058" lon="4.85326">
        <ele>109.763072</ele>
        <time>2021-09-15T07:05:08.000Z</time>
      </trkpt>
      <trkpt lat="44.88055" lon="4.85319">
        <ele>109.747834</ele>
        <time>2021-09-15T07:05:09.000Z</time>
      </trkpt>
      <trkpt lat="44.88041" lon="4.85292">
        <ele>109.690126</ele>
        <time>2021-09-15T07:05:13.000Z</time>
      </trkpt>
      <trkpt lat="44.88027" lon="4.85263">
        <ele>109.629172</ele>
        <time>2021-09-15T07:05:17.000Z</time>
      </trkpt>
      <trkpt lat="44.88023" lon="4.85255">
        <ele>109.612664</ele>
        <time>2021-09-15T07:05:18.000Z</time>
      </trkpt>
      <trkpt lat="44.88005" lon="4.85238">
        <ele>109.559419</ele>
        <time>2021-09-15T07:05:21.000Z</time>
      </trkpt>
      <trkpt lat="44.87992" lon="4.85238">
        <ele>109.52889</ele>
        <time>2021-09-15T07:05:23.000Z</time>
      </trkpt>
      <trkpt lat="44.87974" lon="4.8524">
        <ele>109.48345</ele>
        <time>2021-09-15T07:05:26.000Z</time>
      </trkpt>
      <trkpt lat="44.87962" lon="4.85238">
        <ele>109.455173</ele>
        <time>2021-09-15T07:05:28.000Z</time>
      </trkpt>
      <trkpt lat="44.87952" lon="4.85229">
        <ele>109.426099</ele>
        <time>2021-09-15T07:05:30.000Z</time>
      </trkpt>
      <trkpt lat="44.87945" lon="4.85218">
        <ele>109.400041</ele>
        <time>2021-09-15T07:05:32.000Z</time>
      </trkpt>
      <trkpt lat="44.8794" lon="4.85203">
        <ele>109.39394</ele>
        <time>2021-09-15T07:05:34.000Z</time>
      </trkpt>
      <trkpt lat="44.87938" lon="4.85195">
        <ele>109.498501</ele>
        <time>2021-09-15T07:05:35.000Z</time>
      </trkpt>
      <trkpt lat="44.87938" lon="4.85184">
        <ele>109.621632</ele>
        <time>2021-09-15T07:05:36.000Z</time>
      </trkpt>
      <trkpt lat="44.87939" lon="4.85152">
        <ele>110.020425</ele>
        <time>2021-09-15T07:05:40.000Z</time>
      </trkpt>
      <trkpt lat="44.87944" lon="4.85139">
        <ele>110.203252</ele>
        <time>2021-09-15T07:05:42.000Z</time>
      </trkpt>
      <trkpt lat="44.87947" lon="4.85136">
        <ele>110.267216</ele>
        <time>2021-09-15T07:05:43.000Z</time>
      </trkpt>
      <trkpt lat="44.87961" lon="4.85121">
        <ele>110.57578</ele>
        <time>2021-09-15T07:05:48.000Z</time>
      </trkpt>
      <trkpt lat="44.87965" lon="4.85117">
        <ele>110.646795</ele>
        <time>2021-09-15T07:05:49.000Z</time>
      </trkpt>
      <trkpt lat="44.87972" lon="4.8511">
        <ele>110.7972</ele>
        <time>2021-09-15T07:05:51.000Z</time>
      </trkpt>
      <trkpt lat="44.87983" lon="4.851">
        <ele>111.021798</ele>
        <time>2021-09-15T07:05:54.000Z</time>
      </trkpt>
      <trkpt lat="44.87987" lon="4.85097">
        <ele>111.095207</ele>
        <time>2021-09-15T07:05:55.000Z</time>
      </trkpt>
      <trkpt lat="44.88001" lon="4.85085">
        <ele>111.387097</ele>
        <time>2021-09-15T07:05:59.000Z</time>
      </trkpt>
      <trkpt lat="44.88024" lon="4.85071">
        <ele>111.820549</ele>
        <time>2021-09-15T07:06:05.000Z</time>
      </trkpt>
      <trkpt lat="44.88042" lon="4.85071">
        <ele>112.128485</ele>
        <time>2021-09-15T07:06:10.000Z</time>
      </trkpt>
      <trkpt lat="44.88059" lon="4.85072">
        <ele>112.426347</ele>
        <time>2021-09-15T07:06:16.000Z</time>
      </trkpt>
      <trkpt lat="44.88069" lon="4.85067">
        <ele>112.566341</ele>
        <time>2021-09-15T07:06:19.000Z</time>
      </trkpt>
      <trkpt lat="44.8807" lon="4.85066">
        <ele>112.578002</ele>
        <time>2021-09-15T07:06:20.000Z</time>
      </trkpt>
      <trkpt lat="44.88058" lon="4.85064">
        <ele>112.727773</ele>
        <time>2021-09-15T07:06:24.000Z</time>
      </trkpt>
      <trkpt lat="44.88037" lon="4.8506">
        <ele>112.983268</ele>
        <time>2021-09-15T07:06:30.000Z</time>
      </trkpt>
      <trkpt lat="44.8801" lon="4.85055">
        <ele>113.325917</ele>
        <time>2021-09-15T07:06:37.000Z</time>
      </trkpt>
      <trkpt lat="44.87974" lon="4.85046">
        <ele>113.777176</ele>
        <time>2021-09-15T07:06:45.000Z</time>
      </trkpt>
      <trkpt lat="44.87933" lon="4.85036">
        <ele>114.280883</ele>
        <time>2021-09-15T07:06:53.000Z</time>
      </trkpt>
      <trkpt lat="44.8789" lon="4.85026">
        <ele>114.659461</ele>
        <time>2021-09-15T07:07:01.000Z</time>
      </trkpt>
      <trkpt lat="44.87852" lon="4.85013">
        <ele>114.578789</ele>
        <time>2021-09-15T07:07:08.000Z</time>
      </trkpt>
      <trkpt lat="44.87818" lon="4.85004">
        <ele>114.507748</ele>
        <time>2021-09-15T07:07:14.000Z</time>
      </trkpt>
      <trkpt lat="44.87777" lon="4.84999">
        <ele>114.423265</ele>
        <time>2021-09-15T07:07:21.000Z</time>
      </trkpt>
      <trkpt lat="44.87759" lon="4.85002">
        <ele>114.385803</ele>
        <time>2021-09-15T07:07:24.000Z</time>
      </trkpt>
      <trkpt lat="44.87747" lon="4.85008">
        <ele>114.360796</ele>
        <time>2021-09-15T07:07:26.000Z</time>
      </trkpt>
      <trkpt lat="44.87708" lon="4.85026">
        <ele>114.292555</ele>
        <time>2021-09-15T07:07:33.000Z</time>
      </trkpt>
      <trkpt lat="44.87702" lon="4.85028">
        <ele>114.286119</ele>
        <time>2021-09-15T07:07:34.000Z</time>
      </trkpt>
      <trkpt lat="44.87685" lon="4.85036">
        <ele>114.26609</ele>
        <time>2021-09-15T07:07:37.000Z</time>
      </trkpt>
      <trkpt lat="44.87643" lon="4.85053">
        <ele>114.21578</ele>
        <time>2021-09-15T07:07:45.000Z</time>
      </trkpt>
      <trkpt lat="44.8761" lon="4.8506">
        <ele>114.178236</ele>
        <time>2021-09-15T07:07:51.000Z</time>
      </trkpt>
      <trkpt lat="44.87581" lon="4.8506">
        <ele>114.146071</ele>
        <time>2021-09-15T07:07:56.000Z</time>
      </trkpt>
      <trkpt lat="44.87535" lon="4.85059">
        <ele>114.059233</ele>
        <time>2021-09-15T07:08:04.000Z</time>
      </trkpt>
      <trkpt lat="44.87499" lon="4.85054">
        <ele>113.933453</ele>
        <time>2021-09-15T07:08:10.000Z</time>
      </trkpt>
      <trkpt lat="44.87463" lon="4.85044">
        <ele>113.806884</ele>
        <time>2021-09-15T07:08:17.000Z</time>
      </trkpt>
      <trkpt lat="44.87411" lon="4.85028">
        <ele>113.619085</ele>
        <time>2021-09-15T07:08:25.000Z</time>
      </trkpt>
      <trkpt lat="44.87365" lon="4.85014">
        <ele>113.476554</ele>
        <time>2021-09-15T07:08:33.000Z</time>
      </trkpt>
      <trkpt lat="44.8734" lon="4.85003">
        <ele>113.456521</ele>
        <time>2021-09-15T07:08:37.000Z</time>
      </trkpt>
      <trkpt lat="44.87324" lon="4.8499">
        <ele>113.442147</ele>
        <time>2021-09-15T07:08:40.000Z</time>
      </trkpt>
      <trkpt lat="44.87313" lon="4.84981">
        <ele>113.432748</ele>
        <time>2021-09-15T07:08:42.000Z</time>
      </trkpt>
      <trkpt lat="44.87292" lon="4.84966">
        <ele>113.414259</ele>
        <time>2021-09-15T07:08:46.000Z</time>
      </trkpt>
      <trkpt lat="44.87286" lon="4.84964">
        <ele>113.409654</ele>
        <time>2021-09-15T07:08:47.000Z</time>
      </trkpt>
      <trkpt lat="44.87264" lon="4.84957">
        <ele>113.392628</ele>
        <time>2021-09-15T07:08:51.000Z</time>
      </trkpt>
      <trkpt lat="44.87252" lon="4.84954">
        <ele>113.38317</ele>
        <time>2021-09-15T07:08:53.000Z</time>
      </trkpt>
      <trkpt lat="44.87217" lon="4.84945">
        <ele>113.355479</ele>
        <time>2021-09-15T07:08:59.000Z</time>
      </trkpt>
      <trkpt lat="44.87173" lon="4.8493">
        <ele>113.105367</ele>
        <time>2021-09-15T07:09:06.000Z</time>
      </trkpt>
      <trkpt lat="44.8714" lon="4.84921">
        <ele>112.849683</ele>
        <time>2021-09-15T07:09:11.000Z</time>
      </trkpt>
      <trkpt lat="44.87108" lon="4.84915">
        <ele>112.59437</ele>
        <time>2021-09-15T07:09:16.000Z</time>
      </trkpt>
      <trkpt lat="44.87085" lon="4.84911">
        <ele>112.417181</ele>
        <time>2021-09-15T07:09:20.000Z</time>
      </trkpt>
      <trkpt lat="44.87062" lon="4.84906">
        <ele>112.235244</ele>
        <time>2021-09-15T07:09:24.000Z</time>
      </trkpt>
      <trkpt lat="44.87026" lon="4.84899">
        <ele>111.955182</ele>
        <time>2021-09-15T07:09:30.000Z</time>
      </trkpt>
      <trkpt lat="44.87002" lon="4.84894">
        <ele>111.852613</ele>
        <time>2021-09-15T07:09:34.000Z</time>
      </trkpt>
      <trkpt lat="44.86972" lon="4.84887">
        <ele>111.723662</ele>
        <time>2021-09-15T07:09:39.000Z</time>
      </trkpt>
      <trkpt lat="44.8693" lon="4.84874">
        <ele>111.547143</ele>
        <time>2021-09-15T07:09:46.000Z</time>
      </trkpt>
      <trkpt lat="44.86914" lon="4.84863">
        <ele>111.473879</ele>
        <time>2021-09-15T07:09:49.000Z</time>
      </trkpt>
      <trkpt lat="44.86903" lon="4.84863">
        <ele>111.427976</ele>
        <time>2021-09-15T07:09:51.000Z</time>
      </trkpt>
      <trkpt lat="44.86893" lon="4.84863">
        <ele>111.385411</ele>
        <time>2021-09-15T07:09:53.000Z</time>
      </trkpt>
      <trkpt lat="44.86888" lon="4.84862">
        <ele>111.364886</ele>
        <time>2021-09-15T07:09:54.000Z</time>
      </trkpt>
      <trkpt lat="44.86885" lon="4.8486">
        <ele>111.35028</ele>
        <time>2021-09-15T07:09:55.000Z</time>
      </trkpt>
      <trkpt lat="44.86888" lon="4.84851">
        <ele>111.318458</ele>
        <time>2021-09-15T07:09:56.000Z</time>
      </trkpt>
      <trkpt lat="44.86899" lon="4.84829">
        <ele>111.240983</ele>
        <time>2021-09-15T07:10:00.000Z</time>
      </trkpt>
      <trkpt lat="44.86918" lon="4.84788">
        <ele>111.188436</ele>
        <time>2021-09-15T07:10:07.000Z</time>
      </trkpt>
      <trkpt lat="44.86945" lon="4.84733">
        <ele>111.164361</ele>
        <time>2021-09-15T07:10:16.000Z</time>
      </trkpt>
      <trkpt lat="44.86974" lon="4.84673">
        <ele>111.138621</ele>
        <time>2021-09-15T07:10:26.000Z</time>
      </trkpt>
      <trkpt lat="44.86993" lon="4.84632">
        <ele>111.120769</ele>
        <time>2021-09-15T07:10:33.000Z</time>
      </trkpt>
      <trkpt lat="44.87019" lon="4.84579">
        <ele>111.193105</ele>
        <time>2021-09-15T07:10:42.000Z</time>
      </trkpt>
      <trkpt lat="44.87042" lon="4.84536">
        <ele>111.318428</ele>
        <time>2021-09-15T07:10:50.000Z</time>
      </trkpt>
      <trkpt lat="44.87044" lon="4.84531">
        <ele>111.333076</ele>
        <time>2021-09-15T07:10:51.000Z</time>
      </trkpt>
      <trkpt lat="44.87073" lon="4.84479">
        <ele>111.489074</ele>
        <time>2021-09-15T07:11:01.000Z</time>
      </trkpt>
      <trkpt lat="44.87078" lon="4.84468">
        <ele>111.519737</ele>
        <time>2021-09-15T07:11:03.000Z</time>
      </trkpt>
      <trkpt lat="44.87083" lon="4.84459">
        <ele>111.546731</ele>
        <time>2021-09-15T07:11:05.000Z</time>
      </trkpt>
      <trkpt lat="44.87076" lon="4.84448">
        <ele>111.580989</ele>
        <time>2021-09-15T07:11:07.000Z</time>
      </trkpt>
      <trkpt lat="44.87072" lon="4.84445">
        <ele>111.596785</ele>
        <time>2021-09-15T07:11:08.000Z</time>
      </trkpt>
      <trkpt lat="44.87051" lon="4.84424">
        <ele>111.684096</ele>
        <time>2021-09-15T07:11:14.000Z</time>
      </trkpt>
      <trkpt lat="44.87007" lon="4.84388">
        <ele>111.784514</ele>
        <time>2021-09-15T07:11:23.000Z</time>
      </trkpt>
      <trkpt lat="44.8696" lon="4.84351">
        <ele>111.876991</ele>
        <time>2021-09-15T07:11:31.000Z</time>
      </trkpt>
      <trkpt lat="44.86912" lon="4.84313">
        <ele>111.972812</ele>
        <time>2021-09-15T07:11:40.000Z</time>
      </trkpt>
      <trkpt lat="44.86874" lon="4.84283">
        <ele>112.047609</ele>
        <time>2021-09-15T07:11:47.000Z</time>
      </trkpt>
      <trkpt lat="44.86836" lon="4.84253">
        <ele>112.125771</ele>
        <time>2021-09-15T07:11:54.000Z</time>
      </trkpt>
      <trkpt lat="44.86786" lon="4.84213">
        <ele>112.228749</ele>
        <time>2021-09-15T07:12:03.000Z</time>
      </trkpt>
      <trkpt lat="44.86743" lon="4.84179">
        <ele>112.318398</ele>
        <time>2021-09-15T07:12:11.000Z</time>
      </trkpt>
      <trkpt lat="44.86701" lon="4.84145">
        <ele>112.368783</ele>
        <time>2021-09-15T07:12:19.000Z</time>
      </trkpt>
      <trkpt lat="44.86669" lon="4.8412">
        <ele>112.395902</ele>
        <time>2021-09-15T07:12:25.000Z</time>
      </trkpt>
      <trkpt lat="44.86618" lon="4.84084">
        <ele>112.438782</ele>
        <time>2021-09-15T07:12:34.000Z</time>
      </trkpt>
      <trkpt lat="44.86593" lon="4.84067">
        <ele>112.45976</ele>
        <time>2021-09-15T07:12:39.000Z</time>
      </trkpt>
      <trkpt lat="44.86584" lon="4.84063">
        <ele>112.46691</ele>
        <time>2021-09-15T07:12:41.000Z</time>
      </trkpt>
      <trkpt lat="44.8657" lon="4.84052">
        <ele>112.481103</ele>
        <time>2021-09-15T07:12:44.000Z</time>
      </trkpt>
      <trkpt lat="44.86527" lon="4.84017">
        <ele>112.590113</ele>
        <time>2021-09-15T07:12:53.000Z</time>
      </trkpt>
      <trkpt lat="44.865" lon="4.83995">
        <ele>112.661595</ele>
        <time>2021-09-15T07:12:59.000Z</time>
      </trkpt>
      <trkpt lat="44.8649" lon="4.83987">
        <ele>112.687314</ele>
        <time>2021-09-15T07:13:01.000Z</time>
      </trkpt>
      <trkpt lat="44.86451" lon="4.83955">
        <ele>112.786884</ele>
        <time>2021-09-15T07:13:09.000Z</time>
      </trkpt>
      <trkpt lat="44.86432" lon="4.8394">
        <ele>112.835678</ele>
        <time>2021-09-15T07:13:13.000Z</time>
      </trkpt>
      <trkpt lat="44.86422" lon="4.83932">
        <ele>112.861669</ele>
        <time>2021-09-15T07:13:15.000Z</time>
      </trkpt>
      <trkpt lat="44.86377" lon="4.83896">
        <ele>112.998559</ele>
        <time>2021-09-15T07:13:24.000Z</time>
      </trkpt>
      <trkpt lat="44.86343" lon="4.83864">
        <ele>113.1084</ele>
        <time>2021-09-15T07:13:31.000Z</time>
      </trkpt>
      <trkpt lat="44.86338" lon="4.83861">
        <ele>113.123229</ele>
        <time>2021-09-15T07:13:32.000Z</time>
      </trkpt>
      <trkpt lat="44.86318" lon="4.83849">
        <ele>113.182394</ele>
        <time>2021-09-15T07:13:36.000Z</time>
      </trkpt>
      <trkpt lat="44.86313" lon="4.83846">
        <ele>113.198015</ele>
        <time>2021-09-15T07:13:37.000Z</time>
      </trkpt>
      <trkpt lat="44.86279" lon="4.83818">
        <ele>113.302763</ele>
        <time>2021-09-15T07:13:44.000Z</time>
      </trkpt>
      <trkpt lat="44.86243" lon="4.83789">
        <ele>113.463362</ele>
        <time>2021-09-15T07:13:52.000Z</time>
      </trkpt>
      <trkpt lat="44.86218" lon="4.83768">
        <ele>113.619626</ele>
        <time>2021-09-15T07:13:58.000Z</time>
      </trkpt>
      <trkpt lat="44.86214" lon="4.83765">
        <ele>113.645037</ele>
        <time>2021-09-15T07:13:59.000Z</time>
      </trkpt>
      <trkpt lat="44.86197" lon="4.83749">
        <ele>113.7547</ele>
        <time>2021-09-15T07:14:03.000Z</time>
      </trkpt>
      <trkpt lat="44.86184" lon="4.83743">
        <ele>113.825753</ele>
        <time>2021-09-15T07:14:05.000Z</time>
      </trkpt>
      <trkpt lat="44.86176" lon="4.83751">
        <ele>113.879263</ele>
        <time>2021-09-15T07:14:07.000Z</time>
      </trkpt>
      <trkpt lat="44.86172" lon="4.83756">
        <ele>113.906335</ele>
        <time>2021-09-15T07:14:08.000Z</time>
      </trkpt>
      <trkpt lat="44.86162" lon="4.83768">
        <ele>113.978371</ele>
        <time>2021-09-15T07:14:12.000Z</time>
      </trkpt>
      <trkpt lat="44.86152" lon="4.83771">
        <ele>114.032633</ele>
        <time>2021-09-15T07:14:13.000Z</time>
      </trkpt>
      <trkpt lat="44.86137" lon="4.83757">
        <ele>114.129829</ele>
        <time>2021-09-15T07:14:17.000Z</time>
      </trkpt>
      <trkpt lat="44.86106" lon="4.83728">
        <ele>114.327789</ele>
        <time>2021-09-15T07:14:25.000Z</time>
      </trkpt>
      <trkpt lat="44.86079" lon="4.83702">
        <ele>114.666092</ele>
        <time>2021-09-15T07:14:32.000Z</time>
      </trkpt>
      <trkpt lat="44.86071" lon="4.83688">
        <ele>114.803528</ele>
        <time>2021-09-15T07:14:35.000Z</time>
      </trkpt>
      <trkpt lat="44.8606" lon="4.83678">
        <ele>114.941024</ele>
        <time>2021-09-15T07:14:38.000Z</time>
      </trkpt>
      <trkpt lat="44.86038" lon="4.83661">
        <ele>115.209763</ele>
        <time>2021-09-15T07:14:45.000Z</time>
      </trkpt>
      <trkpt lat="44.86035" lon="4.83659">
        <ele>115.243209</ele>
        <time>2021-09-15T07:14:47.000Z</time>
      </trkpt>
      <trkpt lat="44.86028" lon="4.83654">
        <ele>115.322466</ele>
        <time>2021-09-15T07:14:49.000Z</time>
      </trkpt>
      <trkpt lat="44.86021" lon="4.83649">
        <ele>115.406499</ele>
        <time>2021-09-15T07:14:51.000Z</time>
      </trkpt>
      <trkpt lat="44.86014" lon="4.83642">
        <ele>115.498838</ele>
        <time>2021-09-15T07:14:53.000Z</time>
      </trkpt>
      <trkpt lat="44.86005" lon="4.83627">
        <ele>115.645563</ele>
        <time>2021-09-15T07:14:56.000Z</time>
      </trkpt>
      <trkpt lat="44.86001" lon="4.83622">
        <ele>115.697571</ele>
        <time>2021-09-15T07:14:58.000Z</time>
      </trkpt>
      <trkpt lat="44.85993" lon="4.83615">
        <ele>115.798151</ele>
        <time>2021-09-15T07:14:59.000Z</time>
      </trkpt>
      <trkpt lat="44.85968" lon="4.83593">
        <ele>116.111506</ele>
        <time>2021-09-15T07:15:05.000Z</time>
      </trkpt>
      <trkpt lat="44.85964" lon="4.83587">
        <ele>116.168196</ele>
        <time>2021-09-15T07:15:06.000Z</time>
      </trkpt>
      <trkpt lat="44.85961" lon="4.83582">
        <ele>116.222901</ele>
        <time>2021-09-15T07:15:08.000Z</time>
      </trkpt>
      <trkpt lat="44.85952" lon="4.83565">
        <ele>116.268468</ele>
        <time>2021-09-15T07:15:10.000Z</time>
      </trkpt>
      <trkpt lat="44.85947" lon="4.83554">
        <ele>116.295863</ele>
        <time>2021-09-15T07:15:12.000Z</time>
      </trkpt>
      <trkpt lat="44.85937" lon="4.83552">
        <ele>116.327136</ele>
        <time>2021-09-15T07:15:14.000Z</time>
      </trkpt>
      <trkpt lat="44.85928" lon="4.83558">
        <ele>116.356604</ele>
        <time>2021-09-15T07:15:16.000Z</time>
      </trkpt>
      <trkpt lat="44.85918" lon="4.83565">
        <ele>116.388869</ele>
        <time>2021-09-15T07:15:18.000Z</time>
      </trkpt>
      <trkpt lat="44.85881" lon="4.83592">
        <ele>116.513816</ele>
        <time>2021-09-15T07:15:25.000Z</time>
      </trkpt>
      <trkpt lat="44.85853" lon="4.83611">
        <ele>116.607199</ele>
        <time>2021-09-15T07:15:30.000Z</time>
      </trkpt>
      <trkpt lat="44.85847" lon="4.83615">
        <ele>116.626325</ele>
        <time>2021-09-15T07:15:31.000Z</time>
      </trkpt>
      <trkpt lat="44.85801" lon="4.83646">
        <ele>116.728863</ele>
        <time>2021-09-15T07:15:39.000Z</time>
      </trkpt>
      <trkpt lat="44.85757" lon="4.83679">
        <ele>116.434292</ele>
        <time>2021-09-15T07:15:47.000Z</time>
      </trkpt>
      <trkpt lat="44.85713" lon="4.83713">
        <ele>116.140999</ele>
        <time>2021-09-15T07:15:55.000Z</time>
      </trkpt>
      <trkpt lat="44.85691" lon="4.83728">
        <ele>116.00128</ele>
        <time>2021-09-15T07:15:59.000Z</time>
      </trkpt>
      <trkpt lat="44.85652" lon="4.83756">
        <ele>115.743744</ele>
        <time>2021-09-15T07:16:06.000Z</time>
      </trkpt>
      <trkpt lat="44.85635" lon="4.83768">
        <ele>115.721713</ele>
        <time>2021-09-15T07:16:09.000Z</time>
      </trkpt>
      <trkpt lat="44.85624" lon="4.83776">
        <ele>115.732806</ele>
        <time>2021-09-15T07:16:11.000Z</time>
      </trkpt>
      <trkpt lat="44.85612" lon="4.83782">
        <ele>115.744042</ele>
        <time>2021-09-15T07:16:13.000Z</time>
      </trkpt>
      <trkpt lat="44.856" lon="4.83787">
        <ele>115.755773</ele>
        <time>2021-09-15T07:16:15.000Z</time>
      </trkpt>
      <trkpt lat="44.8556" lon="4.83792">
        <ele>115.791082</ele>
        <time>2021-09-15T07:16:22.000Z</time>
      </trkpt>
      <trkpt lat="44.85555" lon="4.83792">
        <ele>115.795644</ele>
        <time>2021-09-15T07:16:23.000Z</time>
      </trkpt>
      <trkpt lat="44.85548" lon="4.83793">
        <ele>115.802444</ele>
        <time>2021-09-15T07:16:25.000Z</time>
      </trkpt>
      <trkpt lat="44.85543" lon="4.83788">
        <ele>115.807478</ele>
        <time>2021-09-15T07:16:26.000Z</time>
      </trkpt>
      <trkpt lat="44.85533" lon="4.83791">
        <ele>115.81698</ele>
        <time>2021-09-15T07:16:28.000Z</time>
      </trkpt>
      <trkpt lat="44.85505" lon="4.83797">
        <ele>115.841947</ele>
        <time>2021-09-15T07:16:34.000Z</time>
      </trkpt>
      <trkpt lat="44.85491" lon="4.83805">
        <ele>115.854887</ele>
        <time>2021-09-15T07:16:40.000Z</time>
      </trkpt>
      <trkpt lat="44.85482" lon="4.83815">
        <ele>115.865635</ele>
        <time>2021-09-15T07:16:44.000Z</time>
      </trkpt>
      <trkpt lat="44.85479" lon="4.83816">
        <ele>115.868472</ele>
        <time>2021-09-15T07:16:46.000Z</time>
      </trkpt>
      <trkpt lat="44.85474" lon="4.8381">
        <ele>115.852537</ele>
        <time>2021-09-15T07:16:49.000Z</time>
      </trkpt>
      <trkpt lat="44.8547" lon="4.83808">
        <ele>115.834407</ele>
        <time>2021-09-15T07:16:51.000Z</time>
      </trkpt>
      <trkpt lat="44.85461" lon="4.83807">
        <ele>115.795622</ele>
        <time>2021-09-15T07:16:56.000Z</time>
      </trkpt>
      <trkpt lat="44.85461" lon="4.83796">
        <ele>115.763163</ele>
        <time>2021-09-15T07:16:59.000Z</time>
      </trkpt>
      <trkpt lat="44.85465" lon="4.83761">
        <ele>115.656574</ele>
        <time>2021-09-15T07:17:05.000Z</time>
      </trkpt>
      <trkpt lat="44.85471" lon="4.83717">
        <ele>115.522715</ele>
        <time>2021-09-15T07:17:11.000Z</time>
      </trkpt>
      <trkpt lat="44.85477" lon="4.8367">
        <ele>115.381736</ele>
        <time>2021-09-15T07:17:17.000Z</time>
      </trkpt>
      <trkpt lat="44.85478" lon="4.83663">
        <ele>115.359887</ele>
        <time>2021-09-15T07:17:18.000Z</time>
      </trkpt>
      <trkpt lat="44.85478" lon="4.83656">
        <ele>115.336923</ele>
        <time>2021-09-15T07:17:19.000Z</time>
      </trkpt>
      <trkpt lat="44.85473" lon="4.83649">
        <ele>115.308933</ele>
        <time>2021-09-15T07:17:20.000Z</time>
      </trkpt>
      <trkpt lat="44.85468" lon="4.83648">
        <ele>115.286013</ele>
        <time>2021-09-15T07:17:21.000Z</time>
      </trkpt>
      <trkpt lat="44.85461" lon="4.83646">
        <ele>115.255938</ele>
        <time>2021-09-15T07:17:22.000Z</time>
      </trkpt>
      <trkpt lat="44.85407" lon="4.83636">
        <ele>114.951632</ele>
        <time>2021-09-15T07:17:29.000Z</time>
      </trkpt>
      <trkpt lat="44.85367" lon="4.8363">
        <ele>114.633221</ele>
        <time>2021-09-15T07:17:36.000Z</time>
      </trkpt>
      <trkpt lat="44.85335" lon="4.83624">
        <ele>114.385344</ele>
        <time>2021-09-15T07:17:40.000Z</time>
      </trkpt>
      <trkpt lat="44.85327" lon="4.83621">
        <ele>114.320408</ele>
        <time>2021-09-15T07:17:42.000Z</time>
      </trkpt>
      <trkpt lat="44.85293" lon="4.83598">
        <ele>114.025038</ele>
        <time>2021-09-15T07:17:48.000Z</time>
      </trkpt>
      <trkpt lat="44.85285" lon="4.83588">
        <ele>113.941513</ele>
        <time>2021-09-15T07:17:50.000Z</time>
      </trkpt>
      <trkpt lat="44.85271" lon="4.83567">
        <ele>113.781423</ele>
        <time>2021-09-15T07:17:54.000Z</time>
      </trkpt>
      <trkpt lat="44.85244" lon="4.83525">
        <ele>113.465491</ele>
        <time>2021-09-15T07:18:02.000Z</time>
      </trkpt>
      <trkpt lat="44.85211" lon="4.83475">
        <ele>113.08675</ele>
        <time>2021-09-15T07:18:11.000Z</time>
      </trkpt>
      <trkpt lat="44.85204" lon="4.83464">
        <ele>113.00333</ele>
        <time>2021-09-15T07:18:13.000Z</time>
      </trkpt>
      <trkpt lat="44.85198" lon="4.83455">
        <ele>112.935825</ele>
        <time>2021-09-15T07:18:15.000Z</time>
      </trkpt>
      <trkpt lat="44.85176" lon="4.83419">
        <ele>112.671001</ele>
        <time>2021-09-15T07:18:21.000Z</time>
      </trkpt>
      <trkpt lat="44.85143" lon="4.83366">
        <ele>112.280418</ele>
        <time>2021-09-15T07:18:29.000Z</time>
      </trkpt>
      <trkpt lat="44.85113" lon="4.83317">
        <ele>111.915528</ele>
        <time>2021-09-15T07:18:36.000Z</time>
      </trkpt>
      <trkpt lat="44.85083" lon="4.83269">
        <ele>111.54873</ele>
        <time>2021-09-15T07:18:43.000Z</time>
      </trkpt>
      <trkpt lat="44.85054" lon="4.83222">
        <ele>111.197309</ele>
        <time>2021-09-15T07:18:50.000Z</time>
      </trkpt>
      <trkpt lat="44.8503" lon="4.83183">
        <ele>110.903488</ele>
        <time>2021-09-15T07:18:56.000Z</time>
      </trkpt>
      <trkpt lat="44.85002" lon="4.83138">
        <ele>110.484034</ele>
        <time>2021-09-15T07:19:03.000Z</time>
      </trkpt>
      <trkpt lat="44.84973" lon="4.83091">
        <ele>110.022808</ele>
        <time>2021-09-15T07:19:10.000Z</time>
      </trkpt>
      <trkpt lat="44.8494" lon="4.83039">
        <ele>109.515092</ele>
        <time>2021-09-15T07:19:17.000Z</time>
      </trkpt>
      <trkpt lat="44.84907" lon="4.82988">
        <ele>109.011908</ele>
        <time>2021-09-15T07:19:24.000Z</time>
      </trkpt>
      <trkpt lat="44.8488" lon="4.82944">
        <ele>107.85037</ele>
        <time>2021-09-15T07:19:30.000Z</time>
      </trkpt>
      <trkpt lat="44.84856" lon="4.82907">
        <ele>106.833112</ele>
        <time>2021-09-15T07:19:35.000Z</time>
      </trkpt>
      <trkpt lat="44.84848" lon="4.82892">
        <ele>106.462105</ele>
        <time>2021-09-15T07:19:37.000Z</time>
      </trkpt>
      <trkpt lat="44.84845" lon="4.82887">
        <ele>106.328731</ele>
        <time>2021-09-15T07:19:38.000Z</time>
      </trkpt>
      <trkpt lat="44.84841" lon="4.82881">
        <ele>106.162253</ele>
        <time>2021-09-15T07:19:39.000Z</time>
      </trkpt>
      <trkpt lat="44.84833" lon="4.82867">
        <ele>105.793049</ele>
        <time>2021-09-15T07:19:41.000Z</time>
      </trkpt>
      <trkpt lat="44.84823" lon="4.82849">
        <ele>105.341502</ele>
        <time>2021-09-15T07:19:44.000Z</time>
      </trkpt>
      <trkpt lat="44.84802" lon="4.82814">
        <ele>104.414684</ele>
        <time>2021-09-15T07:19:49.000Z</time>
      </trkpt>
      <trkpt lat="44.84773" lon="4.82767">
        <ele>103.639598</ele>
        <time>2021-09-15T07:19:56.000Z</time>
      </trkpt>
      <trkpt lat="44.84739" lon="4.82712">
        <ele>103.138326</ele>
        <time>2021-09-15T07:20:04.000Z</time>
      </trkpt>
      <trkpt lat="44.84704" lon="4.82656">
        <ele>102.623056</ele>
        <time>2021-09-15T07:20:13.000Z</time>
      </trkpt>
      <trkpt lat="44.84676" lon="4.82612">
        <ele>102.222424</ele>
        <time>2021-09-15T07:20:20.000Z</time>
      </trkpt>
      <trkpt lat="44.84646" lon="4.82563">
        <ele>102.522038</ele>
        <time>2021-09-15T07:20:28.000Z</time>
      </trkpt>
      <trkpt lat="44.84621" lon="4.82523">
        <ele>102.884157</ele>
        <time>2021-09-15T07:20:35.000Z</time>
      </trkpt>
      <trkpt lat="44.84599" lon="4.82488">
        <ele>103.200563</ele>
        <time>2021-09-15T07:20:41.000Z</time>
      </trkpt>
      <trkpt lat="44.84571" lon="4.82445">
        <ele>103.595857</ele>
        <time>2021-09-15T07:20:48.000Z</time>
      </trkpt>
      <trkpt lat="44.84547" lon="4.8241">
        <ele>104.037635</ele>
        <time>2021-09-15T07:20:54.000Z</time>
      </trkpt>
      <trkpt lat="44.84516" lon="4.82367">
        <ele>105.160943</ele>
        <time>2021-09-15T07:21:01.000Z</time>
      </trkpt>
      <trkpt lat="44.84486" lon="4.82325">
        <ele>106.28612</ele>
        <time>2021-09-15T07:21:08.000Z</time>
      </trkpt>
      <trkpt lat="44.84457" lon="4.82277">
        <ele>107.469193</ele>
        <time>2021-09-15T07:21:15.000Z</time>
      </trkpt>
      <trkpt lat="44.84443" lon="4.82255">
        <ele>108.000805</ele>
        <time>2021-09-15T07:21:18.000Z</time>
      </trkpt>
      <trkpt lat="44.84432" lon="4.82245">
        <ele>108.352646</ele>
        <time>2021-09-15T07:21:20.000Z</time>
      </trkpt>
      <trkpt lat="44.84421" lon="4.82237">
        <ele>108.703588</ele>
        <time>2021-09-15T07:21:22.000Z</time>
      </trkpt>
      <trkpt lat="44.84415" lon="4.82224">
        <ele>109.091086</ele>
        <time>2021-09-15T07:21:24.000Z</time>
      </trkpt>
      <trkpt lat="44.84416" lon="4.82206">
        <ele>109.541652</ele>
        <time>2021-09-15T07:21:27.000Z</time>
      </trkpt>
      <trkpt lat="44.84421" lon="4.82199">
        <ele>109.767681</ele>
        <time>2021-09-15T07:21:31.000Z</time>
      </trkpt>
      <trkpt lat="44.84423" lon="4.82196">
        <ele>109.885761</ele>
        <time>2021-09-15T07:21:34.000Z</time>
      </trkpt>
      <trkpt lat="44.84425" lon="4.82193">
        <ele>109.993711</ele>
        <time>2021-09-15T07:21:36.000Z</time>
      </trkpt>
      <trkpt lat="44.8443" lon="4.82186">
        <ele>110.245759</ele>
        <time>2021-09-15T07:21:40.000Z</time>
      </trkpt>
      <trkpt lat="44.84439" lon="4.82176">
        <ele>110.620444</ele>
        <time>2021-09-15T07:21:46.000Z</time>
      </trkpt>
      <trkpt lat="44.84445" lon="4.82167">
        <ele>110.933202</ele>
        <time>2021-09-15T07:21:51.000Z</time>
      </trkpt>
      <trkpt lat="44.84446" lon="4.82165">
        <ele>110.99752</ele>
        <time>2021-09-15T07:21:52.000Z</time>
      </trkpt>
      <trkpt lat="44.84451" lon="4.82148">
        <ele>111.445354</ele>
        <time>2021-09-15T07:21:59.000Z</time>
      </trkpt>
      <trkpt lat="44.84446" lon="4.82129">
        <ele>111.942951</ele>
        <time>2021-09-15T07:22:05.000Z</time>
      </trkpt>
      <trkpt lat="44.84431" lon="4.82116">
        <ele>112.545235</ele>
        <time>2021-09-15T07:22:11.000Z</time>
      </trkpt>
      <trkpt lat="44.84407" lon="4.82099">
        <ele>113.493036</ele>
        <time>2021-09-15T07:22:18.000Z</time>
      </trkpt>
      <trkpt lat="44.84375" lon="4.82077">
        <ele>114.726736</ele>
        <time>2021-09-15T07:22:26.000Z</time>
      </trkpt>
      <trkpt lat="44.84366" lon="4.8207">
        <ele>114.892435</ele>
        <time>2021-09-15T07:22:28.000Z</time>
      </trkpt>
      <trkpt lat="44.84345" lon="4.82053">
        <ele>115.046951</ele>
        <time>2021-09-15T07:22:33.000Z</time>
      </trkpt>
      <trkpt lat="44.84316" lon="4.82026">
        <ele>115.270079</ele>
        <time>2021-09-15T07:22:40.000Z</time>
      </trkpt>
      <trkpt lat="44.84297" lon="4.82007">
        <ele>115.414905</ele>
        <time>2021-09-15T07:22:45.000Z</time>
      </trkpt>
      <trkpt lat="44.84293" lon="4.82004">
        <ele>115.442202</ele>
        <time>2021-09-15T07:22:46.000Z</time>
      </trkpt>
      <trkpt lat="44.84268" lon="4.81985">
        <ele>115.621335</ele>
        <time>2021-09-15T07:22:52.000Z</time>
      </trkpt>
      <trkpt lat="44.84246" lon="4.81971">
        <ele>115.774765</ele>
        <time>2021-09-15T07:22:57.000Z</time>
      </trkpt>
      <trkpt lat="44.84241" lon="4.81969">
        <ele>115.806345</ele>
        <time>2021-09-15T07:22:58.000Z</time>
      </trkpt>
      <trkpt lat="44.84237" lon="4.81966">
        <ele>115.838579</ele>
        <time>2021-09-15T07:22:59.000Z</time>
      </trkpt>
      <trkpt lat="44.84217" lon="4.81954">
        <ele>115.974732</ele>
        <time>2021-09-15T07:23:03.000Z</time>
      </trkpt>
      <trkpt lat="44.84181" lon="4.81929">
        <ele>116.033588</ele>
        <time>2021-09-15T07:23:10.000Z</time>
      </trkpt>
      <trkpt lat="44.84136" lon="4.81898">
        <ele>116.087834</ele>
        <time>2021-09-15T07:23:19.000Z</time>
      </trkpt>
      <trkpt lat="44.84097" lon="4.81867">
        <ele>116.13664</ele>
        <time>2021-09-15T07:23:27.000Z</time>
      </trkpt>
      <trkpt lat="44.84063" lon="4.81846">
        <ele>116.177156</ele>
        <time>2021-09-15T07:23:34.000Z</time>
      </trkpt>
      <trkpt lat="44.84028" lon="4.81829">
        <ele>116.051808</ele>
        <time>2021-09-15T07:23:41.000Z</time>
      </trkpt>
      <trkpt lat="44.83988" lon="4.81804">
        <ele>115.824723</ele>
        <time>2021-09-15T07:23:49.000Z</time>
      </trkpt>
      <trkpt lat="44.83954" lon="4.81778">
        <ele>115.622206</ele>
        <time>2021-09-15T07:23:56.000Z</time>
      </trkpt>
      <trkpt lat="44.8391" lon="4.81745">
        <ele>115.360618</ele>
        <time>2021-09-15T07:24:05.000Z</time>
      </trkpt>
      <trkpt lat="44.83859" lon="4.81713">
        <ele>115.032891</ele>
        <time>2021-09-15T07:24:15.000Z</time>
      </trkpt>
      <trkpt lat="44.83843" lon="4.81705">
        <ele>114.92859</ele>
        <time>2021-09-15T07:24:18.000Z</time>
      </trkpt>
      <trkpt lat="44.83792" lon="4.81677">
        <ele>114.585637</ele>
        <time>2021-09-15T07:24:28.000Z</time>
      </trkpt>
      <trkpt lat="44.83787" lon="4.81675">
        <ele>114.55235</ele>
        <time>2021-09-15T07:24:29.000Z</time>
      </trkpt>
      <trkpt lat="44.83747" lon="4.81655">
        <ele>114.285491</ele>
        <time>2021-09-15T07:24:37.000Z</time>
      </trkpt>
      <trkpt lat="44.83705" lon="4.81638">
        <ele>114.060662</ele>
        <time>2021-09-15T07:24:45.000Z</time>
      </trkpt>
      <trkpt lat="44.83664" lon="4.81622">
        <ele>113.901391</ele>
        <time>2021-09-15T07:24:53.000Z</time>
      </trkpt>
      <trkpt lat="44.83621" lon="4.81605">
        <ele>113.73551</ele>
        <time>2021-09-15T07:25:01.000Z</time>
      </trkpt>
      <trkpt lat="44.83573" lon="4.81585">
        <ele>113.546634</ele>
        <time>2021-09-15T07:25:10.000Z</time>
      </trkpt>
      <trkpt lat="44.83521" lon="4.81563">
        <ele>113.304074</ele>
        <time>2021-09-15T07:25:20.000Z</time>
      </trkpt>
      <trkpt lat="44.8348" lon="4.81544">
        <ele>113.087373</ele>
        <time>2021-09-15T07:25:28.000Z</time>
      </trkpt>
      <trkpt lat="44.8346" lon="4.81535">
        <ele>112.978717</ele>
        <time>2021-09-15T07:25:32.000Z</time>
      </trkpt>
      <trkpt lat="44.83445" lon="4.81528">
        <ele>112.900626</ele>
        <time>2021-09-15T07:25:35.000Z</time>
      </trkpt>
      <trkpt lat="44.83402" lon="4.81505">
        <ele>112.666836</ele>
        <time>2021-09-15T07:25:44.000Z</time>
      </trkpt>
      <trkpt lat="44.83365" lon="4.81481">
        <ele>112.503319</ele>
        <time>2021-09-15T07:25:52.000Z</time>
      </trkpt>
      <trkpt lat="44.83325" lon="4.81454">
        <ele>112.393827</ele>
        <time>2021-09-15T07:26:01.000Z</time>
      </trkpt>
      <trkpt lat="44.83285" lon="4.81421">
        <ele>112.27948</ele>
        <time>2021-09-15T07:26:10.000Z</time>
      </trkpt>
      <trkpt lat="44.83237" lon="4.8138">
        <ele>112.138718</ele>
        <time>2021-09-15T07:26:21.000Z</time>
      </trkpt>
      <trkpt lat="44.83232" lon="4.81376">
        <ele>112.125724</ele>
        <time>2021-09-15T07:26:22.000Z</time>
      </trkpt>
      <trkpt lat="44.8319" lon="4.81334">
        <ele>112.108082</ele>
        <time>2021-09-15T07:26:32.000Z</time>
      </trkpt>
      <trkpt lat="44.83157" lon="4.81301">
        <ele>112.118774</ele>
        <time>2021-09-15T07:26:40.000Z</time>
      </trkpt>
      <trkpt lat="44.83123" lon="4.81267">
        <ele>112.129413</ele>
        <time>2021-09-15T07:26:48.000Z</time>
      </trkpt>
      <trkpt lat="44.83094" lon="4.81239">
        <ele>112.138446</ele>
        <time>2021-09-15T07:26:55.000Z</time>
      </trkpt>
      <trkpt lat="44.83056" lon="4.81202">
        <ele>112.110241</ele>
        <time>2021-09-15T07:27:04.000Z</time>
      </trkpt>
      <trkpt lat="44.8302" lon="4.81168">
        <ele>112.050354</ele>
        <time>2021-09-15T07:27:12.000Z</time>
      </trkpt>
      <trkpt lat="44.82987" lon="4.81142">
        <ele>111.997726</ele>
        <time>2021-09-15T07:27:19.000Z</time>
      </trkpt>
      <trkpt lat="44.82947" lon="4.81116">
        <ele>111.936966</ele>
        <time>2021-09-15T07:27:27.000Z</time>
      </trkpt>
      <trkpt lat="44.82906" lon="4.81091">
        <ele>111.826825</ele>
        <time>2021-09-15T07:27:35.000Z</time>
      </trkpt>
      <trkpt lat="44.8287" lon="4.81073">
        <ele>111.641564</ele>
        <time>2021-09-15T07:27:42.000Z</time>
      </trkpt>
      <trkpt lat="44.82832" lon="4.81056">
        <ele>111.451091</ele>
        <time>2021-09-15T07:27:49.000Z</time>
      </trkpt>
      <trkpt lat="44.82796" lon="4.8104">
        <ele>111.267099</ele>
        <time>2021-09-15T07:27:56.000Z</time>
      </trkpt>
      <trkpt lat="44.82744" lon="4.81017">
        <ele>111.011068</ele>
        <time>2021-09-15T07:28:06.000Z</time>
      </trkpt>
      <trkpt lat="44.82708" lon="4.81001">
        <ele>110.905508</ele>
        <time>2021-09-15T07:28:13.000Z</time>
      </trkpt>
      <trkpt lat="44.82666" lon="4.80982">
        <ele>110.779901</ele>
        <time>2021-09-15T07:28:21.000Z</time>
      </trkpt>
      <trkpt lat="44.82648" lon="4.80978">
        <ele>110.731062</ele>
        <time>2021-09-15T07:28:24.000Z</time>
      </trkpt>
      <trkpt lat="44.82637" lon="4.8098">
        <ele>110.699502</ele>
        <time>2021-09-15T07:28:26.000Z</time>
      </trkpt>
      <trkpt lat="44.82623" lon="4.80984">
        <ele>110.657305</ele>
        <time>2021-09-15T07:28:29.000Z</time>
      </trkpt>
      <trkpt lat="44.82614" lon="4.80991">
        <ele>110.630614</ele>
        <time>2021-09-15T07:28:31.000Z</time>
      </trkpt>
      <trkpt lat="44.82607" lon="4.80998">
        <ele>110.605607</ele>
        <time>2021-09-15T07:28:33.000Z</time>
      </trkpt>
      <trkpt lat="44.82593" lon="4.81013">
        <ele>110.555383</ele>
        <time>2021-09-15T07:28:37.000Z</time>
      </trkpt>
      <trkpt lat="44.82568" lon="4.81021">
        <ele>110.481171</ele>
        <time>2021-09-15T07:28:42.000Z</time>
      </trkpt>
      <trkpt lat="44.82558" lon="4.81018">
        <ele>110.450931</ele>
        <time>2021-09-15T07:28:44.000Z</time>
      </trkpt>
      <trkpt lat="44.82548" lon="4.81015">
        <ele>110.419695</ele>
        <time>2021-09-15T07:28:46.000Z</time>
      </trkpt>
      <trkpt lat="44.8253" lon="4.81009">
        <ele>110.361364</ele>
        <time>2021-09-15T07:28:49.000Z</time>
      </trkpt>
      <trkpt lat="44.82511" lon="4.81003">
        <ele>110.300837</ele>
        <time>2021-09-15T07:28:52.000Z</time>
      </trkpt>
      <trkpt lat="44.82504" lon="4.81001">
        <ele>110.279381</ele>
        <time>2021-09-15T07:28:53.000Z</time>
      </trkpt>
      <trkpt lat="44.82498" lon="4.80992">
        <ele>110.254236</ele>
        <time>2021-09-15T07:28:55.000Z</time>
      </trkpt>
      <trkpt lat="44.82458" lon="4.8094">
        <ele>110.086232</ele>
        <time>2021-09-15T07:29:02.000Z</time>
      </trkpt>
      <trkpt lat="44.82448" lon="4.8093">
        <ele>110.047386</ele>
        <time>2021-09-15T07:29:04.000Z</time>
      </trkpt>
      <trkpt lat="44.82428" lon="4.80912">
        <ele>109.97396</ele>
        <time>2021-09-15T07:29:08.000Z</time>
      </trkpt>
      <trkpt lat="44.8242" lon="4.80894">
        <ele>109.866625</ele>
        <time>2021-09-15T07:29:11.000Z</time>
      </trkpt>
      <trkpt lat="44.82419" lon="4.80888">
        <ele>109.830649</ele>
        <time>2021-09-15T07:29:12.000Z</time>
      </trkpt>
      <trkpt lat="44.82413" lon="4.80874">
        <ele>109.732048</ele>
        <time>2021-09-15T07:29:15.000Z</time>
      </trkpt>
      <trkpt lat="44.82413" lon="4.80874">
        <ele>109.732048</ele>
        <time>2021-09-15T07:29:16.000Z</time>
      </trkpt>
      <trkpt lat="44.82413" lon="4.80864">
        <ele>109.672659</ele>
        <time>2021-09-15T07:29:18.000Z</time>
      </trkpt>
      <trkpt lat="44.82414" lon="4.80859">
        <ele>109.642098</ele>
        <time>2021-09-15T07:29:19.000Z</time>
      </trkpt>
      <trkpt lat="44.82415" lon="4.80848">
        <ele>109.576264</ele>
        <time>2021-09-15T07:29:21.000Z</time>
      </trkpt>
      <trkpt lat="44.82405" lon="4.80839">
        <ele>109.472375</ele>
        <time>2021-09-15T07:29:24.000Z</time>
      </trkpt>
      <trkpt lat="44.82395" lon="4.80836">
        <ele>109.385547</ele>
        <time>2021-09-15T07:29:26.000Z</time>
      </trkpt>
      <trkpt lat="44.82384" lon="4.80834">
        <ele>109.291779</ele>
        <time>2021-09-15T07:29:28.000Z</time>
      </trkpt>
      <trkpt lat="44.82367" lon="4.80833">
        <ele>109.149563</ele>
        <time>2021-09-15T07:29:31.000Z</time>
      </trkpt>
      <trkpt lat="44.82356" lon="4.80833">
        <ele>109.053982</ele>
        <time>2021-09-15T07:29:33.000Z</time>
      </trkpt>
      <trkpt lat="44.82332" lon="4.80819">
        <ele>108.832689</ele>
        <time>2021-09-15T07:29:37.000Z</time>
      </trkpt>
      <trkpt lat="44.82309" lon="4.8081">
        <ele>108.630888</ele>
        <time>2021-09-15T07:29:41.000Z</time>
      </trkpt>
      <trkpt lat="44.82298" lon="4.80806">
        <ele>108.532907</ele>
        <time>2021-09-15T07:29:43.000Z</time>
      </trkpt>
      <trkpt lat="44.82269" lon="4.80795">
        <ele>108.270614</ele>
        <time>2021-09-15T07:29:48.000Z</time>
      </trkpt>
      <trkpt lat="44.82264" lon="4.80793">
        <ele>108.220341</ele>
        <time>2021-09-15T07:29:49.000Z</time>
      </trkpt>
      <trkpt lat="44.82248" lon="4.80796">
        <ele>108.063402</ele>
        <time>2021-09-15T07:29:52.000Z</time>
      </trkpt>
      <trkpt lat="44.82238" lon="4.80792">
        <ele>107.967527</ele>
        <time>2021-09-15T07:29:54.000Z</time>
      </trkpt>
      <trkpt lat="44.82231" lon="4.80793">
        <ele>107.907309</ele>
        <time>2021-09-15T07:29:55.000Z</time>
      </trkpt>
      <trkpt lat="44.82228" lon="4.808">
        <ele>107.853566</ele>
        <time>2021-09-15T07:29:56.000Z</time>
      </trkpt>
      <trkpt lat="44.82226" lon="4.80812">
        <ele>107.77282</ele>
        <time>2021-09-15T07:29:58.000Z</time>
      </trkpt>
      <trkpt lat="44.82222" lon="4.80811">
        <ele>107.737409</ele>
        <time>2021-09-15T07:29:59.000Z</time>
      </trkpt>
      <trkpt lat="44.82218" lon="4.80809">
        <ele>107.698213</ele>
        <time>2021-09-15T07:30:00.000Z</time>
      </trkpt>
      <trkpt lat="44.82213" lon="4.80808">
        <ele>107.651445</ele>
        <time>2021-09-15T07:30:01.000Z</time>
      </trkpt>
      <trkpt lat="44.82186" lon="4.80799">
        <ele>107.396143</ele>
        <time>2021-09-15T07:30:06.000Z</time>
      </trkpt>
      <trkpt lat="44.82171" lon="4.80794">
        <ele>107.246929</ele>
        <time>2021-09-15T07:30:09.000Z</time>
      </trkpt>
      <trkpt lat="44.82165" lon="4.80793">
        <ele>107.195322</ele>
        <time>2021-09-15T07:30:10.000Z</time>
      </trkpt>
      <trkpt lat="44.82146" lon="4.80788">
        <ele>107.011496</ele>
        <time>2021-09-15T07:30:14.000Z</time>
      </trkpt>
      <trkpt lat="44.82134" lon="4.80787">
        <ele>106.901239</ele>
        <time>2021-09-15T07:30:16.000Z</time>
      </trkpt>
      <trkpt lat="44.82116" lon="4.80785">
        <ele>106.770432</ele>
        <time>2021-09-15T07:30:19.000Z</time>
      </trkpt>
      <trkpt lat="44.82105" lon="4.80779">
        <ele>106.787171</ele>
        <time>2021-09-15T07:30:21.000Z</time>
      </trkpt>
      <trkpt lat="44.821" lon="4.80775">
        <ele>106.794765</ele>
        <time>2021-09-15T07:30:23.000Z</time>
      </trkpt>
      <trkpt lat="44.82079" lon="4.8076">
        <ele>106.826386</ele>
        <time>2021-09-15T07:30:27.000Z</time>
      </trkpt>
      <trkpt lat="44.82075" lon="4.80759">
        <ele>106.832519</ele>
        <time>2021-09-15T07:30:28.000Z</time>
      </trkpt>
      <trkpt lat="44.82069" lon="4.8076">
        <ele>106.83963</ele>
        <time>2021-09-15T07:30:29.000Z</time>
      </trkpt>
      <trkpt lat="44.82053" lon="4.80767">
        <ele>106.862357</ele>
        <time>2021-09-15T07:30:32.000Z</time>
      </trkpt>
      <trkpt lat="44.82014" lon="4.80778">
        <ele>106.917001</ele>
        <time>2021-09-15T07:30:38.000Z</time>
      </trkpt>
      <trkpt lat="44.82006" lon="4.80778">
        <ele>106.927261</ele>
        <time>2021-09-15T07:30:39.000Z</time>
      </trkpt>
      <trkpt lat="44.81978" lon="4.80778">
        <ele>106.964787</ele>
        <time>2021-09-15T07:30:43.000Z</time>
      </trkpt>
      <trkpt lat="44.81953" lon="4.80777">
        <ele>106.99921</ele>
        <time>2021-09-15T07:30:47.000Z</time>
      </trkpt>
      <trkpt lat="44.8194" lon="4.80776">
        <ele>107.076992</ele>
        <time>2021-09-15T07:30:49.000Z</time>
      </trkpt>
      <trkpt lat="44.81934" lon="4.80775">
        <ele>107.161402</ele>
        <time>2021-09-15T07:30:50.000Z</time>
      </trkpt>
      <trkpt lat="44.81899" lon="4.80755">
        <ele>107.624482</ele>
        <time>2021-09-15T07:30:56.000Z</time>
      </trkpt>
      <trkpt lat="44.81884" lon="4.80744">
        <ele>107.845359</ele>
        <time>2021-09-15T07:30:59.000Z</time>
      </trkpt>
      <trkpt lat="44.81878" lon="4.8074">
        <ele>107.922665</ele>
        <time>2021-09-15T07:31:00.000Z</time>
      </trkpt>
      <trkpt lat="44.81856" lon="4.80724">
        <ele>108.239031</ele>
        <time>2021-09-15T07:31:04.000Z</time>
      </trkpt>
      <trkpt lat="44.81845" lon="4.80714">
        <ele>108.398636</ele>
        <time>2021-09-15T07:31:06.000Z</time>
      </trkpt>
      <trkpt lat="44.81838" lon="4.80701">
        <ele>108.542058</ele>
        <time>2021-09-15T07:31:08.000Z</time>
      </trkpt>
      <trkpt lat="44.81835" lon="4.80688">
        <ele>108.671376</ele>
        <time>2021-09-15T07:31:10.000Z</time>
      </trkpt>
      <trkpt lat="44.81833" lon="4.80663">
        <ele>108.895608</ele>
        <time>2021-09-15T07:31:14.000Z</time>
      </trkpt>
      <trkpt lat="44.81831" lon="4.80651">
        <ele>108.997895</ele>
        <time>2021-09-15T07:31:16.000Z</time>
      </trkpt>
      <trkpt lat="44.81829" lon="4.80638">
        <ele>109.118389</ele>
        <time>2021-09-15T07:31:18.000Z</time>
      </trkpt>
      <trkpt lat="44.81817" lon="4.80636">
        <ele>109.263257</ele>
        <time>2021-09-15T07:31:20.000Z</time>
      </trkpt>
      <trkpt lat="44.81784" lon="4.80632">
        <ele>109.266646</ele>
        <time>2021-09-15T07:31:26.000Z</time>
      </trkpt>
      <trkpt lat="44.81726" lon="4.80624">
        <ele>109.265061</ele>
        <time>2021-09-15T07:31:36.000Z</time>
      </trkpt>
      <trkpt lat="44.81672" lon="4.80618">
        <ele>109.263598</ele>
        <time>2021-09-15T07:31:45.000Z</time>
      </trkpt>
      <trkpt lat="44.81637" lon="4.80606">
        <ele>109.246548</ele>
        <time>2021-09-15T07:31:51.000Z</time>
      </trkpt>
      <trkpt lat="44.816" lon="4.80587">
        <ele>108.919442</ele>
        <time>2021-09-15T07:31:57.000Z</time>
      </trkpt>
      <trkpt lat="44.81562" lon="4.80575">
        <ele>108.598293</ele>
        <time>2021-09-15T07:32:02.000Z</time>
      </trkpt>
      <trkpt lat="44.81525" lon="4.80565">
        <ele>108.286924</ele>
        <time>2021-09-15T07:32:07.000Z</time>
      </trkpt>
      <trkpt lat="44.81482" lon="4.80556">
        <ele>107.922993</ele>
        <time>2021-09-15T07:32:14.000Z</time>
      </trkpt>
      <trkpt lat="44.81458" lon="4.80546">
        <ele>107.788825</ele>
        <time>2021-09-15T07:32:18.000Z</time>
      </trkpt>
      <trkpt lat="44.81424" lon="4.80525">
        <ele>107.893518</ele>
        <time>2021-09-15T07:32:24.000Z</time>
      </trkpt>
      <trkpt lat="44.81387" lon="4.80494">
        <ele>108.013901</ele>
        <time>2021-09-15T07:32:31.000Z</time>
      </trkpt>
      <trkpt lat="44.81377" lon="4.80483">
        <ele>108.048735</ele>
        <time>2021-09-15T07:32:33.000Z</time>
      </trkpt>
      <trkpt lat="44.81356" lon="4.80461">
        <ele>108.120412</ele>
        <time>2021-09-15T07:32:37.000Z</time>
      </trkpt>
      <trkpt lat="44.81322" lon="4.80422">
        <ele>108.243272</ele>
        <time>2021-09-15T07:32:44.000Z</time>
      </trkpt>
      <trkpt lat="44.81293" lon="4.8039">
        <ele>108.198113</ele>
        <time>2021-09-15T07:32:50.000Z</time>
      </trkpt>
      <trkpt lat="44.81251" lon="4.8034">
        <ele>108.038684</ele>
        <time>2021-09-15T07:32:59.000Z</time>
      </trkpt>
      <trkpt lat="44.81229" lon="4.80313">
        <ele>107.953723</ele>
        <time>2021-09-15T07:33:04.000Z</time>
      </trkpt>
      <trkpt lat="44.81224" lon="4.80307">
        <ele>107.934686</ele>
        <time>2021-09-15T07:33:05.000Z</time>
      </trkpt>
      <trkpt lat="44.81212" lon="4.80288">
        <ele>107.88071</ele>
        <time>2021-09-15T07:33:08.000Z</time>
      </trkpt>
      <trkpt lat="44.81213" lon="4.80271">
        <ele>107.845847</ele>
        <time>2021-09-15T07:33:10.000Z</time>
      </trkpt>
      <trkpt lat="44.81217" lon="4.80268">
        <ele>107.832806</ele>
        <time>2021-09-15T07:33:11.000Z</time>
      </trkpt>
      <trkpt lat="44.81222" lon="4.80268">
        <ele>107.819759</ele>
        <time>2021-09-15T07:33:12.000Z</time>
      </trkpt>
      <trkpt lat="44.81232" lon="4.80269">
        <ele>107.789812</ele>
        <time>2021-09-15T07:33:14.000Z</time>
      </trkpt>
      <trkpt lat="44.81243" lon="4.8027">
        <ele>107.757231</ele>
        <time>2021-09-15T07:33:16.000Z</time>
      </trkpt>
      <trkpt lat="44.8126" lon="4.80272">
        <ele>107.645048</ele>
        <time>2021-09-15T07:33:19.000Z</time>
      </trkpt>
      <trkpt lat="44.81304" lon="4.80277">
        <ele>107.334931</ele>
        <time>2021-09-15T07:33:27.000Z</time>
      </trkpt>
      <trkpt lat="44.8132" lon="4.80279">
        <ele>107.216178</ele>
        <time>2021-09-15T07:33:30.000Z</time>
      </trkpt>
      <trkpt lat="44.81332" lon="4.8028">
        <ele>107.133777</ele>
        <time>2021-09-15T07:33:32.000Z</time>
      </trkpt>
      <trkpt lat="44.81374" lon="4.80284">
        <ele>106.83325</ele>
        <time>2021-09-15T07:33:39.000Z</time>
      </trkpt>
      <trkpt lat="44.81422" lon="4.80288">
        <ele>106.490783</ele>
        <time>2021-09-15T07:33:47.000Z</time>
      </trkpt>
      <trkpt lat="44.81451" lon="4.80291">
        <ele>106.689427</ele>
        <time>2021-09-15T07:33:52.000Z</time>
      </trkpt>
      <trkpt lat="44.81487" lon="4.80294">
        <ele>106.968319</ele>
        <time>2021-09-15T07:33:58.000Z</time>
      </trkpt>
      <trkpt lat="44.81514" lon="4.80296">
        <ele>107.178893</ele>
        <time>2021-09-15T07:34:03.000Z</time>
      </trkpt>
      <trkpt lat="44.81542" lon="4.80296">
        <ele>107.399986</ele>
        <time>2021-09-15T07:34:08.000Z</time>
      </trkpt>
      <trkpt lat="44.81574" lon="4.80295">
        <ele>107.652499</ele>
        <time>2021-09-15T07:34:14.000Z</time>
      </trkpt>
      <trkpt lat="44.81615" lon="4.80294">
        <ele>107.939624</ele>
        <time>2021-09-15T07:34:21.000Z</time>
      </trkpt>
      <trkpt lat="44.81621" lon="4.80294">
        <ele>107.966391</ele>
        <time>2021-09-15T07:34:22.000Z</time>
      </trkpt>
      <trkpt lat="44.81652" lon="4.80291">
        <ele>108.10755</ele>
        <time>2021-09-15T07:34:27.000Z</time>
      </trkpt>
      <trkpt lat="44.81692" lon="4.80285">
        <ele>108.294452</ele>
        <time>2021-09-15T07:34:34.000Z</time>
      </trkpt>
      <trkpt lat="44.81737" lon="4.80276">
        <ele>108.505882</ele>
        <time>2021-09-15T07:34:42.000Z</time>
      </trkpt>
      <trkpt lat="44.81749" lon="4.80273">
        <ele>108.560427</ele>
        <time>2021-09-15T07:34:44.000Z</time>
      </trkpt>
      <trkpt lat="44.81761" lon="4.8027">
        <ele>108.615035</ele>
        <time>2021-09-15T07:34:46.000Z</time>
      </trkpt>
      <trkpt lat="44.81793" lon="4.8026">
        <ele>108.60684</ele>
        <time>2021-09-15T07:34:52.000Z</time>
      </trkpt>
      <trkpt lat="44.81833" lon="4.80251">
        <ele>108.216207</ele>
        <time>2021-09-15T07:34:59.000Z</time>
      </trkpt>
      <trkpt lat="44.81878" lon="4.80247">
        <ele>107.77178</ele>
        <time>2021-09-15T07:35:07.000Z</time>
      </trkpt>
      <trkpt lat="44.81923" lon="4.80243">
        <ele>107.323438</ele>
        <time>2021-09-15T07:35:15.000Z</time>
      </trkpt>
      <trkpt lat="44.81962" lon="4.80239">
        <ele>106.939914</ele>
        <time>2021-09-15T07:35:22.000Z</time>
      </trkpt>
      <trkpt lat="44.82001" lon="4.80236">
        <ele>106.526596</ele>
        <time>2021-09-15T07:35:29.000Z</time>
      </trkpt>
      <trkpt lat="44.82033" lon="4.80233">
        <ele>106.180908</ele>
        <time>2021-09-15T07:35:35.000Z</time>
      </trkpt>
      <trkpt lat="44.82065" lon="4.8023">
        <ele>105.840615</ele>
        <time>2021-09-15T07:35:41.000Z</time>
      </trkpt>
      <trkpt lat="44.82101" lon="4.80225">
        <ele>105.448248</ele>
        <time>2021-09-15T07:35:48.000Z</time>
      </trkpt>
      <trkpt lat="44.82106" lon="4.80224">
        <ele>105.396384</ele>
        <time>2021-09-15T07:35:49.000Z</time>
      </trkpt>
      <trkpt lat="44.82147" lon="4.80213">
        <ele>104.999761</ele>
        <time>2021-09-15T07:35:57.000Z</time>
      </trkpt>
      <trkpt lat="44.8218" lon="4.80194">
        <ele>104.865095</ele>
        <time>2021-09-15T07:36:04.000Z</time>
      </trkpt>
      <trkpt lat="44.82219" lon="4.8017">
        <ele>104.708044</ele>
        <time>2021-09-15T07:36:12.000Z</time>
      </trkpt>
      <trkpt lat="44.82246" lon="4.80147">
        <ele>104.58876</ele>
        <time>2021-09-15T07:36:18.000Z</time>
      </trkpt>
      <trkpt lat="44.82283" lon="4.80121">
        <ele>104.434376</ele>
        <time>2021-09-15T07:36:26.000Z</time>
      </trkpt>
      <trkpt lat="44.82323" lon="4.80091">
        <ele>104.564032</ele>
        <time>2021-09-15T07:36:34.000Z</time>
      </trkpt>
      <trkpt lat="44.82334" lon="4.80088">
        <ele>104.662507</ele>
        <time>2021-09-15T07:36:36.000Z</time>
      </trkpt>
      <trkpt lat="44.82349" lon="4.80082">
        <ele>104.802962</ele>
        <time>2021-09-15T07:36:39.000Z</time>
      </trkpt>
      <trkpt lat="44.82367" lon="4.80075">
        <ele>104.967932</ele>
        <time>2021-09-15T07:36:44.000Z</time>
      </trkpt>
      <trkpt lat="44.82386" lon="4.80061">
        <ele>105.154299</ele>
        <time>2021-09-15T07:36:50.000Z</time>
      </trkpt>
      <trkpt lat="44.8241" lon="4.80043">
        <ele>105.397431</ele>
        <time>2021-09-15T07:36:56.000Z</time>
      </trkpt>
      <trkpt lat="44.82437" lon="4.80022">
        <ele>105.673754</ele>
        <time>2021-09-15T07:37:03.000Z</time>
      </trkpt>
      <trkpt lat="44.8246" lon="4.80004">
        <ele>105.904065</ele>
        <time>2021-09-15T07:37:09.000Z</time>
      </trkpt>
      <trkpt lat="44.82464" lon="4.80001">
        <ele>105.943429</ele>
        <time>2021-09-15T07:37:10.000Z</time>
      </trkpt>
      <trkpt lat="44.82477" lon="4.79998">
        <ele>106.096466</ele>
        <time>2021-09-15T07:37:14.000Z</time>
      </trkpt>
      <trkpt lat="44.82479" lon="4.79993">
        <ele>106.135001</ele>
        <time>2021-09-15T07:37:15.000Z</time>
      </trkpt>
      <trkpt lat="44.82483" lon="4.7999">
        <ele>106.189369</ele>
        <time>2021-09-15T07:37:23.000Z</time>
      </trkpt>
      <trkpt lat="44.82482" lon="4.79988">
        <ele>106.210716</ele>
        <time>2021-09-15T07:37:24.000Z</time>
      </trkpt>
      <trkpt lat="44.82481" lon="4.79986">
        <ele>106.228182</ele>
        <time>2021-09-15T07:37:25.000Z</time>
      </trkpt>
      <trkpt lat="44.82473" lon="4.7997">
        <ele>106.383438</ele>
        <time>2021-09-15T07:37:30.000Z</time>
      </trkpt>
      <trkpt lat="44.82458" lon="4.7994">
        <ele>106.673257</ele>
        <time>2021-09-15T07:37:37.000Z</time>
      </trkpt>
      <trkpt lat="44.82446" lon="4.79918">
        <ele>106.893849</ele>
        <time>2021-09-15T07:37:43.000Z</time>
      </trkpt>
      <trkpt lat="44.82431" lon="4.79889">
        <ele>107.17655</ele>
        <time>2021-09-15T07:37:49.000Z</time>
      </trkpt>
      <trkpt lat="44.82411" lon="4.7985">
        <ele>107.558874</ele>
        <time>2021-09-15T07:37:56.000Z</time>
      </trkpt>
      <trkpt lat="44.82389" lon="4.79806">
        <ele>107.943292</ele>
        <time>2021-09-15T07:38:04.000Z</time>
      </trkpt>
      <trkpt lat="44.82385" lon="4.79798">
        <ele>107.884202</ele>
        <time>2021-09-15T07:38:06.000Z</time>
      </trkpt>
      <trkpt lat="44.82379" lon="4.79801">
        <ele>107.833721</ele>
        <time>2021-09-15T07:38:07.000Z</time>
      </trkpt>
      <trkpt lat="44.82373" lon="4.79812">
        <ele>107.753545</ele>
        <time>2021-09-15T07:38:09.000Z</time>
      </trkpt>
      <trkpt lat="44.82373" lon="4.79823">
        <ele>107.690967</ele>
        <time>2021-09-15T07:38:10.000Z</time>
      </trkpt>
      <trkpt lat="44.82366" lon="4.79841">
        <ele>107.572873</ele>
        <time>2021-09-15T07:38:13.000Z</time>
      </trkpt>
      <trkpt lat="44.82361" lon="4.79855">
        <ele>107.482369</ele>
        <time>2021-09-15T07:38:15.000Z</time>
      </trkpt>
      <trkpt lat="44.82346" lon="4.79887">
        <ele>107.256953</ele>
        <time>2021-09-15T07:38:19.000Z</time>
      </trkpt>
      <trkpt lat="44.82329" lon="4.79914">
        <ele>107.040503</ele>
        <time>2021-09-15T07:38:22.000Z</time>
      </trkpt>
      <trkpt lat="44.82323" lon="4.79923">
        <ele>106.970203</ele>
        <time>2021-09-15T07:38:23.000Z</time>
      </trkpt>
      <trkpt lat="44.82304" lon="4.7994">
        <ele>106.787996</ele>
        <time>2021-09-15T07:38:26.000Z</time>
      </trkpt>
      <trkpt lat="44.82286" lon="4.79958">
        <ele>106.606955</ele>
        <time>2021-09-15T07:38:29.000Z</time>
      </trkpt>
      <trkpt lat="44.82279" lon="4.7996">
        <ele>106.548144</ele>
        <time>2021-09-15T07:38:30.000Z</time>
      </trkpt>
      <trkpt lat="44.82242" lon="4.79977">
        <ele>106.161694</ele>
        <time>2021-09-15T07:38:36.000Z</time>
      </trkpt>
      <trkpt lat="44.8221" lon="4.80002">
        <ele>105.787671</ele>
        <time>2021-09-15T07:38:42.000Z</time>
      </trkpt>
      <trkpt lat="44.82206" lon="4.80008">
        <ele>105.7249</ele>
        <time>2021-09-15T07:38:43.000Z</time>
      </trkpt>
      <trkpt lat="44.8219" lon="4.80045">
        <ele>105.410639</ele>
        <time>2021-09-15T07:38:48.000Z</time>
      </trkpt>
      <trkpt lat="44.82186" lon="4.80051">
        <ele>105.350568</ele>
        <time>2021-09-15T07:38:49.000Z</time>
      </trkpt>
      <trkpt lat="44.8218" lon="4.80055">
        <ele>105.284937</ele>
        <time>2021-09-15T07:38:50.000Z</time>
      </trkpt>
      <trkpt lat="44.82158" lon="4.80069">
        <ele>105.040674</ele>
        <time>2021-09-15T07:38:54.000Z</time>
      </trkpt>
      <trkpt lat="44.82118" lon="4.80091">
        <ele>104.590666</ele>
        <time>2021-09-15T07:39:01.000Z</time>
      </trkpt>
      <trkpt lat="44.82074" lon="4.80102">
        <ele>104.037034</ele>
        <time>2021-09-15T07:39:08.000Z</time>
      </trkpt>
      <trkpt lat="44.82036" lon="4.80107">
        <ele>103.564487</ele>
        <time>2021-09-15T07:39:14.000Z</time>
      </trkpt>
      <trkpt lat="44.81994" lon="4.80112">
        <ele>103.038579</ele>
        <time>2021-09-15T07:39:21.000Z</time>
      </trkpt>
      <trkpt lat="44.81988" lon="4.80113">
        <ele>102.968946</ele>
        <time>2021-09-15T07:39:22.000Z</time>
      </trkpt>
      <trkpt lat="44.8197" lon="4.80115">
        <ele>102.744376</ele>
        <time>2021-09-15T07:39:25.000Z</time>
      </trkpt>
      <trkpt lat="44.8192" lon="4.8012">
        <ele>102.218438</ele>
        <time>2021-09-15T07:39:33.000Z</time>
      </trkpt>
      <trkpt lat="44.81873" lon="4.80128">
        <ele>101.823249</ele>
        <time>2021-09-15T07:39:41.000Z</time>
      </trkpt>
      <trkpt lat="44.81834" lon="4.80134">
        <ele>101.498873</ele>
        <time>2021-09-15T07:39:48.000Z</time>
      </trkpt>
      <trkpt lat="44.81795" lon="4.80139">
        <ele>101.176117</ele>
        <time>2021-09-15T07:39:55.000Z</time>
      </trkpt>
      <trkpt lat="44.81741" lon="4.80146">
        <ele>100.805134</ele>
        <time>2021-09-15T07:40:05.000Z</time>
      </trkpt>
      <trkpt lat="44.81708" lon="4.80149">
        <ele>100.648889</ele>
        <time>2021-09-15T07:40:11.000Z</time>
      </trkpt>
      <trkpt lat="44.81676" lon="4.80149">
        <ele>100.496433</ele>
        <time>2021-09-15T07:40:17.000Z</time>
      </trkpt>
      <trkpt lat="44.8167" lon="4.80148">
        <ele>100.470768</ele>
        <time>2021-09-15T07:40:18.000Z</time>
      </trkpt>
      <trkpt lat="44.81624" lon="4.80146">
        <ele>100.25028</ele>
        <time>2021-09-15T07:40:26.000Z</time>
      </trkpt>
      <trkpt lat="44.81588" lon="4.80144">
        <ele>100.077644</ele>
        <time>2021-09-15T07:40:32.000Z</time>
      </trkpt>
      <trkpt lat="44.81552" lon="4.8014">
        <ele>100.162166</ele>
        <time>2021-09-15T07:40:38.000Z</time>
      </trkpt>
      <trkpt lat="44.81517" lon="4.80133">
        <ele>100.274053</ele>
        <time>2021-09-15T07:40:44.000Z</time>
      </trkpt>
      <trkpt lat="44.8148" lon="4.80127">
        <ele>100.390142</ele>
        <time>2021-09-15T07:40:50.000Z</time>
      </trkpt>
      <trkpt lat="44.81437" lon="4.80121">
        <ele>100.526695</ele>
        <time>2021-09-15T07:40:57.000Z</time>
      </trkpt>
      <trkpt lat="44.81413" lon="4.80118">
        <ele>100.600011</ele>
        <time>2021-09-15T07:41:01.000Z</time>
      </trkpt>
      <trkpt lat="44.81408" lon="4.80117">
        <ele>100.617907</ele>
        <time>2021-09-15T07:41:02.000Z</time>
      </trkpt>
      <trkpt lat="44.81367" lon="4.80113">
        <ele>100.899208</ele>
        <time>2021-09-15T07:41:09.000Z</time>
      </trkpt>
      <trkpt lat="44.81325" lon="4.80098">
        <ele>101.198349</ele>
        <time>2021-09-15T07:41:16.000Z</time>
      </trkpt>
      <trkpt lat="44.8132" lon="4.80096">
        <ele>101.239885</ele>
        <time>2021-09-15T07:41:17.000Z</time>
      </trkpt>
      <trkpt lat="44.81301" lon="4.80094">
        <ele>101.36893</ele>
        <time>2021-09-15T07:41:20.000Z</time>
      </trkpt>
      <trkpt lat="44.81289" lon="4.80095">
        <ele>101.45496</ele>
        <time>2021-09-15T07:41:22.000Z</time>
      </trkpt>
      <trkpt lat="44.81259" lon="4.80099">
        <ele>101.666492</ele>
        <time>2021-09-15T07:41:27.000Z</time>
      </trkpt>
      <trkpt lat="44.81225" lon="4.80097">
        <ele>101.887947</ele>
        <time>2021-09-15T07:41:33.000Z</time>
      </trkpt>
      <trkpt lat="44.81207" lon="4.80095">
        <ele>101.878326</ele>
        <time>2021-09-15T07:41:36.000Z</time>
      </trkpt>
      <trkpt lat="44.8119" lon="4.80092">
        <ele>101.868752</ele>
        <time>2021-09-15T07:41:39.000Z</time>
      </trkpt>
      <trkpt lat="44.81158" lon="4.80087">
        <ele>101.85119</ele>
        <time>2021-09-15T07:41:45.000Z</time>
      </trkpt>
      <trkpt lat="44.81123" lon="4.80081">
        <ele>101.832369</ele>
        <time>2021-09-15T07:41:51.000Z</time>
      </trkpt>
      <trkpt lat="44.81088" lon="4.80074">
        <ele>101.8128</ele>
        <time>2021-09-15T07:41:57.000Z</time>
      </trkpt>
      <trkpt lat="44.81046" lon="4.80064">
        <ele>101.771139</ele>
        <time>2021-09-15T07:42:04.000Z</time>
      </trkpt>
      <trkpt lat="44.81034" lon="4.80061">
        <ele>101.702399</ele>
        <time>2021-09-15T07:42:06.000Z</time>
      </trkpt>
      <trkpt lat="44.81016" lon="4.80057">
        <ele>101.599604</ele>
        <time>2021-09-15T07:42:09.000Z</time>
      </trkpt>
      <trkpt lat="44.80981" lon="4.8004">
        <ele>101.388479</ele>
        <time>2021-09-15T07:42:15.000Z</time>
      </trkpt>
      <trkpt lat="44.80942" lon="4.80015">
        <ele>101.144401</ele>
        <time>2021-09-15T07:42:22.000Z</time>
      </trkpt>
      <trkpt lat="44.8092" lon="4.80002">
        <ele>101.009225</ele>
        <time>2021-09-15T07:42:26.000Z</time>
      </trkpt>
      <trkpt lat="44.80894" lon="4.79985">
        <ele>100.850702</ele>
        <time>2021-09-15T07:42:31.000Z</time>
      </trkpt>
      <trkpt lat="44.80874" lon="4.79971">
        <ele>100.678797</ele>
        <time>2021-09-15T07:42:35.000Z</time>
      </trkpt>
      <trkpt lat="44.80861" lon="4.79957">
        <ele>100.498661</ele>
        <time>2021-09-15T07:42:38.000Z</time>
      </trkpt>
      <trkpt lat="44.80853" lon="4.79949">
        <ele>100.391564</ele>
        <time>2021-09-15T07:42:40.000Z</time>
      </trkpt>
      <trkpt lat="44.80846" lon="4.79942">
        <ele>100.297728</ele>
        <time>2021-09-15T07:42:42.000Z</time>
      </trkpt>
      <trkpt lat="44.80825" lon="4.79925">
        <ele>100.039818</ele>
        <time>2021-09-15T07:42:47.000Z</time>
      </trkpt>
      <trkpt lat="44.80804" lon="4.79908">
        <ele>99.776464</ele>
        <time>2021-09-15T07:42:52.000Z</time>
      </trkpt>
      <trkpt lat="44.80795" lon="4.799">
        <ele>99.664587</ele>
        <time>2021-09-15T07:42:54.000Z</time>
      </trkpt>
      <trkpt lat="44.80786" lon="4.79892">
        <ele>99.546485</ele>
        <time>2021-09-15T07:42:56.000Z</time>
      </trkpt>
      <trkpt lat="44.80766" lon="4.79882">
        <ele>99.313858</ele>
        <time>2021-09-15T07:43:00.000Z</time>
      </trkpt>
      <trkpt lat="44.80761" lon="4.79878">
        <ele>99.261031</ele>
        <time>2021-09-15T07:43:01.000Z</time>
      </trkpt>
      <trkpt lat="44.80753" lon="4.79871">
        <ele>99.150085</ele>
        <time>2021-09-15T07:43:03.000Z</time>
      </trkpt>
      <trkpt lat="44.80748" lon="4.79866">
        <ele>99.089239</ele>
        <time>2021-09-15T07:43:04.000Z</time>
      </trkpt>
      <trkpt lat="44.80744" lon="4.7986">
        <ele>99.025249</ele>
        <time>2021-09-15T07:43:05.000Z</time>
      </trkpt>
      <trkpt lat="44.80738" lon="4.79846">
        <ele>98.897368</ele>
        <time>2021-09-15T07:43:07.000Z</time>
      </trkpt>
      <trkpt lat="44.80729" lon="4.79836">
        <ele>98.852108</ele>
        <time>2021-09-15T07:43:09.000Z</time>
      </trkpt>
      <trkpt lat="44.80703" lon="4.79809">
        <ele>99.115964</ele>
        <time>2021-09-15T07:43:15.000Z</time>
      </trkpt>
      <trkpt lat="44.80685" lon="4.79787">
        <ele>99.30894</ele>
        <time>2021-09-15T07:43:19.000Z</time>
      </trkpt>
      <trkpt lat="44.80665" lon="4.79766">
        <ele>99.514677</ele>
        <time>2021-09-15T07:43:24.000Z</time>
      </trkpt>
      <trkpt lat="44.80656" lon="4.79758">
        <ele>99.598964</ele>
        <time>2021-09-15T07:43:26.000Z</time>
      </trkpt>
      <trkpt lat="44.80648" lon="4.7975">
        <ele>99.678272</ele>
        <time>2021-09-15T07:43:28.000Z</time>
      </trkpt>
      <trkpt lat="44.80632" lon="4.79733">
        <ele>99.841867</ele>
        <time>2021-09-15T07:43:32.000Z</time>
      </trkpt>
      <trkpt lat="44.80614" lon="4.79716">
        <ele>100.020065</ele>
        <time>2021-09-15T07:43:36.000Z</time>
      </trkpt>
      <trkpt lat="44.80596" lon="4.79695">
        <ele>100.208282</ele>
        <time>2021-09-15T07:43:40.000Z</time>
      </trkpt>
      <trkpt lat="44.80591" lon="4.79688">
        <ele>100.262697</ele>
        <time>2021-09-15T07:43:41.000Z</time>
      </trkpt>
      <trkpt lat="44.80584" lon="4.79673">
        <ele>100.312174</ele>
        <time>2021-09-15T07:43:43.000Z</time>
      </trkpt>
      <trkpt lat="44.80582" lon="4.79669">
        <ele>100.322576</ele>
        <time>2021-09-15T07:43:44.000Z</time>
      </trkpt>
      <trkpt lat="44.8058" lon="4.79664">
        <ele>100.333841</ele>
        <time>2021-09-15T07:43:45.000Z</time>
      </trkpt>
      <trkpt lat="44.80573" lon="4.79649">
        <ele>100.372396</ele>
        <time>2021-09-15T07:43:47.000Z</time>
      </trkpt>
      <trkpt lat="44.80559" lon="4.796">
        <ele>100.485211</ele>
        <time>2021-09-15T07:43:52.000Z</time>
      </trkpt>
      <trkpt lat="44.80555" lon="4.79587">
        <ele>100.514294</ele>
        <time>2021-09-15T07:43:54.000Z</time>
      </trkpt>
      <trkpt lat="44.80553" lon="4.7958">
        <ele>100.532159</ele>
        <time>2021-09-15T07:43:55.000Z</time>
      </trkpt>
      <trkpt lat="44.80551" lon="4.79571">
        <ele>100.550579</ele>
        <time>2021-09-15T07:43:56.000Z</time>
      </trkpt>
      <trkpt lat="44.80548" lon="4.79556">
        <ele>100.583891</ele>
        <time>2021-09-15T07:43:58.000Z</time>
      </trkpt>
      <trkpt lat="44.80548" lon="4.79549">
        <ele>100.598376</ele>
        <time>2021-09-15T07:43:59.000Z</time>
      </trkpt>
      <trkpt lat="44.80545" lon="4.79529">
        <ele>100.642249</ele>
        <time>2021-09-15T07:44:02.000Z</time>
      </trkpt>
      <trkpt lat="44.80543" lon="4.79513">
        <ele>100.676188</ele>
        <time>2021-09-15T07:44:04.000Z</time>
      </trkpt>
      <trkpt lat="44.80542" lon="4.79505">
        <ele>100.693706</ele>
        <time>2021-09-15T07:44:05.000Z</time>
      </trkpt>
      <trkpt lat="44.80538" lon="4.79488">
        <ele>100.732377</ele>
        <time>2021-09-15T07:44:07.000Z</time>
      </trkpt>
      <trkpt lat="44.80536" lon="4.7948">
        <ele>100.749661</ele>
        <time>2021-09-15T07:44:08.000Z</time>
      </trkpt>
      <trkpt lat="44.80527" lon="4.79446">
        <ele>100.806655</ele>
        <time>2021-09-15T07:44:12.000Z</time>
      </trkpt>
      <trkpt lat="44.80526" lon="4.79437">
        <ele>100.776171</ele>
        <time>2021-09-15T07:44:13.000Z</time>
      </trkpt>
      <trkpt lat="44.80526" lon="4.79428">
        <ele>100.749314</ele>
        <time>2021-09-15T07:44:14.000Z</time>
      </trkpt>
      <trkpt lat="44.8052" lon="4.79413">
        <ele>100.693141</ele>
        <time>2021-09-15T07:44:16.000Z</time>
      </trkpt>
      <trkpt lat="44.80512" lon="4.79405">
        <ele>100.647294</ele>
        <time>2021-09-15T07:44:18.000Z</time>
      </trkpt>
      <trkpt lat="44.8051" lon="4.79398">
        <ele>100.620745</ele>
        <time>2021-09-15T07:44:19.000Z</time>
      </trkpt>
      <trkpt lat="44.80506" lon="4.79384">
        <ele>100.572261</ele>
        <time>2021-09-15T07:44:21.000Z</time>
      </trkpt>
      <trkpt lat="44.80502" lon="4.79372">
        <ele>100.527437</ele>
        <time>2021-09-15T07:44:23.000Z</time>
      </trkpt>
      <trkpt lat="44.8049" lon="4.79342">
        <ele>100.415414</ele>
        <time>2021-09-15T07:44:27.000Z</time>
      </trkpt>
      <trkpt lat="44.80485" lon="4.79336">
        <ele>100.387604</ele>
        <time>2021-09-15T07:44:28.000Z</time>
      </trkpt>
      <trkpt lat="44.80467" lon="4.79313">
        <ele>100.276129</ele>
        <time>2021-09-15T07:44:32.000Z</time>
      </trkpt>
      <trkpt lat="44.80464" lon="4.79309">
        <ele>100.253476</ele>
        <time>2021-09-15T07:44:33.000Z</time>
      </trkpt>
      <trkpt lat="44.80461" lon="4.79302">
        <ele>100.2281</ele>
        <time>2021-09-15T07:44:34.000Z</time>
      </trkpt>
      <trkpt lat="44.80457" lon="4.79287">
        <ele>100.177311</ele>
        <time>2021-09-15T07:44:36.000Z</time>
      </trkpt>
      <trkpt lat="44.80456" lon="4.7928">
        <ele>100.151263</ele>
        <time>2021-09-15T07:44:37.000Z</time>
      </trkpt>
      <trkpt lat="44.80456" lon="4.79272">
        <ele>100.125351</ele>
        <time>2021-09-15T07:44:38.000Z</time>
      </trkpt>
      <trkpt lat="44.80455" lon="4.79257">
        <ele>100.078785</ele>
        <time>2021-09-15T07:44:40.000Z</time>
      </trkpt>
      <trkpt lat="44.80437" lon="4.79233">
        <ele>100.050389</ele>
        <time>2021-09-15T07:44:44.000Z</time>
      </trkpt>
      <trkpt lat="44.80427" lon="4.79211">
        <ele>100.255154</ele>
        <time>2021-09-15T07:44:47.000Z</time>
      </trkpt>
      <trkpt lat="44.80424" lon="4.79204">
        <ele>100.314517</ele>
        <time>2021-09-15T07:44:48.000Z</time>
      </trkpt>
      <trkpt lat="44.80422" lon="4.79191">
        <ele>100.416187</ele>
        <time>2021-09-15T07:44:50.000Z</time>
      </trkpt>
      <trkpt lat="44.8042" lon="4.79177">
        <ele>100.526622</ele>
        <time>2021-09-15T07:44:52.000Z</time>
      </trkpt>
      <trkpt lat="44.80417" lon="4.79162">
        <ele>100.644066</ele>
        <time>2021-09-15T07:44:54.000Z</time>
      </trkpt>
      <trkpt lat="44.80414" lon="4.79144">
        <ele>100.788144</ele>
        <time>2021-09-15T07:44:56.000Z</time>
      </trkpt>
      <trkpt lat="44.80409" lon="4.79132">
        <ele>100.899404</ele>
        <time>2021-09-15T07:44:58.000Z</time>
      </trkpt>
      <trkpt lat="44.80404" lon="4.79118">
        <ele>101.015092</ele>
        <time>2021-09-15T07:45:00.000Z</time>
      </trkpt>
      <trkpt lat="44.804" lon="4.79106">
        <ele>101.124482</ele>
        <time>2021-09-15T07:45:02.000Z</time>
      </trkpt>
      <trkpt lat="44.80397" lon="4.791">
        <ele>101.178491</ele>
        <time>2021-09-15T07:45:03.000Z</time>
      </trkpt>
      <trkpt lat="44.80395" lon="4.79093">
        <ele>101.2383</ele>
        <time>2021-09-15T07:45:04.000Z</time>
      </trkpt>
      <trkpt lat="44.80386" lon="4.79068">
        <ele>101.454522</ele>
        <time>2021-09-15T07:45:07.000Z</time>
      </trkpt>
      <trkpt lat="44.8038" lon="4.79051">
        <ele>101.597467</ele>
        <time>2021-09-15T07:45:09.000Z</time>
      </trkpt>
      <trkpt lat="44.80377" lon="4.79045">
        <ele>101.648423</ele>
        <time>2021-09-15T07:45:10.000Z</time>
      </trkpt>
      <trkpt lat="44.80375" lon="4.79039">
        <ele>101.704989</ele>
        <time>2021-09-15T07:45:11.000Z</time>
      </trkpt>
      <trkpt lat="44.80369" lon="4.79024">
        <ele>101.836864</ele>
        <time>2021-09-15T07:45:13.000Z</time>
      </trkpt>
      <trkpt lat="44.80363" lon="4.79008">
        <ele>101.996066</ele>
        <time>2021-09-15T07:45:15.000Z</time>
      </trkpt>
      <trkpt lat="44.80356" lon="4.78992">
        <ele>102.218151</ele>
        <time>2021-09-15T07:45:17.000Z</time>
      </trkpt>
      <trkpt lat="44.80353" lon="4.78985">
        <ele>102.314433</ele>
        <time>2021-09-15T07:45:18.000Z</time>
      </trkpt>
      <trkpt lat="44.80351" lon="4.78979">
        <ele>102.406713</ele>
        <time>2021-09-15T07:45:19.000Z</time>
      </trkpt>
      <trkpt lat="44.80345" lon="4.78965">
        <ele>102.594431</ele>
        <time>2021-09-15T07:45:21.000Z</time>
      </trkpt>
      <trkpt lat="44.80343" lon="4.78958">
        <ele>102.684714</ele>
        <time>2021-09-15T07:45:22.000Z</time>
      </trkpt>
      <trkpt lat="44.80339" lon="4.78943">
        <ele>102.884684</ele>
        <time>2021-09-15T07:45:24.000Z</time>
      </trkpt>
      <trkpt lat="44.80332" lon="4.78919">
        <ele>103.205245</ele>
        <time>2021-09-15T07:45:27.000Z</time>
      </trkpt>
      <trkpt lat="44.80314" lon="4.78863">
        <ele>103.949218</ele>
        <time>2021-09-15T07:45:33.000Z</time>
      </trkpt>
      <trkpt lat="44.80308" lon="4.78846">
        <ele>104.171518</ele>
        <time>2021-09-15T07:45:36.000Z</time>
      </trkpt>
      <trkpt lat="44.80306" lon="4.78837">
        <ele>104.292352</ele>
        <time>2021-09-15T07:45:37.000Z</time>
      </trkpt>
      <trkpt lat="44.80304" lon="4.78826">
        <ele>104.423197</ele>
        <time>2021-09-15T07:45:38.000Z</time>
      </trkpt>
      <trkpt lat="44.80301" lon="4.78808">
        <ele>104.645223</ele>
        <time>2021-09-15T07:45:40.000Z</time>
      </trkpt>
      <trkpt lat="44.803" lon="4.788">
        <ele>104.745453</ele>
        <time>2021-09-15T07:45:41.000Z</time>
      </trkpt>
      <trkpt lat="44.80297" lon="4.78784">
        <ele>104.949003</ele>
        <time>2021-09-15T07:45:43.000Z</time>
      </trkpt>
      <trkpt lat="44.80293" lon="4.78769">
        <ele>105.136823</ele>
        <time>2021-09-15T07:45:45.000Z</time>
      </trkpt>
      <trkpt lat="44.80287" lon="4.78755">
        <ele>105.311186</ele>
        <time>2021-09-15T07:45:47.000Z</time>
      </trkpt>
      <trkpt lat="44.80282" lon="4.78741">
        <ele>105.480894</ele>
        <time>2021-09-15T07:45:49.000Z</time>
      </trkpt>
      <trkpt lat="44.8028" lon="4.78734">
        <ele>105.565749</ele>
        <time>2021-09-15T07:45:50.000Z</time>
      </trkpt>
      <trkpt lat="44.80275" lon="4.78721">
        <ele>105.739127</ele>
        <time>2021-09-15T07:45:52.000Z</time>
      </trkpt>
      <trkpt lat="44.8027" lon="4.78706">
        <ele>105.916175</ele>
        <time>2021-09-15T07:45:54.000Z</time>
      </trkpt>
      <trkpt lat="44.80267" lon="4.787">
        <ele>106.001029</ele>
        <time>2021-09-15T07:45:55.000Z</time>
      </trkpt>
      <trkpt lat="44.80265" lon="4.78693">
        <ele>106.080515</ele>
        <time>2021-09-15T07:45:56.000Z</time>
      </trkpt>
      <trkpt lat="44.8026" lon="4.78681">
        <ele>106.235546</ele>
        <time>2021-09-15T07:45:58.000Z</time>
      </trkpt>
      <trkpt lat="44.80258" lon="4.78675">
        <ele>106.305009</ele>
        <time>2021-09-15T07:45:59.000Z</time>
      </trkpt>
      <trkpt lat="44.80253" lon="4.7866">
        <ele>106.490116</ele>
        <time>2021-09-15T07:46:01.000Z</time>
      </trkpt>
      <trkpt lat="44.80247" lon="4.78645">
        <ele>106.676478</ele>
        <time>2021-09-15T07:46:03.000Z</time>
      </trkpt>
      <trkpt lat="44.80242" lon="4.78631">
        <ele>106.860606</ele>
        <time>2021-09-15T07:46:05.000Z</time>
      </trkpt>
      <trkpt lat="44.80225" lon="4.78586">
        <ele>107.420127</ele>
        <time>2021-09-15T07:46:10.000Z</time>
      </trkpt>
      <trkpt lat="44.80209" lon="4.78542">
        <ele>107.719951</ele>
        <time>2021-09-15T07:46:16.000Z</time>
      </trkpt>
      <trkpt lat="44.8019" lon="4.78495">
        <ele>107.262577</ele>
        <time>2021-09-15T07:46:23.000Z</time>
      </trkpt>
      <trkpt lat="44.80186" lon="4.78485">
        <ele>107.165765</ele>
        <time>2021-09-15T07:46:25.000Z</time>
      </trkpt>
      <trkpt lat="44.80184" lon="4.7848">
        <ele>107.11561</ele>
        <time>2021-09-15T07:46:26.000Z</time>
      </trkpt>
      <trkpt lat="44.80169" lon="4.78457">
        <ele>106.857079</ele>
        <time>2021-09-15T07:46:32.000Z</time>
      </trkpt>
      <trkpt lat="44.80166" lon="4.78452">
        <ele>106.798599</ele>
        <time>2021-09-15T07:46:38.000Z</time>
      </trkpt>
      <trkpt lat="44.80164" lon="4.78449">
        <ele>106.763478</ele>
        <time>2021-09-15T07:46:42.000Z</time>
      </trkpt>
      <trkpt lat="44.80161" lon="4.78444">
        <ele>106.716756</ele>
        <time>2021-09-15T07:46:44.000Z</time>
      </trkpt>
      <trkpt lat="44.8015" lon="4.78426">
        <ele>106.512769</ele>
        <time>2021-09-15T07:46:49.000Z</time>
      </trkpt>
      <trkpt lat="44.80145" lon="4.78418">
        <ele>106.421364</ele>
        <time>2021-09-15T07:46:51.000Z</time>
      </trkpt>
      <trkpt lat="44.80142" lon="4.78413">
        <ele>106.367877</ele>
        <time>2021-09-15T07:46:52.000Z</time>
      </trkpt>
      <trkpt lat="44.80136" lon="4.78403">
        <ele>106.25452</ele>
        <time>2021-09-15T07:46:54.000Z</time>
      </trkpt>
      <trkpt lat="44.8012" lon="4.78384">
        <ele>106.014819</ele>
        <time>2021-09-15T07:46:58.000Z</time>
      </trkpt>
      <trkpt lat="44.80113" lon="4.78374">
        <ele>105.891038</ele>
        <time>2021-09-15T07:47:00.000Z</time>
      </trkpt>
      <trkpt lat="44.80104" lon="4.78363">
        <ele>105.756952</ele>
        <time>2021-09-15T07:47:02.000Z</time>
      </trkpt>
      <trkpt lat="44.80089" lon="4.78344">
        <ele>105.466979</ele>
        <time>2021-09-15T07:47:06.000Z</time>
      </trkpt>
      <trkpt lat="44.80063" lon="4.78309">
        <ele>104.942759</ele>
        <time>2021-09-15T07:47:12.000Z</time>
      </trkpt>
      <trkpt lat="44.80053" lon="4.78293">
        <ele>104.718651</ele>
        <time>2021-09-15T07:47:15.000Z</time>
      </trkpt>
      <trkpt lat="44.80049" lon="4.78286">
        <ele>104.623089</ele>
        <time>2021-09-15T07:47:17.000Z</time>
      </trkpt>
      <trkpt lat="44.80043" lon="4.78256">
        <ele>104.29773</ele>
        <time>2021-09-15T07:47:22.000Z</time>
      </trkpt>
      <trkpt lat="44.80026" lon="4.78232">
        <ele>103.941143</ele>
        <time>2021-09-15T07:47:29.000Z</time>
      </trkpt>
      <trkpt lat="44.80014" lon="4.78214">
        <ele>103.688411</ele>
        <time>2021-09-15T07:47:34.000Z</time>
      </trkpt>
      <trkpt lat="44.80009" lon="4.782">
        <ele>103.519435</ele>
        <time>2021-09-15T07:47:40.000Z</time>
      </trkpt>
      <trkpt lat="44.80008" lon="4.78194">
        <ele>103.458809</ele>
        <time>2021-09-15T07:47:42.000Z</time>
      </trkpt>
      <trkpt lat="44.80005" lon="4.78191">
        <ele>103.408208</ele>
        <time>2021-09-15T07:47:44.000Z</time>
      </trkpt>
      <trkpt lat="44.8001" lon="4.78186">
        <ele>103.313029</ele>
        <time>2021-09-15T07:47:47.000Z</time>
      </trkpt>
      <trkpt lat="44.80015" lon="4.78188">
        <ele>103.24489</ele>
        <time>2021-09-15T07:47:48.000Z</time>
      </trkpt>
      <trkpt lat="44.80015" lon="4.78191">
        <ele>103.212336</ele>
        <time>2021-09-15T07:47:49.000Z</time>
      </trkpt>
      <trkpt lat="44.80018" lon="4.78202">
        <ele>103.089622</ele>
        <time>2021-09-15T07:47:52.000Z</time>
      </trkpt>
      <trkpt lat="44.80031" lon="4.78226">
        <ele>103.072116</ele>
        <time>2021-09-15T07:47:58.000Z</time>
      </trkpt>
      <trkpt lat="44.80054" lon="4.78258">
        <ele>103.110142</ele>
        <time>2021-09-15T07:48:06.000Z</time>
      </trkpt>
      <trkpt lat="44.8006" lon="4.78266">
        <ele>103.120177</ele>
        <time>2021-09-15T07:48:08.000Z</time>
      </trkpt>
      <trkpt lat="44.80073" lon="4.78282">
        <ele>103.141045</ele>
        <time>2021-09-15T07:48:12.000Z</time>
      </trkpt>
      <trkpt lat="44.80088" lon="4.783">
        <ele>103.164385</ele>
        <time>2021-09-15T07:48:17.000Z</time>
      </trkpt>
      <trkpt lat="44.801" lon="4.78316">
        <ele>103.184118</ele>
        <time>2021-09-15T07:48:21.000Z</time>
      </trkpt>
      <trkpt lat="44.80108" lon="4.78321">
        <ele>103.194921</ele>
        <time>2021-09-15T07:48:23.000Z</time>
      </trkpt>
      <trkpt lat="44.80113" lon="4.78323">
        <ele>103.201238</ele>
        <time>2021-09-15T07:48:25.000Z</time>
      </trkpt>
      <trkpt lat="44.80118" lon="4.7833">
        <ele>103.209295</ele>
        <time>2021-09-15T07:48:27.000Z</time>
      </trkpt>
      <trkpt lat="44.80114" lon="4.78334">
        <ele>103.215958</ele>
        <time>2021-09-15T07:48:30.000Z</time>
      </trkpt>
      <trkpt lat="44.8011" lon="4.78339">
        <ele>103.221835</ele>
        <time>2021-09-15T07:48:33.000Z</time>
      </trkpt>
      <trkpt lat="44.8011" lon="4.78339">
        <ele>103.222329</ele>
        <time>2021-09-15T07:48:35.000Z</time>
      </trkpt>
      <trkpt lat="44.80106" lon="4.78342">
        <ele>103.227224</ele>
        <time>2021-09-15T07:48:42.000Z</time>
      </trkpt>
      <trkpt lat="44.80103" lon="4.78346">
        <ele>103.23305</ele>
        <time>2021-09-15T07:48:44.000Z</time>
      </trkpt>
      <trkpt lat="44.801" lon="4.7835">
        <ele>103.237607</ele>
        <time>2021-09-15T07:48:46.000Z</time>
      </trkpt>
      <trkpt lat="44.80095" lon="4.78354">
        <ele>103.243726</ele>
        <time>2021-09-15T07:48:49.000Z</time>
      </trkpt>
      <trkpt lat="44.80084" lon="4.78366">
        <ele>103.261255</ele>
        <time>2021-09-15T07:48:56.000Z</time>
      </trkpt>
      <trkpt lat="44.80077" lon="4.78374">
        <ele>103.332748</ele>
        <time>2021-09-15T07:49:00.000Z</time>
      </trkpt>
      <trkpt lat="44.80071" lon="4.7838">
        <ele>103.40959</ele>
        <time>2021-09-15T07:49:03.000Z</time>
      </trkpt>
      <trkpt lat="44.8007" lon="4.78381">
        <ele>103.426224</ele>
        <time>2021-09-15T07:49:04.000Z</time>
      </trkpt>
      <trkpt lat="44.80068" lon="4.78383">
        <ele>103.446899</ele>
        <time>2021-09-15T07:49:05.000Z</time>
      </trkpt>
      <trkpt lat="44.80062" lon="4.7839">
        <ele>103.537213</ele>
        <time>2021-09-15T07:49:07.000Z</time>
      </trkpt>
      <trkpt lat="44.80047" lon="4.78405">
        <ele>103.738102</ele>
        <time>2021-09-15T07:49:12.000Z</time>
      </trkpt>
      <trkpt lat="44.8003" lon="4.78424">
        <ele>103.977178</ele>
        <time>2021-09-15T07:49:18.000Z</time>
      </trkpt>
      <trkpt lat="44.80014" lon="4.78441">
        <ele>104.196927</ele>
        <time>2021-09-15T07:49:24.000Z</time>
      </trkpt>
      <trkpt lat="44.79993" lon="4.78462">
        <ele>104.476475</ele>
        <time>2021-09-15T07:49:31.000Z</time>
      </trkpt>
      <trkpt lat="44.79973" lon="4.78483">
        <ele>104.751983</ele>
        <time>2021-09-15T07:49:37.000Z</time>
      </trkpt>
      <trkpt lat="44.79953" lon="4.78505">
        <ele>105.034226</ele>
        <time>2021-09-15T07:49:44.000Z</time>
      </trkpt>
      <trkpt lat="44.79939" lon="4.7852">
        <ele>105.225687</ele>
        <time>2021-09-15T07:49:47.000Z</time>
      </trkpt>
      <trkpt lat="44.79931" lon="4.78528">
        <ele>105.173451</ele>
        <time>2021-09-15T07:49:49.000Z</time>
      </trkpt>
      <trkpt lat="44.79904" lon="4.78557">
        <ele>104.899481</ele>
        <time>2021-09-15T07:49:56.000Z</time>
      </trkpt>
      <trkpt lat="44.79886" lon="4.78568">
        <ele>104.744749</ele>
        <time>2021-09-15T07:49:58.000Z</time>
      </trkpt>
      <trkpt lat="44.7988" lon="4.78562">
        <ele>104.691354</ele>
        <time>2021-09-15T07:49:59.000Z</time>
      </trkpt>
      <trkpt lat="44.79847" lon="4.78531">
        <ele>104.365668</ele>
        <time>2021-09-15T07:50:04.000Z</time>
      </trkpt>
      <trkpt lat="44.79805" lon="4.78496">
        <ele>103.981023</ele>
        <time>2021-09-15T07:50:10.000Z</time>
      </trkpt>
      <trkpt lat="44.79768" lon="4.78464">
        <ele>103.60563</ele>
        <time>2021-09-15T07:50:16.000Z</time>
      </trkpt>
      <trkpt lat="44.79722" lon="4.78424">
        <ele>103.099821</ele>
        <time>2021-09-15T07:50:24.000Z</time>
      </trkpt>
      <trkpt lat="44.79671" lon="4.78381">
        <ele>102.55128</ele>
        <time>2021-09-15T07:50:33.000Z</time>
      </trkpt>
      <trkpt lat="44.79632" lon="4.78352">
        <ele>102.142675</ele>
        <time>2021-09-15T07:50:40.000Z</time>
      </trkpt>
      <trkpt lat="44.79592" lon="4.78326">
        <ele>101.843583</ele>
        <time>2021-09-15T07:50:47.000Z</time>
      </trkpt>
      <trkpt lat="44.7954" lon="4.78297">
        <ele>101.463516</ele>
        <time>2021-09-15T07:50:56.000Z</time>
      </trkpt>
      <trkpt lat="44.79499" lon="4.78274">
        <ele>101.161523</ele>
        <time>2021-09-15T07:51:03.000Z</time>
      </trkpt>
      <trkpt lat="44.7949" lon="4.78264">
        <ele>101.081887</ele>
        <time>2021-09-15T07:51:05.000Z</time>
      </trkpt>
      <trkpt lat="44.79478" lon="4.78252">
        <ele>100.982181</ele>
        <time>2021-09-15T07:51:08.000Z</time>
      </trkpt>
      <trkpt lat="44.79463" lon="4.78233">
        <ele>100.844558</ele>
        <time>2021-09-15T07:51:12.000Z</time>
      </trkpt>
      <trkpt lat="44.79455" lon="4.78223">
        <ele>100.77682</ele>
        <time>2021-09-15T07:51:14.000Z</time>
      </trkpt>
      <trkpt lat="44.79448" lon="4.78214">
        <ele>100.711037</ele>
        <time>2021-09-15T07:51:16.000Z</time>
      </trkpt>
      <trkpt lat="44.79435" lon="4.78197">
        <ele>100.592381</ele>
        <time>2021-09-15T07:51:19.000Z</time>
      </trkpt>
      <trkpt lat="44.7942" lon="4.78188">
        <ele>100.48188</ele>
        <time>2021-09-15T07:51:22.000Z</time>
      </trkpt>
      <trkpt lat="44.79405" lon="4.78179">
        <ele>100.370762</ele>
        <time>2021-09-15T07:51:25.000Z</time>
      </trkpt>
      <trkpt lat="44.7938" lon="4.78164">
        <ele>100.190719</ele>
        <time>2021-09-15T07:51:30.000Z</time>
      </trkpt>
      <trkpt lat="44.79371" lon="4.78158">
        <ele>100.120559</ele>
        <time>2021-09-15T07:51:32.000Z</time>
      </trkpt>
      <trkpt lat="44.79348" lon="4.78144">
        <ele>99.955156</ele>
        <time>2021-09-15T07:51:37.000Z</time>
      </trkpt>
      <trkpt lat="44.79344" lon="4.7814">
        <ele>99.92262</ele>
        <time>2021-09-15T07:51:38.000Z</time>
      </trkpt>
      <trkpt lat="44.79336" lon="4.78132">
        <ele>99.853981</ele>
        <time>2021-09-15T07:51:40.000Z</time>
      </trkpt>
      <trkpt lat="44.79326" lon="4.78121">
        <ele>99.770475</ele>
        <time>2021-09-15T07:51:42.000Z</time>
      </trkpt>
      <trkpt lat="44.79306" lon="4.78104">
        <ele>99.635354</ele>
        <time>2021-09-15T07:51:46.000Z</time>
      </trkpt>
      <trkpt lat="44.79269" lon="4.78077">
        <ele>99.427494</ele>
        <time>2021-09-15T07:51:53.000Z</time>
      </trkpt>
      <trkpt lat="44.79223" lon="4.78048">
        <ele>99.171697</ele>
        <time>2021-09-15T07:52:02.000Z</time>
      </trkpt>
      <trkpt lat="44.7918" lon="4.78013">
        <ele>98.92513</ele>
        <time>2021-09-15T07:52:11.000Z</time>
      </trkpt>
      <trkpt lat="44.79137" lon="4.77977">
        <ele>98.772634</ele>
        <time>2021-09-15T07:52:20.000Z</time>
      </trkpt>
      <trkpt lat="44.79099" lon="4.77945">
        <ele>98.727976</ele>
        <time>2021-09-15T07:52:28.000Z</time>
      </trkpt>
      <trkpt lat="44.79059" lon="4.77913">
        <ele>98.6822</ele>
        <time>2021-09-15T07:52:36.000Z</time>
      </trkpt>
      <trkpt lat="44.79021" lon="4.77879">
        <ele>98.636411</ele>
        <time>2021-09-15T07:52:44.000Z</time>
      </trkpt>
      <trkpt lat="44.78988" lon="4.77848">
        <ele>98.660895</ele>
        <time>2021-09-15T07:52:51.000Z</time>
      </trkpt>
      <trkpt lat="44.78945" lon="4.7781">
        <ele>98.772043</ele>
        <time>2021-09-15T07:53:00.000Z</time>
      </trkpt>
      <trkpt lat="44.78908" lon="4.77776">
        <ele>98.86971</ele>
        <time>2021-09-15T07:53:08.000Z</time>
      </trkpt>
      <trkpt lat="44.78874" lon="4.77747">
        <ele>98.956066</ele>
        <time>2021-09-15T07:53:15.000Z</time>
      </trkpt>
      <trkpt lat="44.78847" lon="4.77723">
        <ele>99.030899</ele>
        <time>2021-09-15T07:53:21.000Z</time>
      </trkpt>
      <trkpt lat="44.78814" lon="4.77695">
        <ele>99.139586</ele>
        <time>2021-09-15T07:53:28.000Z</time>
      </trkpt>
      <trkpt lat="44.78779" lon="4.77669">
        <ele>99.250282</ele>
        <time>2021-09-15T07:53:35.000Z</time>
      </trkpt>
      <trkpt lat="44.78745" lon="4.77648">
        <ele>99.354692</ele>
        <time>2021-09-15T07:53:42.000Z</time>
      </trkpt>
      <trkpt lat="44.78719" lon="4.77631">
        <ele>99.435243</ele>
        <time>2021-09-15T07:53:47.000Z</time>
      </trkpt>
      <trkpt lat="44.78688" lon="4.77611">
        <ele>99.528183</ele>
        <time>2021-09-15T07:53:53.000Z</time>
      </trkpt>
      <trkpt lat="44.78649" lon="4.77583">
        <ele>99.622173</ele>
        <time>2021-09-15T07:54:01.000Z</time>
      </trkpt>
      <trkpt lat="44.78603" lon="4.77553">
        <ele>99.731189</ele>
        <time>2021-09-15T07:54:10.000Z</time>
      </trkpt>
      <trkpt lat="44.78563" lon="4.77532">
        <ele>99.825559</ele>
        <time>2021-09-15T07:54:18.000Z</time>
      </trkpt>
      <trkpt lat="44.78514" lon="4.77516">
        <ele>99.915046</ele>
        <time>2021-09-15T07:54:27.000Z</time>
      </trkpt>
      <trkpt lat="44.78457" lon="4.77497">
        <ele>99.953589</ele>
        <time>2021-09-15T07:54:38.000Z</time>
      </trkpt>
      <trkpt lat="44.78425" lon="4.77487">
        <ele>99.974948</ele>
        <time>2021-09-15T07:54:44.000Z</time>
      </trkpt>
      <trkpt lat="44.7842" lon="4.77485">
        <ele>99.978364</ele>
        <time>2021-09-15T07:54:45.000Z</time>
      </trkpt>
      <trkpt lat="44.78402" lon="4.77479">
        <ele>99.990006</ele>
        <time>2021-09-15T07:54:49.000Z</time>
      </trkpt>
      <trkpt lat="44.78387" lon="4.77474">
        <ele>100.000242</ele>
        <time>2021-09-15T07:54:52.000Z</time>
      </trkpt>
      <trkpt lat="44.78382" lon="4.77473">
        <ele>100.003922</ele>
        <time>2021-09-15T07:54:53.000Z</time>
      </trkpt>
      <trkpt lat="44.78359" lon="4.77465">
        <ele>100.019276</ele>
        <time>2021-09-15T07:54:57.000Z</time>
      </trkpt>
      <trkpt lat="44.78353" lon="4.77463">
        <ele>100.022914</ele>
        <time>2021-09-15T07:54:58.000Z</time>
      </trkpt>
      <trkpt lat="44.78327" lon="4.77453">
        <ele>99.784302</ele>
        <time>2021-09-15T07:55:03.000Z</time>
      </trkpt>
      <trkpt lat="44.78305" lon="4.77444">
        <ele>99.55331</ele>
        <time>2021-09-15T07:55:07.000Z</time>
      </trkpt>
      <trkpt lat="44.78282" lon="4.77436">
        <ele>99.318505</ele>
        <time>2021-09-15T07:55:11.000Z</time>
      </trkpt>
      <trkpt lat="44.78253" lon="4.77425">
        <ele>99.028244</ele>
        <time>2021-09-15T07:55:16.000Z</time>
      </trkpt>
      <trkpt lat="44.78229" lon="4.77416">
        <ele>98.78527</ele>
        <time>2021-09-15T07:55:21.000Z</time>
      </trkpt>
      <trkpt lat="44.78225" lon="4.77414">
        <ele>98.739112</ele>
        <time>2021-09-15T07:55:22.000Z</time>
      </trkpt>
      <trkpt lat="44.78218" lon="4.77411">
        <ele>98.666916</ele>
        <time>2021-09-15T07:55:23.000Z</time>
      </trkpt>
      <trkpt lat="44.7821" lon="4.77399">
        <ele>98.552286</ele>
        <time>2021-09-15T07:55:25.000Z</time>
      </trkpt>
      <trkpt lat="44.78206" lon="4.77396">
        <ele>98.504136</ele>
        <time>2021-09-15T07:55:26.000Z</time>
      </trkpt>
      <trkpt lat="44.78187" lon="4.77381">
        <ele>98.291459</ele>
        <time>2021-09-15T07:55:31.000Z</time>
      </trkpt>
      <trkpt lat="44.78179" lon="4.77373">
        <ele>98.216114</ele>
        <time>2021-09-15T07:55:33.000Z</time>
      </trkpt>
      <trkpt lat="44.78169" lon="4.77366">
        <ele>98.144482</ele>
        <time>2021-09-15T07:55:35.000Z</time>
      </trkpt>
      <trkpt lat="44.78156" lon="4.77372">
        <ele>98.06089</ele>
        <time>2021-09-15T07:55:37.000Z</time>
      </trkpt>
      <trkpt lat="44.78152" lon="4.7738">
        <ele>98.019571</ele>
        <time>2021-09-15T07:55:38.000Z</time>
      </trkpt>
      <trkpt lat="44.78153" lon="4.77388">
        <ele>97.980381</ele>
        <time>2021-09-15T07:55:39.000Z</time>
      </trkpt>
      <trkpt lat="44.78155" lon="4.77401">
        <ele>97.922552</ele>
        <time>2021-09-15T07:55:41.000Z</time>
      </trkpt>
      <trkpt lat="44.78159" lon="4.77413">
        <ele>97.863474</ele>
        <time>2021-09-15T07:55:44.000Z</time>
      </trkpt>
      <trkpt lat="44.78159" lon="4.77418">
        <ele>97.841034</ele>
        <time>2021-09-15T07:55:45.000Z</time>
      </trkpt>
      <trkpt lat="44.78152" lon="4.77427">
        <ele>97.779233</ele>
        <time>2021-09-15T07:55:47.000Z</time>
      </trkpt>
      <trkpt lat="44.78149" lon="4.77424">
        <ele>97.75543</ele>
        <time>2021-09-15T07:55:48.000Z</time>
      </trkpt>
      <trkpt lat="44.78141" lon="4.77413">
        <ele>97.687274</ele>
        <time>2021-09-15T07:55:52.000Z</time>
      </trkpt>
      <trkpt lat="44.78136" lon="4.77413">
        <ele>97.656478</ele>
        <time>2021-09-15T07:55:53.000Z</time>
      </trkpt>
      <trkpt lat="44.78128" lon="4.77415">
        <ele>97.6071</ele>
        <time>2021-09-15T07:55:55.000Z</time>
      </trkpt>
      <trkpt lat="44.78125" lon="4.77418">
        <ele>97.581743</ele>
        <time>2021-09-15T07:55:56.000Z</time>
      </trkpt>
      <trkpt lat="44.78114" lon="4.77427">
        <ele>97.50615</ele>
        <time>2021-09-15T07:55:59.000Z</time>
      </trkpt>
      <trkpt lat="44.78103" lon="4.77434">
        <ele>97.430937</ele>
        <time>2021-09-15T07:56:02.000Z</time>
      </trkpt>
      <trkpt lat="44.781" lon="4.77435">
        <ele>97.409971</ele>
        <time>2021-09-15T07:56:03.000Z</time>
      </trkpt>
      <trkpt lat="44.78092" lon="4.77429">
        <ele>97.35335</ele>
        <time>2021-09-15T07:56:04.000Z</time>
      </trkpt>
      <trkpt lat="44.7809" lon="4.77418">
        <ele>97.301595</ele>
        <time>2021-09-15T07:56:06.000Z</time>
      </trkpt>
      <trkpt lat="44.78088" lon="4.77412">
        <ele>97.274788</ele>
        <time>2021-09-15T07:56:07.000Z</time>
      </trkpt>
      <trkpt lat="44.78075" lon="4.77377">
        <ele>97.129479</ele>
        <time>2021-09-15T07:56:13.000Z</time>
      </trkpt>
      <trkpt lat="44.7806" lon="4.77343">
        <ele>97.169778</ele>
        <time>2021-09-15T07:56:19.000Z</time>
      </trkpt>
      <trkpt lat="44.78054" lon="4.77331">
        <ele>97.183609</ele>
        <time>2021-09-15T07:56:21.000Z</time>
      </trkpt>
      <trkpt lat="44.78045" lon="4.77314">
        <ele>97.205169</ele>
        <time>2021-09-15T07:56:24.000Z</time>
      </trkpt>
      <trkpt lat="44.78027" lon="4.77276">
        <ele>97.250405</ele>
        <time>2021-09-15T07:56:30.000Z</time>
      </trkpt>
      <trkpt lat="44.78003" lon="4.77224">
        <ele>97.312209</ele>
        <time>2021-09-15T07:56:38.000Z</time>
      </trkpt>
      <trkpt lat="44.77981" lon="4.77173">
        <ele>97.3722</ele>
        <time>2021-09-15T07:56:46.000Z</time>
      </trkpt>
      <trkpt lat="44.77973" lon="4.77155">
        <ele>97.416872</ele>
        <time>2021-09-15T07:56:49.000Z</time>
      </trkpt>
      <trkpt lat="44.7796" lon="4.77129">
        <ele>97.490683</ele>
        <time>2021-09-15T07:56:53.000Z</time>
      </trkpt>
      <trkpt lat="44.77936" lon="4.77088">
        <ele>97.614772</ele>
        <time>2021-09-15T07:57:00.000Z</time>
      </trkpt>
      <trkpt lat="44.77915" lon="4.77054">
        <ele>97.721418</ele>
        <time>2021-09-15T07:57:06.000Z</time>
      </trkpt>
      <trkpt lat="44.77907" lon="4.77044">
        <ele>97.756435</ele>
        <time>2021-09-15T07:57:08.000Z</time>
      </trkpt>
      <trkpt lat="44.77882" lon="4.77009">
        <ele>97.874668</ele>
        <time>2021-09-15T07:57:15.000Z</time>
      </trkpt>
      <trkpt lat="44.7785" lon="4.76972">
        <ele>97.996551</ele>
        <time>2021-09-15T07:57:23.000Z</time>
      </trkpt>
      <trkpt lat="44.77816" lon="4.76937">
        <ele>98.083301</ele>
        <time>2021-09-15T07:57:31.000Z</time>
      </trkpt>
      <trkpt lat="44.77782" lon="4.76904">
        <ele>98.167777</ele>
        <time>2021-09-15T07:57:39.000Z</time>
      </trkpt>
      <trkpt lat="44.7775" lon="4.76872">
        <ele>98.248464</ele>
        <time>2021-09-15T07:57:47.000Z</time>
      </trkpt>
      <trkpt lat="44.77716" lon="4.76839">
        <ele>98.333698</ele>
        <time>2021-09-15T07:57:55.000Z</time>
      </trkpt>
      <trkpt lat="44.77683" lon="4.76805">
        <ele>98.652196</ele>
        <time>2021-09-15T07:58:03.000Z</time>
      </trkpt>
      <trkpt lat="44.77657" lon="4.76781">
        <ele>98.912239</ele>
        <time>2021-09-15T07:58:09.000Z</time>
      </trkpt>
      <trkpt lat="44.77644" lon="4.76769">
        <ele>99.045698</ele>
        <time>2021-09-15T07:58:12.000Z</time>
      </trkpt>
      <trkpt lat="44.77636" lon="4.76761">
        <ele>99.127087</ele>
        <time>2021-09-15T07:58:14.000Z</time>
      </trkpt>
      <trkpt lat="44.77632" lon="4.76758">
        <ele>99.165713</ele>
        <time>2021-09-15T07:58:15.000Z</time>
      </trkpt>
      <trkpt lat="44.77629" lon="4.76754">
        <ele>99.199506</ele>
        <time>2021-09-15T07:58:16.000Z</time>
      </trkpt>
      <trkpt lat="44.7762" lon="4.76747">
        <ele>99.283284</ele>
        <time>2021-09-15T07:58:18.000Z</time>
      </trkpt>
      <trkpt lat="44.77609" lon="4.76746">
        <ele>99.377285</ele>
        <time>2021-09-15T07:58:20.000Z</time>
      </trkpt>
      <trkpt lat="44.77598" lon="4.76747">
        <ele>99.472182</ele>
        <time>2021-09-15T07:58:22.000Z</time>
      </trkpt>
      <trkpt lat="44.7757" lon="4.76757">
        <ele>99.712265</ele>
        <time>2021-09-15T07:58:27.000Z</time>
      </trkpt>
      <trkpt lat="44.77545" lon="4.76769">
        <ele>99.918417</ele>
        <time>2021-09-15T07:58:32.000Z</time>
      </trkpt>
      <trkpt lat="44.77516" lon="4.76779">
        <ele>100.100844</ele>
        <time>2021-09-15T07:58:37.000Z</time>
      </trkpt>
      <trkpt lat="44.77478" lon="4.76785">
        <ele>100.336113</ele>
        <time>2021-09-15T07:58:43.000Z</time>
      </trkpt>
      <trkpt lat="44.77472" lon="4.76785">
        <ele>100.370579</ele>
        <time>2021-09-15T07:58:44.000Z</time>
      </trkpt>
      <trkpt lat="44.77456" lon="4.76786">
        <ele>100.472765</ele>
        <time>2021-09-15T07:58:47.000Z</time>
      </trkpt>
      <trkpt lat="44.77421" lon="4.76781">
        <ele>100.686252</ele>
        <time>2021-09-15T07:58:53.000Z</time>
      </trkpt>
      <trkpt lat="44.77387" lon="4.76774">
        <ele>100.896056</ele>
        <time>2021-09-15T07:58:59.000Z</time>
      </trkpt>
      <trkpt lat="44.77382" lon="4.76773">
        <ele>100.93211</ele>
        <time>2021-09-15T07:59:00.000Z</time>
      </trkpt>
      <trkpt lat="44.7737" lon="4.7677">
        <ele>100.969261</ele>
        <time>2021-09-15T07:59:02.000Z</time>
      </trkpt>
      <trkpt lat="44.77364" lon="4.76768">
        <ele>100.972061</ele>
        <time>2021-09-15T07:59:03.000Z</time>
      </trkpt>
      <trkpt lat="44.77334" lon="4.76767">
        <ele>100.986664</ele>
        <time>2021-09-15T07:59:08.000Z</time>
      </trkpt>
      <trkpt lat="44.77293" lon="4.76765">
        <ele>101.006858</ele>
        <time>2021-09-15T07:59:15.000Z</time>
      </trkpt>
      <trkpt lat="44.77282" lon="4.76764">
        <ele>101.012672</ele>
        <time>2021-09-15T07:59:17.000Z</time>
      </trkpt>
      <trkpt lat="44.7727" lon="4.76768">
        <ele>101.018521</ele>
        <time>2021-09-15T07:59:19.000Z</time>
      </trkpt>
      <trkpt lat="44.77267" lon="4.76784">
        <ele>101.024512</ele>
        <time>2021-09-15T07:59:22.000Z</time>
      </trkpt>
      <trkpt lat="44.77263" lon="4.76803">
        <ele>101.031342</ele>
        <time>2021-09-15T07:59:27.000Z</time>
      </trkpt>
      <trkpt lat="44.77259" lon="4.76821">
        <ele>101.037823</ele>
        <time>2021-09-15T07:59:33.000Z</time>
      </trkpt>
      <trkpt lat="44.77257" lon="4.76837">
        <ele>101.0436</ele>
        <time>2021-09-15T07:59:38.000Z</time>
      </trkpt>
      <trkpt lat="44.77255" lon="4.76869">
        <ele>101.060154</ele>
        <time>2021-09-15T07:59:46.000Z</time>
      </trkpt>
      <trkpt lat="44.7725" lon="4.76904">
        <ele>101.28956</ele>
        <time>2021-09-15T07:59:54.000Z</time>
      </trkpt>
      <trkpt lat="44.77239" lon="4.76903">
        <ele>101.383727</ele>
        <time>2021-09-15T07:59:58.000Z</time>
      </trkpt>
      <trkpt lat="44.77214" lon="4.76902">
        <ele>101.607943</ele>
        <time>2021-09-15T08:00:07.000Z</time>
      </trkpt>
      <trkpt lat="44.77198" lon="4.76901">
        <ele>101.755024</ele>
        <time>2021-09-15T08:00:14.000Z</time>
      </trkpt>
      <trkpt lat="44.77183" lon="4.769">
        <ele>101.885938</ele>
        <time>2021-09-15T08:00:20.000Z</time>
      </trkpt>
      <trkpt lat="44.7716" lon="4.76898">
        <ele>102.091333</ele>
        <time>2021-09-15T08:00:27.000Z</time>
      </trkpt>
      <trkpt lat="44.77132" lon="4.76896">
        <ele>102.342424</ele>
        <time>2021-09-15T08:00:35.000Z</time>
      </trkpt>
      <trkpt lat="44.77112" lon="4.76895">
        <ele>102.520884</ele>
        <time>2021-09-15T08:00:40.000Z</time>
      </trkpt>
      <trkpt lat="44.77104" lon="4.76894">
        <ele>102.599808</ele>
        <time>2021-09-15T08:00:42.000Z</time>
      </trkpt>
      <trkpt lat="44.77085" lon="4.76893">
        <ele>102.617602</ele>
        <time>2021-09-15T08:00:46.000Z</time>
      </trkpt>
      <trkpt lat="44.77077" lon="4.76889">
        <ele>102.581667</ele>
        <time>2021-09-15T08:00:48.000Z</time>
      </trkpt>
      <trkpt lat="44.77078" lon="4.76876">
        <ele>102.543114</ele>
        <time>2021-09-15T08:00:50.000Z</time>
      </trkpt>
      <trkpt lat="44.77078" lon="4.76869">
        <ele>102.521987</ele>
        <time>2021-09-15T08:00:51.000Z</time>
      </trkpt>
      <trkpt lat="44.77079" lon="4.76813">
        <ele>102.354692</ele>
        <time>2021-09-15T08:00:58.000Z</time>
      </trkpt>
      <trkpt lat="44.77078" lon="4.76741">
        <ele>102.137562</ele>
        <time>2021-09-15T08:01:07.000Z</time>
      </trkpt>
      <trkpt lat="44.77077" lon="4.76681">
        <ele>101.957219</ele>
        <time>2021-09-15T08:01:15.000Z</time>
      </trkpt>
      <trkpt lat="44.77076" lon="4.7666">
        <ele>101.879827</ele>
        <time>2021-09-15T08:01:18.000Z</time>
      </trkpt>
      <trkpt lat="44.77076" lon="4.76652">
        <ele>101.813306</ele>
        <time>2021-09-15T08:01:19.000Z</time>
      </trkpt>
      <trkpt lat="44.7707" lon="4.76652">
        <ele>101.751637</ele>
        <time>2021-09-15T08:01:21.000Z</time>
      </trkpt>
      <trkpt lat="44.77069" lon="4.76668">
        <ele>101.621594</ele>
        <time>2021-09-15T08:01:22.000Z</time>
      </trkpt>
      <trkpt lat="44.77067" lon="4.76683">
        <ele>101.495568</ele>
        <time>2021-09-15T08:01:24.000Z</time>
      </trkpt>
      <trkpt lat="44.77066" lon="4.76699">
        <ele>101.366975</ele>
        <time>2021-09-15T08:01:26.000Z</time>
      </trkpt>
      <trkpt lat="44.77063" lon="4.76708">
        <ele>101.284156</ele>
        <time>2021-09-15T08:01:28.000Z</time>
      </trkpt>
      <trkpt lat="44.7706" lon="4.76702">
        <ele>101.217953</ele>
        <time>2021-09-15T08:01:30.000Z</time>
      </trkpt>
      <trkpt lat="44.77056" lon="4.76648">
        <ele>100.785795</ele>
        <time>2021-09-15T08:01:37.000Z</time>
      </trkpt>
      <trkpt lat="44.7705" lon="4.76594">
        <ele>100.336329</ele>
        <time>2021-09-15T08:01:45.000Z</time>
      </trkpt>
      <trkpt lat="44.77041" lon="4.76535">
        <ele>99.849137</ele>
        <time>2021-09-15T08:01:54.000Z</time>
      </trkpt>
      <trkpt lat="44.7703" lon="4.76466">
        <ele>99.561925</ele>
        <time>2021-09-15T08:02:04.000Z</time>
      </trkpt>
      <trkpt lat="44.77015" lon="4.76402">
        <ele>99.281544</ele>
        <time>2021-09-15T08:02:14.000Z</time>
      </trkpt>
      <trkpt lat="44.77001" lon="4.76349">
        <ele>99.049866</ele>
        <time>2021-09-15T08:02:22.000Z</time>
      </trkpt>
      <trkpt lat="44.76986" lon="4.76294">
        <ele>98.811747</ele>
        <time>2021-09-15T08:02:30.000Z</time>
      </trkpt>
      <trkpt lat="44.76968" lon="4.76238">
        <ele>98.630169</ele>
        <time>2021-09-15T08:02:38.000Z</time>
      </trkpt>
      <trkpt lat="44.76943" lon="4.76178">
        <ele>98.426729</ele>
        <time>2021-09-15T08:02:47.000Z</time>
      </trkpt>
      <trkpt lat="44.76918" lon="4.76126">
        <ele>98.241085</ele>
        <time>2021-09-15T08:02:55.000Z</time>
      </trkpt>
      <trkpt lat="44.76884" lon="4.76075">
        <ele>98.048821</ele>
        <time>2021-09-15T08:03:04.000Z</time>
      </trkpt>
      <trkpt lat="44.76845" lon="4.76032">
        <ele>97.923177</ele>
        <time>2021-09-15T08:03:13.000Z</time>
      </trkpt>
      <trkpt lat="44.76808" lon="4.76">
        <ele>97.814403</ele>
        <time>2021-09-15T08:03:21.000Z</time>
      </trkpt>
      <trkpt lat="44.76769" lon="4.75974">
        <ele>97.707412</ele>
        <time>2021-09-15T08:03:29.000Z</time>
      </trkpt>
      <trkpt lat="44.76728" lon="4.75954">
        <ele>97.591221</ele>
        <time>2021-09-15T08:03:37.000Z</time>
      </trkpt>
      <trkpt lat="44.76675" lon="4.7593">
        <ele>97.387992</ele>
        <time>2021-09-15T08:03:47.000Z</time>
      </trkpt>
      <trkpt lat="44.76622" lon="4.75906">
        <ele>97.183483</ele>
        <time>2021-09-15T08:03:57.000Z</time>
      </trkpt>
      <trkpt lat="44.76575" lon="4.75884">
        <ele>97.00323</ele>
        <time>2021-09-15T08:04:06.000Z</time>
      </trkpt>
      <trkpt lat="44.76523" lon="4.7586">
        <ele>96.753774</ele>
        <time>2021-09-15T08:04:16.000Z</time>
      </trkpt>
      <trkpt lat="44.76512" lon="4.75855">
        <ele>96.700192</ele>
        <time>2021-09-15T08:04:18.000Z</time>
      </trkpt>
      <trkpt lat="44.76459" lon="4.75831">
        <ele>96.435207</ele>
        <time>2021-09-15T08:04:28.000Z</time>
      </trkpt>
      <trkpt lat="44.76443" lon="4.75824">
        <ele>96.356122</ele>
        <time>2021-09-15T08:04:31.000Z</time>
      </trkpt>
      <trkpt lat="44.76427" lon="4.75816">
        <ele>96.27547</ele>
        <time>2021-09-15T08:04:34.000Z</time>
      </trkpt>
      <trkpt lat="44.76373" lon="4.75792">
        <ele>96.040047</ele>
        <time>2021-09-15T08:04:44.000Z</time>
      </trkpt>
      <trkpt lat="44.7632" lon="4.75767">
        <ele>95.863043</ele>
        <time>2021-09-15T08:04:54.000Z</time>
      </trkpt>
      <trkpt lat="44.76294" lon="4.75755">
        <ele>95.775209</ele>
        <time>2021-09-15T08:04:59.000Z</time>
      </trkpt>
      <trkpt lat="44.76283" lon="4.7575">
        <ele>95.741355</ele>
        <time>2021-09-15T08:05:01.000Z</time>
      </trkpt>
      <trkpt lat="44.7623" lon="4.75725">
        <ele>95.563015</ele>
        <time>2021-09-15T08:05:11.000Z</time>
      </trkpt>
      <trkpt lat="44.76187" lon="4.75705">
        <ele>95.474852</ele>
        <time>2021-09-15T08:05:19.000Z</time>
      </trkpt>
      <trkpt lat="44.7614" lon="4.75683">
        <ele>95.388507</ele>
        <time>2021-09-15T08:05:28.000Z</time>
      </trkpt>
      <trkpt lat="44.76087" lon="4.75658">
        <ele>95.291782</ele>
        <time>2021-09-15T08:05:38.000Z</time>
      </trkpt>
      <trkpt lat="44.76045" lon="4.75639">
        <ele>95.227302</ele>
        <time>2021-09-15T08:05:46.000Z</time>
      </trkpt>
      <trkpt lat="44.76002" lon="4.7562">
        <ele>95.225157</ele>
        <time>2021-09-15T08:05:54.000Z</time>
      </trkpt>
      <trkpt lat="44.75948" lon="4.75595">
        <ele>95.222419</ele>
        <time>2021-09-15T08:06:04.000Z</time>
      </trkpt>
      <trkpt lat="44.75904" lon="4.7558">
        <ele>95.220255</ele>
        <time>2021-09-15T08:06:12.000Z</time>
      </trkpt>
      <trkpt lat="44.75849" lon="4.75565">
        <ele>95.179269</ele>
        <time>2021-09-15T08:06:22.000Z</time>
      </trkpt>
      <trkpt lat="44.75797" lon="4.75555">
        <ele>95.111187</ele>
        <time>2021-09-15T08:06:31.000Z</time>
      </trkpt>
      <trkpt lat="44.75759" lon="4.7555">
        <ele>95.060849</ele>
        <time>2021-09-15T08:06:39.000Z</time>
      </trkpt>
      <trkpt lat="44.75743" lon="4.75549">
        <ele>95.039564</ele>
        <time>2021-09-15T08:06:44.000Z</time>
      </trkpt>
      <trkpt lat="44.7574" lon="4.75549">
        <ele>95.035185</ele>
        <time>2021-09-15T08:06:46.000Z</time>
      </trkpt>
      <trkpt lat="44.7574" lon="4.75549">
        <ele>95.035185</ele>
        <time>2021-09-15T08:06:48.000Z</time>
      </trkpt>
      <trkpt lat="44.75737" lon="4.7555">
        <ele>95.031325</ele>
        <time>2021-09-15T08:06:54.000Z</time>
      </trkpt>
      <trkpt lat="44.75733" lon="4.7555">
        <ele>95.027125</ele>
        <time>2021-09-15T08:06:56.000Z</time>
      </trkpt>
      <trkpt lat="44.7572" lon="4.75548">
        <ele>95.009855</ele>
        <time>2021-09-15T08:07:01.000Z</time>
      </trkpt>
      <trkpt lat="44.75698" lon="4.7555">
        <ele>95.001569</ele>
        <time>2021-09-15T08:07:08.000Z</time>
      </trkpt>
      <trkpt lat="44.75693" lon="4.75558">
        <ele>95.064169</ele>
        <time>2021-09-15T08:07:10.000Z</time>
      </trkpt>
      <trkpt lat="44.75692" lon="4.75565">
        <ele>95.10586</ele>
        <time>2021-09-15T08:07:11.000Z</time>
      </trkpt>
      <trkpt lat="44.75691" lon="4.75571">
        <ele>95.147365</ele>
        <time>2021-09-15T08:07:12.000Z</time>
      </trkpt>
      <trkpt lat="44.75689" lon="4.75585">
        <ele>95.23429</ele>
        <time>2021-09-15T08:07:14.000Z</time>
      </trkpt>
      <trkpt lat="44.75688" lon="4.75591">
        <ele>95.26906</ele>
        <time>2021-09-15T08:07:15.000Z</time>
      </trkpt>
      <trkpt lat="44.75686" lon="4.75604">
        <ele>95.34968</ele>
        <time>2021-09-15T08:07:19.000Z</time>
      </trkpt>
      <trkpt lat="44.75684" lon="4.75625">
        <ele>95.478108</ele>
        <time>2021-09-15T08:07:24.000Z</time>
      </trkpt>
      <trkpt lat="44.75681" lon="4.7564">
        <ele>95.572532</ele>
        <time>2021-09-15T08:07:28.000Z</time>
      </trkpt>
      <trkpt lat="44.75681" lon="4.75644">
        <ele>95.59861</ele>
        <time>2021-09-15T08:07:29.000Z</time>
      </trkpt>
      <trkpt lat="44.75671" lon="4.75667">
        <ele>95.760762</ele>
        <time>2021-09-15T08:07:34.000Z</time>
      </trkpt>
      <trkpt lat="44.75657" lon="4.75673">
        <ele>95.882482</ele>
        <time>2021-09-15T08:07:37.000Z</time>
      </trkpt>
      <trkpt lat="44.75649" lon="4.75679">
        <ele>95.964479</ele>
        <time>2021-09-15T08:07:39.000Z</time>
      </trkpt>
      <trkpt lat="44.75642" lon="4.7568">
        <ele>96.019353</ele>
        <time>2021-09-15T08:07:41.000Z</time>
      </trkpt>
      <trkpt lat="44.75636" lon="4.75698">
        <ele>96.142272</ele>
        <time>2021-09-15T08:07:43.000Z</time>
      </trkpt>
      <trkpt lat="44.75628" lon="4.75696">
        <ele>96.207389</ele>
        <time>2021-09-15T08:07:45.000Z</time>
      </trkpt>
      <trkpt lat="44.75627" lon="4.75699">
        <ele>96.227739</ele>
        <time>2021-09-15T08:07:47.000Z</time>
      </trkpt>
      <trkpt lat="44.75624" lon="4.75705">
        <ele>96.273895</ele>
        <time>2021-09-15T08:08:46.000Z</time>
      </trkpt>
      <trkpt lat="44.75623" lon="4.75707">
        <ele>96.285806</ele>
        <time>2021-09-15T08:08:47.000Z</time>
      </trkpt>
      <trkpt lat="44.75612" lon="4.75722">
        <ele>96.419129</ele>
        <time>2021-09-15T08:08:51.000Z</time>
      </trkpt>
      <trkpt lat="44.75607" lon="4.75722">
        <ele>96.460279</ele>
        <time>2021-09-15T08:08:52.000Z</time>
      </trkpt>
      <trkpt lat="44.75592" lon="4.75721">
        <ele>96.42964</ele>
        <time>2021-09-15T08:08:55.000Z</time>
      </trkpt>
      <trkpt lat="44.75586" lon="4.75721">
        <ele>96.36518</ele>
        <time>2021-09-15T08:08:56.000Z</time>
      </trkpt>
      <trkpt lat="44.75559" lon="4.75723">
        <ele>96.021473</ele>
        <time>2021-09-15T08:09:01.000Z</time>
      </trkpt>
      <trkpt lat="44.75553" lon="4.75726">
        <ele>95.946543</ele>
        <time>2021-09-15T08:09:02.000Z</time>
      </trkpt>
      <trkpt lat="44.75541" lon="4.75731">
        <ele>95.793804</ele>
        <time>2021-09-15T08:09:04.000Z</time>
      </trkpt>
      <trkpt lat="44.75525" lon="4.75742">
        <ele>95.567498</ele>
        <time>2021-09-15T08:09:07.000Z</time>
      </trkpt>
      <trkpt lat="44.75516" lon="4.75752">
        <ele>95.425819</ele>
        <time>2021-09-15T08:09:09.000Z</time>
      </trkpt>
      <trkpt lat="44.75507" lon="4.75762">
        <ele>95.284264</ele>
        <time>2021-09-15T08:09:11.000Z</time>
      </trkpt>
      <trkpt lat="44.75482" lon="4.75789">
        <ele>94.896469</ele>
        <time>2021-09-15T08:09:17.000Z</time>
      </trkpt>
      <trkpt lat="44.75458" lon="4.75817">
        <ele>94.508247</ele>
        <time>2021-09-15T08:09:24.000Z</time>
      </trkpt>
      <trkpt lat="44.75449" lon="4.75825">
        <ele>94.377506</ele>
        <time>2021-09-15T08:09:27.000Z</time>
      </trkpt>
      <trkpt lat="44.75434" lon="4.7584">
        <ele>94.149734</ele>
        <time>2021-09-15T08:09:32.000Z</time>
      </trkpt>
      <trkpt lat="44.75413" lon="4.75861">
        <ele>93.842683</ele>
        <time>2021-09-15T08:09:38.000Z</time>
      </trkpt>
      <trkpt lat="44.75409" lon="4.75865">
        <ele>93.79118</ele>
        <time>2021-09-15T08:09:39.000Z</time>
      </trkpt>
      <trkpt lat="44.75399" lon="4.75875">
        <ele>93.64403</ele>
        <time>2021-09-15T08:09:42.000Z</time>
      </trkpt>
      <trkpt lat="44.75389" lon="4.75885">
        <ele>93.486541</ele>
        <time>2021-09-15T08:09:45.000Z</time>
      </trkpt>
      <trkpt lat="44.75361" lon="4.75909">
        <ele>93.097589</ele>
        <time>2021-09-15T08:09:53.000Z</time>
      </trkpt>
      <trkpt lat="44.75351" lon="4.7592">
        <ele>92.944037</ele>
        <time>2021-09-15T08:09:58.000Z</time>
      </trkpt>
      <trkpt lat="44.75347" lon="4.75923">
        <ele>92.892036</ele>
        <time>2021-09-15T08:10:54.000Z</time>
      </trkpt>
      <trkpt lat="44.75345" lon="4.75925">
        <ele>92.868492</ele>
        <time>2021-09-15T08:10:55.000Z</time>
      </trkpt>
      <trkpt lat="44.75333" lon="4.75937">
        <ele>92.690419</ele>
        <time>2021-09-15T08:11:00.000Z</time>
      </trkpt>
      <trkpt lat="44.75318" lon="4.75953">
        <ele>92.460346</ele>
        <time>2021-09-15T08:11:05.000Z</time>
      </trkpt>
      <trkpt lat="44.75304" lon="4.7597">
        <ele>92.239569</ele>
        <time>2021-09-15T08:11:09.000Z</time>
      </trkpt>
      <trkpt lat="44.75288" lon="4.75996">
        <ele>91.94919</ele>
        <time>2021-09-15T08:11:14.000Z</time>
      </trkpt>
      <trkpt lat="44.7528" lon="4.76007">
        <ele>91.824122</ele>
        <time>2021-09-15T08:11:17.000Z</time>
      </trkpt>
      <trkpt lat="44.75265" lon="4.7603">
        <ele>91.559727</ele>
        <time>2021-09-15T08:11:23.000Z</time>
      </trkpt>
      <trkpt lat="44.75248" lon="4.76047">
        <ele>91.318817</ele>
        <time>2021-09-15T08:11:29.000Z</time>
      </trkpt>
      <trkpt lat="44.75235" lon="4.76057">
        <ele>91.149377</ele>
        <time>2021-09-15T08:11:34.000Z</time>
      </trkpt>
      <trkpt lat="44.75223" lon="4.76063">
        <ele>90.999345</ele>
        <time>2021-09-15T08:11:38.000Z</time>
      </trkpt>
      <trkpt lat="44.75205" lon="4.76073">
        <ele>90.770275</ele>
        <time>2021-09-15T08:11:43.000Z</time>
      </trkpt>
      <trkpt lat="44.75185" lon="4.76083">
        <ele>90.521318</ele>
        <time>2021-09-15T08:11:48.000Z</time>
      </trkpt>
      <trkpt lat="44.75159" lon="4.76097">
        <ele>90.190838</ele>
        <time>2021-09-15T08:11:54.000Z</time>
      </trkpt>
      <trkpt lat="44.7515" lon="4.76102">
        <ele>90.080872</ele>
        <time>2021-09-15T08:11:56.000Z</time>
      </trkpt>
      <trkpt lat="44.7513" lon="4.76112">
        <ele>90.127425</ele>
        <time>2021-09-15T08:12:00.000Z</time>
      </trkpt>
      <trkpt lat="44.75118" lon="4.76119">
        <ele>90.201962</ele>
        <time>2021-09-15T08:12:03.000Z</time>
      </trkpt>
      <trkpt lat="44.75113" lon="4.76121">
        <ele>90.230191</ele>
        <time>2021-09-15T08:12:04.000Z</time>
      </trkpt>
      <trkpt lat="44.75108" lon="4.76124">
        <ele>90.260029</ele>
        <time>2021-09-15T08:12:05.000Z</time>
      </trkpt>
      <trkpt lat="44.75094" lon="4.76132">
        <ele>90.350646</ele>
        <time>2021-09-15T08:12:08.000Z</time>
      </trkpt>
      <trkpt lat="44.7506" lon="4.7615">
        <ele>90.554766</ele>
        <time>2021-09-15T08:12:16.000Z</time>
      </trkpt>
      <trkpt lat="44.75045" lon="4.76158">
        <ele>90.649465</ele>
        <time>2021-09-15T08:12:21.000Z</time>
      </trkpt>
      <trkpt lat="44.75045" lon="4.76158">
        <ele>90.649465</ele>
        <time>2021-09-15T08:12:23.000Z</time>
      </trkpt>
      <trkpt lat="44.75037" lon="4.76162">
        <ele>90.700364</ele>
        <time>2021-09-15T08:13:21.000Z</time>
      </trkpt>
      <trkpt lat="44.75034" lon="4.76163">
        <ele>90.71348</ele>
        <time>2021-09-15T08:13:22.000Z</time>
      </trkpt>
      <trkpt lat="44.75017" lon="4.76171">
        <ele>90.819622</ele>
        <time>2021-09-15T08:13:28.000Z</time>
      </trkpt>
      <trkpt lat="44.75006" lon="4.76175">
        <ele>90.884769</ele>
        <time>2021-09-15T08:13:31.000Z</time>
      </trkpt>
      <trkpt lat="44.74993" lon="4.7618">
        <ele>90.959941</ele>
        <time>2021-09-15T08:13:34.000Z</time>
      </trkpt>
      <trkpt lat="44.74965" lon="4.76191">
        <ele>90.947568</ele>
        <time>2021-09-15T08:13:40.000Z</time>
      </trkpt>
      <trkpt lat="44.74951" lon="4.76196">
        <ele>90.79634</ele>
        <time>2021-09-15T08:13:43.000Z</time>
      </trkpt>
      <trkpt lat="44.74941" lon="4.76199">
        <ele>90.693353</ele>
        <time>2021-09-15T08:13:45.000Z</time>
      </trkpt>
      <trkpt lat="44.74909" lon="4.7621">
        <ele>90.367987</ele>
        <time>2021-09-15T08:13:51.000Z</time>
      </trkpt>
      <trkpt lat="44.74877" lon="4.76221">
        <ele>90.035309</ele>
        <time>2021-09-15T08:13:57.000Z</time>
      </trkpt>
      <trkpt lat="44.74866" lon="4.76224">
        <ele>89.92615</ele>
        <time>2021-09-15T08:13:59.000Z</time>
      </trkpt>
      <trkpt lat="44.74846" lon="4.76234">
        <ele>89.711046</ele>
        <time>2021-09-15T08:14:03.000Z</time>
      </trkpt>
      <trkpt lat="44.74825" lon="4.76246">
        <ele>89.485623</ele>
        <time>2021-09-15T08:14:07.000Z</time>
      </trkpt>
      <trkpt lat="44.74799" lon="4.76261">
        <ele>89.189334</ele>
        <time>2021-09-15T08:14:12.000Z</time>
      </trkpt>
      <trkpt lat="44.74768" lon="4.7628">
        <ele>88.767077</ele>
        <time>2021-09-15T08:14:18.000Z</time>
      </trkpt>
      <trkpt lat="44.74733" lon="4.76302">
        <ele>88.289568</ele>
        <time>2021-09-15T08:14:25.000Z</time>
      </trkpt>
      <trkpt lat="44.7472" lon="4.7631">
        <ele>88.111864</ele>
        <time>2021-09-15T08:14:28.000Z</time>
      </trkpt>
      <trkpt lat="44.74715" lon="4.76313">
        <ele>88.054765</ele>
        <time>2021-09-15T08:14:29.000Z</time>
      </trkpt>
      <trkpt lat="44.74696" lon="4.76324">
        <ele>87.794401</ele>
        <time>2021-09-15T08:14:33.000Z</time>
      </trkpt>
      <trkpt lat="44.74687" lon="4.7633">
        <ele>87.669312</ele>
        <time>2021-09-15T08:14:35.000Z</time>
      </trkpt>
      <trkpt lat="44.74673" lon="4.76339">
        <ele>87.473951</ele>
        <time>2021-09-15T08:14:38.000Z</time>
      </trkpt>
      <trkpt lat="44.74647" lon="4.76354">
        <ele>87.133563</ele>
        <time>2021-09-15T08:14:43.000Z</time>
      </trkpt>
      <trkpt lat="44.74617" lon="4.76373">
        <ele>86.861322</ele>
        <time>2021-09-15T08:14:49.000Z</time>
      </trkpt>
      <trkpt lat="44.74611" lon="4.76376">
        <ele>86.825327</ele>
        <time>2021-09-15T08:14:50.000Z</time>
      </trkpt>
      <trkpt lat="44.74598" lon="4.76385">
        <ele>86.727725</ele>
        <time>2021-09-15T08:14:53.000Z</time>
      </trkpt>
      <trkpt lat="44.74573" lon="4.764">
        <ele>86.552463</ele>
        <time>2021-09-15T08:14:58.000Z</time>
      </trkpt>
      <trkpt lat="44.7455" lon="4.76414">
        <ele>86.392314</ele>
        <time>2021-09-15T08:15:02.000Z</time>
      </trkpt>
      <trkpt lat="44.74546" lon="4.7642">
        <ele>86.350106</ele>
        <time>2021-09-15T08:15:03.000Z</time>
      </trkpt>
      <trkpt lat="44.74541" lon="4.76426">
        <ele>86.309786</ele>
        <time>2021-09-15T08:15:04.000Z</time>
      </trkpt>
      <trkpt lat="44.74528" lon="4.76443">
        <ele>86.192769</ele>
        <time>2021-09-15T08:15:07.000Z</time>
      </trkpt>
      <trkpt lat="44.74524" lon="4.7645">
        <ele>86.151779</ele>
        <time>2021-09-15T08:15:08.000Z</time>
      </trkpt>
      <trkpt lat="44.74514" lon="4.76474">
        <ele>86.026547</ele>
        <time>2021-09-15T08:15:11.000Z</time>
      </trkpt>
      <trkpt lat="44.7451" lon="4.76481">
        <ele>85.985552</ele>
        <time>2021-09-15T08:15:12.000Z</time>
      </trkpt>
      <trkpt lat="44.74497" lon="4.76511">
        <ele>85.850689</ele>
        <time>2021-09-15T08:15:16.000Z</time>
      </trkpt>
      <trkpt lat="44.74494" lon="4.76518">
        <ele>85.844733</ele>
        <time>2021-09-15T08:15:17.000Z</time>
      </trkpt>
      <trkpt lat="44.74482" lon="4.76546">
        <ele>85.821384</ele>
        <time>2021-09-15T08:15:21.000Z</time>
      </trkpt>
      <trkpt lat="44.74466" lon="4.76581">
        <ele>85.792252</ele>
        <time>2021-09-15T08:15:26.000Z</time>
      </trkpt>
      <trkpt lat="44.74461" lon="4.76595">
        <ele>85.781212</ele>
        <time>2021-09-15T08:15:28.000Z</time>
      </trkpt>
      <trkpt lat="44.74451" lon="4.76617">
        <ele>85.762775</ele>
        <time>2021-09-15T08:15:31.000Z</time>
      </trkpt>
      <trkpt lat="44.74432" lon="4.76661">
        <ele>85.726246</ele>
        <time>2021-09-15T08:15:37.000Z</time>
      </trkpt>
      <trkpt lat="44.74407" lon="4.7672">
        <ele>85.677861</ele>
        <time>2021-09-15T08:15:45.000Z</time>
      </trkpt>
      <trkpt lat="44.74386" lon="4.7677">
        <ele>85.859963</ele>
        <time>2021-09-15T08:15:52.000Z</time>
      </trkpt>
      <trkpt lat="44.74358" lon="4.7681">
        <ele>86.046346</ele>
        <time>2021-09-15T08:15:59.000Z</time>
      </trkpt>
      <trkpt lat="44.74325" lon="4.76845">
        <ele>86.238625</ele>
        <time>2021-09-15T08:16:06.000Z</time>
      </trkpt>
      <trkpt lat="44.74286" lon="4.76883">
        <ele>86.456379</ele>
        <time>2021-09-15T08:16:14.000Z</time>
      </trkpt>
      <trkpt lat="44.74249" lon="4.76921">
        <ele>86.725603</ele>
        <time>2021-09-15T08:16:22.000Z</time>
      </trkpt>
      <trkpt lat="44.74213" lon="4.76965">
        <ele>87.028054</ele>
        <time>2021-09-15T08:16:30.000Z</time>
      </trkpt>
      <trkpt lat="44.74171" lon="4.77013">
        <ele>87.363089</ele>
        <time>2021-09-15T08:16:39.000Z</time>
      </trkpt>
      <trkpt lat="44.74142" lon="4.77039">
        <ele>87.58102</ele>
        <time>2021-09-15T08:16:45.000Z</time>
      </trkpt>
      <trkpt lat="44.74102" lon="4.77074">
        <ele>87.913385</ele>
        <time>2021-09-15T08:16:53.000Z</time>
      </trkpt>
      <trkpt lat="44.74055" lon="4.77115">
        <ele>88.31838</ele>
        <time>2021-09-15T08:17:02.000Z</time>
      </trkpt>
      <trkpt lat="44.74009" lon="4.77155">
        <ele>88.71558</ele>
        <time>2021-09-15T08:17:11.000Z</time>
      </trkpt>
      <trkpt lat="44.73963" lon="4.77195">
        <ele>89.060139</ele>
        <time>2021-09-15T08:17:20.000Z</time>
      </trkpt>
      <trkpt lat="44.73958" lon="4.772">
        <ele>89.088352</ele>
        <time>2021-09-15T08:17:21.000Z</time>
      </trkpt>
      <trkpt lat="44.73916" lon="4.77235">
        <ele>89.320763</ele>
        <time>2021-09-15T08:17:29.000Z</time>
      </trkpt>
      <trkpt lat="44.73869" lon="4.77271">
        <ele>89.577106</ele>
        <time>2021-09-15T08:17:38.000Z</time>
      </trkpt>
      <trkpt lat="44.73828" lon="4.77303">
        <ele>89.800759</ele>
        <time>2021-09-15T08:17:46.000Z</time>
      </trkpt>
      <trkpt lat="44.73785" lon="4.77332">
        <ele>89.968716</ele>
        <time>2021-09-15T08:17:54.000Z</time>
      </trkpt>
      <trkpt lat="44.73745" lon="4.77357">
        <ele>90.118037</ele>
        <time>2021-09-15T08:18:01.000Z</time>
      </trkpt>
      <trkpt lat="44.73692" lon="4.77382">
        <ele>90.309049</ele>
        <time>2021-09-15T08:18:10.000Z</time>
      </trkpt>
      <trkpt lat="44.7365" lon="4.77396">
        <ele>90.439441</ele>
        <time>2021-09-15T08:18:17.000Z</time>
      </trkpt>
      <trkpt lat="44.73597" lon="4.77414">
        <ele>90.493343</ele>
        <time>2021-09-15T08:18:26.000Z</time>
      </trkpt>
      <trkpt lat="44.7359" lon="4.77416">
        <ele>90.499486</ele>
        <time>2021-09-15T08:18:27.000Z</time>
      </trkpt>
      <trkpt lat="44.73542" lon="4.7743">
        <ele>90.547627</ele>
        <time>2021-09-15T08:18:35.000Z</time>
      </trkpt>
      <trkpt lat="44.73531" lon="4.77433">
        <ele>90.558998</ele>
        <time>2021-09-15T08:18:37.000Z</time>
      </trkpt>
      <trkpt lat="44.73519" lon="4.77437">
        <ele>90.570766</ele>
        <time>2021-09-15T08:18:39.000Z</time>
      </trkpt>
      <trkpt lat="44.73483" lon="4.77447">
        <ele>90.606249</ele>
        <time>2021-09-15T08:18:45.000Z</time>
      </trkpt>
      <trkpt lat="44.73448" lon="4.77456">
        <ele>90.662562</ele>
        <time>2021-09-15T08:18:51.000Z</time>
      </trkpt>
      <trkpt lat="44.73424" lon="4.77456">
        <ele>90.702028</ele>
        <time>2021-09-15T08:18:55.000Z</time>
      </trkpt>
      <trkpt lat="44.73417" lon="4.77454">
        <ele>90.712207</ele>
        <time>2021-09-15T08:18:56.000Z</time>
      </trkpt>
      <trkpt lat="44.73377" lon="4.77436">
        <ele>90.780936</ele>
        <time>2021-09-15T08:19:03.000Z</time>
      </trkpt>
      <trkpt lat="44.73327" lon="4.77409">
        <ele>90.866996</ele>
        <time>2021-09-15T08:19:12.000Z</time>
      </trkpt>
      <trkpt lat="44.73293" lon="4.77391">
        <ele>90.81933</ele>
        <time>2021-09-15T08:19:18.000Z</time>
      </trkpt>
      <trkpt lat="44.73262" lon="4.77377">
        <ele>90.671774</ele>
        <time>2021-09-15T08:19:23.000Z</time>
      </trkpt>
      <trkpt lat="44.73224" lon="4.7737">
        <ele>90.494536</ele>
        <time>2021-09-15T08:19:29.000Z</time>
      </trkpt>
      <trkpt lat="44.7318" lon="4.77365">
        <ele>90.297859</ele>
        <time>2021-09-15T08:19:36.000Z</time>
      </trkpt>
      <trkpt lat="44.73144" lon="4.77361">
        <ele>90.133068</ele>
        <time>2021-09-15T08:19:42.000Z</time>
      </trkpt>
      <trkpt lat="44.73138" lon="4.77361">
        <ele>90.105305</ele>
        <time>2021-09-15T08:19:43.000Z</time>
      </trkpt>
      <trkpt lat="44.73102" lon="4.77357">
        <ele>89.834829</ele>
        <time>2021-09-15T08:19:49.000Z</time>
      </trkpt>
      <trkpt lat="44.73067" lon="4.77353">
        <ele>89.556753</ele>
        <time>2021-09-15T08:19:55.000Z</time>
      </trkpt>
      <trkpt lat="44.73013" lon="4.77348">
        <ele>89.129769</ele>
        <time>2021-09-15T08:20:04.000Z</time>
      </trkpt>
      <trkpt lat="44.72977" lon="4.77344">
        <ele>88.847754</ele>
        <time>2021-09-15T08:20:10.000Z</time>
      </trkpt>
      <trkpt lat="44.72971" lon="4.77343">
        <ele>88.797868</ele>
        <time>2021-09-15T08:20:11.000Z</time>
      </trkpt>
      <trkpt lat="44.72959" lon="4.77342">
        <ele>88.705978</ele>
        <time>2021-09-15T08:20:13.000Z</time>
      </trkpt>
      <trkpt lat="44.72936" lon="4.7734">
        <ele>88.613445</ele>
        <time>2021-09-15T08:20:17.000Z</time>
      </trkpt>
      <trkpt lat="44.72895" lon="4.77335">
        <ele>88.507404</ele>
        <time>2021-09-15T08:20:24.000Z</time>
      </trkpt>
      <trkpt lat="44.72849" lon="4.77331">
        <ele>88.385971</ele>
        <time>2021-09-15T08:20:32.000Z</time>
      </trkpt>
      <trkpt lat="44.72807" lon="4.77326">
        <ele>88.277853</ele>
        <time>2021-09-15T08:20:39.000Z</time>
      </trkpt>
      <trkpt lat="44.72778" lon="4.77323">
        <ele>88.20212</ele>
        <time>2021-09-15T08:20:44.000Z</time>
      </trkpt>
      <trkpt lat="44.72724" lon="4.77318">
        <ele>88.717715</ele>
        <time>2021-09-15T08:20:53.000Z</time>
      </trkpt>
      <trkpt lat="44.72718" lon="4.77317">
        <ele>88.780023</ele>
        <time>2021-09-15T08:20:54.000Z</time>
      </trkpt>
      <trkpt lat="44.72694" lon="4.77322">
        <ele>89.041001</ele>
        <time>2021-09-15T08:20:59.000Z</time>
      </trkpt>
      <trkpt lat="44.72676" lon="4.77335">
        <ele>89.251641</ele>
        <time>2021-09-15T08:21:04.000Z</time>
      </trkpt>
      <trkpt lat="44.72662" lon="4.7735">
        <ele>89.436844</ele>
        <time>2021-09-15T08:21:10.000Z</time>
      </trkpt>
      <trkpt lat="44.72651" lon="4.77373">
        <ele>89.642842</ele>
        <time>2021-09-15T08:21:17.000Z</time>
      </trkpt>
      <trkpt lat="44.72639" lon="4.774">
        <ele>89.880618</ele>
        <time>2021-09-15T08:21:25.000Z</time>
      </trkpt>
      <trkpt lat="44.72624" lon="4.77426">
        <ele>90.081086</ele>
        <time>2021-09-15T08:21:32.000Z</time>
      </trkpt>
      <trkpt lat="44.72621" lon="4.77431">
        <ele>90.076832</ele>
        <time>2021-09-15T08:21:33.000Z</time>
      </trkpt>
      <trkpt lat="44.72607" lon="4.77442">
        <ele>90.062066</ele>
        <time>2021-09-15T08:21:36.000Z</time>
      </trkpt>
      <trkpt lat="44.72589" lon="4.77446">
        <ele>90.0454</ele>
        <time>2021-09-15T08:21:39.000Z</time>
      </trkpt>
      <trkpt lat="44.72575" lon="4.77447">
        <ele>90.033023</ele>
        <time>2021-09-15T08:21:41.000Z</time>
      </trkpt>
      <trkpt lat="44.7252" lon="4.77449">
        <ele>89.982541</ele>
        <time>2021-09-15T08:21:49.000Z</time>
      </trkpt>
      <trkpt lat="44.72514" lon="4.77449">
        <ele>89.976679</ele>
        <time>2021-09-15T08:21:50.000Z</time>
      </trkpt>
      <trkpt lat="44.72464" lon="4.7745">
        <ele>89.930778</ele>
        <time>2021-09-15T08:21:58.000Z</time>
      </trkpt>
      <trkpt lat="44.72414" lon="4.77452">
        <ele>89.842379</ele>
        <time>2021-09-15T08:22:06.000Z</time>
      </trkpt>
      <trkpt lat="44.72367" lon="4.77453">
        <ele>89.744773</ele>
        <time>2021-09-15T08:22:14.000Z</time>
      </trkpt>
      <trkpt lat="44.72313" lon="4.77455">
        <ele>89.633579</ele>
        <time>2021-09-15T08:22:23.000Z</time>
      </trkpt>
      <trkpt lat="44.72265" lon="4.77456">
        <ele>89.565879</ele>
        <time>2021-09-15T08:22:31.000Z</time>
      </trkpt>
      <trkpt lat="44.72212" lon="4.77458">
        <ele>89.674219</ele>
        <time>2021-09-15T08:22:40.000Z</time>
      </trkpt>
      <trkpt lat="44.72173" lon="4.77468">
        <ele>89.754644</ele>
        <time>2021-09-15T08:22:47.000Z</time>
      </trkpt>
      <trkpt lat="44.72129" lon="4.77489">
        <ele>89.850493</ele>
        <time>2021-09-15T08:22:55.000Z</time>
      </trkpt>
      <trkpt lat="44.72075" lon="4.77518">
        <ele>89.85908</ele>
        <time>2021-09-15T08:23:05.000Z</time>
      </trkpt>
      <trkpt lat="44.72027" lon="4.77544">
        <ele>89.734014</ele>
        <time>2021-09-15T08:23:14.000Z</time>
      </trkpt>
      <trkpt lat="44.71994" lon="4.77562">
        <ele>89.648902</ele>
        <time>2021-09-15T08:23:20.000Z</time>
      </trkpt>
      <trkpt lat="44.71944" lon="4.77591">
        <ele>89.517138</ele>
        <time>2021-09-15T08:23:29.000Z</time>
      </trkpt>
      <trkpt lat="44.71907" lon="4.7762">
        <ele>89.414278</ele>
        <time>2021-09-15T08:23:36.000Z</time>
      </trkpt>
      <trkpt lat="44.71861" lon="4.77661">
        <ele>89.278932</ele>
        <time>2021-09-15T08:23:45.000Z</time>
      </trkpt>
      <trkpt lat="44.71817" lon="4.77704">
        <ele>89.147465</ele>
        <time>2021-09-15T08:23:54.000Z</time>
      </trkpt>
      <trkpt lat="44.71771" lon="4.77754">
        <ele>89.043564</ele>
        <time>2021-09-15T08:24:04.000Z</time>
      </trkpt>
      <trkpt lat="44.71739" lon="4.77788">
        <ele>89.056698</ele>
        <time>2021-09-15T08:24:11.000Z</time>
      </trkpt>
      <trkpt lat="44.71706" lon="4.77822">
        <ele>89.07002</ele>
        <time>2021-09-15T08:24:18.000Z</time>
      </trkpt>
      <trkpt lat="44.71663" lon="4.77866">
        <ele>89.087107</ele>
        <time>2021-09-15T08:24:27.000Z</time>
      </trkpt>
      <trkpt lat="44.71614" lon="4.77913">
        <ele>89.146902</ele>
        <time>2021-09-15T08:24:37.000Z</time>
      </trkpt>
      <trkpt lat="44.71584" lon="4.77932">
        <ele>89.207342</ele>
        <time>2021-09-15T08:24:43.000Z</time>
      </trkpt>
      <trkpt lat="44.71549" lon="4.77955">
        <ele>89.276852</ele>
        <time>2021-09-15T08:24:50.000Z</time>
      </trkpt>
      <trkpt lat="44.71543" lon="4.77967">
        <ele>89.294939</ele>
        <time>2021-09-15T08:24:52.000Z</time>
      </trkpt>
      <trkpt lat="44.71539" lon="4.77981">
        <ele>89.314875</ele>
        <time>2021-09-15T08:24:54.000Z</time>
      </trkpt>
      <trkpt lat="44.71536" lon="4.7802">
        <ele>89.364557</ele>
        <time>2021-09-15T08:24:59.000Z</time>
      </trkpt>
      <trkpt lat="44.71534" lon="4.78042">
        <ele>89.393363</ele>
        <time>2021-09-15T08:25:02.000Z</time>
      </trkpt>
      <trkpt lat="44.71533" lon="4.78064">
        <ele>89.421644</ele>
        <time>2021-09-15T08:25:05.000Z</time>
      </trkpt>
      <trkpt lat="44.71533" lon="4.78071">
        <ele>89.435132</ele>
        <time>2021-09-15T08:25:06.000Z</time>
      </trkpt>
      <trkpt lat="44.7153" lon="4.78113">
        <ele>89.51916</ele>
        <time>2021-09-15T08:25:12.000Z</time>
      </trkpt>
      <trkpt lat="44.71528" lon="4.78126">
        <ele>89.546369</ele>
        <time>2021-09-15T08:25:14.000Z</time>
      </trkpt>
      <trkpt lat="44.71526" lon="4.7814">
        <ele>89.573824</ele>
        <time>2021-09-15T08:25:16.000Z</time>
      </trkpt>
      <trkpt lat="44.71522" lon="4.78147">
        <ele>89.591039</ele>
        <time>2021-09-15T08:25:17.000Z</time>
      </trkpt>
      <trkpt lat="44.71518" lon="4.78151">
        <ele>89.604999</ele>
        <time>2021-09-15T08:25:18.000Z</time>
      </trkpt>
      <trkpt lat="44.7151" lon="4.7816">
        <ele>89.63432</ele>
        <time>2021-09-15T08:25:20.000Z</time>
      </trkpt>
      <trkpt lat="44.71506" lon="4.78165">
        <ele>89.64828</ele>
        <time>2021-09-15T08:25:21.000Z</time>
      </trkpt>
      <trkpt lat="44.71501" lon="4.78167">
        <ele>89.664157</ele>
        <time>2021-09-15T08:25:22.000Z</time>
      </trkpt>
      <trkpt lat="44.71484" lon="4.78168">
        <ele>89.710289</ele>
        <time>2021-09-15T08:25:25.000Z</time>
      </trkpt>
      <trkpt lat="44.71437" lon="4.78179">
        <ele>89.842581</ele>
        <time>2021-09-15T08:25:33.000Z</time>
      </trkpt>
      <trkpt lat="44.71399" lon="4.7819">
        <ele>89.933402</ele>
        <time>2021-09-15T08:25:40.000Z</time>
      </trkpt>
      <trkpt lat="44.71354" lon="4.78203">
        <ele>89.97554</ele>
        <time>2021-09-15T08:25:48.000Z</time>
      </trkpt>
      <trkpt lat="44.71308" lon="4.78217">
        <ele>90.01899</ele>
        <time>2021-09-15T08:25:56.000Z</time>
      </trkpt>
      <trkpt lat="44.71255" lon="4.78233">
        <ele>90.06891</ele>
        <time>2021-09-15T08:26:05.000Z</time>
      </trkpt>
      <trkpt lat="44.71249" lon="4.78235">
        <ele>90.074455</ele>
        <time>2021-09-15T08:26:06.000Z</time>
      </trkpt>
      <trkpt lat="44.71195" lon="4.78251">
        <ele>90.009611</ele>
        <time>2021-09-15T08:26:15.000Z</time>
      </trkpt>
      <trkpt lat="44.71189" lon="4.78252">
        <ele>89.997303</ele>
        <time>2021-09-15T08:26:16.000Z</time>
      </trkpt>
      <trkpt lat="44.71138" lon="4.78267">
        <ele>89.890854</ele>
        <time>2021-09-15T08:26:25.000Z</time>
      </trkpt>
      <trkpt lat="44.711" lon="4.78279">
        <ele>89.812731</ele>
        <time>2021-09-15T08:26:32.000Z</time>
      </trkpt>
      <trkpt lat="44.71077" lon="4.78269">
        <ele>89.762805</ele>
        <time>2021-09-15T08:26:36.000Z</time>
      </trkpt>
      <trkpt lat="44.71071" lon="4.78267">
        <ele>89.751815</ele>
        <time>2021-09-15T08:26:37.000Z</time>
      </trkpt>
      <trkpt lat="44.71061" lon="4.78262">
        <ele>89.729684</ele>
        <time>2021-09-15T08:26:39.000Z</time>
      </trkpt>
      <trkpt lat="44.71041" lon="4.78249">
        <ele>89.790561</ele>
        <time>2021-09-15T08:26:43.000Z</time>
      </trkpt>
      <trkpt lat="44.71013" lon="4.78245">
        <ele>89.895142</ele>
        <time>2021-09-15T08:26:48.000Z</time>
      </trkpt>
      <trkpt lat="44.70978" lon="4.78249">
        <ele>90.023619</ele>
        <time>2021-09-15T08:26:54.000Z</time>
      </trkpt>
      <trkpt lat="44.7095" lon="4.78252">
        <ele>90.128025</ele>
        <time>2021-09-15T08:26:59.000Z</time>
      </trkpt>
      <trkpt lat="44.70944" lon="4.78252">
        <ele>90.149868</ele>
        <time>2021-09-15T08:27:00.000Z</time>
      </trkpt>
      <trkpt lat="44.70903" lon="4.78256">
        <ele>90.301293</ele>
        <time>2021-09-15T08:27:08.000Z</time>
      </trkpt>
      <trkpt lat="44.70884" lon="4.78258">
        <ele>90.373487</ele>
        <time>2021-09-15T08:27:12.000Z</time>
      </trkpt>
      <trkpt lat="44.70879" lon="4.78259">
        <ele>90.399013</ele>
        <time>2021-09-15T08:27:13.000Z</time>
      </trkpt>
      <trkpt lat="44.70852" lon="4.78262">
        <ele>90.616449</ele>
        <time>2021-09-15T08:27:18.000Z</time>
      </trkpt>
      <trkpt lat="44.70842" lon="4.78262">
        <ele>90.699284</ele>
        <time>2021-09-15T08:27:20.000Z</time>
      </trkpt>
      <trkpt lat="44.70819" lon="4.78264">
        <ele>90.881807</ele>
        <time>2021-09-15T08:27:24.000Z</time>
      </trkpt>
      <trkpt lat="44.70814" lon="4.78264">
        <ele>90.92281</ele>
        <time>2021-09-15T08:27:25.000Z</time>
      </trkpt>
      <trkpt lat="44.70778" lon="4.78268">
        <ele>91.208803</ele>
        <time>2021-09-15T08:27:31.000Z</time>
      </trkpt>
      <trkpt lat="44.70768" lon="4.7827">
        <ele>91.29039</ele>
        <time>2021-09-15T08:27:33.000Z</time>
      </trkpt>
      <trkpt lat="44.70764" lon="4.78271">
        <ele>91.326289</ele>
        <time>2021-09-15T08:27:34.000Z</time>
      </trkpt>
      <trkpt lat="44.70748" lon="4.78276">
        <ele>91.454812</ele>
        <time>2021-09-15T08:27:37.000Z</time>
      </trkpt>
      <trkpt lat="44.70733" lon="4.78284">
        <ele>91.58573</ele>
        <time>2021-09-15T08:27:40.000Z</time>
      </trkpt>
      <trkpt lat="44.70718" lon="4.78294">
        <ele>91.714948</ele>
        <time>2021-09-15T08:27:43.000Z</time>
      </trkpt>
      <trkpt lat="44.7071" lon="4.78303">
        <ele>91.79773</ele>
        <time>2021-09-15T08:27:45.000Z</time>
      </trkpt>
      <trkpt lat="44.70706" lon="4.78307">
        <ele>91.838801</ele>
        <time>2021-09-15T08:27:46.000Z</time>
      </trkpt>
      <trkpt lat="44.70702" lon="4.78311">
        <ele>91.885455</ele>
        <time>2021-09-15T08:27:47.000Z</time>
      </trkpt>
      <trkpt lat="44.70689" lon="4.78324">
        <ele>92.02443</ele>
        <time>2021-09-15T08:27:50.000Z</time>
      </trkpt>
      <trkpt lat="44.70657" lon="4.78361">
        <ele>92.394547</ele>
        <time>2021-09-15T08:27:58.000Z</time>
      </trkpt>
      <trkpt lat="44.70626" lon="4.78397">
        <ele>92.748318</ele>
        <time>2021-09-15T08:28:06.000Z</time>
      </trkpt>
      <trkpt lat="44.70615" lon="4.78409">
        <ele>92.870647</ele>
        <time>2021-09-15T08:28:09.000Z</time>
      </trkpt>
      <trkpt lat="44.70603" lon="4.7842">
        <ele>92.99905</ele>
        <time>2021-09-15T08:28:12.000Z</time>
      </trkpt>
      <trkpt lat="44.70574" lon="4.78439">
        <ele>93.278776</ele>
        <time>2021-09-15T08:28:18.000Z</time>
      </trkpt>
      <trkpt lat="44.70569" lon="4.7844">
        <ele>93.322023</ele>
        <time>2021-09-15T08:28:19.000Z</time>
      </trkpt>
      <trkpt lat="44.70546" lon="4.7845">
        <ele>93.532939</ele>
        <time>2021-09-15T08:28:24.000Z</time>
      </trkpt>
      <trkpt lat="44.70541" lon="4.78452">
        <ele>93.575791</ele>
        <time>2021-09-15T08:28:25.000Z</time>
      </trkpt>
      <trkpt lat="44.70508" lon="4.78466">
        <ele>93.868199</ele>
        <time>2021-09-15T08:28:32.000Z</time>
      </trkpt>
      <trkpt lat="44.70477" lon="4.7848">
        <ele>94.151885</ele>
        <time>2021-09-15T08:28:39.000Z</time>
      </trkpt>
      <trkpt lat="44.70444" lon="4.78494">
        <ele>94.446108</ele>
        <time>2021-09-15T08:28:46.000Z</time>
      </trkpt>
      <trkpt lat="44.70414" lon="4.78507">
        <ele>94.708909</ele>
        <time>2021-09-15T08:28:52.000Z</time>
      </trkpt>
      <trkpt lat="44.70373" lon="4.78526">
        <ele>95.016267</ele>
        <time>2021-09-15T08:29:00.000Z</time>
      </trkpt>
      <trkpt lat="44.70325" lon="4.78547">
        <ele>95.213277</ele>
        <time>2021-09-15T08:29:09.000Z</time>
      </trkpt>
      <trkpt lat="44.70286" lon="4.78565">
        <ele>95.374452</ele>
        <time>2021-09-15T08:29:17.000Z</time>
      </trkpt>
      <trkpt lat="44.70277" lon="4.78569">
        <ele>95.408545</ele>
        <time>2021-09-15T08:29:19.000Z</time>
      </trkpt>
      <trkpt lat="44.70261" lon="4.78576">
        <ele>95.474987</ele>
        <time>2021-09-15T08:29:23.000Z</time>
      </trkpt>
      <trkpt lat="44.70229" lon="4.78591">
        <ele>95.60547</ele>
        <time>2021-09-15T08:29:30.000Z</time>
      </trkpt>
      <trkpt lat="44.70188" lon="4.78609">
        <ele>95.506106</ele>
        <time>2021-09-15T08:29:38.000Z</time>
      </trkpt>
      <trkpt lat="44.70164" lon="4.7862">
        <ele>95.359224</ele>
        <time>2021-09-15T08:29:43.000Z</time>
      </trkpt>
      <trkpt lat="44.70153" lon="4.78624">
        <ele>95.297589</ele>
        <time>2021-09-15T08:29:45.000Z</time>
      </trkpt>
      <trkpt lat="44.70099" lon="4.78641">
        <ele>94.986172</ele>
        <time>2021-09-15T08:29:55.000Z</time>
      </trkpt>
      <trkpt lat="44.7005" lon="4.78657">
        <ele>94.700723</ele>
        <time>2021-09-15T08:30:04.000Z</time>
      </trkpt>
      <trkpt lat="44.69995" lon="4.78675">
        <ele>94.368079</ele>
        <time>2021-09-15T08:30:14.000Z</time>
      </trkpt>
      <trkpt lat="44.6999" lon="4.78676">
        <ele>94.333318</ele>
        <time>2021-09-15T08:30:15.000Z</time>
      </trkpt>
      <trkpt lat="44.69953" lon="4.78688">
        <ele>94.104911</ele>
        <time>2021-09-15T08:30:22.000Z</time>
      </trkpt>
      <trkpt lat="44.6992" lon="4.78698">
        <ele>93.897991</ele>
        <time>2021-09-15T08:30:28.000Z</time>
      </trkpt>
      <trkpt lat="44.69886" lon="4.78704">
        <ele>93.692736</ele>
        <time>2021-09-15T08:30:34.000Z</time>
      </trkpt>
      <trkpt lat="44.6985" lon="4.78711">
        <ele>93.479859</ele>
        <time>2021-09-15T08:30:40.000Z</time>
      </trkpt>
      <trkpt lat="44.69814" lon="4.78726">
        <ele>93.267345</ele>
        <time>2021-09-15T08:30:46.000Z</time>
      </trkpt>
      <trkpt lat="44.69757" lon="4.78747">
        <ele>92.930067</ele>
        <time>2021-09-15T08:30:55.000Z</time>
      </trkpt>
      <trkpt lat="44.69751" lon="4.78749">
        <ele>92.894311</ele>
        <time>2021-09-15T08:30:56.000Z</time>
      </trkpt>
      <trkpt lat="44.69707" lon="4.78764">
        <ele>92.641485</ele>
        <time>2021-09-15T08:31:03.000Z</time>
      </trkpt>
      <trkpt lat="44.69655" lon="4.7878">
        <ele>92.396427</ele>
        <time>2021-09-15T08:31:12.000Z</time>
      </trkpt>
      <trkpt lat="44.69607" lon="4.78795">
        <ele>92.193956</ele>
        <time>2021-09-15T08:31:21.000Z</time>
      </trkpt>
      <trkpt lat="44.69564" lon="4.78809">
        <ele>92.01518</ele>
        <time>2021-09-15T08:31:29.000Z</time>
      </trkpt>
      <trkpt lat="44.69534" lon="4.78818">
        <ele>91.890312</ele>
        <time>2021-09-15T08:31:35.000Z</time>
      </trkpt>
      <trkpt lat="44.69504" lon="4.78827">
        <ele>91.791141</ele>
        <time>2021-09-15T08:31:40.000Z</time>
      </trkpt>
      <trkpt lat="44.69481" lon="4.78834">
        <ele>91.750292</ele>
        <time>2021-09-15T08:31:45.000Z</time>
      </trkpt>
      <trkpt lat="44.69438" lon="4.78848">
        <ele>91.675944</ele>
        <time>2021-09-15T08:31:54.000Z</time>
      </trkpt>
      <trkpt lat="44.69396" lon="4.78863">
        <ele>91.60154</ele>
        <time>2021-09-15T08:32:02.000Z</time>
      </trkpt>
      <trkpt lat="44.6934" lon="4.78881">
        <ele>91.503683</ele>
        <time>2021-09-15T08:32:12.000Z</time>
      </trkpt>
      <trkpt lat="44.69334" lon="4.78883">
        <ele>91.501371</ele>
        <time>2021-09-15T08:32:13.000Z</time>
      </trkpt>
      <trkpt lat="44.69295" lon="4.78895">
        <ele>91.491196</ele>
        <time>2021-09-15T08:32:20.000Z</time>
      </trkpt>
      <trkpt lat="44.69239" lon="4.78913">
        <ele>91.476342</ele>
        <time>2021-09-15T08:32:30.000Z</time>
      </trkpt>
      <trkpt lat="44.69192" lon="4.78928">
        <ele>91.463933</ele>
        <time>2021-09-15T08:32:38.000Z</time>
      </trkpt>
      <trkpt lat="44.69139" lon="4.78945">
        <ele>91.440622</ele>
        <time>2021-09-15T08:32:47.000Z</time>
      </trkpt>
      <trkpt lat="44.6909" lon="4.7896">
        <ele>91.408101</ele>
        <time>2021-09-15T08:32:56.000Z</time>
      </trkpt>
      <trkpt lat="44.69039" lon="4.78976">
        <ele>91.374607</ele>
        <time>2021-09-15T08:33:05.000Z</time>
      </trkpt>
      <trkpt lat="44.68993" lon="4.78991">
        <ele>91.344635</ele>
        <time>2021-09-15T08:33:14.000Z</time>
      </trkpt>
      <trkpt lat="44.68978" lon="4.78995">
        <ele>91.311258</ele>
        <time>2021-09-15T08:33:17.000Z</time>
      </trkpt>
      <trkpt lat="44.6896" lon="4.78999">
        <ele>91.255158</ele>
        <time>2021-09-15T08:33:21.000Z</time>
      </trkpt>
      <trkpt lat="44.68926" lon="4.79006">
        <ele>91.152424</ele>
        <time>2021-09-15T08:33:27.000Z</time>
      </trkpt>
      <trkpt lat="44.68882" lon="4.79017">
        <ele>91.016985</ele>
        <time>2021-09-15T08:33:34.000Z</time>
      </trkpt>
      <trkpt lat="44.68846" lon="4.79033">
        <ele>90.901975</ele>
        <time>2021-09-15T08:33:40.000Z</time>
      </trkpt>
      <trkpt lat="44.68794" lon="4.79053">
        <ele>90.792759</ele>
        <time>2021-09-15T08:33:49.000Z</time>
      </trkpt>
      <trkpt lat="44.68736" lon="4.7907">
        <ele>90.772115</ele>
        <time>2021-09-15T08:33:59.000Z</time>
      </trkpt>
      <trkpt lat="44.6873" lon="4.79071">
        <ele>90.77005</ele>
        <time>2021-09-15T08:34:00.000Z</time>
      </trkpt>
      <trkpt lat="44.68673" lon="4.79088">
        <ele>90.749812</ele>
        <time>2021-09-15T08:34:10.000Z</time>
      </trkpt>
      <trkpt lat="44.68668" lon="4.79089">
        <ele>90.747855</ele>
        <time>2021-09-15T08:34:11.000Z</time>
      </trkpt>
      <trkpt lat="44.6862" lon="4.79103">
        <ele>90.774032</ele>
        <time>2021-09-15T08:34:20.000Z</time>
      </trkpt>
      <trkpt lat="44.68589" lon="4.79111">
        <ele>90.84167</ele>
        <time>2021-09-15T08:34:26.000Z</time>
      </trkpt>
      <trkpt lat="44.68559" lon="4.7912">
        <ele>90.908281</ele>
        <time>2021-09-15T08:34:32.000Z</time>
      </trkpt>
      <trkpt lat="44.68512" lon="4.79136">
        <ele>91.012442</ele>
        <time>2021-09-15T08:34:41.000Z</time>
      </trkpt>
      <trkpt lat="44.68459" lon="4.79154">
        <ele>91.120619</ele>
        <time>2021-09-15T08:34:51.000Z</time>
      </trkpt>
      <trkpt lat="44.6842" lon="4.79167">
        <ele>91.056605</ele>
        <time>2021-09-15T08:34:59.000Z</time>
      </trkpt>
      <trkpt lat="44.68387" lon="4.79178">
        <ele>91.001363</ele>
        <time>2021-09-15T08:35:06.000Z</time>
      </trkpt>
      <trkpt lat="44.68344" lon="4.79192">
        <ele>90.930743</ele>
        <time>2021-09-15T08:35:14.000Z</time>
      </trkpt>
      <trkpt lat="44.68294" lon="4.79209">
        <ele>90.848715</ele>
        <time>2021-09-15T08:35:23.000Z</time>
      </trkpt>
      <trkpt lat="44.68252" lon="4.79223">
        <ele>90.756869</ele>
        <time>2021-09-15T08:35:31.000Z</time>
      </trkpt>
      <trkpt lat="44.68236" lon="4.79228">
        <ele>90.722771</ele>
        <time>2021-09-15T08:35:34.000Z</time>
      </trkpt>
      <trkpt lat="44.6823" lon="4.79227">
        <ele>90.708266</ele>
        <time>2021-09-15T08:35:35.000Z</time>
      </trkpt>
      <trkpt lat="44.68225" lon="4.7922">
        <ele>90.693728</ele>
        <time>2021-09-15T08:35:36.000Z</time>
      </trkpt>
      <trkpt lat="44.68221" lon="4.79206">
        <ele>90.66975</ele>
        <time>2021-09-15T08:35:38.000Z</time>
      </trkpt>
      <trkpt lat="44.68208" lon="4.79171">
        <ele>90.607443</ele>
        <time>2021-09-15T08:35:43.000Z</time>
      </trkpt>
      <trkpt lat="44.68205" lon="4.79165">
        <ele>90.595082</ele>
        <time>2021-09-15T08:35:44.000Z</time>
      </trkpt>
      <trkpt lat="44.68178" lon="4.79135">
        <ele>90.520967</ele>
        <time>2021-09-15T08:35:50.000Z</time>
      </trkpt>
      <trkpt lat="44.68164" lon="4.79126">
        <ele>90.486205</ele>
        <time>2021-09-15T08:35:53.000Z</time>
      </trkpt>
      <trkpt lat="44.68149" lon="4.79121">
        <ele>90.45197</ele>
        <time>2021-09-15T08:35:56.000Z</time>
      </trkpt>
      <trkpt lat="44.68127" lon="4.79119">
        <ele>90.411553</ele>
        <time>2021-09-15T08:36:00.000Z</time>
      </trkpt>
      <trkpt lat="44.68121" lon="4.7912">
        <ele>90.402252</ele>
        <time>2021-09-15T08:36:01.000Z</time>
      </trkpt>
      <trkpt lat="44.68104" lon="4.79125">
        <ele>90.372452</ele>
        <time>2021-09-15T08:36:04.000Z</time>
      </trkpt>
      <trkpt lat="44.68089" lon="4.79137">
        <ele>90.342537</ele>
        <time>2021-09-15T08:36:07.000Z</time>
      </trkpt>
      <trkpt lat="44.68063" lon="4.79166">
        <ele>90.285554</ele>
        <time>2021-09-15T08:36:13.000Z</time>
      </trkpt>
      <trkpt lat="44.68025" lon="4.79211">
        <ele>90.20013</ele>
        <time>2021-09-15T08:36:22.000Z</time>
      </trkpt>
      <trkpt lat="44.67991" lon="4.7925">
        <ele>90.125112</ele>
        <time>2021-09-15T08:36:30.000Z</time>
      </trkpt>
      <trkpt lat="44.67957" lon="4.79289">
        <ele>90.059283</ele>
        <time>2021-09-15T08:36:38.000Z</time>
      </trkpt>
      <trkpt lat="44.67925" lon="4.79317">
        <ele>90.002194</ele>
        <time>2021-09-15T08:36:45.000Z</time>
      </trkpt>
      <trkpt lat="44.67892" lon="4.79329">
        <ele>89.952533</ele>
        <time>2021-09-15T08:36:51.000Z</time>
      </trkpt>
      <trkpt lat="44.67844" lon="4.79333">
        <ele>89.879281</ele>
        <time>2021-09-15T08:37:00.000Z</time>
      </trkpt>
      <trkpt lat="44.67795" lon="4.79336">
        <ele>89.878461</ele>
        <time>2021-09-15T08:37:09.000Z</time>
      </trkpt>
      <trkpt lat="44.67751" lon="4.7934">
        <ele>89.898419</ele>
        <time>2021-09-15T08:37:17.000Z</time>
      </trkpt>
      <trkpt lat="44.67746" lon="4.79339">
        <ele>89.900757</ele>
        <time>2021-09-15T08:37:18.000Z</time>
      </trkpt>
      <trkpt lat="44.67722" lon="4.79333">
        <ele>89.912123</ele>
        <time>2021-09-15T08:37:23.000Z</time>
      </trkpt>
      <trkpt lat="44.67697" lon="4.79322">
        <ele>89.924004</ele>
        <time>2021-09-15T08:37:28.000Z</time>
      </trkpt>
      <trkpt lat="44.67693" lon="4.79319">
        <ele>89.926275</ele>
        <time>2021-09-15T08:37:29.000Z</time>
      </trkpt>
      <trkpt lat="44.67671" lon="4.79304">
        <ele>89.937289</ele>
        <time>2021-09-15T08:37:34.000Z</time>
      </trkpt>
      <trkpt lat="44.67663" lon="4.79296">
        <ele>89.941824</ele>
        <time>2021-09-15T08:37:36.000Z</time>
      </trkpt>
      <trkpt lat="44.67636" lon="4.79261">
        <ele>89.958393</ele>
        <time>2021-09-15T08:37:43.000Z</time>
      </trkpt>
      <trkpt lat="44.67614" lon="4.79215">
        <ele>89.975582</ele>
        <time>2021-09-15T08:37:50.000Z</time>
      </trkpt>
      <trkpt lat="44.67601" lon="4.79163">
        <ele>89.99312</ele>
        <time>2021-09-15T08:37:57.000Z</time>
      </trkpt>
      <trkpt lat="44.67596" lon="4.791">
        <ele>90.013128</ele>
        <time>2021-09-15T08:38:05.000Z</time>
      </trkpt>
      <trkpt lat="44.67596" lon="4.79093">
        <ele>90.015537</ele>
        <time>2021-09-15T08:38:06.000Z</time>
      </trkpt>
      <trkpt lat="44.67595" lon="4.79085">
        <ele>90.017883</ele>
        <time>2021-09-15T08:38:07.000Z</time>
      </trkpt>
      <trkpt lat="44.67594" lon="4.79049">
        <ele>90.00969</ele>
        <time>2021-09-15T08:38:12.000Z</time>
      </trkpt>
      <trkpt lat="44.67594" lon="4.79">
        <ele>89.968239</ele>
        <time>2021-09-15T08:38:19.000Z</time>
      </trkpt>
      <trkpt lat="44.6759" lon="4.78977">
        <ele>89.948551</ele>
        <time>2021-09-15T08:38:24.000Z</time>
      </trkpt>
      <trkpt lat="44.67589" lon="4.78978">
        <ele>89.947835</ele>
        <time>2021-09-15T08:39:44.000Z</time>
      </trkpt>
      <trkpt lat="44.67589" lon="4.78979">
        <ele>89.946862</ele>
        <time>2021-09-15T08:39:45.000Z</time>
      </trkpt>
      <trkpt lat="44.67585" lon="4.78983">
        <ele>89.941035</ele>
        <time>2021-09-15T08:39:47.000Z</time>
      </trkpt>
      <trkpt lat="44.67578" lon="4.78987">
        <ele>89.932931</ele>
        <time>2021-09-15T08:39:49.000Z</time>
      </trkpt>
      <trkpt lat="44.67567" lon="4.78987">
        <ele>89.918902</ele>
        <time>2021-09-15T08:39:52.000Z</time>
      </trkpt>
      <trkpt lat="44.67558" lon="4.78988">
        <ele>89.908329</ele>
        <time>2021-09-15T08:39:54.000Z</time>
      </trkpt>
      <trkpt lat="44.67522" lon="4.7899">
        <ele>89.865794</ele>
        <time>2021-09-15T08:40:01.000Z</time>
      </trkpt>
      <trkpt lat="44.67478" lon="4.78993">
        <ele>89.813757</ele>
        <time>2021-09-15T08:40:09.000Z</time>
      </trkpt>
      <trkpt lat="44.67446" lon="4.78994">
        <ele>89.841566</ele>
        <time>2021-09-15T08:40:15.000Z</time>
      </trkpt>
      <trkpt lat="44.67395" lon="4.78997">
        <ele>89.895452</ele>
        <time>2021-09-15T08:40:24.000Z</time>
      </trkpt>
      <trkpt lat="44.6735" lon="4.79">
        <ele>89.942694</ele>
        <time>2021-09-15T08:40:32.000Z</time>
      </trkpt>
      <trkpt lat="44.67334" lon="4.79002">
        <ele>89.959179</ele>
        <time>2021-09-15T08:40:35.000Z</time>
      </trkpt>
      <trkpt lat="44.67324" lon="4.79004">
        <ele>89.970736</ele>
        <time>2021-09-15T08:40:37.000Z</time>
      </trkpt>
      <trkpt lat="44.67309" lon="4.79011">
        <ele>89.987264</ele>
        <time>2021-09-15T08:40:40.000Z</time>
      </trkpt>
      <trkpt lat="44.67294" lon="4.79022">
        <ele>90.000006</ele>
        <time>2021-09-15T08:40:43.000Z</time>
      </trkpt>
      <trkpt lat="44.67261" lon="4.7905">
        <ele>90.000006</ele>
        <time>2021-09-15T08:40:50.000Z</time>
      </trkpt>
      <trkpt lat="44.67214" lon="4.79089">
        <ele>90.000006</ele>
        <time>2021-09-15T08:41:00.000Z</time>
      </trkpt>
      <trkpt lat="44.67167" lon="4.79127">
        <ele>90.000006</ele>
        <time>2021-09-15T08:41:10.000Z</time>
      </trkpt>
      <trkpt lat="44.67125" lon="4.79161">
        <ele>89.998685</ele>
        <time>2021-09-15T08:41:19.000Z</time>
      </trkpt>
      <trkpt lat="44.67078" lon="4.79202">
        <ele>89.995059</ele>
        <time>2021-09-15T08:41:29.000Z</time>
      </trkpt>
      <trkpt lat="44.67029" lon="4.79243">
        <ele>89.991372</ele>
        <time>2021-09-15T08:41:39.000Z</time>
      </trkpt>
      <trkpt lat="44.66991" lon="4.79269">
        <ele>89.988664</ele>
        <time>2021-09-15T08:41:47.000Z</time>
      </trkpt>
      <trkpt lat="44.66987" lon="4.79272">
        <ele>89.988344</ele>
        <time>2021-09-15T08:41:48.000Z</time>
      </trkpt>
      <trkpt lat="44.66967" lon="4.79281">
        <ele>89.960224</ele>
        <time>2021-09-15T08:41:52.000Z</time>
      </trkpt>
      <trkpt lat="44.66929" lon="4.79287">
        <ele>89.905937</ele>
        <time>2021-09-15T08:41:59.000Z</time>
      </trkpt>
      <trkpt lat="44.66884" lon="4.79281">
        <ele>89.843729</ele>
        <time>2021-09-15T08:42:07.000Z</time>
      </trkpt>
      <trkpt lat="44.66851" lon="4.79271">
        <ele>89.797096</ele>
        <time>2021-09-15T08:42:13.000Z</time>
      </trkpt>
      <trkpt lat="44.66811" lon="4.7926">
        <ele>89.73985</ele>
        <time>2021-09-15T08:42:20.000Z</time>
      </trkpt>
      <trkpt lat="44.66789" lon="4.79252">
        <ele>89.772123</ele>
        <time>2021-09-15T08:42:24.000Z</time>
      </trkpt>
      <trkpt lat="44.66778" lon="4.79248">
        <ele>89.790098</ele>
        <time>2021-09-15T08:42:26.000Z</time>
      </trkpt>
      <trkpt lat="44.66756" lon="4.7924">
        <ele>89.825386</ele>
        <time>2021-09-15T08:42:30.000Z</time>
      </trkpt>
      <trkpt lat="44.6675" lon="4.79238">
        <ele>89.834629</ele>
        <time>2021-09-15T08:42:31.000Z</time>
      </trkpt>
      <trkpt lat="44.66745" lon="4.79236">
        <ele>89.84357</ele>
        <time>2021-09-15T08:42:32.000Z</time>
      </trkpt>
      <trkpt lat="44.66727" lon="4.79228">
        <ele>89.872133</ele>
        <time>2021-09-15T08:42:35.000Z</time>
      </trkpt>
      <trkpt lat="44.66676" lon="4.79202">
        <ele>89.957823</ele>
        <time>2021-09-15T08:42:44.000Z</time>
      </trkpt>
      <trkpt lat="44.66646" lon="4.79183">
        <ele>90.008774</ele>
        <time>2021-09-15T08:42:50.000Z</time>
      </trkpt>
      <trkpt lat="44.66616" lon="4.79164">
        <ele>90.157794</ele>
        <time>2021-09-15T08:42:56.000Z</time>
      </trkpt>
      <trkpt lat="44.66611" lon="4.7916">
        <ele>90.185843</ele>
        <time>2021-09-15T08:42:57.000Z</time>
      </trkpt>
      <trkpt lat="44.66597" lon="4.79151">
        <ele>90.271439</ele>
        <time>2021-09-15T08:43:00.000Z</time>
      </trkpt>
      <trkpt lat="44.6656" lon="4.79125">
        <ele>90.490217</ele>
        <time>2021-09-15T08:43:07.000Z</time>
      </trkpt>
      <trkpt lat="44.66555" lon="4.7912">
        <ele>90.519993</ele>
        <time>2021-09-15T08:43:08.000Z</time>
      </trkpt>
      <trkpt lat="44.6654" lon="4.79106">
        <ele>90.620598</ele>
        <time>2021-09-15T08:43:11.000Z</time>
      </trkpt>
      <trkpt lat="44.66509" lon="4.79075">
        <ele>90.819993</ele>
        <time>2021-09-15T08:43:17.000Z</time>
      </trkpt>
      <trkpt lat="44.66482" lon="4.79045">
        <ele>91.028418</ele>
        <time>2021-09-15T08:43:23.000Z</time>
      </trkpt>
      <trkpt lat="44.66466" lon="4.79027">
        <ele>91.253118</ele>
        <time>2021-09-15T08:43:28.000Z</time>
      </trkpt>
      <trkpt lat="44.66449" lon="4.79008">
        <ele>91.490732</ele>
        <time>2021-09-15T08:43:35.000Z</time>
      </trkpt>
      <trkpt lat="44.66432" lon="4.78994">
        <ele>91.70206</ele>
        <time>2021-09-15T08:43:42.000Z</time>
      </trkpt>
      <trkpt lat="44.66416" lon="4.78993">
        <ele>91.871269</ele>
        <time>2021-09-15T08:43:48.000Z</time>
      </trkpt>
      <trkpt lat="44.66403" lon="4.79">
        <ele>92.029297</ele>
        <time>2021-09-15T08:43:54.000Z</time>
      </trkpt>
      <trkpt lat="44.66381" lon="4.79012">
        <ele>92.279902</ele>
        <time>2021-09-15T08:44:01.000Z</time>
      </trkpt>
      <trkpt lat="44.66368" lon="4.79021">
        <ele>92.4397</ele>
        <time>2021-09-15T08:44:05.000Z</time>
      </trkpt>
      <trkpt lat="44.66357" lon="4.79034">
        <ele>92.589357</ele>
        <time>2021-09-15T08:44:08.000Z</time>
      </trkpt>
      <trkpt lat="44.66354" lon="4.79037">
        <ele>92.629975</ele>
        <time>2021-09-15T08:44:09.000Z</time>
      </trkpt>
      <trkpt lat="44.6635" lon="4.79051">
        <ele>92.749347</ele>
        <time>2021-09-15T08:44:12.000Z</time>
      </trkpt>
      <trkpt lat="44.66343" lon="4.7907">
        <ele>92.912149</ele>
        <time>2021-09-15T08:44:17.000Z</time>
      </trkpt>
      <trkpt lat="44.6633" lon="4.7907">
        <ele>92.961279</ele>
        <time>2021-09-15T08:44:19.000Z</time>
      </trkpt>
      <trkpt lat="44.66323" lon="4.79066">
        <ele>92.982122</ele>
        <time>2021-09-15T08:44:21.000Z</time>
      </trkpt>
      <trkpt lat="44.66291" lon="4.79049">
        <ele>93.083314</ele>
        <time>2021-09-15T08:44:29.000Z</time>
      </trkpt>
      <trkpt lat="44.66239" lon="4.79022">
        <ele>93.245452</ele>
        <time>2021-09-15T08:44:41.000Z</time>
      </trkpt>
      <trkpt lat="44.66198" lon="4.79">
        <ele>93.372166</ele>
        <time>2021-09-15T08:44:50.000Z</time>
      </trkpt>
      <trkpt lat="44.66168" lon="4.78985">
        <ele>93.46457</ele>
        <time>2021-09-15T08:44:56.000Z</time>
      </trkpt>
      <trkpt lat="44.66154" lon="4.78977">
        <ele>93.508582</ele>
        <time>2021-09-15T08:44:59.000Z</time>
      </trkpt>
      <trkpt lat="44.66144" lon="4.78972">
        <ele>93.54141</ele>
        <time>2021-09-15T08:45:01.000Z</time>
      </trkpt>
      <trkpt lat="44.66112" lon="4.78954">
        <ele>93.642998</ele>
        <time>2021-09-15T08:45:07.000Z</time>
      </trkpt>
      <trkpt lat="44.66059" lon="4.78925">
        <ele>93.812612</ele>
        <time>2021-09-15T08:45:17.000Z</time>
      </trkpt>
      <trkpt lat="44.66053" lon="4.78922">
        <ele>93.830358</ele>
        <time>2021-09-15T08:45:18.000Z</time>
      </trkpt>
      <trkpt lat="44.66006" lon="4.78898">
        <ele>93.979361</ele>
        <time>2021-09-15T08:45:26.000Z</time>
      </trkpt>
      <trkpt lat="44.65952" lon="4.78868">
        <ele>93.68279</ele>
        <time>2021-09-15T08:45:35.000Z</time>
      </trkpt>
      <trkpt lat="44.65899" lon="4.78841">
        <ele>93.386584</ele>
        <time>2021-09-15T08:45:44.000Z</time>
      </trkpt>
      <trkpt lat="44.65852" lon="4.78817">
        <ele>93.121538</ele>
        <time>2021-09-15T08:45:52.000Z</time>
      </trkpt>
      <trkpt lat="44.65795" lon="4.78788">
        <ele>92.833111</ele>
        <time>2021-09-15T08:46:01.000Z</time>
      </trkpt>
      <trkpt lat="44.65789" lon="4.78784">
        <ele>92.802041</ele>
        <time>2021-09-15T08:46:02.000Z</time>
      </trkpt>
      <trkpt lat="44.65732" lon="4.78755">
        <ele>92.52488</ele>
        <time>2021-09-15T08:46:11.000Z</time>
      </trkpt>
      <trkpt lat="44.65725" lon="4.78752">
        <ele>92.494348</ele>
        <time>2021-09-15T08:46:12.000Z</time>
      </trkpt>
      <trkpt lat="44.65676" lon="4.78726">
        <ele>92.254063</ele>
        <time>2021-09-15T08:46:20.000Z</time>
      </trkpt>
      <trkpt lat="44.65624" lon="4.78699">
        <ele>92.209333</ele>
        <time>2021-09-15T08:46:29.000Z</time>
      </trkpt>
      <trkpt lat="44.65618" lon="4.78696">
        <ele>92.208892</ele>
        <time>2021-09-15T08:46:30.000Z</time>
      </trkpt>
      <trkpt lat="44.6557" lon="4.78671">
        <ele>92.205303</ele>
        <time>2021-09-15T08:46:39.000Z</time>
      </trkpt>
      <trkpt lat="44.6553" lon="4.78651">
        <ele>92.202362</ele>
        <time>2021-09-15T08:46:47.000Z</time>
      </trkpt>
      <trkpt lat="44.65489" lon="4.78631">
        <ele>92.20752</ele>
        <time>2021-09-15T08:46:55.000Z</time>
      </trkpt>
      <trkpt lat="44.65437" lon="4.78606">
        <ele>92.248283</ele>
        <time>2021-09-15T08:47:04.000Z</time>
      </trkpt>
      <trkpt lat="44.65432" lon="4.78603">
        <ele>92.253064</ele>
        <time>2021-09-15T08:47:05.000Z</time>
      </trkpt>
      <trkpt lat="44.65388" lon="4.78575">
        <ele>92.288754</ele>
        <time>2021-09-15T08:47:12.000Z</time>
      </trkpt>
      <trkpt lat="44.65334" lon="4.78537">
        <ele>92.333966</ele>
        <time>2021-09-15T08:47:21.000Z</time>
      </trkpt>
      <trkpt lat="44.65304" lon="4.78508">
        <ele>92.317234</ele>
        <time>2021-09-15T08:47:27.000Z</time>
      </trkpt>
      <trkpt lat="44.65257" lon="4.78457">
        <ele>92.287196</ele>
        <time>2021-09-15T08:47:36.000Z</time>
      </trkpt>
      <trkpt lat="44.65252" lon="4.78451">
        <ele>92.283781</ele>
        <time>2021-09-15T08:47:37.000Z</time>
      </trkpt>
      <trkpt lat="44.65207" lon="4.78402">
        <ele>92.255384</ele>
        <time>2021-09-15T08:47:45.000Z</time>
      </trkpt>
      <trkpt lat="44.65164" lon="4.78355">
        <ele>92.323396</ele>
        <time>2021-09-15T08:47:53.000Z</time>
      </trkpt>
      <trkpt lat="44.65159" lon="4.7835">
        <ele>92.339259</ele>
        <time>2021-09-15T08:47:54.000Z</time>
      </trkpt>
      <trkpt lat="44.65118" lon="4.7831">
        <ele>92.458633</ele>
        <time>2021-09-15T08:48:02.000Z</time>
      </trkpt>
      <trkpt lat="44.65074" lon="4.78283">
        <ele>92.572971</ele>
        <time>2021-09-15T08:48:10.000Z</time>
      </trkpt>
      <trkpt lat="44.65032" lon="4.78268">
        <ele>92.677885</ele>
        <time>2021-09-15T08:48:18.000Z</time>
      </trkpt>
      <trkpt lat="44.64997" lon="4.78263">
        <ele>92.99025</ele>
        <time>2021-09-15T08:48:25.000Z</time>
      </trkpt>
      <trkpt lat="44.64947" lon="4.78257">
        <ele>93.42461</ele>
        <time>2021-09-15T08:48:35.000Z</time>
      </trkpt>
      <trkpt lat="44.64934" lon="4.78255">
        <ele>93.544307</ele>
        <time>2021-09-15T08:48:38.000Z</time>
      </trkpt>
      <trkpt lat="44.64926" lon="4.78253">
        <ele>93.610195</ele>
        <time>2021-09-15T08:48:41.000Z</time>
      </trkpt>
      <trkpt lat="44.64913" lon="4.78249">
        <ele>93.728956</ele>
        <time>2021-09-15T08:48:45.000Z</time>
      </trkpt>
      <trkpt lat="44.64892" lon="4.7824">
        <ele>93.917027</ele>
        <time>2021-09-15T08:48:50.000Z</time>
      </trkpt>
      <trkpt lat="44.64888" lon="4.78238">
        <ele>93.954361</ele>
        <time>2021-09-15T08:48:51.000Z</time>
      </trkpt>
      <trkpt lat="44.64858" lon="4.78222">
        <ele>94.235733</ele>
        <time>2021-09-15T08:48:58.000Z</time>
      </trkpt>
      <trkpt lat="44.64836" lon="4.7821">
        <ele>94.384688</ele>
        <time>2021-09-15T08:49:03.000Z</time>
      </trkpt>
      <trkpt lat="44.64813" lon="4.78198">
        <ele>94.532644</ele>
        <time>2021-09-15T08:49:08.000Z</time>
      </trkpt>
      <trkpt lat="44.64805" lon="4.78193">
        <ele>94.585362</ele>
        <time>2021-09-15T08:49:10.000Z</time>
      </trkpt>
      <trkpt lat="44.64801" lon="4.78191">
        <ele>94.61116</ele>
        <time>2021-09-15T08:49:11.000Z</time>
      </trkpt>
      <trkpt lat="44.64774" lon="4.78176">
        <ele>94.785628</ele>
        <time>2021-09-15T08:49:17.000Z</time>
      </trkpt>
      <trkpt lat="44.64746" lon="4.78161">
        <ele>94.965348</ele>
        <time>2021-09-15T08:49:23.000Z</time>
      </trkpt>
      <trkpt lat="44.64741" lon="4.78159">
        <ele>94.99497</ele>
        <time>2021-09-15T08:49:24.000Z</time>
      </trkpt>
      <trkpt lat="44.64731" lon="4.78153">
        <ele>95.058037</ele>
        <time>2021-09-15T08:49:26.000Z</time>
      </trkpt>
      <trkpt lat="44.6471" lon="4.78142">
        <ele>95.192534</ele>
        <time>2021-09-15T08:49:30.000Z</time>
      </trkpt>
      <trkpt lat="44.6468" lon="4.78123">
        <ele>95.364075</ele>
        <time>2021-09-15T08:49:36.000Z</time>
      </trkpt>
      <trkpt lat="44.64675" lon="4.78119">
        <ele>95.382079</ele>
        <time>2021-09-15T08:49:37.000Z</time>
      </trkpt>
      <trkpt lat="44.6464" lon="4.7809">
        <ele>95.514572</ele>
        <time>2021-09-15T08:49:44.000Z</time>
      </trkpt>
      <trkpt lat="44.64589" lon="4.78051">
        <ele>95.701746</ele>
        <time>2021-09-15T08:49:53.000Z</time>
      </trkpt>
      <trkpt lat="44.64544" lon="4.78016">
        <ele>95.868867</ele>
        <time>2021-09-15T08:50:02.000Z</time>
      </trkpt>
      <trkpt lat="44.64522" lon="4.77998">
        <ele>95.947304</ele>
        <time>2021-09-15T08:50:07.000Z</time>
      </trkpt>
      <trkpt lat="44.64501" lon="4.77979">
        <ele>96.02005</ele>
        <time>2021-09-15T08:50:12.000Z</time>
      </trkpt>
      <trkpt lat="44.64469" lon="4.77953">
        <ele>96.124771</ele>
        <time>2021-09-15T08:50:19.000Z</time>
      </trkpt>
      <trkpt lat="44.64447" lon="4.77935">
        <ele>96.199062</ele>
        <time>2021-09-15T08:50:24.000Z</time>
      </trkpt>
      <trkpt lat="44.64401" lon="4.77896">
        <ele>96.352199</ele>
        <time>2021-09-15T08:50:34.000Z</time>
      </trkpt>
      <trkpt lat="44.64373" lon="4.77873">
        <ele>96.440286</ele>
        <time>2021-09-15T08:50:40.000Z</time>
      </trkpt>
      <trkpt lat="44.64336" lon="4.77841">
        <ele>96.531955</ele>
        <time>2021-09-15T08:50:48.000Z</time>
      </trkpt>
      <trkpt lat="44.64301" lon="4.77812">
        <ele>96.615417</ele>
        <time>2021-09-15T08:50:55.000Z</time>
      </trkpt>
      <trkpt lat="44.64265" lon="4.77782">
        <ele>96.702219</ele>
        <time>2021-09-15T08:51:02.000Z</time>
      </trkpt>
      <trkpt lat="44.64235" lon="4.77757">
        <ele>96.775513</ele>
        <time>2021-09-15T08:51:08.000Z</time>
      </trkpt>
      <trkpt lat="44.64216" lon="4.77741">
        <ele>96.813623</ele>
        <time>2021-09-15T08:51:12.000Z</time>
      </trkpt>
      <trkpt lat="44.64211" lon="4.77737">
        <ele>96.819244</ele>
        <time>2021-09-15T08:51:13.000Z</time>
      </trkpt>
      <trkpt lat="44.64181" lon="4.77711">
        <ele>96.857915</ele>
        <time>2021-09-15T08:51:20.000Z</time>
      </trkpt>
      <trkpt lat="44.64156" lon="4.7769">
        <ele>96.890112</ele>
        <time>2021-09-15T08:51:26.000Z</time>
      </trkpt>
      <trkpt lat="44.64128" lon="4.77667">
        <ele>96.925253</ele>
        <time>2021-09-15T08:51:32.000Z</time>
      </trkpt>
      <trkpt lat="44.64092" lon="4.77636">
        <ele>96.971358</ele>
        <time>2021-09-15T08:51:39.000Z</time>
      </trkpt>
      <trkpt lat="44.64059" lon="4.77608">
        <ele>97.011421</ele>
        <time>2021-09-15T08:51:45.000Z</time>
      </trkpt>
      <trkpt lat="44.64038" lon="4.7759">
        <ele>97.035067</ele>
        <time>2021-09-15T08:51:49.000Z</time>
      </trkpt>
      <trkpt lat="44.64" lon="4.77557">
        <ele>97.079044</ele>
        <time>2021-09-15T08:51:56.000Z</time>
      </trkpt>
      <trkpt lat="44.63951" lon="4.77515">
        <ele>97.134527</ele>
        <time>2021-09-15T08:52:05.000Z</time>
      </trkpt>
      <trkpt lat="44.63907" lon="4.77477">
        <ele>97.153986</ele>
        <time>2021-09-15T08:52:13.000Z</time>
      </trkpt>
      <trkpt lat="44.63856" lon="4.77434">
        <ele>97.028353</ele>
        <time>2021-09-15T08:52:22.000Z</time>
      </trkpt>
      <trkpt lat="44.63851" lon="4.77429">
        <ele>97.014288</ele>
        <time>2021-09-15T08:52:23.000Z</time>
      </trkpt>
      <trkpt lat="44.6381" lon="4.77394">
        <ele>96.914029</ele>
        <time>2021-09-15T08:52:30.000Z</time>
      </trkpt>
      <trkpt lat="44.6377" lon="4.77359">
        <ele>96.814285</ele>
        <time>2021-09-15T08:52:37.000Z</time>
      </trkpt>
      <trkpt lat="44.63722" lon="4.77318">
        <ele>96.601613</ele>
        <time>2021-09-15T08:52:45.000Z</time>
      </trkpt>
      <trkpt lat="44.63698" lon="4.77298">
        <ele>96.487087</ele>
        <time>2021-09-15T08:52:49.000Z</time>
      </trkpt>
      <trkpt lat="44.63663" lon="4.77269">
        <ele>96.31715</ele>
        <time>2021-09-15T08:52:55.000Z</time>
      </trkpt>
      <trkpt lat="44.63615" lon="4.77232">
        <ele>96.094735</ele>
        <time>2021-09-15T08:53:03.000Z</time>
      </trkpt>
      <trkpt lat="44.63569" lon="4.77196">
        <ele>95.742284</ele>
        <time>2021-09-15T08:53:11.000Z</time>
      </trkpt>
      <trkpt lat="44.63528" lon="4.77164">
        <ele>95.408863</ele>
        <time>2021-09-15T08:53:18.000Z</time>
      </trkpt>
      <trkpt lat="44.63477" lon="4.77124">
        <ele>94.989624</ele>
        <time>2021-09-15T08:53:27.000Z</time>
      </trkpt>
      <trkpt lat="44.63439" lon="4.77095">
        <ele>94.691342</ele>
        <time>2021-09-15T08:53:34.000Z</time>
      </trkpt>
      <trkpt lat="44.63391" lon="4.77057">
        <ele>94.369273</ele>
        <time>2021-09-15T08:53:43.000Z</time>
      </trkpt>
      <trkpt lat="44.63385" lon="4.77053">
        <ele>94.33309</ele>
        <time>2021-09-15T08:53:44.000Z</time>
      </trkpt>
      <trkpt lat="44.63336" lon="4.77015">
        <ele>94.001103</ele>
        <time>2021-09-15T08:53:53.000Z</time>
      </trkpt>
      <trkpt lat="44.63324" lon="4.77006">
        <ele>93.923422</ele>
        <time>2021-09-15T08:53:55.000Z</time>
      </trkpt>
      <trkpt lat="44.63273" lon="4.76966">
        <ele>93.533208</ele>
        <time>2021-09-15T08:54:04.000Z</time>
      </trkpt>
      <trkpt lat="44.63223" lon="4.76928">
        <ele>93.081895</ele>
        <time>2021-09-15T08:54:12.000Z</time>
      </trkpt>
      <trkpt lat="44.63176" lon="4.76891">
        <ele>92.658894</ele>
        <time>2021-09-15T08:54:19.000Z</time>
      </trkpt>
      <trkpt lat="44.63129" lon="4.76855">
        <ele>92.249298</ele>
        <time>2021-09-15T08:54:26.000Z</time>
      </trkpt>
      <trkpt lat="44.63078" lon="4.76815">
        <ele>91.959267</ele>
        <time>2021-09-15T08:54:34.000Z</time>
      </trkpt>
      <trkpt lat="44.63031" lon="4.76778">
        <ele>91.693299</ele>
        <time>2021-09-15T08:54:42.000Z</time>
      </trkpt>
      <trkpt lat="44.62985" lon="4.76742">
        <ele>91.432589</ele>
        <time>2021-09-15T08:54:51.000Z</time>
      </trkpt>
      <trkpt lat="44.62936" lon="4.76704">
        <ele>91.340083</ele>
        <time>2021-09-15T08:55:01.000Z</time>
      </trkpt>
      <trkpt lat="44.62889" lon="4.76667">
        <ele>91.283857</ele>
        <time>2021-09-15T08:55:10.000Z</time>
      </trkpt>
      <trkpt lat="44.62838" lon="4.76626">
        <ele>91.221734</ele>
        <time>2021-09-15T08:55:20.000Z</time>
      </trkpt>
      <trkpt lat="44.62833" lon="4.76622">
        <ele>91.215874</ele>
        <time>2021-09-15T08:55:21.000Z</time>
      </trkpt>
      <trkpt lat="44.62789" lon="4.76587">
        <ele>91.154294</ele>
        <time>2021-09-15T08:55:30.000Z</time>
      </trkpt>
      <trkpt lat="44.62738" lon="4.76547">
        <ele>91.079444</ele>
        <time>2021-09-15T08:55:40.000Z</time>
      </trkpt>
      <trkpt lat="44.62694" lon="4.76512">
        <ele>91.015069</ele>
        <time>2021-09-15T08:55:48.000Z</time>
      </trkpt>
      <trkpt lat="44.62648" lon="4.76476">
        <ele>90.987235</ele>
        <time>2021-09-15T08:55:56.000Z</time>
      </trkpt>
      <trkpt lat="44.62595" lon="4.76434">
        <ele>91.040828</ele>
        <time>2021-09-15T08:56:05.000Z</time>
      </trkpt>
      <trkpt lat="44.62584" lon="4.76425">
        <ele>91.052672</ele>
        <time>2021-09-15T08:56:07.000Z</time>
      </trkpt>
      <trkpt lat="44.62533" lon="4.76385">
        <ele>91.104867</ele>
        <time>2021-09-15T08:56:16.000Z</time>
      </trkpt>
      <trkpt lat="44.62527" lon="4.76381">
        <ele>91.110478</ele>
        <time>2021-09-15T08:56:17.000Z</time>
      </trkpt>
      <trkpt lat="44.62479" lon="4.76343">
        <ele>91.124835</ele>
        <time>2021-09-15T08:56:26.000Z</time>
      </trkpt>
      <trkpt lat="44.62474" lon="4.76338">
        <ele>91.12361</ele>
        <time>2021-09-15T08:56:27.000Z</time>
      </trkpt>
      <trkpt lat="44.62425" lon="4.763">
        <ele>91.112512</ele>
        <time>2021-09-15T08:56:36.000Z</time>
      </trkpt>
      <trkpt lat="44.6242" lon="4.76295">
        <ele>91.111255</ele>
        <time>2021-09-15T08:56:37.000Z</time>
      </trkpt>
      <trkpt lat="44.6237" lon="4.76256">
        <ele>91.099887</ele>
        <time>2021-09-15T08:56:46.000Z</time>
      </trkpt>
      <trkpt lat="44.62325" lon="4.7622">
        <ele>90.973088</ele>
        <time>2021-09-15T08:56:54.000Z</time>
      </trkpt>
      <trkpt lat="44.62292" lon="4.76193">
        <ele>90.814088</ele>
        <time>2021-09-15T08:57:00.000Z</time>
      </trkpt>
      <trkpt lat="44.62263" lon="4.76171">
        <ele>90.678607</ele>
        <time>2021-09-15T08:57:05.000Z</time>
      </trkpt>
      <trkpt lat="44.62258" lon="4.76166">
        <ele>90.651395</ele>
        <time>2021-09-15T08:57:06.000Z</time>
      </trkpt>
      <trkpt lat="44.62209" lon="4.76128">
        <ele>90.419548</ele>
        <time>2021-09-15T08:57:14.000Z</time>
      </trkpt>
      <trkpt lat="44.62158" lon="4.76087">
        <ele>90.043553</ele>
        <time>2021-09-15T08:57:22.000Z</time>
      </trkpt>
      <trkpt lat="44.62132" lon="4.76067">
        <ele>89.823584</ele>
        <time>2021-09-15T08:57:26.000Z</time>
      </trkpt>
      <trkpt lat="44.62085" lon="4.76032">
        <ele>89.435305</ele>
        <time>2021-09-15T08:57:33.000Z</time>
      </trkpt>
      <trkpt lat="44.6204" lon="4.76">
        <ele>89.065835</ele>
        <time>2021-09-15T08:57:40.000Z</time>
      </trkpt>
      <trkpt lat="44.61997" lon="4.75974">
        <ele>88.842312</ele>
        <time>2021-09-15T08:57:47.000Z</time>
      </trkpt>
      <trkpt lat="44.61949" lon="4.75945">
        <ele>88.610599</ele>
        <time>2021-09-15T08:57:55.000Z</time>
      </trkpt>
      <trkpt lat="44.61898" lon="4.75917">
        <ele>88.365297</ele>
        <time>2021-09-15T08:58:04.000Z</time>
      </trkpt>
      <trkpt lat="44.61849" lon="4.75889">
        <ele>88.15257</ele>
        <time>2021-09-15T08:58:13.000Z</time>
      </trkpt>
      <trkpt lat="44.61804" lon="4.75862">
        <ele>87.981067</ele>
        <time>2021-09-15T08:58:21.000Z</time>
      </trkpt>
      <trkpt lat="44.61751" lon="4.75834">
        <ele>87.785761</ele>
        <time>2021-09-15T08:58:30.000Z</time>
      </trkpt>
      <trkpt lat="44.61705" lon="4.7581">
        <ele>87.61497</ele>
        <time>2021-09-15T08:58:38.000Z</time>
      </trkpt>
      <trkpt lat="44.61658" lon="4.75787">
        <ele>87.404314</ele>
        <time>2021-09-15T08:58:46.000Z</time>
      </trkpt>
      <trkpt lat="44.61602" lon="4.75763">
        <ele>87.156671</ele>
        <time>2021-09-15T08:58:55.000Z</time>
      </trkpt>
      <trkpt lat="44.61589" lon="4.75758">
        <ele>87.100363</ele>
        <time>2021-09-15T08:58:57.000Z</time>
      </trkpt>
      <trkpt lat="44.61545" lon="4.75741">
        <ele>86.907505</ele>
        <time>2021-09-15T08:59:04.000Z</time>
      </trkpt>
      <trkpt lat="44.61489" lon="4.75721">
        <ele>86.585009</ele>
        <time>2021-09-15T08:59:12.000Z</time>
      </trkpt>
      <trkpt lat="44.61437" lon="4.757">
        <ele>86.253051</ele>
        <time>2021-09-15T08:59:19.000Z</time>
      </trkpt>
      <trkpt lat="44.61415" lon="4.75692">
        <ele>86.114991</ele>
        <time>2021-09-15T08:59:22.000Z</time>
      </trkpt>
      <trkpt lat="44.61356" lon="4.75667">
        <ele>85.737768</ele>
        <time>2021-09-15T08:59:30.000Z</time>
      </trkpt>
      <trkpt lat="44.61341" lon="4.75661">
        <ele>85.675138</ele>
        <time>2021-09-15T08:59:32.000Z</time>
      </trkpt>
      <trkpt lat="44.61288" lon="4.75639">
        <ele>85.458616</ele>
        <time>2021-09-15T08:59:39.000Z</time>
      </trkpt>
      <trkpt lat="44.61266" lon="4.7563">
        <ele>85.36977</ele>
        <time>2021-09-15T08:59:42.000Z</time>
      </trkpt>
      <trkpt lat="44.61213" lon="4.75609">
        <ele>85.151976</ele>
        <time>2021-09-15T08:59:50.000Z</time>
      </trkpt>
      <trkpt lat="44.61206" lon="4.75607">
        <ele>85.125364</ele>
        <time>2021-09-15T08:59:51.000Z</time>
      </trkpt>
      <trkpt lat="44.61169" lon="4.75595">
        <ele>84.994151</ele>
        <time>2021-09-15T08:59:57.000Z</time>
      </trkpt>
      <trkpt lat="44.61113" lon="4.75579">
        <ele>84.846467</ele>
        <time>2021-09-15T09:00:06.000Z</time>
      </trkpt>
      <trkpt lat="44.61054" lon="4.75563">
        <ele>84.690905</ele>
        <time>2021-09-15T09:00:15.000Z</time>
      </trkpt>
      <trkpt lat="44.60999" lon="4.75549">
        <ele>84.517842</ele>
        <time>2021-09-15T09:00:23.000Z</time>
      </trkpt>
      <trkpt lat="44.60945" lon="4.75535">
        <ele>84.157427</ele>
        <time>2021-09-15T09:00:31.000Z</time>
      </trkpt>
      <trkpt lat="44.60932" lon="4.75531">
        <ele>84.06785</ele>
        <time>2021-09-15T09:00:33.000Z</time>
      </trkpt>
      <trkpt lat="44.60885" lon="4.75519">
        <ele>83.755668</ele>
        <time>2021-09-15T09:00:40.000Z</time>
      </trkpt>
      <trkpt lat="44.60832" lon="4.75505">
        <ele>83.399947</ele>
        <time>2021-09-15T09:00:48.000Z</time>
      </trkpt>
      <trkpt lat="44.60806" lon="4.75498">
        <ele>83.272173</ele>
        <time>2021-09-15T09:00:52.000Z</time>
      </trkpt>
      <trkpt lat="44.60754" lon="4.75484">
        <ele>83.030533</ele>
        <time>2021-09-15T09:01:00.000Z</time>
      </trkpt>
      <trkpt lat="44.60704" lon="4.75471">
        <ele>82.798208</ele>
        <time>2021-09-15T09:01:08.000Z</time>
      </trkpt>
      <trkpt lat="44.60672" lon="4.75463">
        <ele>82.649384</ele>
        <time>2021-09-15T09:01:14.000Z</time>
      </trkpt>
      <trkpt lat="44.60647" lon="4.75456">
        <ele>82.525405</ele>
        <time>2021-09-15T09:01:19.000Z</time>
      </trkpt>
      <trkpt lat="44.60641" lon="4.75455">
        <ele>82.495975</ele>
        <time>2021-09-15T09:01:20.000Z</time>
      </trkpt>
      <trkpt lat="44.60596" lon="4.75443">
        <ele>82.243332</ele>
        <time>2021-09-15T09:01:28.000Z</time>
      </trkpt>
      <trkpt lat="44.60549" lon="4.75431">
        <ele>81.985183</ele>
        <time>2021-09-15T09:01:36.000Z</time>
      </trkpt>
      <trkpt lat="44.60519" lon="4.75423">
        <ele>81.816933</ele>
        <time>2021-09-15T09:01:41.000Z</time>
      </trkpt>
      <trkpt lat="44.60513" lon="4.75421">
        <ele>81.78246</ele>
        <time>2021-09-15T09:01:42.000Z</time>
      </trkpt>
      <trkpt lat="44.60463" lon="4.75408">
        <ele>81.551533</ele>
        <time>2021-09-15T09:01:50.000Z</time>
      </trkpt>
      <trkpt lat="44.60415" lon="4.75395">
        <ele>81.451165</ele>
        <time>2021-09-15T09:01:58.000Z</time>
      </trkpt>
      <trkpt lat="44.60362" lon="4.75382">
        <ele>81.342094</ele>
        <time>2021-09-15T09:02:07.000Z</time>
      </trkpt>
      <trkpt lat="44.60316" lon="4.7537">
        <ele>81.245648</ele>
        <time>2021-09-15T09:02:15.000Z</time>
      </trkpt>
      <trkpt lat="44.60273" lon="4.75358">
        <ele>81.269196</ele>
        <time>2021-09-15T09:02:23.000Z</time>
      </trkpt>
      <trkpt lat="44.60252" lon="4.75353">
        <ele>81.315167</ele>
        <time>2021-09-15T09:02:27.000Z</time>
      </trkpt>
      <trkpt lat="44.60246" lon="4.75351">
        <ele>81.327499</ele>
        <time>2021-09-15T09:02:28.000Z</time>
      </trkpt>
      <trkpt lat="44.60199" lon="4.75339">
        <ele>81.430922</ele>
        <time>2021-09-15T09:02:36.000Z</time>
      </trkpt>
      <trkpt lat="44.60142" lon="4.75324">
        <ele>81.556558</ele>
        <time>2021-09-15T09:02:45.000Z</time>
      </trkpt>
      <trkpt lat="44.60091" lon="4.75311">
        <ele>81.657558</ele>
        <time>2021-09-15T09:02:53.000Z</time>
      </trkpt>
      <trkpt lat="44.60043" lon="4.75298">
        <ele>81.744454</ele>
        <time>2021-09-15T09:03:01.000Z</time>
      </trkpt>
      <trkpt lat="44.59989" lon="4.75284">
        <ele>81.843121</ele>
        <time>2021-09-15T09:03:10.000Z</time>
      </trkpt>
      <trkpt lat="44.59976" lon="4.75281">
        <ele>81.866028</ele>
        <time>2021-09-15T09:03:12.000Z</time>
      </trkpt>
      <trkpt lat="44.59923" lon="4.75267">
        <ele>81.836843</ele>
        <time>2021-09-15T09:03:20.000Z</time>
      </trkpt>
      <trkpt lat="44.59916" lon="4.75266">
        <ele>81.810966</ele>
        <time>2021-09-15T09:03:21.000Z</time>
      </trkpt>
      <trkpt lat="44.5986" lon="4.75254">
        <ele>81.604595</ele>
        <time>2021-09-15T09:03:29.000Z</time>
      </trkpt>
      <trkpt lat="44.59853" lon="4.75252">
        <ele>81.578357</ele>
        <time>2021-09-15T09:03:30.000Z</time>
      </trkpt>
      <trkpt lat="44.59812" lon="4.75243">
        <ele>81.427831</ele>
        <time>2021-09-15T09:03:36.000Z</time>
      </trkpt>
      <trkpt lat="44.5976" lon="4.75232">
        <ele>81.221232</ele>
        <time>2021-09-15T09:03:44.000Z</time>
      </trkpt>
      <trkpt lat="44.59716" lon="4.75222">
        <ele>80.991007</ele>
        <time>2021-09-15T09:03:51.000Z</time>
      </trkpt>
      <trkpt lat="44.5971" lon="4.75221">
        <ele>80.960429</ele>
        <time>2021-09-15T09:03:52.000Z</time>
      </trkpt>
      <trkpt lat="44.59693" lon="4.75217">
        <ele>80.86875</ele>
        <time>2021-09-15T09:03:55.000Z</time>
      </trkpt>
      <trkpt lat="44.59649" lon="4.75208">
        <ele>80.635896</ele>
        <time>2021-09-15T09:04:03.000Z</time>
      </trkpt>
      <trkpt lat="44.59611" lon="4.75199">
        <ele>80.434649</ele>
        <time>2021-09-15T09:04:10.000Z</time>
      </trkpt>
      <trkpt lat="44.59562" lon="4.75189">
        <ele>80.371635</ele>
        <time>2021-09-15T09:04:19.000Z</time>
      </trkpt>
      <trkpt lat="44.59521" lon="4.7519">
        <ele>80.436154</ele>
        <time>2021-09-15T09:04:27.000Z</time>
      </trkpt>
      <trkpt lat="44.5948" lon="4.75191">
        <ele>80.499127</ele>
        <time>2021-09-15T09:04:35.000Z</time>
      </trkpt>
      <trkpt lat="44.59436" lon="4.75192">
        <ele>80.567843</ele>
        <time>2021-09-15T09:04:44.000Z</time>
      </trkpt>
      <trkpt lat="44.59408" lon="4.75193">
        <ele>80.634157</ele>
        <time>2021-09-15T09:04:50.000Z</time>
      </trkpt>
      <trkpt lat="44.59379" lon="4.75194">
        <ele>80.912218</ele>
        <time>2021-09-15T09:04:57.000Z</time>
      </trkpt>
      <trkpt lat="44.59352" lon="4.75194">
        <ele>81.182449</ele>
        <time>2021-09-15T09:05:06.000Z</time>
      </trkpt>
      <trkpt lat="44.59327" lon="4.75194">
        <ele>81.426325</ele>
        <time>2021-09-15T09:05:14.000Z</time>
      </trkpt>
      <trkpt lat="44.59332" lon="4.75194">
        <ele>81.477165</ele>
        <time>2021-09-15T09:05:50.000Z</time>
      </trkpt>
      <trkpt lat="44.59342" lon="4.75195">
        <ele>81.57775</ele>
        <time>2021-09-15T09:05:55.000Z</time>
      </trkpt>
      <trkpt lat="44.59356" lon="4.75188">
        <ele>81.722473</ele>
        <time>2021-09-15T09:06:01.000Z</time>
      </trkpt>
      <trkpt lat="44.59355" lon="4.7518">
        <ele>81.77926</ele>
        <time>2021-09-15T09:06:05.000Z</time>
      </trkpt>
      <trkpt lat="44.59351" lon="4.7515">
        <ele>81.99561</ele>
        <time>2021-09-15T09:06:11.000Z</time>
      </trkpt>
      <trkpt lat="44.59347" lon="4.75127">
        <ele>82.156534</ele>
        <time>2021-09-15T09:06:17.000Z</time>
      </trkpt>
      <trkpt lat="44.59344" lon="4.75106">
        <ele>82.306982</ele>
        <time>2021-09-15T09:06:21.000Z</time>
      </trkpt>
      <trkpt lat="44.59343" lon="4.7509">
        <ele>82.3471</ele>
        <time>2021-09-15T09:06:23.000Z</time>
      </trkpt>
      <trkpt lat="44.59341" lon="4.75074">
        <ele>82.319225</ele>
        <time>2021-09-15T09:06:25.000Z</time>
      </trkpt>
      <trkpt lat="44.59339" lon="4.7505">
        <ele>82.278266</ele>
        <time>2021-09-15T09:06:29.000Z</time>
      </trkpt>
      <trkpt lat="44.59337" lon="4.75034">
        <ele>82.25039</ele>
        <time>2021-09-15T09:06:32.000Z</time>
      </trkpt>
      <trkpt lat="44.59337" lon="4.75028">
        <ele>82.239937</ele>
        <time>2021-09-15T09:06:33.000Z</time>
      </trkpt>
      <trkpt lat="44.59336" lon="4.75022">
        <ele>82.228595</ele>
        <time>2021-09-15T09:06:34.000Z</time>
      </trkpt>
      <trkpt lat="44.59331" lon="4.74992">
        <ele>82.176388</ele>
        <time>2021-09-15T09:06:38.000Z</time>
      </trkpt>
      <trkpt lat="44.59318" lon="4.74941">
        <ele>82.082604</ele>
        <time>2021-09-15T09:06:44.000Z</time>
      </trkpt>
      <trkpt lat="44.59295" lon="4.74872">
        <ele>81.951626</ele>
        <time>2021-09-15T09:06:52.000Z</time>
      </trkpt>
      <trkpt lat="44.59271" lon="4.74798">
        <ele>81.741649</ele>
        <time>2021-09-15T09:07:00.000Z</time>
      </trkpt>
      <trkpt lat="44.59249" lon="4.74733">
        <ele>81.546282</ele>
        <time>2021-09-15T09:07:07.000Z</time>
      </trkpt>
      <trkpt lat="44.59239" lon="4.74718">
        <ele>81.488556</ele>
        <time>2021-09-15T09:07:09.000Z</time>
      </trkpt>
      <trkpt lat="44.59223" lon="4.74699">
        <ele>81.408275</ele>
        <time>2021-09-15T09:07:12.000Z</time>
      </trkpt>
      <trkpt lat="44.59192" lon="4.74659">
        <ele>81.244529</ele>
        <time>2021-09-15T09:07:18.000Z</time>
      </trkpt>
      <trkpt lat="44.59148" lon="4.74604">
        <ele>80.708174</ele>
        <time>2021-09-15T09:07:26.000Z</time>
      </trkpt>
      <trkpt lat="44.5911" lon="4.74541">
        <ele>80.157117</ele>
        <time>2021-09-15T09:07:34.000Z</time>
      </trkpt>
      <trkpt lat="44.59105" lon="4.74533">
        <ele>80.088643</ele>
        <time>2021-09-15T09:07:35.000Z</time>
      </trkpt>
      <trkpt lat="44.59067" lon="4.74469">
        <ele>79.527235</ele>
        <time>2021-09-15T09:07:43.000Z</time>
      </trkpt>
      <trkpt lat="44.59057" lon="4.74453">
        <ele>79.39957</ele>
        <time>2021-09-15T09:07:45.000Z</time>
      </trkpt>
      <trkpt lat="44.59026" lon="4.74401">
        <ele>78.971897</ele>
        <time>2021-09-15T09:07:52.000Z</time>
      </trkpt>
      <trkpt lat="44.58992" lon="4.74345">
        <ele>78.520371</ele>
        <time>2021-09-15T09:07:59.000Z</time>
      </trkpt>
      <trkpt lat="44.58955" lon="4.74282">
        <ele>78.01161</ele>
        <time>2021-09-15T09:08:07.000Z</time>
      </trkpt>
      <trkpt lat="44.58918" lon="4.7422">
        <ele>77.622263</ele>
        <time>2021-09-15T09:08:15.000Z</time>
      </trkpt>
      <trkpt lat="44.58884" lon="4.74167">
        <ele>77.283286</ele>
        <time>2021-09-15T09:08:22.000Z</time>
      </trkpt>
      <trkpt lat="44.58845" lon="4.7413">
        <ele>76.972107</ele>
        <time>2021-09-15T09:08:29.000Z</time>
      </trkpt>
      <trkpt lat="44.58807" lon="4.7409">
        <ele>76.76787</ele>
        <time>2021-09-15T09:08:36.000Z</time>
      </trkpt>
      <trkpt lat="44.58761" lon="4.74042">
        <ele>76.719947</ele>
        <time>2021-09-15T09:08:45.000Z</time>
      </trkpt>
      <trkpt lat="44.58737" lon="4.74008">
        <ele>76.691547</ele>
        <time>2021-09-15T09:08:50.000Z</time>
      </trkpt>
      <trkpt lat="44.58711" lon="4.73964">
        <ele>76.657455</ele>
        <time>2021-09-15T09:08:56.000Z</time>
      </trkpt>
      <trkpt lat="44.58691" lon="4.7392">
        <ele>76.6511</ele>
        <time>2021-09-15T09:09:02.000Z</time>
      </trkpt>
      <trkpt lat="44.58677" lon="4.73883">
        <ele>76.718802</ele>
        <time>2021-09-15T09:09:07.000Z</time>
      </trkpt>
      <trkpt lat="44.58656" lon="4.73829">
        <ele>76.816177</ele>
        <time>2021-09-15T09:09:14.000Z</time>
      </trkpt>
      <trkpt lat="44.5865" lon="4.73813">
        <ele>76.84557</ele>
        <time>2021-09-15T09:09:16.000Z</time>
      </trkpt>
      <trkpt lat="44.58641" lon="4.73789">
        <ele>76.888166</ele>
        <time>2021-09-15T09:09:19.000Z</time>
      </trkpt>
      <trkpt lat="44.5862" lon="4.73735">
        <ele>76.986981</ele>
        <time>2021-09-15T09:09:26.000Z</time>
      </trkpt>
      <trkpt lat="44.58593" lon="4.73662">
        <ele>77.226474</ele>
        <time>2021-09-15T09:09:35.000Z</time>
      </trkpt>
      <trkpt lat="44.5859" lon="4.73654">
        <ele>77.260523</ele>
        <time>2021-09-15T09:09:36.000Z</time>
      </trkpt>
      <trkpt lat="44.58568" lon="4.73595">
        <ele>77.50926</ele>
        <time>2021-09-15T09:09:43.000Z</time>
      </trkpt>
      <trkpt lat="44.5855" lon="4.73544">
        <ele>77.720151</ele>
        <time>2021-09-15T09:09:49.000Z</time>
      </trkpt>
      <trkpt lat="44.58533" lon="4.73483">
        <ele>77.966692</ele>
        <time>2021-09-15T09:09:56.000Z</time>
      </trkpt>
      <trkpt lat="44.5852" lon="4.73422">
        <ele>78.222089</ele>
        <time>2021-09-15T09:10:03.000Z</time>
      </trkpt>
      <trkpt lat="44.58512" lon="4.73376">
        <ele>78.409914</ele>
        <time>2021-09-15T09:10:08.000Z</time>
      </trkpt>
      <trkpt lat="44.58502" lon="4.7332">
        <ele>78.642449</ele>
        <time>2021-09-15T09:10:14.000Z</time>
      </trkpt>
      <trkpt lat="44.58488" lon="4.73271">
        <ele>78.855587</ele>
        <time>2021-09-15T09:10:20.000Z</time>
      </trkpt>
      <trkpt lat="44.58466" lon="4.73198">
        <ele>79.005473</ele>
        <time>2021-09-15T09:10:29.000Z</time>
      </trkpt>
      <trkpt lat="44.58452" lon="4.73151">
        <ele>79.020444</ele>
        <time>2021-09-15T09:10:35.000Z</time>
      </trkpt>
      <trkpt lat="44.58438" lon="4.73101">
        <ele>79.036061</ele>
        <time>2021-09-15T09:10:41.000Z</time>
      </trkpt>
      <trkpt lat="44.58418" lon="4.73035">
        <ele>79.056941</ele>
        <time>2021-09-15T09:10:49.000Z</time>
      </trkpt>
      <trkpt lat="44.58406" lon="4.72975">
        <ele>78.963979</ele>
        <time>2021-09-15T09:10:56.000Z</time>
      </trkpt>
      <trkpt lat="44.58404" lon="4.72967">
        <ele>78.934541</ele>
        <time>2021-09-15T09:10:57.000Z</time>
      </trkpt>
      <trkpt lat="44.58384" lon="4.72894">
        <ele>78.674444</ele>
        <time>2021-09-15T09:11:06.000Z</time>
      </trkpt>
      <trkpt lat="44.58382" lon="4.72886">
        <ele>78.646103</ele>
        <time>2021-09-15T09:11:07.000Z</time>
      </trkpt>
      <trkpt lat="44.58364" lon="4.72818">
        <ele>78.406204</ele>
        <time>2021-09-15T09:11:16.000Z</time>
      </trkpt>
      <trkpt lat="44.58358" lon="4.72796">
        <ele>78.328848</ele>
        <time>2021-09-15T09:11:20.000Z</time>
      </trkpt>
      <trkpt lat="44.58355" lon="4.72785">
        <ele>78.287041</ele>
        <time>2021-09-15T09:11:22.000Z</time>
      </trkpt>
      <trkpt lat="44.58349" lon="4.72774">
        <ele>78.239682</ele>
        <time>2021-09-15T09:11:24.000Z</time>
      </trkpt>
      <trkpt lat="44.58339" lon="4.72767">
        <ele>78.158247</ele>
        <time>2021-09-15T09:11:26.000Z</time>
      </trkpt>
      <trkpt lat="44.58314" lon="4.72758">
        <ele>77.91861</ele>
        <time>2021-09-15T09:11:31.000Z</time>
      </trkpt>
      <trkpt lat="44.58289" lon="4.72749">
        <ele>77.686433</ele>
        <time>2021-09-15T09:11:37.000Z</time>
      </trkpt>
      <trkpt lat="44.58278" lon="4.72745">
        <ele>77.583598</ele>
        <time>2021-09-15T09:11:40.000Z</time>
      </trkpt>
      <trkpt lat="44.58276" lon="4.72744">
        <ele>77.559325</ele>
        <time>2021-09-15T09:11:41.000Z</time>
      </trkpt>
      <trkpt lat="44.58271" lon="4.72742">
        <ele>77.520198</ele>
        <time>2021-09-15T09:11:43.000Z</time>
      </trkpt>
      <trkpt lat="44.58267" lon="4.72743">
        <ele>77.482107</ele>
        <time>2021-09-15T09:11:45.000Z</time>
      </trkpt>
      <trkpt lat="44.58264" lon="4.72744">
        <ele>77.449171</ele>
        <time>2021-09-15T09:11:48.000Z</time>
      </trkpt>
      <trkpt lat="44.58263" lon="4.72745">
        <ele>77.438474</ele>
        <time>2021-09-15T09:11:49.000Z</time>
      </trkpt>
      <trkpt lat="44.58256" lon="4.72748">
        <ele>77.375373</ele>
        <time>2021-09-15T09:11:52.000Z</time>
      </trkpt>
      <trkpt lat="44.58241" lon="4.72739">
        <ele>77.2202</ele>
        <time>2021-09-15T09:11:56.000Z</time>
      </trkpt>
      <trkpt lat="44.58237" lon="4.72737">
        <ele>77.181925</ele>
        <time>2021-09-15T09:11:57.000Z</time>
      </trkpt>
      <trkpt lat="44.58223" lon="4.72729">
        <ele>77.046104</ele>
        <time>2021-09-15T09:12:00.000Z</time>
      </trkpt>
      <trkpt lat="44.58218" lon="4.72726">
        <ele>77.002046</ele>
        <time>2021-09-15T09:12:01.000Z</time>
      </trkpt>
      <trkpt lat="44.58187" lon="4.72706">
        <ele>76.694187</ele>
        <time>2021-09-15T09:12:08.000Z</time>
      </trkpt>
      <trkpt lat="44.58159" lon="4.72682">
        <ele>76.531227</ele>
        <time>2021-09-15T09:12:14.000Z</time>
      </trkpt>
      <trkpt lat="44.58137" lon="4.72647">
        <ele>76.434303</ele>
        <time>2021-09-15T09:12:20.000Z</time>
      </trkpt>
      <trkpt lat="44.58117" lon="4.72619">
        <ele>76.351736</ele>
        <time>2021-09-15T09:12:25.000Z</time>
      </trkpt>
      <trkpt lat="44.58115" lon="4.72612">
        <ele>76.334339</ele>
        <time>2021-09-15T09:12:26.000Z</time>
      </trkpt>
      <trkpt lat="44.58114" lon="4.72604">
        <ele>76.317422</ele>
        <time>2021-09-15T09:12:27.000Z</time>
      </trkpt>
      <trkpt lat="44.58114" lon="4.72587">
        <ele>76.28191</ele>
        <time>2021-09-15T09:12:29.000Z</time>
      </trkpt>
      <trkpt lat="44.58116" lon="4.72536">
        <ele>76.176478</ele>
        <time>2021-09-15T09:12:35.000Z</time>
      </trkpt>
      <trkpt lat="44.58115" lon="4.72528">
        <ele>76.15936</ele>
        <time>2021-09-15T09:12:36.000Z</time>
      </trkpt>
      <trkpt lat="44.58114" lon="4.7246">
        <ele>75.99211</ele>
        <time>2021-09-15T09:12:44.000Z</time>
      </trkpt>
      <trkpt lat="44.58113" lon="4.72418">
        <ele>75.863909</ele>
        <time>2021-09-15T09:12:50.000Z</time>
      </trkpt>
      <trkpt lat="44.58111" lon="4.72358">
        <ele>75.677615</ele>
        <time>2021-09-15T09:12:58.000Z</time>
      </trkpt>
      <trkpt lat="44.58111" lon="4.72351">
        <ele>75.656914</ele>
        <time>2021-09-15T09:12:59.000Z</time>
      </trkpt>
      <trkpt lat="44.5811" lon="4.72335">
        <ele>75.605213</ele>
        <time>2021-09-15T09:13:01.000Z</time>
      </trkpt>
      <trkpt lat="44.58106" lon="4.72333">
        <ele>75.586572</ele>
        <time>2021-09-15T09:13:02.000Z</time>
      </trkpt>
      <trkpt lat="44.58101" lon="4.72332">
        <ele>75.564836</ele>
        <time>2021-09-15T09:13:03.000Z</time>
      </trkpt>
      <trkpt lat="44.58091" lon="4.72329">
        <ele>75.51996</ele>
        <time>2021-09-15T09:13:05.000Z</time>
      </trkpt>
      <trkpt lat="44.58075" lon="4.72324">
        <ele>75.44807</ele>
        <time>2021-09-15T09:13:08.000Z</time>
      </trkpt>
      <trkpt lat="44.58064" lon="4.7232">
        <ele>75.399608</ele>
        <time>2021-09-15T09:13:10.000Z</time>
      </trkpt>
      <trkpt lat="44.58058" lon="4.72319">
        <ele>75.376112</ele>
        <time>2021-09-15T09:13:11.000Z</time>
      </trkpt>
      <trkpt lat="44.58026" lon="4.72309">
        <ele>75.262855</ele>
        <time>2021-09-15T09:13:17.000Z</time>
      </trkpt>
      <trkpt lat="44.57987" lon="4.72296">
        <ele>75.180865</ele>
        <time>2021-09-15T09:13:24.000Z</time>
      </trkpt>
      <trkpt lat="44.57954" lon="4.72286">
        <ele>75.112329</ele>
        <time>2021-09-15T09:13:30.000Z</time>
      </trkpt>
      <trkpt lat="44.57949" lon="4.72283">
        <ele>75.100806</ele>
        <time>2021-09-15T09:13:31.000Z</time>
      </trkpt>
      <trkpt lat="44.57936" lon="4.72272">
        <ele>75.070061</ele>
        <time>2021-09-15T09:13:34.000Z</time>
      </trkpt>
      <trkpt lat="44.5791" lon="4.72251">
        <ele>75.008068</ele>
        <time>2021-09-15T09:13:40.000Z</time>
      </trkpt>
      <trkpt lat="44.57897" lon="4.72241">
        <ele>74.976597</ele>
        <time>2021-09-15T09:13:43.000Z</time>
      </trkpt>
      <trkpt lat="44.57882" lon="4.72232">
        <ele>74.943698</ele>
        <time>2021-09-15T09:13:46.000Z</time>
      </trkpt>
      <trkpt lat="44.57867" lon="4.72224">
        <ele>74.923592</ele>
        <time>2021-09-15T09:13:49.000Z</time>
      </trkpt>
      <trkpt lat="44.57853" lon="4.72218">
        <ele>74.93244</ele>
        <time>2021-09-15T09:13:52.000Z</time>
      </trkpt>
      <trkpt lat="44.57811" lon="4.72198">
        <ele>74.957554</ele>
        <time>2021-09-15T09:14:00.000Z</time>
      </trkpt>
      <trkpt lat="44.57768" lon="4.72176">
        <ele>74.983767</ele>
        <time>2021-09-15T09:14:08.000Z</time>
      </trkpt>
      <trkpt lat="44.57736" lon="4.72157">
        <ele>75.004164</ele>
        <time>2021-09-15T09:14:14.000Z</time>
      </trkpt>
      <trkpt lat="44.57724" lon="4.72149">
        <ele>75.011749</ele>
        <time>2021-09-15T09:14:16.000Z</time>
      </trkpt>
      <trkpt lat="44.57708" lon="4.72138">
        <ele>75.02203</ele>
        <time>2021-09-15T09:14:19.000Z</time>
      </trkpt>
      <trkpt lat="44.57675" lon="4.72115">
        <ele>75.535484</ele>
        <time>2021-09-15T09:14:25.000Z</time>
      </trkpt>
      <trkpt lat="44.5765" lon="4.72101">
        <ele>75.961925</ele>
        <time>2021-09-15T09:14:30.000Z</time>
      </trkpt>
      <trkpt lat="44.57627" lon="4.72089">
        <ele>76.36146</ele>
        <time>2021-09-15T09:14:36.000Z</time>
      </trkpt>
      <trkpt lat="44.5761" lon="4.7208">
        <ele>76.645856</ele>
        <time>2021-09-15T09:14:41.000Z</time>
      </trkpt>
      <trkpt lat="44.57595" lon="4.7206">
        <ele>76.97913</ele>
        <time>2021-09-15T09:14:47.000Z</time>
      </trkpt>
      <trkpt lat="44.57585" lon="4.72036">
        <ele>77.294988</ele>
        <time>2021-09-15T09:14:52.000Z</time>
      </trkpt>
      <trkpt lat="44.57589" lon="4.72016">
        <ele>77.531298</ele>
        <time>2021-09-15T09:14:57.000Z</time>
      </trkpt>
      <trkpt lat="44.57596" lon="4.7199">
        <ele>77.84975</ele>
        <time>2021-09-15T09:15:04.000Z</time>
      </trkpt>
      <trkpt lat="44.576" lon="4.71972">
        <ele>78.202593</ele>
        <time>2021-09-15T09:15:09.000Z</time>
      </trkpt>
      <trkpt lat="44.57607" lon="4.71935">
        <ele>78.980696</ele>
        <time>2021-09-15T09:15:17.000Z</time>
      </trkpt>
      <trkpt lat="44.57611" lon="4.71903">
        <ele>79.644768</ele>
        <time>2021-09-15T09:15:24.000Z</time>
      </trkpt>
      <trkpt lat="44.57615" lon="4.71858">
        <ele>80.579074</ele>
        <time>2021-09-15T09:15:34.000Z</time>
      </trkpt>
      <trkpt lat="44.57617" lon="4.71825">
        <ele>81.244826</ele>
        <time>2021-09-15T09:15:41.000Z</time>
      </trkpt>
      <trkpt lat="44.57619" lon="4.71786">
        <ele>82.051862</ele>
        <time>2021-09-15T09:15:49.000Z</time>
      </trkpt>
      <trkpt lat="44.57621" lon="4.71755">
        <ele>82.680769</ele>
        <time>2021-09-15T09:15:55.000Z</time>
      </trkpt>
      <trkpt lat="44.57623" lon="4.71716">
        <ele>83.030231</ele>
        <time>2021-09-15T09:16:01.000Z</time>
      </trkpt>
      <trkpt lat="44.57626" lon="4.71667">
        <ele>83.014158</ele>
        <time>2021-09-15T09:16:07.000Z</time>
      </trkpt>
      <trkpt lat="44.57631" lon="4.71598">
        <ele>82.991611</ele>
        <time>2021-09-15T09:16:14.000Z</time>
      </trkpt>
      <trkpt lat="44.57641" lon="4.71547">
        <ele>82.974176</ele>
        <time>2021-09-15T09:16:19.000Z</time>
      </trkpt>
      <trkpt lat="44.57652" lon="4.71509">
        <ele>82.960553</ele>
        <time>2021-09-15T09:16:23.000Z</time>
      </trkpt>
      <trkpt lat="44.57655" lon="4.71501">
        <ele>82.957849</ele>
        <time>2021-09-15T09:16:24.000Z</time>
      </trkpt>
      <trkpt lat="44.57654" lon="4.71488">
        <ele>82.932843</ele>
        <time>2021-09-15T09:16:25.000Z</time>
      </trkpt>
      <trkpt lat="44.57646" lon="4.7148">
        <ele>82.849126</ele>
        <time>2021-09-15T09:16:27.000Z</time>
      </trkpt>
      <trkpt lat="44.57636" lon="4.71479">
        <ele>82.764731</ele>
        <time>2021-09-15T09:16:29.000Z</time>
      </trkpt>
      <trkpt lat="44.57625" lon="4.71478">
        <ele>82.670218</ele>
        <time>2021-09-15T09:16:32.000Z</time>
      </trkpt>
      <trkpt lat="44.57624" lon="4.71482">
        <ele>82.643385</ele>
        <time>2021-09-15T09:16:34.000Z</time>
      </trkpt>
      <trkpt lat="44.57623" lon="4.71486">
        <ele>82.616735</ele>
        <time>2021-09-15T09:16:35.000Z</time>
      </trkpt>
      <trkpt lat="44.57619" lon="4.71509">
        <ele>82.476714</ele>
        <time>2021-09-15T09:16:40.000Z</time>
      </trkpt>
      <trkpt lat="44.57618" lon="4.71518">
        <ele>82.419947</ele>
        <time>2021-09-15T09:16:44.000Z</time>
      </trkpt>
      <trkpt lat="44.57618" lon="4.71522">
        <ele>82.399999</ele>
        <time>2021-09-15T09:16:46.000Z</time>
      </trkpt>
      <trkpt lat="44.57617" lon="4.71527">
        <ele>82.364966</ele>
        <time>2021-09-15T09:16:48.000Z</time>
      </trkpt>
      <trkpt lat="44.57615" lon="4.71553">
        <ele>82.209155</ele>
        <time>2021-09-15T09:16:53.000Z</time>
      </trkpt>
      <trkpt lat="44.57612" lon="4.71587">
        <ele>82.006898</ele>
        <time>2021-09-15T09:16:59.000Z</time>
      </trkpt>
      <trkpt lat="44.5761" lon="4.71618">
        <ele>81.820321</ele>
        <time>2021-09-15T09:17:05.000Z</time>
      </trkpt>
      <trkpt lat="44.57607" lon="4.71651">
        <ele>81.619255</ele>
        <time>2021-09-15T09:17:11.000Z</time>
      </trkpt>
      <trkpt lat="44.57604" lon="4.71659">
        <ele>81.566879</ele>
        <time>2021-09-15T09:17:12.000Z</time>
      </trkpt>
      <trkpt lat="44.57596" lon="4.71658">
        <ele>81.501783</ele>
        <time>2021-09-15T09:17:14.000Z</time>
      </trkpt>
      <trkpt lat="44.57567" lon="4.71654">
        <ele>81.358362</ele>
        <time>2021-09-15T09:17:20.000Z</time>
      </trkpt>
      <trkpt lat="44.57531" lon="4.71649">
        <ele>81.221845</ele>
        <time>2021-09-15T09:17:27.000Z</time>
      </trkpt>
      <trkpt lat="44.57498" lon="4.71645">
        <ele>81.097384</ele>
        <time>2021-09-15T09:17:33.000Z</time>
      </trkpt>
      <trkpt lat="44.57471" lon="4.71641">
        <ele>80.994699</ele>
        <time>2021-09-15T09:17:38.000Z</time>
      </trkpt>
      <trkpt lat="44.57465" lon="4.71641">
        <ele>80.974763</ele>
        <time>2021-09-15T09:17:39.000Z</time>
      </trkpt>
      <trkpt lat="44.57425" lon="4.71636">
        <ele>80.821716</ele>
        <time>2021-09-15T09:17:46.000Z</time>
      </trkpt>
      <trkpt lat="44.57389" lon="4.71631">
        <ele>80.741811</ele>
        <time>2021-09-15T09:17:52.000Z</time>
      </trkpt>
      <trkpt lat="44.57342" lon="4.71625">
        <ele>80.686429</ele>
        <time>2021-09-15T09:18:00.000Z</time>
      </trkpt>
      <trkpt lat="44.57298" lon="4.71619">
        <ele>80.634605</ele>
        <time>2021-09-15T09:18:08.000Z</time>
      </trkpt>
      <trkpt lat="44.5725" lon="4.71613">
        <ele>80.577318</ele>
        <time>2021-09-15T09:18:17.000Z</time>
      </trkpt>
      <trkpt lat="44.57214" lon="4.71608">
        <ele>80.542221</ele>
        <time>2021-09-15T09:18:24.000Z</time>
      </trkpt>
      <trkpt lat="44.57167" lon="4.71602">
        <ele>80.508704</ele>
        <time>2021-09-15T09:18:32.000Z</time>
      </trkpt>
      <trkpt lat="44.57128" lon="4.71596">
        <ele>80.480169</ele>
        <time>2021-09-15T09:18:39.000Z</time>
      </trkpt>
      <trkpt lat="44.57094" lon="4.71592">
        <ele>80.45575</ele>
        <time>2021-09-15T09:18:45.000Z</time>
      </trkpt>
      <trkpt lat="44.57057" lon="4.71587">
        <ele>80.429096</ele>
        <time>2021-09-15T09:18:52.000Z</time>
      </trkpt>
      <trkpt lat="44.57019" lon="4.71582">
        <ele>80.36573</ele>
        <time>2021-09-15T09:18:59.000Z</time>
      </trkpt>
      <trkpt lat="44.56983" lon="4.71577">
        <ele>80.299089</ele>
        <time>2021-09-15T09:19:06.000Z</time>
      </trkpt>
      <trkpt lat="44.56944" lon="4.71573">
        <ele>80.228358</ele>
        <time>2021-09-15T09:19:14.000Z</time>
      </trkpt>
      <trkpt lat="44.56922" lon="4.71571">
        <ele>80.187446</ele>
        <time>2021-09-15T09:19:19.000Z</time>
      </trkpt>
      <trkpt lat="44.56913" lon="4.7157">
        <ele>80.172108</ele>
        <time>2021-09-15T09:19:21.000Z</time>
      </trkpt>
      <trkpt lat="44.56884" lon="4.71566">
        <ele>80.118086</ele>
        <time>2021-09-15T09:19:28.000Z</time>
      </trkpt>
      <trkpt lat="44.56852" lon="4.71562">
        <ele>80.084933</ele>
        <time>2021-09-15T09:19:35.000Z</time>
      </trkpt>
      <trkpt lat="44.56812" lon="4.71556">
        <ele>80.060979</ele>
        <time>2021-09-15T09:19:43.000Z</time>
      </trkpt>
      <trkpt lat="44.56776" lon="4.71551">
        <ele>80.039652</ele>
        <time>2021-09-15T09:19:50.000Z</time>
      </trkpt>
      <trkpt lat="44.56737" lon="4.71545">
        <ele>80.016234</ele>
        <time>2021-09-15T09:19:58.000Z</time>
      </trkpt>
      <trkpt lat="44.567" lon="4.7154">
        <ele>79.99413</ele>
        <time>2021-09-15T09:20:06.000Z</time>
      </trkpt>
      <trkpt lat="44.56673" lon="4.71536">
        <ele>80.003603</ele>
        <time>2021-09-15T09:20:12.000Z</time>
      </trkpt>
      <trkpt lat="44.56664" lon="4.71535">
        <ele>80.008918</ele>
        <time>2021-09-15T09:20:14.000Z</time>
      </trkpt>
      <trkpt lat="44.56638" lon="4.71531">
        <ele>80.025675</ele>
        <time>2021-09-15T09:20:20.000Z</time>
      </trkpt>
      <trkpt lat="44.566" lon="4.71527">
        <ele>80.048842</ele>
        <time>2021-09-15T09:20:28.000Z</time>
      </trkpt>
      <trkpt lat="44.56569" lon="4.71523">
        <ele>80.068449</ele>
        <time>2021-09-15T09:20:35.000Z</time>
      </trkpt>
      <trkpt lat="44.56533" lon="4.71518">
        <ele>80.09074</ele>
        <time>2021-09-15T09:20:43.000Z</time>
      </trkpt>
      <trkpt lat="44.565" lon="4.71514">
        <ele>80.110308</ele>
        <time>2021-09-15T09:20:50.000Z</time>
      </trkpt>
      <trkpt lat="44.56466" lon="4.7151">
        <ele>80.128925</ele>
        <time>2021-09-15T09:20:57.000Z</time>
      </trkpt>
      <trkpt lat="44.56444" lon="4.71508">
        <ele>80.141137</ele>
        <time>2021-09-15T09:21:02.000Z</time>
      </trkpt>
      <trkpt lat="44.56435" lon="4.71506">
        <ele>80.14612</ele>
        <time>2021-09-15T09:21:04.000Z</time>
      </trkpt>
      <trkpt lat="44.56392" lon="4.71501">
        <ele>80.169448</ele>
        <time>2021-09-15T09:21:12.000Z</time>
      </trkpt>
      <trkpt lat="44.56346" lon="4.71496">
        <ele>80.194584</ele>
        <time>2021-09-15T09:21:20.000Z</time>
      </trkpt>
      <trkpt lat="44.56299" lon="4.7149">
        <ele>80.260768</ele>
        <time>2021-09-15T09:21:28.000Z</time>
      </trkpt>
      <trkpt lat="44.56253" lon="4.71484">
        <ele>80.336134</ele>
        <time>2021-09-15T09:21:36.000Z</time>
      </trkpt>
      <trkpt lat="44.56201" lon="4.71478">
        <ele>80.422046</ele>
        <time>2021-09-15T09:21:45.000Z</time>
      </trkpt>
      <trkpt lat="44.56142" lon="4.71471">
        <ele>80.498981</ele>
        <time>2021-09-15T09:21:55.000Z</time>
      </trkpt>
      <trkpt lat="44.56089" lon="4.71464">
        <ele>80.512389</ele>
        <time>2021-09-15T09:22:04.000Z</time>
      </trkpt>
      <trkpt lat="44.56042" lon="4.71459">
        <ele>80.524137</ele>
        <time>2021-09-15T09:22:12.000Z</time>
      </trkpt>
      <trkpt lat="44.55984" lon="4.71452">
        <ele>80.538803</ele>
        <time>2021-09-15T09:22:22.000Z</time>
      </trkpt>
      <trkpt lat="44.55926" lon="4.71445">
        <ele>80.538751</ele>
        <time>2021-09-15T09:22:32.000Z</time>
      </trkpt>
      <trkpt lat="44.55874" lon="4.71438">
        <ele>80.53692</ele>
        <time>2021-09-15T09:22:41.000Z</time>
      </trkpt>
      <trkpt lat="44.55832" lon="4.71439">
        <ele>80.535455</ele>
        <time>2021-09-15T09:22:48.000Z</time>
      </trkpt>
      <trkpt lat="44.55772" lon="4.71439">
        <ele>80.551482</ele>
        <time>2021-09-15T09:22:58.000Z</time>
      </trkpt>
      <trkpt lat="44.55717" lon="4.7144">
        <ele>80.588676</ele>
        <time>2021-09-15T09:23:07.000Z</time>
      </trkpt>
      <trkpt lat="44.55669" lon="4.71443">
        <ele>80.621165</ele>
        <time>2021-09-15T09:23:15.000Z</time>
      </trkpt>
      <trkpt lat="44.55615" lon="4.7145">
        <ele>80.657978</ele>
        <time>2021-09-15T09:23:24.000Z</time>
      </trkpt>
      <trkpt lat="44.55603" lon="4.71451">
        <ele>80.665462</ele>
        <time>2021-09-15T09:23:26.000Z</time>
      </trkpt>
      <trkpt lat="44.55554" lon="4.71457">
        <ele>80.695399</ele>
        <time>2021-09-15T09:23:34.000Z</time>
      </trkpt>
      <trkpt lat="44.55514" lon="4.71464">
        <ele>80.720633</ele>
        <time>2021-09-15T09:23:41.000Z</time>
      </trkpt>
      <trkpt lat="44.5548" lon="4.71469">
        <ele>80.741518</ele>
        <time>2021-09-15T09:23:47.000Z</time>
      </trkpt>
      <trkpt lat="44.55474" lon="4.71468">
        <ele>80.74504</ele>
        <time>2021-09-15T09:23:48.000Z</time>
      </trkpt>
      <trkpt lat="44.55469" lon="4.71467">
        <ele>80.748139</ele>
        <time>2021-09-15T09:23:49.000Z</time>
      </trkpt>
      <trkpt lat="44.55465" lon="4.71463">
        <ele>80.751367</ele>
        <time>2021-09-15T09:23:50.000Z</time>
      </trkpt>
      <trkpt lat="44.55462" lon="4.71456">
        <ele>80.754892</ele>
        <time>2021-09-15T09:23:51.000Z</time>
      </trkpt>
      <trkpt lat="44.55461" lon="4.71437">
        <ele>80.762907</ele>
        <time>2021-09-15T09:23:53.000Z</time>
      </trkpt>
      <trkpt lat="44.55455" lon="4.71388">
        <ele>80.394177</ele>
        <time>2021-09-15T09:23:58.000Z</time>
      </trkpt>
      <trkpt lat="44.5545" lon="4.71368">
        <ele>80.19986</ele>
        <time>2021-09-15T09:24:00.000Z</time>
      </trkpt>
      <trkpt lat="44.55447" lon="4.71357">
        <ele>80.096481</ele>
        <time>2021-09-15T09:24:01.000Z</time>
      </trkpt>
      <trkpt lat="44.55434" lon="4.71313">
        <ele>79.66055</ele>
        <time>2021-09-15T09:24:05.000Z</time>
      </trkpt>
      <trkpt lat="44.55431" lon="4.71303">
        <ele>79.557848</ele>
        <time>2021-09-15T09:24:06.000Z</time>
      </trkpt>
      <trkpt lat="44.55425" lon="4.71294">
        <ele>79.440228</ele>
        <time>2021-09-15T09:24:07.000Z</time>
      </trkpt>
      <trkpt lat="44.55416" lon="4.71288">
        <ele>79.322037</ele>
        <time>2021-09-15T09:24:08.000Z</time>
      </trkpt>
      <trkpt lat="44.55409" lon="4.7129">
        <ele>79.225952</ele>
        <time>2021-09-15T09:24:09.000Z</time>
      </trkpt>
      <trkpt lat="44.55405" lon="4.71292">
        <ele>79.170249</ele>
        <time>2021-09-15T09:24:10.000Z</time>
      </trkpt>
      <trkpt lat="44.55405" lon="4.713">
        <ele>79.099649</ele>
        <time>2021-09-15T09:24:11.000Z</time>
      </trkpt>
      <trkpt lat="44.55408" lon="4.71308">
        <ele>79.012908</ele>
        <time>2021-09-15T09:24:12.000Z</time>
      </trkpt>
      <trkpt lat="44.55411" lon="4.7132">
        <ele>78.893961</ele>
        <time>2021-09-15T09:24:14.000Z</time>
      </trkpt>
      <trkpt lat="44.55414" lon="4.71332">
        <ele>78.775761</ele>
        <time>2021-09-15T09:24:16.000Z</time>
      </trkpt>
      <trkpt lat="44.55414" lon="4.71338">
        <ele>78.718934</ele>
        <time>2021-09-15T09:24:17.000Z</time>
      </trkpt>
      <trkpt lat="44.55413" lon="4.71345">
        <ele>78.661717</ele>
        <time>2021-09-15T09:24:18.000Z</time>
      </trkpt>
      <trkpt lat="44.55407" lon="4.71356">
        <ele>78.535816</ele>
        <time>2021-09-15T09:24:20.000Z</time>
      </trkpt>
      <trkpt lat="44.55396" lon="4.7136">
        <ele>78.36078</ele>
        <time>2021-09-15T09:24:22.000Z</time>
      </trkpt>
      <trkpt lat="44.55391" lon="4.71361">
        <ele>78.253545</ele>
        <time>2021-09-15T09:24:23.000Z</time>
      </trkpt>
      <trkpt lat="44.5538" lon="4.71363">
        <ele>78.04279</ele>
        <time>2021-09-15T09:24:25.000Z</time>
      </trkpt>
      <trkpt lat="44.55358" lon="4.71366">
        <ele>77.62901</ele>
        <time>2021-09-15T09:24:29.000Z</time>
      </trkpt>
      <trkpt lat="44.55347" lon="4.71368">
        <ele>77.423826</ele>
        <time>2021-09-15T09:24:31.000Z</time>
      </trkpt>
      <trkpt lat="44.55336" lon="4.71371">
        <ele>77.212744</ele>
        <time>2021-09-15T09:24:33.000Z</time>
      </trkpt>
      <trkpt lat="44.5533" lon="4.71373">
        <ele>77.105629</ele>
        <time>2021-09-15T09:24:34.000Z</time>
      </trkpt>
      <trkpt lat="44.55288" lon="4.71389">
        <ele>76.296003</ele>
        <time>2021-09-15T09:24:41.000Z</time>
      </trkpt>
      <trkpt lat="44.55241" lon="4.71408">
        <ele>75.383393</ele>
        <time>2021-09-15T09:24:49.000Z</time>
      </trkpt>
      <trkpt lat="44.55186" lon="4.7143">
        <ele>74.71734</ele>
        <time>2021-09-15T09:24:58.000Z</time>
      </trkpt>
      <trkpt lat="44.55145" lon="4.71444">
        <ele>74.339518</ele>
        <time>2021-09-15T09:25:05.000Z</time>
      </trkpt>
      <trkpt lat="44.55103" lon="4.71457">
        <ele>73.96409</ele>
        <time>2021-09-15T09:25:12.000Z</time>
      </trkpt>
      <trkpt lat="44.55057" lon="4.71473">
        <ele>73.537772</ele>
        <time>2021-09-15T09:25:20.000Z</time>
      </trkpt>
      <trkpt lat="44.55047" lon="4.71482">
        <ele>73.485113</ele>
        <time>2021-09-15T09:25:22.000Z</time>
      </trkpt>
      <trkpt lat="44.55034" lon="4.71498">
        <ele>73.464919</ele>
        <time>2021-09-15T09:25:25.000Z</time>
      </trkpt>
      <trkpt lat="44.55008" lon="4.71541">
        <ele>73.418117</ele>
        <time>2021-09-15T09:25:33.000Z</time>
      </trkpt>
      <trkpt lat="44.55001" lon="4.7155">
        <ele>73.406796</ele>
        <time>2021-09-15T09:25:35.000Z</time>
      </trkpt>
      <trkpt lat="44.5499" lon="4.71564">
        <ele>73.389501</ele>
        <time>2021-09-15T09:25:38.000Z</time>
      </trkpt>
      <trkpt lat="44.54985" lon="4.71569">
        <ele>73.382807</ele>
        <time>2021-09-15T09:25:39.000Z</time>
      </trkpt>
      <trkpt lat="44.54976" lon="4.71574">
        <ele>73.370536</ele>
        <time>2021-09-15T09:25:41.000Z</time>
      </trkpt>
      <trkpt lat="44.54965" lon="4.7158">
        <ele>73.357521</ele>
        <time>2021-09-15T09:25:43.000Z</time>
      </trkpt>
      <trkpt lat="44.54934" lon="4.71597">
        <ele>73.317952</ele>
        <time>2021-09-15T09:25:49.000Z</time>
      </trkpt>
      <trkpt lat="44.54908" lon="4.7161">
        <ele>73.286159</ele>
        <time>2021-09-15T09:25:54.000Z</time>
      </trkpt>
      <trkpt lat="44.54905" lon="4.71617">
        <ele>73.283708</ele>
        <time>2021-09-15T09:25:55.000Z</time>
      </trkpt>
      <trkpt lat="44.54898" lon="4.71628">
        <ele>73.286528</ele>
        <time>2021-09-15T09:25:57.000Z</time>
      </trkpt>
      <trkpt lat="44.54891" lon="4.71638">
        <ele>73.28932</ele>
        <time>2021-09-15T09:25:59.000Z</time>
      </trkpt>
      <trkpt lat="44.54887" lon="4.71643">
        <ele>73.290766</ele>
        <time>2021-09-15T09:26:00.000Z</time>
      </trkpt>
      <trkpt lat="44.54869" lon="4.71661">
        <ele>73.296968</ele>
        <time>2021-09-15T09:26:04.000Z</time>
      </trkpt>
      <trkpt lat="44.54858" lon="4.71667">
        <ele>73.300181</ele>
        <time>2021-09-15T09:26:06.000Z</time>
      </trkpt>
      <trkpt lat="44.5483" lon="4.71676">
        <ele>73.308162</ele>
        <time>2021-09-15T09:26:11.000Z</time>
      </trkpt>
      <trkpt lat="44.54825" lon="4.71677">
        <ele>73.309805</ele>
        <time>2021-09-15T09:26:12.000Z</time>
      </trkpt>
      <trkpt lat="44.54771" lon="4.71674">
        <ele>73.324578</ele>
        <time>2021-09-15T09:26:21.000Z</time>
      </trkpt>
      <trkpt lat="44.54765" lon="4.71674">
        <ele>73.326219</ele>
        <time>2021-09-15T09:26:22.000Z</time>
      </trkpt>
      <trkpt lat="44.5473" lon="4.71676">
        <ele>73.304093</ele>
        <time>2021-09-15T09:26:28.000Z</time>
      </trkpt>
      <trkpt lat="44.54689" lon="4.71692">
        <ele>73.199497</ele>
        <time>2021-09-15T09:26:35.000Z</time>
      </trkpt>
      <trkpt lat="44.54679" lon="4.71697">
        <ele>73.17254</ele>
        <time>2021-09-15T09:26:37.000Z</time>
      </trkpt>
      <trkpt lat="44.54662" lon="4.71703">
        <ele>73.128974</ele>
        <time>2021-09-15T09:26:40.000Z</time>
      </trkpt>
      <trkpt lat="44.5461" lon="4.71725">
        <ele>72.995931</ele>
        <time>2021-09-15T09:26:49.000Z</time>
      </trkpt>
      <trkpt lat="44.54563" lon="4.71752">
        <ele>72.850979</ele>
        <time>2021-09-15T09:26:58.000Z</time>
      </trkpt>
      <trkpt lat="44.54519" lon="4.71778">
        <ele>72.602868</ele>
        <time>2021-09-15T09:27:06.000Z</time>
      </trkpt>
      <trkpt lat="44.54472" lon="4.71806">
        <ele>72.336703</ele>
        <time>2021-09-15T09:27:14.000Z</time>
      </trkpt>
      <trkpt lat="44.54438" lon="4.71826">
        <ele>72.143712</ele>
        <time>2021-09-15T09:27:20.000Z</time>
      </trkpt>
      <trkpt lat="44.54406" lon="4.71844">
        <ele>71.964225</ele>
        <time>2021-09-15T09:27:26.000Z</time>
      </trkpt>
      <trkpt lat="44.54355" lon="4.71874">
        <ele>71.591511</ele>
        <time>2021-09-15T09:27:35.000Z</time>
      </trkpt>
      <trkpt lat="44.54345" lon="4.7188">
        <ele>71.514381</ele>
        <time>2021-09-15T09:27:37.000Z</time>
      </trkpt>
      <trkpt lat="44.54334" lon="4.71886">
        <ele>71.429937</ele>
        <time>2021-09-15T09:27:39.000Z</time>
      </trkpt>
      <trkpt lat="44.54284" lon="4.71915">
        <ele>71.057127</ele>
        <time>2021-09-15T09:27:48.000Z</time>
      </trkpt>
      <trkpt lat="44.54278" lon="4.71919">
        <ele>71.016049</ele>
        <time>2021-09-15T09:27:49.000Z</time>
      </trkpt>
      <trkpt lat="44.54229" lon="4.71947">
        <ele>70.720288</ele>
        <time>2021-09-15T09:27:58.000Z</time>
      </trkpt>
      <trkpt lat="44.54193" lon="4.71969">
        <ele>70.746699</ele>
        <time>2021-09-15T09:28:05.000Z</time>
      </trkpt>
      <trkpt lat="44.54182" lon="4.71974">
        <ele>70.754371</ele>
        <time>2021-09-15T09:28:07.000Z</time>
      </trkpt>
      <trkpt lat="44.5416" lon="4.71986">
        <ele>70.76981</ele>
        <time>2021-09-15T09:28:11.000Z</time>
      </trkpt>
      <trkpt lat="44.54118" lon="4.7201">
        <ele>70.799935</ele>
        <time>2021-09-15T09:28:19.000Z</time>
      </trkpt>
      <trkpt lat="44.54086" lon="4.72027">
        <ele>70.822686</ele>
        <time>2021-09-15T09:28:25.000Z</time>
      </trkpt>
      <trkpt lat="44.5405" lon="4.72047">
        <ele>70.922855</ele>
        <time>2021-09-15T09:28:32.000Z</time>
      </trkpt>
      <trkpt lat="44.54019" lon="4.72066">
        <ele>71.060954</ele>
        <time>2021-09-15T09:28:38.000Z</time>
      </trkpt>
      <trkpt lat="44.53982" lon="4.72087">
        <ele>71.220942</ele>
        <time>2021-09-15T09:28:45.000Z</time>
      </trkpt>
      <trkpt lat="44.53941" lon="4.72111">
        <ele>71.39785</ele>
        <time>2021-09-15T09:28:53.000Z</time>
      </trkpt>
      <trkpt lat="44.53931" lon="4.72115">
        <ele>71.442735</ele>
        <time>2021-09-15T09:28:55.000Z</time>
      </trkpt>
      <trkpt lat="44.5392" lon="4.72115">
        <ele>71.486613</ele>
        <time>2021-09-15T09:28:57.000Z</time>
      </trkpt>
      <trkpt lat="44.53914" lon="4.72114">
        <ele>71.509462</ele>
        <time>2021-09-15T09:28:58.000Z</time>
      </trkpt>
      <trkpt lat="44.53904" lon="4.72108">
        <ele>71.552972</ele>
        <time>2021-09-15T09:29:00.000Z</time>
      </trkpt>
      <trkpt lat="44.53884" lon="4.72098">
        <ele>71.646872</ele>
        <time>2021-09-15T09:29:04.000Z</time>
      </trkpt>
      <trkpt lat="44.53853" lon="4.72085">
        <ele>71.79162</ele>
        <time>2021-09-15T09:29:11.000Z</time>
      </trkpt>
      <trkpt lat="44.53834" lon="4.72081">
        <ele>71.879516</ele>
        <time>2021-09-15T09:29:16.000Z</time>
      </trkpt>
      <trkpt lat="44.53829" lon="4.7208">
        <ele>71.897861</ele>
        <time>2021-09-15T09:29:17.000Z</time>
      </trkpt>
      <trkpt lat="44.538" lon="4.72081">
        <ele>72.029377</ele>
        <time>2021-09-15T09:29:24.000Z</time>
      </trkpt>
      <trkpt lat="44.53762" lon="4.72086">
        <ele>72.19783</ele>
        <time>2021-09-15T09:29:32.000Z</time>
      </trkpt>
      <trkpt lat="44.53748" lon="4.72088">
        <ele>72.262335</ele>
        <time>2021-09-15T09:29:35.000Z</time>
      </trkpt>
      <trkpt lat="44.53738" lon="4.72089">
        <ele>72.30802</ele>
        <time>2021-09-15T09:29:37.000Z</time>
      </trkpt>
      <trkpt lat="44.53696" lon="4.72102">
        <ele>72.426513</ele>
        <time>2021-09-15T09:29:45.000Z</time>
      </trkpt>
      <trkpt lat="44.53671" lon="4.7212">
        <ele>72.486839</ele>
        <time>2021-09-15T09:29:50.000Z</time>
      </trkpt>
      <trkpt lat="44.53666" lon="4.72125">
        <ele>72.499154</ele>
        <time>2021-09-15T09:29:51.000Z</time>
      </trkpt>
      <trkpt lat="44.53637" lon="4.72162">
        <ele>72.584564</ele>
        <time>2021-09-15T09:29:58.000Z</time>
      </trkpt>
      <trkpt lat="44.53604" lon="4.72204">
        <ele>72.679373</ele>
        <time>2021-09-15T09:30:06.000Z</time>
      </trkpt>
      <trkpt lat="44.53578" lon="4.72236">
        <ele>72.790101</ele>
        <time>2021-09-15T09:30:12.000Z</time>
      </trkpt>
      <trkpt lat="44.53563" lon="4.72255">
        <ele>73.048874</ele>
        <time>2021-09-15T09:30:16.000Z</time>
      </trkpt>
      <trkpt lat="44.53559" lon="4.7226">
        <ele>73.110322</ele>
        <time>2021-09-15T09:30:17.000Z</time>
      </trkpt>
      <trkpt lat="44.53533" lon="4.7229">
        <ele>73.532355</ele>
        <time>2021-09-15T09:30:23.000Z</time>
      </trkpt>
      <trkpt lat="44.53505" lon="4.72336">
        <ele>74.071523</ele>
        <time>2021-09-15T09:30:31.000Z</time>
      </trkpt>
      <trkpt lat="44.53496" lon="4.72354">
        <ele>74.259372</ele>
        <time>2021-09-15T09:30:34.000Z</time>
      </trkpt>
      <trkpt lat="44.53491" lon="4.72367">
        <ele>74.394547</ele>
        <time>2021-09-15T09:30:36.000Z</time>
      </trkpt>
      <trkpt lat="44.53489" lon="4.72381">
        <ele>74.516105</ele>
        <time>2021-09-15T09:30:38.000Z</time>
      </trkpt>
      <trkpt lat="44.53483" lon="4.72388">
        <ele>74.612956</ele>
        <time>2021-09-15T09:30:40.000Z</time>
      </trkpt>
      <trkpt lat="44.53476" lon="4.72391">
        <ele>74.704161</ele>
        <time>2021-09-15T09:30:42.000Z</time>
      </trkpt>
      <trkpt lat="44.53472" lon="4.72391">
        <ele>74.755121</ele>
        <time>2021-09-15T09:30:43.000Z</time>
      </trkpt>
      <trkpt lat="44.53468" lon="4.72386">
        <ele>74.820931</ele>
        <time>2021-09-15T09:30:44.000Z</time>
      </trkpt>
      <trkpt lat="44.53459" lon="4.72373">
        <ele>74.98388</ele>
        <time>2021-09-15T09:30:47.000Z</time>
      </trkpt>
      <trkpt lat="44.53437" lon="4.72341">
        <ele>75.338785</ele>
        <time>2021-09-15T09:30:55.000Z</time>
      </trkpt>
      <trkpt lat="44.53416" lon="4.72311">
        <ele>75.668665</ele>
        <time>2021-09-15T09:31:03.000Z</time>
      </trkpt>
      <trkpt lat="44.53406" lon="4.72301">
        <ele>75.805432</ele>
        <time>2021-09-15T09:31:08.000Z</time>
      </trkpt>
      <trkpt lat="44.53397" lon="4.72304">
        <ele>75.910074</ele>
        <time>2021-09-15T09:31:13.000Z</time>
      </trkpt>
      <trkpt lat="44.53392" lon="4.72305">
        <ele>75.972899</ele>
        <time>2021-09-15T09:31:15.000Z</time>
      </trkpt>
      <trkpt lat="44.53385" lon="4.72304">
        <ele>76.051702</ele>
        <time>2021-09-15T09:31:17.000Z</time>
      </trkpt>
      <trkpt lat="44.53377" lon="4.72299">
        <ele>76.144492</ele>
        <time>2021-09-15T09:31:19.000Z</time>
      </trkpt>
      <trkpt lat="44.53365" lon="4.72291">
        <ele>76.293967</ele>
        <time>2021-09-15T09:31:22.000Z</time>
      </trkpt>
      <trkpt lat="44.5336" lon="4.72291">
        <ele>76.354644</ele>
        <time>2021-09-15T09:31:23.000Z</time>
      </trkpt>
      <trkpt lat="44.53355" lon="4.72293">
        <ele>76.404566</ele>
        <time>2021-09-15T09:31:24.000Z</time>
      </trkpt>
      <trkpt lat="44.53342" lon="4.72298">
        <ele>76.55735</ele>
        <time>2021-09-15T09:31:27.000Z</time>
      </trkpt>
      <trkpt lat="44.53309" lon="4.72311">
        <ele>76.940599</ele>
        <time>2021-09-15T09:31:34.000Z</time>
      </trkpt>
      <trkpt lat="44.53262" lon="4.72329">
        <ele>77.221963</ele>
        <time>2021-09-15T09:31:43.000Z</time>
      </trkpt>
      <trkpt lat="44.53212" lon="4.72347">
        <ele>77.493472</ele>
        <time>2021-09-15T09:31:52.000Z</time>
      </trkpt>
      <trkpt lat="44.53173" lon="4.7236">
        <ele>77.704924</ele>
        <time>2021-09-15T09:31:59.000Z</time>
      </trkpt>
      <trkpt lat="44.53128" lon="4.72375">
        <ele>77.948657</ele>
        <time>2021-09-15T09:32:07.000Z</time>
      </trkpt>
      <trkpt lat="44.53078" lon="4.72391">
        <ele>78.239553</ele>
        <time>2021-09-15T09:32:16.000Z</time>
      </trkpt>
      <trkpt lat="44.53039" lon="4.72403">
        <ele>78.468317</ele>
        <time>2021-09-15T09:32:23.000Z</time>
      </trkpt>
      <trkpt lat="44.53002" lon="4.72413">
        <ele>78.689871</ele>
        <time>2021-09-15T09:32:30.000Z</time>
      </trkpt>
      <trkpt lat="44.52997" lon="4.72412">
        <ele>78.715258</ele>
        <time>2021-09-15T09:32:31.000Z</time>
      </trkpt>
      <trkpt lat="44.52993" lon="4.72412">
        <ele>78.739039</ele>
        <time>2021-09-15T09:32:32.000Z</time>
      </trkpt>
      <trkpt lat="44.52983" lon="4.7241">
        <ele>78.796571</ele>
        <time>2021-09-15T09:32:34.000Z</time>
      </trkpt>
      <trkpt lat="44.52979" lon="4.72409">
        <ele>78.823883</ele>
        <time>2021-09-15T09:32:35.000Z</time>
      </trkpt>
      <trkpt lat="44.52948" lon="4.724">
        <ele>78.997523</ele>
        <time>2021-09-15T09:32:42.000Z</time>
      </trkpt>
      <trkpt lat="44.5293" lon="4.72395">
        <ele>79.080061</ele>
        <time>2021-09-15T09:32:46.000Z</time>
      </trkpt>
      <trkpt lat="44.52916" lon="4.72391">
        <ele>79.14701</ele>
        <time>2021-09-15T09:32:49.000Z</time>
      </trkpt>
      <trkpt lat="44.52874" lon="4.72382">
        <ele>79.342754</ele>
        <time>2021-09-15T09:32:57.000Z</time>
      </trkpt>
      <trkpt lat="44.5282" lon="4.72371">
        <ele>79.595287</ele>
        <time>2021-09-15T09:33:07.000Z</time>
      </trkpt>
      <trkpt lat="44.52793" lon="4.72365">
        <ele>79.719907</ele>
        <time>2021-09-15T09:33:12.000Z</time>
      </trkpt>
      <trkpt lat="44.52777" lon="4.72362">
        <ele>79.794131</ele>
        <time>2021-09-15T09:33:15.000Z</time>
      </trkpt>
      <trkpt lat="44.52723" lon="4.72348">
        <ele>79.999038</ele>
        <time>2021-09-15T09:33:25.000Z</time>
      </trkpt>
      <trkpt lat="44.52677" lon="4.72336">
        <ele>80.173991</ele>
        <time>2021-09-15T09:33:34.000Z</time>
      </trkpt>
      <trkpt lat="44.5263" lon="4.72324">
        <ele>80.352018</ele>
        <time>2021-09-15T09:33:43.000Z</time>
      </trkpt>
      <trkpt lat="44.52583" lon="4.72312">
        <ele>80.505749</ele>
        <time>2021-09-15T09:33:52.000Z</time>
      </trkpt>
      <trkpt lat="44.52545" lon="4.72306">
        <ele>80.591032</ele>
        <time>2021-09-15T09:33:59.000Z</time>
      </trkpt>
      <trkpt lat="44.52519" lon="4.72305">
        <ele>80.64958</ele>
        <time>2021-09-15T09:34:04.000Z</time>
      </trkpt>
      <trkpt lat="44.52514" lon="4.72307">
        <ele>80.660604</ele>
        <time>2021-09-15T09:34:05.000Z</time>
      </trkpt>
      <trkpt lat="44.52484" lon="4.72325">
        <ele>80.733438</ele>
        <time>2021-09-15T09:34:11.000Z</time>
      </trkpt>
      <trkpt lat="44.52444" lon="4.72349">
        <ele>80.830986</ele>
        <time>2021-09-15T09:34:19.000Z</time>
      </trkpt>
      <trkpt lat="44.52414" lon="4.72368">
        <ele>80.754968</ele>
        <time>2021-09-15T09:34:25.000Z</time>
      </trkpt>
      <trkpt lat="44.52363" lon="4.72399">
        <ele>80.34654</ele>
        <time>2021-09-15T09:34:35.000Z</time>
      </trkpt>
      <trkpt lat="44.52317" lon="4.72421">
        <ele>79.996081</ele>
        <time>2021-09-15T09:34:43.000Z</time>
      </trkpt>
      <trkpt lat="44.52284" lon="4.72426">
        <ele>79.748418</ele>
        <time>2021-09-15T09:34:49.000Z</time>
      </trkpt>
      <trkpt lat="44.52248" lon="4.72425">
        <ele>79.362198</ele>
        <time>2021-09-15T09:34:54.000Z</time>
      </trkpt>
      <trkpt lat="44.5219" lon="4.72423">
        <ele>78.194154</ele>
        <time>2021-09-15T09:35:01.000Z</time>
      </trkpt>
      <trkpt lat="44.52182" lon="4.72423">
        <ele>78.033117</ele>
        <time>2021-09-15T09:35:02.000Z</time>
      </trkpt>
      <trkpt lat="44.52167" lon="4.72429">
        <ele>77.699691</ele>
        <time>2021-09-15T09:35:04.000Z</time>
      </trkpt>
      <trkpt lat="44.52136" lon="4.72455">
        <ele>76.96672</ele>
        <time>2021-09-15T09:35:09.000Z</time>
      </trkpt>
      <trkpt lat="44.52122" lon="4.72466">
        <ele>76.650316</ele>
        <time>2021-09-15T09:35:11.000Z</time>
      </trkpt>
      <trkpt lat="44.5211" lon="4.72479">
        <ele>76.330385</ele>
        <time>2021-09-15T09:35:13.000Z</time>
      </trkpt>
      <trkpt lat="44.52098" lon="4.72492">
        <ele>76.029564</ele>
        <time>2021-09-15T09:35:15.000Z</time>
      </trkpt>
      <trkpt lat="44.52087" lon="4.72504">
        <ele>75.793032</ele>
        <time>2021-09-15T09:35:17.000Z</time>
      </trkpt>
      <trkpt lat="44.52065" lon="4.72528">
        <ele>75.431061</ele>
        <time>2021-09-15T09:35:21.000Z</time>
      </trkpt>
      <trkpt lat="44.5206" lon="4.72533">
        <ele>75.344981</ele>
        <time>2021-09-15T09:35:22.000Z</time>
      </trkpt>
      <trkpt lat="44.52054" lon="4.72537">
        <ele>75.262335</ele>
        <time>2021-09-15T09:35:23.000Z</time>
      </trkpt>
      <trkpt lat="44.52043" lon="4.72539">
        <ele>75.115391</ele>
        <time>2021-09-15T09:35:25.000Z</time>
      </trkpt>
      <trkpt lat="44.52016" lon="4.72538">
        <ele>74.77432</ele>
        <time>2021-09-15T09:35:29.000Z</time>
      </trkpt>
      <trkpt lat="44.51967" lon="4.72537">
        <ele>74.132397</ele>
        <time>2021-09-15T09:35:37.000Z</time>
      </trkpt>
      <trkpt lat="44.51912" lon="4.72529">
        <ele>73.534149</ele>
        <time>2021-09-15T09:35:47.000Z</time>
      </trkpt>
      <trkpt lat="44.51879" lon="4.72522">
        <ele>73.466823</ele>
        <time>2021-09-15T09:35:54.000Z</time>
      </trkpt>
      <trkpt lat="44.51842" lon="4.72515">
        <ele>73.393499</ele>
        <time>2021-09-15T09:36:02.000Z</time>
      </trkpt>
      <trkpt lat="44.51808" lon="4.72508">
        <ele>73.32715</ele>
        <time>2021-09-15T09:36:09.000Z</time>
      </trkpt>
      <trkpt lat="44.51784" lon="4.72503">
        <ele>73.278026</ele>
        <time>2021-09-15T09:36:14.000Z</time>
      </trkpt>
      <trkpt lat="44.51775" lon="4.72495">
        <ele>73.256889</ele>
        <time>2021-09-15T09:36:16.000Z</time>
      </trkpt>
      <trkpt lat="44.51751" lon="4.72475">
        <ele>73.203456</ele>
        <time>2021-09-15T09:36:21.000Z</time>
      </trkpt>
      <trkpt lat="44.51746" lon="4.72473">
        <ele>73.166922</ele>
        <time>2021-09-15T09:36:22.000Z</time>
      </trkpt>
      <trkpt lat="44.51726" lon="4.72465">
        <ele>72.957901</ele>
        <time>2021-09-15T09:36:26.000Z</time>
      </trkpt>
      <trkpt lat="44.51715" lon="4.7246">
        <ele>72.852261</ele>
        <time>2021-09-15T09:36:28.000Z</time>
      </trkpt>
      <trkpt lat="44.51676" lon="4.72445">
        <ele>72.452261</ele>
        <time>2021-09-15T09:36:35.000Z</time>
      </trkpt>
      <trkpt lat="44.51659" lon="4.72438">
        <ele>72.283841</ele>
        <time>2021-09-15T09:36:38.000Z</time>
      </trkpt>
      <trkpt lat="44.51648" lon="4.72434">
        <ele>72.173125</ele>
        <time>2021-09-15T09:36:40.000Z</time>
      </trkpt>
      <trkpt lat="44.51609" lon="4.72418">
        <ele>71.770118</ele>
        <time>2021-09-15T09:36:47.000Z</time>
      </trkpt>
      <trkpt lat="44.51555" lon="4.72396">
        <ele>71.085529</ele>
        <time>2021-09-15T09:36:56.000Z</time>
      </trkpt>
      <trkpt lat="44.51543" lon="4.72391">
        <ele>70.895311</ele>
        <time>2021-09-15T09:36:58.000Z</time>
      </trkpt>
      <trkpt lat="44.51502" lon="4.72373">
        <ele>70.21194</ele>
        <time>2021-09-15T09:37:05.000Z</time>
      </trkpt>
      <trkpt lat="44.51457" lon="4.72353">
        <ele>69.454659</ele>
        <time>2021-09-15T09:37:13.000Z</time>
      </trkpt>
      <trkpt lat="44.5143" lon="4.72341">
        <ele>69.000759</ele>
        <time>2021-09-15T09:37:18.000Z</time>
      </trkpt>
      <trkpt lat="44.51424" lon="4.72339">
        <ele>68.909137</ele>
        <time>2021-09-15T09:37:19.000Z</time>
      </trkpt>
      <trkpt lat="44.5138" lon="4.72319">
        <ele>68.094924</ele>
        <time>2021-09-15T09:37:27.000Z</time>
      </trkpt>
      <trkpt lat="44.5137" lon="4.72315">
        <ele>67.890534</ele>
        <time>2021-09-15T09:37:29.000Z</time>
      </trkpt>
      <trkpt lat="44.51354" lon="4.72308">
        <ele>67.575995</ele>
        <time>2021-09-15T09:37:32.000Z</time>
      </trkpt>
      <trkpt lat="44.51337" lon="4.723">
        <ele>67.247737</ele>
        <time>2021-09-15T09:37:35.000Z</time>
      </trkpt>
      <trkpt lat="44.51326" lon="4.72295">
        <ele>67.035393</ele>
        <time>2021-09-15T09:37:37.000Z</time>
      </trkpt>
      <trkpt lat="44.51287" lon="4.72278">
        <ele>66.276682</ele>
        <time>2021-09-15T09:37:44.000Z</time>
      </trkpt>
      <trkpt lat="44.5125" lon="4.72262">
        <ele>65.547597</ele>
        <time>2021-09-15T09:37:51.000Z</time>
      </trkpt>
      <trkpt lat="44.5124" lon="4.72251">
        <ele>65.309387</ele>
        <time>2021-09-15T09:37:53.000Z</time>
      </trkpt>
      <trkpt lat="44.51237" lon="4.72237">
        <ele>65.199985</ele>
        <time>2021-09-15T09:37:55.000Z</time>
      </trkpt>
      <trkpt lat="44.51231" lon="4.72193">
        <ele>65.127909</ele>
        <time>2021-09-15T09:38:01.000Z</time>
      </trkpt>
      <trkpt lat="44.51223" lon="4.72145">
        <ele>65.048624</ele>
        <time>2021-09-15T09:38:07.000Z</time>
      </trkpt>
      <trkpt lat="44.51215" lon="4.72092">
        <ele>64.962795</ele>
        <time>2021-09-15T09:38:14.000Z</time>
      </trkpt>
      <trkpt lat="44.51213" lon="4.72079">
        <ele>64.94065</ele>
        <time>2021-09-15T09:38:16.000Z</time>
      </trkpt>
      <trkpt lat="44.51213" lon="4.72065">
        <ele>64.917916</ele>
        <time>2021-09-15T09:38:18.000Z</time>
      </trkpt>
      <trkpt lat="44.51214" lon="4.72057">
        <ele>64.904985</ele>
        <time>2021-09-15T09:38:19.000Z</time>
      </trkpt>
      <trkpt lat="44.51217" lon="4.72039">
        <ele>64.87632</ele>
        <time>2021-09-15T09:38:21.000Z</time>
      </trkpt>
      <trkpt lat="44.51215" lon="4.72025">
        <ele>64.852788</ele>
        <time>2021-09-15T09:38:23.000Z</time>
      </trkpt>
      <trkpt lat="44.51213" lon="4.72002">
        <ele>64.816428</ele>
        <time>2021-09-15T09:38:26.000Z</time>
      </trkpt>
      <trkpt lat="44.51212" lon="4.71986">
        <ele>64.847543</ele>
        <time>2021-09-15T09:38:28.000Z</time>
      </trkpt>
      <trkpt lat="44.51207" lon="4.71947">
        <ele>65.00332</ele>
        <time>2021-09-15T09:38:33.000Z</time>
      </trkpt>
      <trkpt lat="44.51206" lon="4.71939">
        <ele>65.034172</ele>
        <time>2021-09-15T09:38:34.000Z</time>
      </trkpt>
      <trkpt lat="44.51205" lon="4.71931">
        <ele>65.064646</ele>
        <time>2021-09-15T09:38:35.000Z</time>
      </trkpt>
      <trkpt lat="44.51193" lon="4.71903">
        <ele>65.188842</ele>
        <time>2021-09-15T09:38:39.000Z</time>
      </trkpt>
      <trkpt lat="44.5118" lon="4.71876">
        <ele>65.311886</ele>
        <time>2021-09-15T09:38:43.000Z</time>
      </trkpt>
      <trkpt lat="44.51168" lon="4.71861">
        <ele>65.402925</ele>
        <time>2021-09-15T09:38:46.000Z</time>
      </trkpt>
      <trkpt lat="44.51121" lon="4.71818">
        <ele>65.702142</ele>
        <time>2021-09-15T09:38:56.000Z</time>
      </trkpt>
      <trkpt lat="44.51085" lon="4.71784">
        <ele>65.925945</ele>
        <time>2021-09-15T09:39:04.000Z</time>
      </trkpt>
      <trkpt lat="44.51053" lon="4.71753">
        <ele>66.123315</ele>
        <time>2021-09-15T09:39:11.000Z</time>
      </trkpt>
      <trkpt lat="44.51023" lon="4.71721">
        <ele>66.314631</ele>
        <time>2021-09-15T09:39:18.000Z</time>
      </trkpt>
      <trkpt lat="44.5101" lon="4.71707">
        <ele>66.393575</ele>
        <time>2021-09-15T09:39:21.000Z</time>
      </trkpt>
      <trkpt lat="44.50998" lon="4.71693">
        <ele>66.474867</ele>
        <time>2021-09-15T09:39:24.000Z</time>
      </trkpt>
      <trkpt lat="44.50967" lon="4.71651">
        <ele>66.691583</ele>
        <time>2021-09-15T09:39:32.000Z</time>
      </trkpt>
      <trkpt lat="44.5096" lon="4.71641">
        <ele>66.741562</ele>
        <time>2021-09-15T09:39:34.000Z</time>
      </trkpt>
      <trkpt lat="44.50948" lon="4.71625">
        <ele>66.820177</ele>
        <time>2021-09-15T09:39:37.000Z</time>
      </trkpt>
      <trkpt lat="44.50923" lon="4.71596">
        <ele>66.976906</ele>
        <time>2021-09-15T09:39:43.000Z</time>
      </trkpt>
      <trkpt lat="44.50884" lon="4.71565">
        <ele>67.192538</ele>
        <time>2021-09-15T09:39:51.000Z</time>
      </trkpt>
      <trkpt lat="44.50865" lon="4.71552">
        <ele>67.29806</ele>
        <time>2021-09-15T09:39:55.000Z</time>
      </trkpt>
      <trkpt lat="44.50828" lon="4.71534">
        <ele>67.484866</ele>
        <time>2021-09-15T09:40:02.000Z</time>
      </trkpt>
      <trkpt lat="44.50797" lon="4.7152">
        <ele>67.629514</ele>
        <time>2021-09-15T09:40:08.000Z</time>
      </trkpt>
      <trkpt lat="44.50792" lon="4.71517">
        <ele>67.650322</ele>
        <time>2021-09-15T09:40:09.000Z</time>
      </trkpt>
      <trkpt lat="44.50771" lon="4.71507">
        <ele>67.742262</ele>
        <time>2021-09-15T09:40:13.000Z</time>
      </trkpt>
      <trkpt lat="44.50755" lon="4.71499">
        <ele>67.811652</ele>
        <time>2021-09-15T09:40:16.000Z</time>
      </trkpt>
      <trkpt lat="44.50739" lon="4.71491">
        <ele>67.883268</ele>
        <time>2021-09-15T09:40:19.000Z</time>
      </trkpt>
      <trkpt lat="44.50728" lon="4.71486">
        <ele>67.929238</ele>
        <time>2021-09-15T09:40:21.000Z</time>
      </trkpt>
      <trkpt lat="44.5072" lon="4.71476">
        <ele>67.97269</ele>
        <time>2021-09-15T09:40:23.000Z</time>
      </trkpt>
      <trkpt lat="44.50717" lon="4.7147">
        <ele>67.996565</ele>
        <time>2021-09-15T09:40:24.000Z</time>
      </trkpt>
      <trkpt lat="44.50713" lon="4.71463">
        <ele>68.020927</ele>
        <time>2021-09-15T09:40:25.000Z</time>
      </trkpt>
      <trkpt lat="44.50703" lon="4.71443">
        <ele>68.091469</ele>
        <time>2021-09-15T09:40:28.000Z</time>
      </trkpt>
      <trkpt lat="44.50682" lon="4.71385">
        <ele>68.283854</ele>
        <time>2021-09-15T09:40:36.000Z</time>
      </trkpt>
      <trkpt lat="44.50664" lon="4.71336">
        <ele>68.346877</ele>
        <time>2021-09-15T09:40:43.000Z</time>
      </trkpt>
      <trkpt lat="44.50638" lon="4.71267">
        <ele>68.428846</ele>
        <time>2021-09-15T09:40:53.000Z</time>
      </trkpt>
      <trkpt lat="44.50612" lon="4.71197">
        <ele>68.510562</ele>
        <time>2021-09-15T09:41:03.000Z</time>
      </trkpt>
      <trkpt lat="44.50609" lon="4.7119">
        <ele>68.518786</ele>
        <time>2021-09-15T09:41:04.000Z</time>
      </trkpt>
      <trkpt lat="44.50588" lon="4.71135">
        <ele>68.503784</ele>
        <time>2021-09-15T09:41:12.000Z</time>
      </trkpt>
      <trkpt lat="44.5057" lon="4.71086">
        <ele>68.399693</ele>
        <time>2021-09-15T09:41:19.000Z</time>
      </trkpt>
      <trkpt lat="44.50556" lon="4.71052">
        <ele>68.324596</ele>
        <time>2021-09-15T09:41:24.000Z</time>
      </trkpt>
      <trkpt lat="44.50551" lon="4.71038">
        <ele>68.295408</ele>
        <time>2021-09-15T09:41:26.000Z</time>
      </trkpt>
      <trkpt lat="44.50525" lon="4.70979">
        <ele>68.164618</ele>
        <time>2021-09-15T09:41:35.000Z</time>
      </trkpt>
      <trkpt lat="44.50516" lon="4.7096">
        <ele>68.120071</ele>
        <time>2021-09-15T09:41:38.000Z</time>
      </trkpt>
      <trkpt lat="44.50504" lon="4.70943">
        <ele>68.075178</ele>
        <time>2021-09-15T09:41:41.000Z</time>
      </trkpt>
      <trkpt lat="44.50484" lon="4.70893">
        <ele>67.985899</ele>
        <time>2021-09-15T09:41:48.000Z</time>
      </trkpt>
      <trkpt lat="44.50459" lon="4.7083">
        <ele>67.873081</ele>
        <time>2021-09-15T09:41:57.000Z</time>
      </trkpt>
      <trkpt lat="44.50449" lon="4.7081">
        <ele>67.835679</ele>
        <time>2021-09-15T09:42:00.000Z</time>
      </trkpt>
      <trkpt lat="44.50438" lon="4.70793">
        <ele>67.799184</ele>
        <time>2021-09-15T09:42:03.000Z</time>
      </trkpt>
      <trkpt lat="44.50435" lon="4.70787">
        <ele>67.787073</ele>
        <time>2021-09-15T09:42:04.000Z</time>
      </trkpt>
      <trkpt lat="44.50426" lon="4.70768">
        <ele>67.751673</ele>
        <time>2021-09-15T09:42:07.000Z</time>
      </trkpt>
      <trkpt lat="44.50424" lon="4.7076">
        <ele>67.738353</ele>
        <time>2021-09-15T09:42:08.000Z</time>
      </trkpt>
      <trkpt lat="44.50419" lon="4.70755">
        <ele>67.725966</ele>
        <time>2021-09-15T09:42:09.000Z</time>
      </trkpt>
      <trkpt lat="44.50411" lon="4.70745">
        <ele>67.701459</ele>
        <time>2021-09-15T09:42:11.000Z</time>
      </trkpt>
      <trkpt lat="44.50406" lon="4.70741">
        <ele>67.689164</ele>
        <time>2021-09-15T09:42:12.000Z</time>
      </trkpt>
      <trkpt lat="44.50377" lon="4.70719">
        <ele>67.743651</ele>
        <time>2021-09-15T09:42:18.000Z</time>
      </trkpt>
      <trkpt lat="44.50372" lon="4.70715">
        <ele>67.754502</ele>
        <time>2021-09-15T09:42:19.000Z</time>
      </trkpt>
      <trkpt lat="44.50367" lon="4.70716">
        <ele>67.766341</ele>
        <time>2021-09-15T09:42:20.000Z</time>
      </trkpt>
      <trkpt lat="44.50358" lon="4.70725">
        <ele>67.788573</ele>
        <time>2021-09-15T09:42:22.000Z</time>
      </trkpt>
      <trkpt lat="44.50342" lon="4.70754">
        <ele>67.841887</ele>
        <time>2021-09-15T09:42:27.000Z</time>
      </trkpt>
      <trkpt lat="44.50322" lon="4.70786">
        <ele>67.904027</ele>
        <time>2021-09-15T09:42:33.000Z</time>
      </trkpt>
      <trkpt lat="44.50315" lon="4.70796">
        <ele>67.924054</ele>
        <time>2021-09-15T09:42:35.000Z</time>
      </trkpt>
      <trkpt lat="44.50306" lon="4.70796">
        <ele>67.942608</ele>
        <time>2021-09-15T09:42:37.000Z</time>
      </trkpt>
      <trkpt lat="44.50298" lon="4.70782">
        <ele>67.969871</ele>
        <time>2021-09-15T09:42:40.000Z</time>
      </trkpt>
      <trkpt lat="44.50295" lon="4.70777">
        <ele>67.978888</ele>
        <time>2021-09-15T09:42:41.000Z</time>
      </trkpt>
      <trkpt lat="44.50292" lon="4.70772">
        <ele>67.987905</ele>
        <time>2021-09-15T09:42:42.000Z</time>
      </trkpt>
      <trkpt lat="44.50282" lon="4.70778">
        <ele>68.01151</ele>
        <time>2021-09-15T09:42:44.000Z</time>
      </trkpt>
      <trkpt lat="44.50274" lon="4.70787">
        <ele>68.031764</ele>
        <time>2021-09-15T09:42:46.000Z</time>
      </trkpt>
      <trkpt lat="44.5027" lon="4.70791">
        <ele>68.041379</ele>
        <time>2021-09-15T09:42:47.000Z</time>
      </trkpt>
      <trkpt lat="44.50266" lon="4.70795">
        <ele>68.050939</ele>
        <time>2021-09-15T09:42:48.000Z</time>
      </trkpt>
      <trkpt lat="44.50256" lon="4.70798">
        <ele>68.06811</ele>
        <time>2021-09-15T09:42:50.000Z</time>
      </trkpt>
      <trkpt lat="44.50246" lon="4.7079">
        <ele>68.085325</ele>
        <time>2021-09-15T09:42:52.000Z</time>
      </trkpt>
      <trkpt lat="44.50237" lon="4.70781">
        <ele>68.10252</ele>
        <time>2021-09-15T09:42:54.000Z</time>
      </trkpt>
      <trkpt lat="44.50219" lon="4.70764">
        <ele>68.137622</ele>
        <time>2021-09-15T09:42:58.000Z</time>
      </trkpt>
      <trkpt lat="44.50215" lon="4.70751">
        <ele>68.154023</ele>
        <time>2021-09-15T09:43:00.000Z</time>
      </trkpt>
      <trkpt lat="44.5021" lon="4.70708">
        <ele>68.202543</ele>
        <time>2021-09-15T09:43:06.000Z</time>
      </trkpt>
      <trkpt lat="44.50206" lon="4.70697">
        <ele>68.217145</ele>
        <time>2021-09-15T09:43:08.000Z</time>
      </trkpt>
      <trkpt lat="44.50201" lon="4.70686">
        <ele>68.231184</ele>
        <time>2021-09-15T09:43:10.000Z</time>
      </trkpt>
      <trkpt lat="44.5019" lon="4.70661">
        <ele>68.264719</ele>
        <time>2021-09-15T09:43:15.000Z</time>
      </trkpt>
      <trkpt lat="44.50185" lon="4.70646">
        <ele>68.283407</ele>
        <time>2021-09-15T09:43:18.000Z</time>
      </trkpt>
      <trkpt lat="44.50178" lon="4.70626">
        <ele>68.308198</ele>
        <time>2021-09-15T09:43:22.000Z</time>
      </trkpt>
      <trkpt lat="44.50173" lon="4.70616">
        <ele>68.322139</ele>
        <time>2021-09-15T09:43:24.000Z</time>
      </trkpt>
      <trkpt lat="44.50166" lon="4.70607">
        <ele>68.333698</ele>
        <time>2021-09-15T09:43:26.000Z</time>
      </trkpt>
      <trkpt lat="44.50158" lon="4.70597">
        <ele>68.329131</ele>
        <time>2021-09-15T09:43:28.000Z</time>
      </trkpt>
      <trkpt lat="44.50144" lon="4.70579">
        <ele>68.320314</ele>
        <time>2021-09-15T09:43:32.000Z</time>
      </trkpt>
      <trkpt lat="44.50138" lon="4.70567">
        <ele>68.315829</ele>
        <time>2021-09-15T09:43:34.000Z</time>
      </trkpt>
      <trkpt lat="44.50133" lon="4.70554">
        <ele>68.311225</ele>
        <time>2021-09-15T09:43:36.000Z</time>
      </trkpt>
      <trkpt lat="44.50128" lon="4.70541">
        <ele>68.30667</ele>
        <time>2021-09-15T09:43:38.000Z</time>
      </trkpt>
      <trkpt lat="44.50124" lon="4.70529">
        <ele>68.302221</ele>
        <time>2021-09-15T09:43:40.000Z</time>
      </trkpt>
      <trkpt lat="44.50117" lon="4.70512">
        <ele>68.295995</ele>
        <time>2021-09-15T09:43:43.000Z</time>
      </trkpt>
      <trkpt lat="44.50114" lon="4.70502">
        <ele>68.292437</ele>
        <time>2021-09-15T09:43:45.000Z</time>
      </trkpt>
      <trkpt lat="44.50104" lon="4.70484">
        <ele>68.285361</ele>
        <time>2021-09-15T09:43:50.000Z</time>
      </trkpt>
      <trkpt lat="44.50097" lon="4.70483">
        <ele>68.282176</ele>
        <time>2021-09-15T09:43:52.000Z</time>
      </trkpt>
      <trkpt lat="44.50095" lon="4.70486">
        <ele>68.280621</ele>
        <time>2021-09-15T09:43:53.000Z</time>
      </trkpt>
      <trkpt lat="44.50079" lon="4.70507">
        <ele>68.271174</ele>
        <time>2021-09-15T09:43:58.000Z</time>
      </trkpt>
      <trkpt lat="44.50053" lon="4.70542">
        <ele>68.254695</ele>
        <time>2021-09-15T09:44:06.000Z</time>
      </trkpt>
      <trkpt lat="44.50049" lon="4.70547">
        <ele>68.314577</ele>
        <time>2021-09-15T09:44:07.000Z</time>
      </trkpt>
      <trkpt lat="44.50033" lon="4.70569">
        <ele>68.663146</ele>
        <time>2021-09-15T09:44:12.000Z</time>
      </trkpt>
      <trkpt lat="44.50013" lon="4.70592">
        <ele>69.045745</ele>
        <time>2021-09-15T09:44:18.000Z</time>
      </trkpt>
      <trkpt lat="44.49997" lon="4.70609">
        <ele>69.36108</ele>
        <time>2021-09-15T09:44:24.000Z</time>
      </trkpt>
      <trkpt lat="44.49987" lon="4.70621">
        <ele>69.562766</ele>
        <time>2021-09-15T09:44:29.000Z</time>
      </trkpt>
      <trkpt lat="44.49984" lon="4.70634">
        <ele>69.715507</ele>
        <time>2021-09-15T09:44:34.000Z</time>
      </trkpt>
      <trkpt lat="44.49983" lon="4.70639">
        <ele>69.768715</ele>
        <time>2021-09-15T09:45:04.000Z</time>
      </trkpt>
      <trkpt lat="44.49983" lon="4.70643">
        <ele>69.808496</ele>
        <time>2021-09-15T09:45:05.000Z</time>
      </trkpt>
      <trkpt lat="44.49982" lon="4.70646">
        <ele>69.846122</ele>
        <time>2021-09-15T09:45:06.000Z</time>
      </trkpt>
      <trkpt lat="44.4998" lon="4.70649">
        <ele>69.888624</ele>
        <time>2021-09-15T09:45:07.000Z</time>
      </trkpt>
      <trkpt lat="44.49976" lon="4.70655">
        <ele>69.988603</ele>
        <time>2021-09-15T09:45:09.000Z</time>
      </trkpt>
      <trkpt lat="44.49955" lon="4.70685">
        <ele>70.442138</ele>
        <time>2021-09-15T09:45:17.000Z</time>
      </trkpt>
      <trkpt lat="44.49934" lon="4.70713">
        <ele>70.886712</ele>
        <time>2021-09-15T09:45:26.000Z</time>
      </trkpt>
      <trkpt lat="44.49915" lon="4.7074">
        <ele>71.039188</ele>
        <time>2021-09-15T09:45:32.000Z</time>
      </trkpt>
      <trkpt lat="44.49886" lon="4.7078">
        <ele>71.104943</ele>
        <time>2021-09-15T09:45:40.000Z</time>
      </trkpt>
      <trkpt lat="44.49865" lon="4.70809">
        <ele>71.151517</ele>
        <time>2021-09-15T09:45:47.000Z</time>
      </trkpt>
      <trkpt lat="44.49853" lon="4.70827">
        <ele>71.180412</ele>
        <time>2021-09-15T09:45:52.000Z</time>
      </trkpt>
      <trkpt lat="44.49838" lon="4.70847">
        <ele>71.214672</ele>
        <time>2021-09-15T09:45:57.000Z</time>
      </trkpt>
      <trkpt lat="44.49832" lon="4.70856">
        <ele>71.228605</ele>
        <time>2021-09-15T09:45:59.000Z</time>
      </trkpt>
      <trkpt lat="44.49828" lon="4.7086">
        <ele>71.236063</ele>
        <time>2021-09-15T09:46:00.000Z</time>
      </trkpt>
      <trkpt lat="44.49812" lon="4.70883">
        <ele>71.273364</ele>
        <time>2021-09-15T09:46:05.000Z</time>
      </trkpt>
      <trkpt lat="44.49811" lon="4.70885">
        <ele>71.276994</ele>
        <time>2021-09-15T09:46:11.000Z</time>
      </trkpt>
      <trkpt lat="44.49777" lon="4.70938">
        <ele>71.202636</ele>
        <time>2021-09-15T09:46:17.000Z</time>
      </trkpt>
      <trkpt lat="44.49751" lon="4.70975">
        <ele>71.106912</ele>
        <time>2021-09-15T09:46:25.000Z</time>
      </trkpt>
      <trkpt lat="44.49735" lon="4.70999">
        <ele>71.045832</ele>
        <time>2021-09-15T09:46:30.000Z</time>
      </trkpt>
      <trkpt lat="44.49732" lon="4.71004">
        <ele>71.033869</ele>
        <time>2021-09-15T09:46:31.000Z</time>
      </trkpt>
      <trkpt lat="44.49729" lon="4.71009">
        <ele>71.021735</ele>
        <time>2021-09-15T09:46:32.000Z</time>
      </trkpt>
      <trkpt lat="44.4971" lon="4.71031">
        <ele>70.958319</ele>
        <time>2021-09-15T09:46:37.000Z</time>
      </trkpt>
      <trkpt lat="44.49691" lon="4.71063">
        <ele>70.881414</ele>
        <time>2021-09-15T09:46:43.000Z</time>
      </trkpt>
      <trkpt lat="44.49687" lon="4.71066">
        <ele>70.868724</ele>
        <time>2021-09-15T09:46:44.000Z</time>
      </trkpt>
      <trkpt lat="44.49682" lon="4.71068">
        <ele>70.854669</ele>
        <time>2021-09-15T09:46:45.000Z</time>
      </trkpt>
      <trkpt lat="44.49671" lon="4.7107">
        <ele>70.822549</ele>
        <time>2021-09-15T09:46:47.000Z</time>
      </trkpt>
      <trkpt lat="44.49665" lon="4.71077">
        <ele>70.781495</ele>
        <time>2021-09-15T09:46:48.000Z</time>
      </trkpt>
      <trkpt lat="44.49665" lon="4.71083">
        <ele>70.756461</ele>
        <time>2021-09-15T09:46:49.000Z</time>
      </trkpt>
      <trkpt lat="44.49663" lon="4.71092">
        <ele>70.722063</ele>
        <time>2021-09-15T09:46:51.000Z</time>
      </trkpt>
      <trkpt lat="44.49662" lon="4.71094">
        <ele>70.710629</ele>
        <time>2021-09-15T09:46:54.000Z</time>
      </trkpt>
      <trkpt lat="44.49659" lon="4.71099">
        <ele>70.686502</ele>
        <time>2021-09-15T09:47:08.000Z</time>
      </trkpt>
      <trkpt lat="44.49656" lon="4.71104">
        <ele>70.660442</ele>
        <time>2021-09-15T09:47:10.000Z</time>
      </trkpt>
      <trkpt lat="44.49644" lon="4.71112">
        <ele>70.586207</ele>
        <time>2021-09-15T09:47:13.000Z</time>
      </trkpt>
      <trkpt lat="44.49639" lon="4.71113">
        <ele>70.559301</ele>
        <time>2021-09-15T09:47:14.000Z</time>
      </trkpt>
      <trkpt lat="44.49634" lon="4.71114">
        <ele>70.53352</ele>
        <time>2021-09-15T09:47:15.000Z</time>
      </trkpt>
      <trkpt lat="44.49626" lon="4.71115">
        <ele>70.485257</ele>
        <time>2021-09-15T09:47:17.000Z</time>
      </trkpt>
      <trkpt lat="44.49621" lon="4.71114">
        <ele>70.45899</ele>
        <time>2021-09-15T09:47:18.000Z</time>
      </trkpt>
      <trkpt lat="44.49606" lon="4.71108">
        <ele>70.373146</ele>
        <time>2021-09-15T09:47:22.000Z</time>
      </trkpt>
      <trkpt lat="44.49586" lon="4.71106">
        <ele>70.265189</ele>
        <time>2021-09-15T09:47:27.000Z</time>
      </trkpt>
      <trkpt lat="44.49555" lon="4.71109">
        <ele>70.094237</ele>
        <time>2021-09-15T09:47:33.000Z</time>
      </trkpt>
      <trkpt lat="44.4955" lon="4.71112">
        <ele>70.066009</ele>
        <time>2021-09-15T09:47:34.000Z</time>
      </trkpt>
      <trkpt lat="44.49535" lon="4.71118">
        <ele>69.98053</ele>
        <time>2021-09-15T09:47:37.000Z</time>
      </trkpt>
      <trkpt lat="44.4953" lon="4.71119">
        <ele>69.951535</ele>
        <time>2021-09-15T09:47:38.000Z</time>
      </trkpt>
      <trkpt lat="44.49484" lon="4.71122">
        <ele>69.734666</ele>
        <time>2021-09-15T09:47:46.000Z</time>
      </trkpt>
      <trkpt lat="44.49457" lon="4.71127">
        <ele>69.613335</ele>
        <time>2021-09-15T09:47:51.000Z</time>
      </trkpt>
      <trkpt lat="44.49446" lon="4.71131">
        <ele>69.564527</ele>
        <time>2021-09-15T09:47:53.000Z</time>
      </trkpt>
      <trkpt lat="44.49413" lon="4.71158">
        <ele>69.399333</ele>
        <time>2021-09-15T09:48:00.000Z</time>
      </trkpt>
      <trkpt lat="44.49402" lon="4.71159">
        <ele>69.352169</ele>
        <time>2021-09-15T09:48:02.000Z</time>
      </trkpt>
      <trkpt lat="44.49391" lon="4.71159">
        <ele>69.306833</ele>
        <time>2021-09-15T09:48:04.000Z</time>
      </trkpt>
      <trkpt lat="44.49377" lon="4.71159">
        <ele>69.245953</ele>
        <time>2021-09-15T09:48:07.000Z</time>
      </trkpt>
      <trkpt lat="44.4937" lon="4.71161">
        <ele>69.213777</ele>
        <time>2021-09-15T09:48:09.000Z</time>
      </trkpt>
      <trkpt lat="44.49362" lon="4.71164">
        <ele>69.179101</ele>
        <time>2021-09-15T09:48:11.000Z</time>
      </trkpt>
      <trkpt lat="44.49359" lon="4.71168">
        <ele>69.162058</ele>
        <time>2021-09-15T09:48:12.000Z</time>
      </trkpt>
      <trkpt lat="44.49335" lon="4.71211">
        <ele>68.995445</ele>
        <time>2021-09-15T09:48:20.000Z</time>
      </trkpt>
      <trkpt lat="44.49319" lon="4.71246">
        <ele>68.873403</ele>
        <time>2021-09-15T09:48:26.000Z</time>
      </trkpt>
      <trkpt lat="44.49317" lon="4.71251">
        <ele>68.854359</ele>
        <time>2021-09-15T09:48:27.000Z</time>
      </trkpt>
      <trkpt lat="44.49315" lon="4.71256">
        <ele>68.837496</ele>
        <time>2021-09-15T09:48:28.000Z</time>
      </trkpt>
      <trkpt lat="44.49303" lon="4.7126">
        <ele>68.787544</ele>
        <time>2021-09-15T09:48:30.000Z</time>
      </trkpt>
      <trkpt lat="44.49296" lon="4.71248">
        <ele>68.738436</ele>
        <time>2021-09-15T09:48:32.000Z</time>
      </trkpt>
      <trkpt lat="44.49292" lon="4.71242">
        <ele>68.715016</ele>
        <time>2021-09-15T09:48:33.000Z</time>
      </trkpt>
      <trkpt lat="44.49277" lon="4.71228">
        <ele>68.641281</ele>
        <time>2021-09-15T09:48:36.000Z</time>
      </trkpt>
      <trkpt lat="44.49237" lon="4.71194">
        <ele>68.443757</ele>
        <time>2021-09-15T09:48:44.000Z</time>
      </trkpt>
      <trkpt lat="44.49192" lon="4.71156">
        <ele>68.256614</ele>
        <time>2021-09-15T09:48:53.000Z</time>
      </trkpt>
      <trkpt lat="44.49187" lon="4.71152">
        <ele>68.241057</ele>
        <time>2021-09-15T09:48:54.000Z</time>
      </trkpt>
      <trkpt lat="44.49157" lon="4.71127">
        <ele>68.146377</ele>
        <time>2021-09-15T09:49:00.000Z</time>
      </trkpt>
      <trkpt lat="44.49147" lon="4.71119">
        <ele>68.115263</ele>
        <time>2021-09-15T09:49:02.000Z</time>
      </trkpt>
      <trkpt lat="44.49132" lon="4.71106">
        <ele>68.066688</ele>
        <time>2021-09-15T09:49:05.000Z</time>
      </trkpt>
      <trkpt lat="44.49092" lon="4.71072">
        <ele>67.938756</ele>
        <time>2021-09-15T09:49:13.000Z</time>
      </trkpt>
      <trkpt lat="44.49046" lon="4.71034">
        <ele>67.806549</ele>
        <time>2021-09-15T09:49:22.000Z</time>
      </trkpt>
      <trkpt lat="44.49" lon="4.70996">
        <ele>67.710075</ele>
        <time>2021-09-15T09:49:31.000Z</time>
      </trkpt>
      <trkpt lat="44.4897" lon="4.70971">
        <ele>67.646686</ele>
        <time>2021-09-15T09:49:37.000Z</time>
      </trkpt>
      <trkpt lat="44.4894" lon="4.70945">
        <ele>67.582855</ele>
        <time>2021-09-15T09:49:43.000Z</time>
      </trkpt>
      <trkpt lat="44.4891" lon="4.7092">
        <ele>67.519997</ele>
        <time>2021-09-15T09:49:49.000Z</time>
      </trkpt>
      <trkpt lat="44.48877" lon="4.70887">
        <ele>67.384739</ele>
        <time>2021-09-15T09:49:56.000Z</time>
      </trkpt>
      <trkpt lat="44.48842" lon="4.70845">
        <ele>67.209675</ele>
        <time>2021-09-15T09:50:04.000Z</time>
      </trkpt>
      <trkpt lat="44.48808" lon="4.70802">
        <ele>67.037567</ele>
        <time>2021-09-15T09:50:12.000Z</time>
      </trkpt>
      <trkpt lat="44.48781" lon="4.70763">
        <ele>66.890961</ele>
        <time>2021-09-15T09:50:19.000Z</time>
      </trkpt>
      <trkpt lat="44.48754" lon="4.70723">
        <ele>66.778937</ele>
        <time>2021-09-15T09:50:26.000Z</time>
      </trkpt>
      <trkpt lat="44.48718" lon="4.70672">
        <ele>66.669517</ele>
        <time>2021-09-15T09:50:35.000Z</time>
      </trkpt>
      <trkpt lat="44.48682" lon="4.7062">
        <ele>66.5591</ele>
        <time>2021-09-15T09:50:44.000Z</time>
      </trkpt>
      <trkpt lat="44.48647" lon="4.7057">
        <ele>66.451194</ele>
        <time>2021-09-15T09:50:53.000Z</time>
      </trkpt>
      <trkpt lat="44.48615" lon="4.70523">
        <ele>66.385692</ele>
        <time>2021-09-15T09:51:01.000Z</time>
      </trkpt>
      <trkpt lat="44.48579" lon="4.70472">
        <ele>66.317202</ele>
        <time>2021-09-15T09:51:10.000Z</time>
      </trkpt>
      <trkpt lat="44.48548" lon="4.70426">
        <ele>66.25633</ele>
        <time>2021-09-15T09:51:18.000Z</time>
      </trkpt>
      <trkpt lat="44.48516" lon="4.70381">
        <ele>66.206367</ele>
        <time>2021-09-15T09:51:26.000Z</time>
      </trkpt>
      <trkpt lat="44.48487" lon="4.70343">
        <ele>66.296159</ele>
        <time>2021-09-15T09:51:33.000Z</time>
      </trkpt>
      <trkpt lat="44.48458" lon="4.70304">
        <ele>66.38771</ele>
        <time>2021-09-15T09:51:40.000Z</time>
      </trkpt>
      <trkpt lat="44.48432" lon="4.70272">
        <ele>66.465918</ele>
        <time>2021-09-15T09:51:46.000Z</time>
      </trkpt>
      <trkpt lat="44.48428" lon="4.70266">
        <ele>66.478769</ele>
        <time>2021-09-15T09:51:47.000Z</time>
      </trkpt>
      <trkpt lat="44.48398" lon="4.70228">
        <ele>66.568729</ele>
        <time>2021-09-15T09:51:54.000Z</time>
      </trkpt>
      <trkpt lat="44.48374" lon="4.70197">
        <ele>66.60604</ele>
        <time>2021-09-15T09:52:00.000Z</time>
      </trkpt>
      <trkpt lat="44.48348" lon="4.70164">
        <ele>66.606818</ele>
        <time>2021-09-15T09:52:06.000Z</time>
      </trkpt>
      <trkpt lat="44.48317" lon="4.70129">
        <ele>66.607725</ele>
        <time>2021-09-15T09:52:13.000Z</time>
      </trkpt>
      <trkpt lat="44.48307" lon="4.70122">
        <ele>66.607976</ele>
        <time>2021-09-15T09:52:15.000Z</time>
      </trkpt>
      <trkpt lat="44.4829" lon="4.70118">
        <ele>66.608375</ele>
        <time>2021-09-15T09:52:18.000Z</time>
      </trkpt>
      <trkpt lat="44.4825" lon="4.70113">
        <ele>66.609281</ele>
        <time>2021-09-15T09:52:25.000Z</time>
      </trkpt>
      <trkpt lat="44.48239" lon="4.70117">
        <ele>66.609529</ele>
        <time>2021-09-15T09:52:27.000Z</time>
      </trkpt>
      <trkpt lat="44.4823" lon="4.70121">
        <ele>66.622306</ele>
        <time>2021-09-15T09:52:29.000Z</time>
      </trkpt>
      <trkpt lat="44.48212" lon="4.70145">
        <ele>67.015149</ele>
        <time>2021-09-15T09:52:34.000Z</time>
      </trkpt>
      <trkpt lat="44.48193" lon="4.70151">
        <ele>67.330625</ele>
        <time>2021-09-15T09:52:38.000Z</time>
      </trkpt>
      <trkpt lat="44.4818" lon="4.70156">
        <ele>67.547998</ele>
        <time>2021-09-15T09:52:41.000Z</time>
      </trkpt>
      <trkpt lat="44.48179" lon="4.70152">
        <ele>67.588006</ele>
        <time>2021-09-15T09:52:42.000Z</time>
      </trkpt>
      <trkpt lat="44.48178" lon="4.70138">
        <ele>67.747322</ele>
        <time>2021-09-15T09:52:46.000Z</time>
      </trkpt>
      <trkpt lat="44.48175" lon="4.70108">
        <ele>68.091618</ele>
        <time>2021-09-15T09:52:53.000Z</time>
      </trkpt>
      <trkpt lat="44.48173" lon="4.70078">
        <ele>68.439292</ele>
        <time>2021-09-15T09:53:00.000Z</time>
      </trkpt>
      <trkpt lat="44.48169" lon="4.70042">
        <ele>68.85327</ele>
        <time>2021-09-15T09:53:08.000Z</time>
      </trkpt>
      <trkpt lat="44.48167" lon="4.70018">
        <ele>69.120737</ele>
        <time>2021-09-15T09:53:14.000Z</time>
      </trkpt>
      <trkpt lat="44.48165" lon="4.69996">
        <ele>69.378066</ele>
        <time>2021-09-15T09:53:20.000Z</time>
      </trkpt>
      <trkpt lat="44.48162" lon="4.6996">
        <ele>69.703715</ele>
        <time>2021-09-15T09:53:28.000Z</time>
      </trkpt>
      <trkpt lat="44.48159" lon="4.69921">
        <ele>70.032503</ele>
        <time>2021-09-15T09:53:36.000Z</time>
      </trkpt>
      <trkpt lat="44.48155" lon="4.69879">
        <ele>70.393443</ele>
        <time>2021-09-15T09:53:44.000Z</time>
      </trkpt>
      <trkpt lat="44.48151" lon="4.69834">
        <ele>70.770533</ele>
        <time>2021-09-15T09:53:52.000Z</time>
      </trkpt>
      <trkpt lat="44.4815" lon="4.69816">
        <ele>70.923931</ele>
        <time>2021-09-15T09:53:55.000Z</time>
      </trkpt>
      <trkpt lat="44.48148" lon="4.69796">
        <ele>71.098486</ele>
        <time>2021-09-15T09:53:58.000Z</time>
      </trkpt>
      <trkpt lat="44.48143" lon="4.69737">
        <ele>71.586579</ele>
        <time>2021-09-15T09:54:06.000Z</time>
      </trkpt>
      <trkpt lat="44.48138" lon="4.69683">
        <ele>71.304873</ele>
        <time>2021-09-15T09:54:13.000Z</time>
      </trkpt>
      <trkpt lat="44.48137" lon="4.69675">
        <ele>71.261648</ele>
        <time>2021-09-15T09:54:14.000Z</time>
      </trkpt>
      <trkpt lat="44.48132" lon="4.6961">
        <ele>70.921218</ele>
        <time>2021-09-15T09:54:22.000Z</time>
      </trkpt>
      <trkpt lat="44.48126" lon="4.69541">
        <ele>70.556098</ele>
        <time>2021-09-15T09:54:31.000Z</time>
      </trkpt>
      <trkpt lat="44.48124" lon="4.69519">
        <ele>70.438114</ele>
        <time>2021-09-15T09:54:34.000Z</time>
      </trkpt>
      <trkpt lat="44.48122" lon="4.69497">
        <ele>70.324111</ele>
        <time>2021-09-15T09:54:37.000Z</time>
      </trkpt>
      <trkpt lat="44.48115" lon="4.69417">
        <ele>70.186025</ele>
        <time>2021-09-15T09:54:48.000Z</time>
      </trkpt>
      <trkpt lat="44.48111" lon="4.6937">
        <ele>70.129327</ele>
        <time>2021-09-15T09:54:55.000Z</time>
      </trkpt>
      <trkpt lat="44.4811" lon="4.69357">
        <ele>70.112779</ele>
        <time>2021-09-15T09:54:57.000Z</time>
      </trkpt>
      <trkpt lat="44.48109" lon="4.69343">
        <ele>70.096471</ele>
        <time>2021-09-15T09:54:59.000Z</time>
      </trkpt>
      <trkpt lat="44.48108" lon="4.69337">
        <ele>70.088437</ele>
        <time>2021-09-15T09:55:00.000Z</time>
      </trkpt>
      <trkpt lat="44.48107" lon="4.69323">
        <ele>70.072389</ele>
        <time>2021-09-15T09:55:02.000Z</time>
      </trkpt>
      <trkpt lat="44.48105" lon="4.69304">
        <ele>70.048526</ele>
        <time>2021-09-15T09:55:05.000Z</time>
      </trkpt>
      <trkpt lat="44.48104" lon="4.69284">
        <ele>70.024803</ele>
        <time>2021-09-15T09:55:08.000Z</time>
      </trkpt>
      <trkpt lat="44.48101" lon="4.69272">
        <ele>70.009563</ele>
        <time>2021-09-15T09:55:10.000Z</time>
      </trkpt>
      <trkpt lat="44.48099" lon="4.69267">
        <ele>70.002227</ele>
        <time>2021-09-15T09:55:11.000Z</time>
      </trkpt>
      <trkpt lat="44.48098" lon="4.69261">
        <ele>69.994947</ele>
        <time>2021-09-15T09:55:12.000Z</time>
      </trkpt>
      <trkpt lat="44.48095" lon="4.6925">
        <ele>69.981298</ele>
        <time>2021-09-15T09:55:14.000Z</time>
      </trkpt>
      <trkpt lat="44.48087" lon="4.69219">
        <ele>70.423259</ele>
        <time>2021-09-15T09:55:21.000Z</time>
      </trkpt>
      <trkpt lat="44.48079" lon="4.69191">
        <ele>71.078299</ele>
        <time>2021-09-15T09:55:29.000Z</time>
      </trkpt>
      <trkpt lat="44.48073" lon="4.69166">
        <ele>71.644797</ele>
        <time>2021-09-15T09:55:37.000Z</time>
      </trkpt>
      <trkpt lat="44.48067" lon="4.69142">
        <ele>72.187128</ele>
        <time>2021-09-15T09:55:45.000Z</time>
      </trkpt>
      <trkpt lat="44.48061" lon="4.69123">
        <ele>72.627199</ele>
        <time>2021-09-15T09:55:51.000Z</time>
      </trkpt>
      <trkpt lat="44.48056" lon="4.69104">
        <ele>73.062187</ele>
        <time>2021-09-15T09:55:57.000Z</time>
      </trkpt>
      <trkpt lat="44.48047" lon="4.69073">
        <ele>73.772177</ele>
        <time>2021-09-15T09:56:07.000Z</time>
      </trkpt>
      <trkpt lat="44.48041" lon="4.69048">
        <ele>74.333853</ele>
        <time>2021-09-15T09:56:15.000Z</time>
      </trkpt>
      <trkpt lat="44.48044" lon="4.69028">
        <ele>74.777712</ele>
        <time>2021-09-15T09:56:21.000Z</time>
      </trkpt>
      <trkpt lat="44.48052" lon="4.69014">
        <ele>75.16498</ele>
        <time>2021-09-15T09:56:26.000Z</time>
      </trkpt>
      <trkpt lat="44.48068" lon="4.68994">
        <ele>75.757276</ele>
        <time>2021-09-15T09:56:33.000Z</time>
      </trkpt>
      <trkpt lat="44.48089" lon="4.68972">
        <ele>76.461128</ele>
        <time>2021-09-15T09:56:41.000Z</time>
      </trkpt>
      <trkpt lat="44.48104" lon="4.68957">
        <ele>76.940133</ele>
        <time>2021-09-15T09:56:46.000Z</time>
      </trkpt>
      <trkpt lat="44.48129" lon="4.68931">
        <ele>77.748097</ele>
        <time>2021-09-15T09:56:54.000Z</time>
      </trkpt>
      <trkpt lat="44.48153" lon="4.68913">
        <ele>78.488745</ele>
        <time>2021-09-15T09:57:02.000Z</time>
      </trkpt>
      <trkpt lat="44.48171" lon="4.68903">
        <ele>78.99744</ele>
        <time>2021-09-15T09:57:08.000Z</time>
      </trkpt>
      <trkpt lat="44.48195" lon="4.6889">
        <ele>79.69165</ele>
        <time>2021-09-15T09:57:17.000Z</time>
      </trkpt>
      <trkpt lat="44.48221" lon="4.68875">
        <ele>80.122746</ele>
        <time>2021-09-15T09:57:26.000Z</time>
      </trkpt>
      <trkpt lat="44.48245" lon="4.68862">
        <ele>80.122746</ele>
        <time>2021-09-15T09:57:35.000Z</time>
      </trkpt>
      <trkpt lat="44.48261" lon="4.68852">
        <ele>80.122746</ele>
        <time>2021-09-15T09:57:42.000Z</time>
      </trkpt>
      <trkpt lat="44.48277" lon="4.68842">
        <ele>80.122746</ele>
        <time>2021-09-15T09:57:49.000Z</time>
      </trkpt>
      <trkpt lat="44.48295" lon="4.68819">
        <ele>80.122746</ele>
        <time>2021-09-15T09:57:59.000Z</time>
      </trkpt>
      <trkpt lat="44.48305" lon="4.68797">
        <ele>80.122746</ele>
        <time>2021-09-15T09:58:05.000Z</time>
      </trkpt>
      <trkpt lat="44.4832" lon="4.68764">
        <ele>80.122746</ele>
        <time>2021-09-15T09:58:12.000Z</time>
      </trkpt>
      <trkpt lat="44.48324" lon="4.68753">
        <ele>80.122746</ele>
        <time>2021-09-15T09:58:14.000Z</time>
      </trkpt>
      <trkpt lat="44.4833" lon="4.6874">
        <ele>80.122746</ele>
        <time>2021-09-15T09:58:17.000Z</time>
      </trkpt>
      <trkpt lat="44.48341" lon="4.68716">
        <ele>80.122746</ele>
        <time>2021-09-15T09:58:23.000Z</time>
      </trkpt>
      <trkpt lat="44.48348" lon="4.68701">
        <ele>80.122746</ele>
        <time>2021-09-15T09:58:28.000Z</time>
      </trkpt>
      <trkpt lat="44.4835" lon="4.68697">
        <ele>80.122746</ele>
        <time>2021-09-15T09:58:33.000Z</time>
      </trkpt>
      <trkpt lat="44.48354" lon="4.68703">
        <ele>80.122746</ele>
        <time>2021-09-15T09:58:39.000Z</time>
      </trkpt>
      <trkpt lat="44.48358" lon="4.68704">
        <ele>80.122746</ele>
        <time>2021-09-15T09:58:41.000Z</time>
      </trkpt>
      <trkpt lat="44.48361" lon="4.68705">
        <ele>80.122746</ele>
        <time>2021-09-15T09:58:44.000Z</time>
      </trkpt>
      <trkpt lat="44.48362" lon="4.68705">
        <ele>80.122746</ele>
        <time>2021-09-15T09:58:46.000Z</time>
      </trkpt>
      <trkpt lat="44.48362" lon="4.68705">
        <ele>80.122746</ele>
        <time>2021-09-15T09:58:48.000Z</time>
      </trkpt>
      <trkpt lat="44.48369" lon="4.68706">
        <ele>80.122746</ele>
        <time>2021-09-15T09:59:05.000Z</time>
      </trkpt>
      <trkpt lat="44.48373" lon="4.68707">
        <ele>80.122746</ele>
        <time>2021-09-15T09:59:07.000Z</time>
      </trkpt>
      <trkpt lat="44.48386" lon="4.6871">
        <ele>80.122746</ele>
        <time>2021-09-15T09:59:12.000Z</time>
      </trkpt>
      <trkpt lat="44.48401" lon="4.68713">
        <ele>80.122746</ele>
        <time>2021-09-15T09:59:18.000Z</time>
      </trkpt>
      <trkpt lat="44.48401" lon="4.68713">
        <ele>80.122746</ele>
        <time>2021-09-15T09:59:21.000Z</time>
      </trkpt>
    </trkseg>
  </trk>
</gpx>